GFSMA_sfc_wetblb_000.txt.gz
Wetbulb
73.60 75.10 74.62 75.29 76.15 76.77 77.38 75.08 75.35 74.71 75.00 74.44 75.52 73.87 74.63 74.36 74.13 75.27 74.60 76.10 76.98 77.09 77.11 76.97 76.27 75.95 76.22 76.04 75.89 75.06 75.13 75.00 74.09 74.07 74.18 74.13 73.81 73.29 73.09 72.75 72.49 72.60 72.52
75.44 75.20 74.12 74.36 74.75 76.51 75.31 75.77 74.64 74.25 74.05 74.99 74.57 74.20 74.16 74.57 74.48 74.76 74.19 75.22 75.89 77.15 77.37 77.27 76.71 76.07 75.97 75.89 75.92 75.47 74.98 74.14 73.18 73.71 73.80 73.87 73.72 74.17 73.49 72.91 72.87 72.65 72.35
74.82 74.07 73.52 73.23 75.10 76.57 75.56 75.59 75.14 75.00 74.32 74.79 74.74 74.52 74.35 74.11 75.19 73.28 74.97 75.92 74.85 76.72 77.43 77.29 76.91 76.49 75.83 76.26 76.38 75.64 75.29 74.44 73.85 74.02 73.50 73.87 74.09 73.89 73.82 73.72 73.35 72.63 72.63
74.67 75.34 73.57 72.98 74.50 76.11 75.44 74.29 73.34 73.01 73.64 73.96 73.84 73.96 74.10 74.07 74.65 74.52 74.35 73.97 73.86 74.17 76.35 77.28 76.78 76.22 76.34 75.78 76.21 75.60 75.45 74.17 74.07 73.65 73.62 73.75 73.77 74.03 73.71 73.79 73.65 73.60 73.10
74.75 74.16 73.56 73.26 74.39 74.52 75.03 74.86 72.13 72.76 72.17 72.65 73.27 74.04 73.82 73.79 74.69 74.27 74.86 73.58 73.65 74.47 74.49 75.85 76.02 75.62 76.06 75.23 75.67 75.54 74.67 74.30 74.04 73.82 73.53 73.48 73.90 73.67 73.42 73.56 73.52 73.45 73.57
73.75 73.87 73.67 73.67 73.77 72.53 74.03 74.60 72.40 72.25 71.99 71.33 72.75 72.78 72.25 73.98 75.10 74.80 73.60 73.76 74.00 74.62 74.35 73.57 73.44 73.96 75.70 74.84 74.72 75.42 74.67 73.86 74.65 74.40 73.57 73.38 73.75 73.74 73.74 73.52 73.34 73.36 73.56
73.26 73.15 72.75 73.13 74.04 73.16 72.81 73.65 73.53 71.79 71.95 72.38 70.94 70.65 70.30 72.67 73.28 74.07 73.68 73.13 73.10 73.92 74.25 73.66 73.19 72.99 72.72 74.17 74.17 75.62 75.22 74.85 74.22 74.42 74.00 73.01 74.00 73.79 73.64 73.13 72.80 73.20 73.32
72.63 72.48 72.35 72.95 73.09 71.83 72.60 73.18 72.31 71.37 72.20 71.87 69.16 69.04 65.78 69.51 71.68 72.87 73.36 73.40 72.02 73.12 73.32 73.40 72.14 71.93 72.43 72.77 73.90 75.62 75.15 75.12 74.68 74.32 73.20 73.61 73.52 73.46 72.86 72.92 72.59 72.89 72.81
72.06 72.16 72.33 72.60 72.67 73.68 71.71 72.56 72.08 70.39 70.16 71.54 71.36 67.49 64.67 65.38 68.76 72.06 72.29 72.16 71.92 71.94 72.50 72.76 72.76 72.72 72.12 72.78 73.77 74.57 75.19 74.95 75.35 75.27 74.35 74.20 73.56 73.55 72.70 72.55 72.38 72.35 72.67
72.31 72.03 72.06 72.35 73.19 73.29 71.07 72.80 71.76 69.11 69.42 69.30 69.60 70.80 69.58 70.77 66.03 65.52 70.34 71.96 72.39 71.60 71.28 72.03 72.19 72.99 72.81 72.33 73.92 74.10 73.22 73.14 74.48 74.57 74.92 75.00 74.24 73.36 72.76 72.70 72.55 71.94 72.49
72.56 71.73 71.54 72.03 72.97 73.04 72.94 72.02 72.32 70.42 70.11 68.69 67.81 68.53 69.03 69.59 70.26 66.69 65.29 68.04 70.51 71.53 71.75 71.43 72.27 72.50 73.12 72.57 73.09 73.23 73.45 73.05 73.38 73.80 74.39 74.29 74.89 73.85 73.72 73.42 72.82 72.92 72.90
72.15 71.77 71.32 72.01 72.66 72.67 72.06 71.45 72.01 71.44 70.59 69.43 68.82 68.04 67.62 66.85 68.05 67.28 65.80 66.85 67.20 69.26 71.05 71.54 71.59 71.42 72.11 72.65 73.46 73.65 73.61 72.70 72.37 72.46 73.29 74.19 74.36 74.22 73.80 73.40 73.20 72.91 72.93
71.26 71.08 71.37 71.48 71.96 72.81 72.26 72.19 71.49 70.45 70.30 68.98 67.97 68.20 68.74 68.70 69.69 69.55 68.18 66.53 65.77 68.05 68.54 70.78 70.91 71.29 71.94 71.73 72.63 73.54 73.48 72.38 71.74 71.40 71.44 71.40 72.21 72.61 72.82 72.71 72.32 72.86 72.78
71.47 71.82 71.66 71.62 71.79 72.12 72.06 71.21 72.34 70.08 70.83 69.20 69.15 69.69 69.94 70.27 70.53 69.97 68.36 66.71 64.28 65.93 66.86 67.50 70.78 71.23 72.03 72.08 73.14 73.23 71.92 71.58 71.04 70.25 70.17 70.58 71.36 71.45 71.98 72.46 72.86 73.48 73.57
71.92 71.76 71.41 71.11 70.85 71.24 72.28 70.78 70.21 70.14 69.16 69.00 68.40 68.99 67.88 68.10 70.24 69.78 70.92 70.46 66.65 62.26 63.05 65.56 65.90 70.08 70.96 72.31 72.41 71.60 72.02 70.69 71.14 70.08 69.41 68.88 69.45 69.28 71.03 72.25 70.67 68.96 68.25
71.14 71.27 71.49 71.04 70.29 70.13 70.53 70.21 69.38 70.46 68.99 68.92 69.14 69.33 68.67 67.42 69.10 68.97 70.14 70.75 69.80 66.95 62.81 66.44 67.67 69.35 69.99 71.45 72.10 71.24 69.65 68.74 68.27 68.11 66.96 66.58 66.92 67.30 67.13 66.87 66.65 66.54 66.17
69.03 68.15 69.03 71.07 70.64 69.78 69.84 68.85 69.24 69.02 68.64 68.11 69.20 68.55 67.94 68.02 67.64 68.83 69.41 69.68 68.14 68.31 64.61 66.25 67.74 69.89 68.62 68.97 68.69 69.17 67.55 64.19 62.74 63.75 63.22 62.72 62.24 62.30 62.50 62.57 62.22 62.57 62.44
70.64 68.60 68.65 68.17 69.00 68.96 68.80 68.59 68.12 68.46 67.59 67.35 67.59 66.99 66.24 67.76 67.85 68.40 69.04 68.56 68.79 69.13 66.53 64.50 66.43 67.65 67.19 68.47 66.83 66.27 65.30 63.07 60.65 61.87 61.76 61.60 60.83 60.26 59.99 59.52 58.46 57.85 57.35
69.05 69.14 69.27 69.34 68.53 67.26 66.81 65.73 64.93 63.91 64.00 64.52 63.87 63.42 63.37 65.07 65.33 65.31 67.33 67.36 68.47 68.47 68.02 65.71 64.93 67.26 66.14 66.18 66.30 64.84 63.23 63.18 61.39 62.06 61.65 60.08 59.30 58.72 57.83 56.76 55.96 54.82 53.47
68.89 68.27 67.34 67.23 67.44 67.66 66.68 65.00 63.64 63.07 63.22 61.99 61.28 60.74 61.05 61.28 61.53 62.71 64.80 64.80 65.89 65.91 66.03 64.47 64.14 63.31 63.48 65.82 66.15 63.95 61.40 61.30 58.87 60.49 62.08 59.45 58.67 59.15 58.23 57.30 57.13 56.03 53.92
69.44 68.41 66.83 67.58 67.15 66.11 65.58 64.60 63.91 62.84 61.80 60.25 59.30 59.31 59.39 59.95 59.78 60.32 61.28 59.59 60.85 64.39 64.54 63.35 62.82 62.88 63.25 64.25 63.66 63.07 63.62 62.63 59.92 59.23 59.00 58.07 57.66 58.32 57.67 58.59 56.90 56.02 54.29
69.01 68.19 67.40 66.57 66.09 64.70 61.60 62.75 63.87 62.97 61.31 59.66 57.66 56.86 55.92 55.27 56.42 57.49 58.64 59.00 57.83 58.84 62.96 62.85 63.36 62.02 62.33 61.58 61.56 59.79 59.77 57.30 55.65 58.96 57.56 58.25 59.16 58.59 57.47 56.80 56.16 55.51 53.47
67.57 66.64 63.67 63.13 61.74 59.36 56.70 60.34 62.73 64.51 61.82 61.62 60.19 59.75 59.15 57.66 57.51 55.77 58.04 56.87 55.11 56.87 60.22 61.53 60.09 58.67 57.39 58.18 58.81 58.27 56.82 56.73 55.53 56.58 55.96 53.29 57.66 56.30 55.48 54.50 55.68 54.48 52.55
65.04 63.45 62.00 60.85 58.69 52.98 52.78 55.27 60.59 63.60 60.89 57.06 58.07 57.38 55.28 54.08 54.60 57.83 55.68 52.70 50.23 49.64 52.23 52.90 50.94 50.90 51.10 53.14 55.21 56.77 56.07 56.13 56.94 56.79 56.72 50.98 52.45 51.15 52.97 54.20 55.79 53.91 52.66
60.31 59.45 58.76 58.15 56.28 51.55 49.92 51.63 58.70 57.30 54.73 52.58 52.27 52.07 53.33 52.80 53.79 55.92 55.35 52.52 51.19 50.58 52.03 52.28 51.86 51.61 52.03 52.77 53.57 53.86 50.97 50.84 50.76 52.46 53.09 51.15 50.49 50.28 50.41 50.29 53.27 54.35 52.99
57.97 55.85 54.74 54.23 52.72 51.16 47.70 48.38 55.70 55.53 52.73 51.36 49.71 48.82 49.98 49.45 49.43 51.35 56.26 55.22 51.53 51.25 54.09 53.47 52.65 52.31 53.34 51.34 53.75 52.82 51.21 49.04 48.63 48.19 50.90 49.07 49.34 49.16 46.40 52.06 53.04 52.28 51.78

GFSMA_sfc_wetblb_003.txt.gz
Wetbulb
69.79 70.94 71.00 71.96 72.86 73.01 72.77 72.90 72.13 72.31 72.79 72.88 73.33 73.39 73.57 72.68 73.39 73.28 73.35 76.21 76.65 76.90 77.49 76.31 75.96 75.55 75.63 75.48 75.36 75.40 74.84 74.64 74.47 74.31 74.13 73.88 73.74 73.14 73.03 72.83 73.11 72.59 71.55
70.22 71.07 71.11 70.88 71.39 71.69 71.94 72.69 72.50 72.20 71.33 72.44 72.93 72.91 73.17 73.00 73.20 72.28 72.94 72.35 75.69 76.68 77.35 76.98 76.59 76.03 75.72 75.56 75.31 75.28 74.92 75.18 75.06 74.05 74.17 74.57 74.52 74.12 73.25 72.77 72.84 72.67 72.63
71.23 70.61 70.80 69.88 70.58 71.69 72.14 71.51 72.51 71.93 71.61 72.56 72.28 72.58 72.83 73.03 73.02 73.19 73.59 73.22 73.67 76.05 76.75 77.10 76.75 76.79 76.73 76.49 75.80 75.74 75.50 74.99 74.69 74.30 74.44 74.09 74.18 74.11 74.15 73.38 73.10 72.70 72.61
70.91 71.04 70.31 69.89 70.64 71.84 71.73 71.28 70.93 71.00 70.70 71.30 70.57 72.00 72.82 72.81 73.63 72.26 73.36 72.98 72.84 73.47 76.30 77.16 76.93 76.70 76.57 76.27 75.90 76.01 75.70 75.45 74.17 74.12 74.49 74.42 74.41 74.06 73.98 74.17 74.07 73.67 73.42
71.91 70.88 70.51 70.19 70.21 70.52 70.72 71.28 69.74 70.34 69.62 70.49 70.48 70.79 71.34 71.15 71.82 73.30 72.81 73.04 72.80 73.41 74.09 76.20 77.28 76.72 76.45 75.44 75.79 75.59 75.40 74.87 74.30 73.82 74.20 74.15 74.15 73.71 73.70 73.81 73.66 73.64 73.26
72.04 70.37 70.37 70.02 70.39 69.65 69.79 70.78 68.95 68.50 69.75 69.60 71.71 70.52 70.42 71.15 71.71 71.10 71.49 72.66 72.49 73.00 73.69 72.96 74.93 75.45 76.42 76.13 75.97 75.35 75.15 75.32 74.37 74.47 74.37 74.22 74.17 73.76 73.50 73.28 73.40 73.33 73.33
70.20 69.96 69.05 70.05 69.60 69.63 68.93 69.02 69.47 68.39 68.98 70.08 68.27 67.82 68.85 70.10 70.54 71.69 71.16 70.78 72.01 73.05 73.00 73.16 73.12 73.77 74.24 75.50 74.90 74.44 75.25 75.69 74.45 75.05 74.90 74.10 73.82 73.64 73.55 73.28 73.17 72.92 72.99
69.39 69.35 69.22 69.09 69.00 69.25 69.05 69.52 68.95 67.56 68.73 69.17 65.36 65.86 62.70 65.24 69.24 70.96 71.08 70.64 70.21 72.01 72.15 72.66 72.57 72.66 72.33 72.60 72.68 73.99 75.17 75.90 74.84 75.00 74.40 73.17 73.50 73.35 73.31 73.12 72.72 72.32 72.40
68.95 68.51 68.59 68.89 69.20 68.95 68.84 68.91 69.29 67.11 66.54 69.00 68.52 65.12 61.87 60.57 65.66 68.97 69.47 69.85 70.04 70.02 71.07 71.91 72.00 71.95 71.68 72.09 72.71 73.30 74.87 74.43 75.35 75.27 75.15 74.16 73.17 72.92 72.76 72.97 72.57 72.16 72.18
69.14 69.23 68.87 69.31 69.49 69.02 68.57 68.82 69.38 67.67 67.29 65.92 67.31 69.50 67.47 66.86 63.23 62.55 67.09 69.24 69.94 69.40 70.19 70.09 71.32 71.73 71.72 71.84 73.11 73.35 73.52 72.84 73.96 75.37 75.55 75.19 74.28 72.85 72.64 72.92 72.42 71.72 72.23
68.25 69.77 68.91 68.88 68.93 69.02 69.18 68.75 68.10 66.75 66.73 66.12 64.93 65.46 66.17 67.09 67.40 64.67 61.93 64.24 68.08 69.25 69.42 69.92 70.73 71.39 72.09 71.61 71.54 72.48 72.79 72.53 72.78 73.36 73.74 74.32 73.95 73.19 73.22 73.06 72.96 72.79 72.74
67.49 68.84 68.93 68.50 68.59 69.27 68.64 69.50 68.89 67.49 67.13 66.35 65.94 66.51 65.73 65.30 64.54 64.73 62.20 62.49 63.64 66.71 68.71 69.31 69.06 69.78 70.82 71.13 72.62 73.08 73.10 72.40 71.85 71.84 72.36 72.52 73.56 73.79 73.47 73.38 73.08 72.56 72.26
66.29 67.24 67.67 67.56 68.23 69.09 68.53 69.02 69.14 68.19 67.51 66.93 66.48 66.61 66.97 66.74 67.42 66.04 64.35 63.31 63.23 65.95 67.66 69.34 69.56 69.67 70.04 69.99 71.40 73.13 73.75 72.17 71.09 70.70 70.77 70.70 71.87 72.22 72.98 72.82 73.02 73.18 73.10
65.99 67.26 67.60 68.19 68.79 69.13 68.62 68.89 68.53 67.33 67.08 66.84 66.19 67.22 67.26 67.98 68.23 67.31 65.21 63.39 60.61 62.43 64.06 64.71 68.03 68.32 69.00 69.63 70.46 72.80 70.75 71.38 70.52 69.67 69.56 69.71 70.37 70.50 70.15 70.60 70.54 71.52 71.71
67.13 67.47 68.15 68.10 68.48 68.12 68.07 67.60 67.31 67.87 67.94 66.93 67.02 67.72 67.67 66.72 66.42 67.94 67.20 64.96 63.07 59.17 60.89 64.28 65.19 68.87 69.63 70.25 70.69 70.93 69.04 69.82 70.38 69.19 67.60 67.38 68.44 68.66 67.69 69.91 70.39 70.43 69.00
67.18 67.22 67.35 67.24 67.40 67.56 67.92 67.72 67.11 67.96 67.20 66.86 66.93 66.43 65.45 64.54 65.25 67.54 66.81 66.11 66.30 62.77 59.44 63.74 65.82 67.72 69.11 71.36 71.49 69.43 69.04 67.94 67.13 66.90 65.67 65.35 66.13 66.09 66.89 66.95 66.32 66.08 65.84
67.36 67.18 67.09 67.16 66.73 66.62 67.07 67.36 67.20 67.56 67.04 66.37 66.55 66.64 66.48 66.75 66.82 67.00 66.53 66.60 64.92 64.94 61.37 63.76 65.55 67.51 67.54 67.44 67.87 67.42 66.10 63.72 63.68 64.80 64.18 63.68 63.14 63.34 63.28 63.07 62.92 62.94 62.62
66.77 66.68 67.17 67.00 66.23 66.41 66.63 66.68 66.73 66.77 66.39 65.99 65.92 65.19 65.42 66.51 64.72 65.25 66.43 65.73 66.05 65.60 63.28 62.07 64.55 64.98 65.62 66.50 65.45 63.10 64.63 63.82 61.49 62.90 62.31 62.07 61.48 60.90 60.37 59.48 58.77 58.23 57.72
65.99 66.40 66.95 65.97 65.94 65.38 64.51 63.55 63.48 62.90 62.07 61.32 61.92 62.18 62.87 63.96 63.23 63.83 64.17 64.19 65.27 65.49 64.86 63.97 63.25 63.91 63.50 64.41 61.67 60.70 59.99 59.56 62.56 62.07 60.91 60.74 60.28 59.11 57.53 56.75 56.22 54.74 53.03
65.30 65.60 66.37 65.72 65.13 64.37 63.81 63.84 63.67 62.33 61.10 60.18 60.21 59.95 59.71 60.33 61.02 62.35 60.84 60.25 62.10 63.68 63.94 63.27 61.94 61.95 62.27 63.69 62.11 59.21 56.98 56.04 56.06 62.00 59.80 59.16 59.31 59.27 58.33 57.05 56.67 54.79 52.72
64.96 65.25 64.82 63.93 63.92 64.19 63.98 62.92 62.45 60.78 59.38 58.18 58.10 57.64 58.09 59.78 59.62 59.50 58.26 57.64 59.83 61.16 63.17 62.20 61.81 61.91 62.03 62.08 61.04 60.38 57.52 57.18 55.06 56.24 55.56 55.14 55.22 55.03 56.53 57.88 57.10 55.54 53.93
64.79 64.53 62.43 59.84 58.34 59.78 61.70 62.20 62.21 60.64 59.04 57.42 55.21 54.64 55.02 56.08 58.49 58.10 57.18 57.76 58.68 58.32 61.02 61.65 61.00 58.22 57.16 58.73 58.93 58.53 56.24 54.41 53.02 53.98 53.53 53.40 54.94 54.31 54.71 52.43 56.17 54.92 53.17
61.43 59.80 58.53 54.34 51.48 51.72 56.34 60.20 61.58 60.24 59.38 57.97 57.66 58.10 58.17 57.95 56.60 54.72 52.65 52.69 53.54 55.62 56.59 57.64 54.23 55.25 52.97 54.68 56.89 55.54 54.26 53.15 51.06 51.93 51.70 49.38 50.90 50.64 52.94 54.00 56.00 54.26 52.61
57.83 56.67 54.85 51.59 49.34 49.95 53.21 58.54 57.75 53.65 51.64 51.39 52.66 52.57 51.40 52.11 54.36 51.57 48.98 48.42 48.63 49.17 49.02 50.20 50.40 49.29 49.79 51.05 51.95 54.02 53.67 54.33 53.91 52.01 50.88 49.09 49.40 46.53 48.29 50.29 56.00 54.29 52.82
52.44 51.03 50.47 50.80 49.47 48.32 50.68 53.61 52.76 50.57 48.86 47.71 49.51 51.03 50.69 52.57 54.54 53.01 50.28 49.58 49.77 50.05 52.68 52.84 52.60 52.47 52.78 52.85 52.25 50.34 48.39 47.64 47.38 49.29 48.85 48.05 48.71 48.19 48.56 47.89 51.20 54.99 53.23
50.75 49.59 48.52 48.06 49.46 47.58 48.00 49.79 51.64 50.09 48.03 47.99 47.90 47.47 50.26 49.29 49.46 51.30 52.78 51.19 49.95 50.30 51.18 51.45 50.97 51.33 50.29 51.54 52.17 49.92 49.09 46.32 45.91 46.31 48.03 47.49 47.82 47.16 44.42 48.80 49.62 48.97 49.74

GFSMA_sfc_wetblb_006.txt.gz
Wetbulb
70.94 71.65 71.57 71.52 71.78 72.22 72.07 71.53 71.84 71.73 72.78 73.23 73.46 72.85 72.48 72.47 72.37 72.09 71.89 74.79 76.14 76.77 77.06 76.34 75.68 75.61 75.61 75.89 75.84 74.69 74.41 74.46 73.92 74.13 74.05 73.89 73.38 72.88 72.93 73.07 72.20 71.71 71.62
69.16 69.56 70.38 70.13 70.58 70.91 71.18 71.64 70.94 71.09 71.39 71.23 72.18 72.56 72.48 72.10 72.55 72.16 72.22 72.77 75.44 76.60 76.65 76.98 76.24 75.55 75.37 75.33 75.38 75.07 74.82 74.80 74.56 74.19 74.25 74.02 74.20 73.75 73.32 72.84 73.10 72.73 71.81
68.77 69.29 69.86 69.68 69.79 70.37 70.56 70.89 70.86 70.84 70.64 71.79 71.68 71.74 72.18 72.50 72.01 72.35 72.41 71.88 72.44 76.07 76.88 77.15 76.79 76.49 76.35 75.84 75.16 75.31 75.52 74.90 74.65 74.84 74.47 73.94 73.81 73.99 74.02 73.60 73.15 72.93 72.43
70.13 70.08 69.41 69.59 69.63 69.86 70.31 69.77 69.61 69.77 69.70 70.64 70.57 70.75 71.45 70.90 71.97 72.47 71.83 72.10 72.29 72.89 76.20 76.57 77.00 76.65 76.65 76.37 75.71 75.63 75.90 75.34 74.42 74.34 74.34 74.29 73.79 73.78 74.03 73.97 73.90 73.52 73.39
70.44 69.59 69.79 69.29 69.31 69.72 69.39 69.77 68.80 68.86 68.21 69.00 69.63 70.26 70.51 70.92 71.93 73.03 72.18 72.22 72.16 71.87 72.06 75.89 76.50 76.30 76.57 76.09 75.69 75.92 75.79 75.45 74.75 73.72 74.15 74.09 74.04 73.81 73.45 73.45 73.76 73.43 73.38
71.00 69.43 68.66 68.80 69.02 68.48 68.73 69.21 67.81 68.57 67.85 68.17 70.28 70.02 70.50 69.86 70.75 70.77 71.86 72.40 72.05 72.60 72.80 72.76 74.76 75.50 76.47 76.18 75.23 76.01 74.93 72.93 74.79 74.35 73.77 73.60 73.57 73.68 73.35 73.32 73.31 73.57 73.21
71.23 69.97 68.87 68.60 68.17 68.48 68.14 69.07 67.47 66.12 66.61 68.12 66.25 66.53 68.12 69.70 70.09 69.95 70.28 71.47 71.61 71.69 72.33 72.37 72.33 73.10 74.21 75.80 74.62 74.77 75.79 74.47 74.06 74.57 74.17 73.81 73.20 73.43 73.37 73.44 72.93 73.03 72.90
69.27 68.77 67.92 67.69 67.74 67.99 67.36 68.08 67.76 66.63 66.48 67.83 64.54 63.80 62.20 64.20 67.61 69.41 70.24 70.18 70.45 71.79 72.00 71.49 71.72 71.99 72.31 72.41 72.79 74.47 73.93 74.97 74.81 74.97 74.70 73.79 73.45 72.98 72.64 72.58 71.96 72.45 72.68
68.48 68.29 68.19 67.29 67.24 68.12 68.10 68.19 68.08 66.64 65.39 67.06 66.64 63.79 60.60 59.78 63.52 67.36 68.93 69.59 70.01 69.36 70.67 71.22 71.90 71.63 71.56 71.86 72.43 72.91 73.35 73.61 74.60 75.64 75.00 74.22 72.94 72.53 72.66 72.17 72.11 71.68 71.93
68.01 68.28 67.78 67.69 67.58 67.67 67.20 67.94 68.69 67.40 66.09 64.99 66.22 68.28 65.70 64.55 61.44 59.96 65.30 67.90 69.29 68.93 69.16 70.31 70.90 71.14 71.38 71.23 72.22 72.43 72.59 72.70 73.72 75.32 75.22 75.12 73.86 72.64 72.48 72.31 72.22 71.83 71.44
66.62 67.95 67.90 67.45 67.92 67.89 67.51 67.81 67.42 66.27 66.25 65.33 64.23 64.39 64.83 65.24 64.57 62.45 61.03 63.71 67.72 69.00 69.32 70.08 70.32 70.56 71.20 71.18 71.01 71.74 72.69 72.41 72.67 73.26 73.89 74.09 73.85 73.05 72.83 72.60 72.83 72.28 71.90
65.53 66.98 68.08 67.33 68.14 67.87 67.90 68.26 67.83 66.11 66.48 65.15 64.70 64.66 64.48 63.58 63.27 63.32 62.14 63.20 63.44 65.31 68.30 69.09 69.07 69.81 70.55 70.89 72.14 72.55 72.91 72.36 71.51 71.59 71.72 72.02 72.58 72.31 72.41 72.19 72.60 72.73 72.28
64.96 66.12 66.88 66.52 66.72 67.76 68.05 68.19 67.67 66.54 65.98 65.38 64.66 64.88 65.42 65.24 65.98 64.76 63.86 63.27 62.67 64.82 66.43 67.83 68.64 68.82 69.92 69.97 70.97 73.12 73.20 72.08 70.60 69.74 69.82 70.45 70.97 71.76 72.68 72.47 72.62 73.65 72.95
64.86 66.04 66.59 66.62 67.18 68.05 67.76 68.01 68.62 68.05 67.08 66.20 65.99 65.51 65.59 66.34 66.83 67.13 65.23 63.49 60.76 62.13 62.88 64.57 66.92 68.60 68.89 69.10 69.69 71.44 70.62 70.08 69.44 68.30 67.90 67.87 68.39 69.47 69.59 70.29 70.85 70.94 70.85
66.39 66.02 66.60 66.73 67.13 67.78 67.40 67.40 67.28 66.67 66.49 65.89 65.66 66.43 66.29 66.72 66.72 67.28 66.72 65.65 63.43 59.19 59.82 63.40 64.00 67.69 69.27 69.81 70.22 69.67 69.96 69.11 69.34 67.69 67.51 66.59 66.22 66.61 66.79 68.05 68.49 68.03 67.76
65.97 65.99 65.93 66.22 66.37 66.68 66.71 65.80 65.36 66.32 66.04 65.86 66.34 65.98 65.72 65.41 65.95 66.49 66.81 66.09 65.71 63.53 60.22 63.60 65.67 66.98 68.23 70.68 70.76 68.91 69.54 68.79 67.83 67.08 66.10 65.20 65.54 65.97 66.27 66.57 65.92 65.61 65.70
65.13 65.95 66.20 65.40 65.22 65.37 65.66 65.74 65.49 66.58 65.72 65.95 66.02 65.80 64.52 64.78 64.88 66.27 66.18 65.77 65.40 64.65 61.82 63.90 65.10 66.43 66.12 66.79 66.83 65.87 66.00 64.82 64.46 65.44 65.00 64.55 64.31 64.10 63.88 63.80 63.52 63.33 63.18
65.85 66.29 66.34 65.91 64.53 65.12 65.21 65.64 66.18 66.14 65.69 65.28 65.53 66.13 64.93 66.82 65.16 64.94 64.85 64.79 65.18 65.49 63.50 62.06 63.95 64.32 64.88 65.57 65.84 63.36 64.27 63.16 62.97 62.89 62.85 62.39 61.60 60.81 59.98 59.48 59.23 58.73 58.40
64.78 65.60 65.03 64.31 63.85 63.56 63.22 62.77 62.22 61.48 61.76 62.12 62.27 62.79 63.79 63.89 63.09 62.80 62.24 62.30 63.61 64.58 64.13 63.09 62.10 63.28 63.39 63.70 61.02 59.88 58.33 60.49 61.59 61.71 61.55 61.07 59.84 58.38 57.17 56.05 55.00 53.67 53.02
64.67 64.47 63.88 63.64 63.41 63.60 63.65 63.10 62.10 61.18 60.47 60.10 60.04 60.30 60.39 60.78 61.40 60.15 59.90 60.47 61.96 62.21 62.73 62.40 61.54 61.70 62.22 61.82 60.75 58.17 55.04 56.52 58.64 59.40 59.60 59.11 58.23 58.01 56.86 55.93 55.21 54.01 52.27
63.88 63.05 62.45 62.05 62.53 62.89 62.77 61.22 60.93 60.43 59.37 57.85 57.64 59.25 59.56 60.56 60.79 60.28 59.47 59.43 60.46 61.22 61.56 61.52 61.18 61.34 61.14 61.22 59.52 59.43 55.66 55.84 54.69 57.23 56.72 55.48 55.41 54.93 55.39 56.41 56.23 55.22 53.50
60.45 58.58 56.06 56.30 58.35 60.57 60.10 60.37 59.91 58.01 56.82 55.56 54.79 54.82 56.30 57.64 57.94 57.69 58.38 58.93 59.32 60.14 60.97 60.72 60.50 57.69 56.44 57.75 57.99 58.65 56.36 52.98 50.88 52.65 54.08 53.15 54.91 53.81 54.47 53.22 55.74 55.34 53.41
56.30 53.48 51.88 51.73 51.78 55.09 58.40 58.76 60.04 58.19 57.13 57.05 57.64 56.70 57.04 57.42 55.25 52.22 53.02 53.13 53.85 55.93 58.29 60.41 55.18 53.52 51.93 53.87 55.78 54.45 53.70 54.31 52.80 52.45 50.70 47.24 49.51 51.63 53.05 53.54 55.97 54.19 52.87
54.33 52.78 50.90 49.13 49.74 51.74 55.33 54.01 54.37 51.65 50.24 50.25 51.53 52.65 53.95 54.75 53.29 48.61 48.25 48.74 49.42 49.12 49.43 51.21 51.83 50.99 50.89 51.61 53.42 53.46 53.34 52.47 50.95 49.45 50.55 46.91 47.69 46.41 49.91 52.26 56.28 54.92 53.29
48.83 47.80 48.47 49.47 49.94 51.30 51.77 51.38 50.77 49.81 48.07 46.39 48.52 50.86 51.27 50.43 52.26 52.04 50.59 49.55 49.38 50.13 52.67 52.96 52.84 52.48 52.22 52.11 51.45 48.17 45.67 46.87 45.17 47.00 46.98 46.32 46.62 47.06 47.79 46.60 50.79 55.40 53.44
48.17 47.80 47.60 48.75 49.57 48.57 48.90 48.95 49.84 49.28 46.36 46.30 47.00 47.40 50.60 49.31 49.02 49.69 49.98 48.92 48.52 49.43 49.66 50.13 49.85 48.87 49.96 50.85 51.54 48.24 47.85 46.23 46.04 46.00 47.72 47.44 47.77 47.10 45.23 49.02 48.08 48.23 50.05

GFSMA_sfc_wetblb_009.txt.gz
Wetbulb
70.69 71.14 71.16 71.25 71.25 71.81 71.70 71.43 71.74 71.74 71.89 72.18 72.97 71.89 71.64 71.52 71.64 71.45 72.35 75.24 76.33 76.13 76.70 76.52 76.01 75.76 75.68 75.86 75.38 74.53 74.44 73.98 73.81 73.68 73.50 73.60 73.33 73.38 73.11 72.40 71.43 71.58 71.39
69.56 69.42 69.47 70.05 70.32 70.68 70.71 71.09 70.73 70.75 70.62 71.36 71.71 72.07 70.86 71.82 71.97 71.21 71.22 71.36 75.88 75.70 76.53 76.78 76.28 75.82 75.49 75.51 75.61 75.05 74.79 74.39 74.42 74.11 74.02 73.64 73.74 73.57 73.16 73.11 72.33 71.93 71.82
68.86 68.88 68.77 69.15 69.62 69.76 69.80 70.25 70.23 70.12 69.92 70.23 70.59 71.70 71.33 71.66 71.81 71.76 71.53 71.31 72.55 75.59 76.43 76.56 76.79 76.28 76.35 75.49 75.36 75.56 75.31 75.11 75.06 74.79 74.39 73.96 73.54 73.83 73.09 73.69 72.87 72.57 72.45
68.45 67.93 68.02 68.95 69.35 69.29 69.08 68.72 68.93 68.93 68.74 68.88 69.65 70.37 71.19 71.08 71.65 71.74 71.90 71.75 71.82 71.74 74.06 75.93 76.22 76.39 76.34 75.88 75.52 75.54 75.74 75.14 75.04 74.59 74.63 74.29 73.92 73.51 73.21 73.99 73.87 72.74 72.57
69.53 69.13 68.95 68.77 69.08 68.47 68.34 68.43 67.86 68.14 67.82 68.14 68.45 69.35 69.81 69.51 70.52 72.16 71.64 71.45 71.43 71.66 71.70 74.36 75.43 75.89 76.03 75.95 75.96 76.35 76.09 75.56 75.10 74.79 74.69 74.44 74.39 73.73 73.26 73.08 73.40 73.41 72.80
70.20 69.22 69.22 69.11 68.59 67.64 67.66 67.98 67.28 67.91 67.12 67.48 69.35 69.64 69.49 69.65 70.42 70.96 71.08 71.76 71.62 71.66 71.59 71.55 72.58 74.00 75.76 76.46 75.99 76.03 76.34 76.37 75.74 74.76 74.19 73.42 73.44 73.16 73.30 72.92 72.82 72.92 72.94
69.87 69.06 68.45 68.13 67.66 67.59 67.89 67.55 66.51 65.90 66.46 67.23 65.08 65.30 66.35 68.18 69.15 69.99 70.73 71.43 71.35 71.85 71.40 71.61 71.99 73.47 74.09 75.46 74.96 75.29 76.01 76.59 74.64 74.24 74.61 73.32 72.87 72.70 72.74 73.17 72.91 72.61 72.71
69.55 69.40 68.09 67.82 67.93 67.30 66.28 67.10 66.67 65.22 65.14 66.78 63.94 62.67 61.32 63.73 66.34 68.36 69.58 70.14 70.52 71.06 71.17 71.86 71.67 71.76 71.61 72.29 73.35 74.79 75.04 74.61 74.76 73.81 74.14 73.68 73.08 72.76 72.05 72.80 72.39 71.96 72.00
68.07 68.25 68.20 67.23 67.05 67.44 66.67 66.74 66.99 65.37 64.61 65.74 65.49 62.71 59.41 58.64 61.82 66.11 67.89 69.35 69.24 69.60 70.73 71.22 71.17 71.30 71.55 71.71 72.76 72.97 73.73 73.25 73.94 74.51 73.68 74.16 73.24 72.31 72.43 72.14 71.96 71.33 71.55
67.06 67.57 67.01 66.99 66.40 67.01 66.98 67.30 67.78 66.24 64.71 63.96 65.40 66.21 64.22 62.84 59.49 59.32 63.48 67.41 68.93 68.86 68.79 69.51 70.68 71.17 70.86 71.13 72.45 72.71 72.59 71.97 72.77 73.17 73.76 74.46 73.50 72.48 72.12 71.90 72.10 71.79 71.32
65.56 66.90 66.90 66.58 66.33 66.39 66.76 66.98 66.78 65.81 65.83 64.69 64.97 64.15 64.03 64.28 63.02 60.82 58.09 61.32 65.77 68.13 68.90 69.15 69.74 70.17 70.57 70.42 70.33 71.16 72.44 71.71 71.69 72.58 73.32 73.49 73.64 73.07 72.87 72.67 72.92 73.09 72.49
64.32 65.39 66.88 66.45 66.49 66.85 66.46 66.49 66.92 66.56 65.99 64.89 64.84 63.88 63.95 63.23 62.36 61.51 60.27 60.68 61.45 64.46 68.17 68.77 69.24 69.51 69.88 70.26 71.56 72.09 72.12 71.96 71.36 71.36 71.69 72.23 72.33 72.65 73.30 71.76 71.51 71.86 72.08
64.00 64.22 65.57 65.74 65.85 66.78 66.87 66.87 66.08 65.83 65.65 65.00 64.66 63.88 64.35 64.27 64.48 63.52 62.17 61.00 60.73 63.62 66.14 67.71 68.72 68.93 69.43 69.72 70.62 72.76 72.92 71.54 70.39 69.10 69.44 70.14 70.79 71.47 71.89 71.97 72.03 72.01 72.00
63.72 64.90 65.61 65.86 66.24 66.85 67.01 66.85 66.69 66.28 65.65 65.47 64.17 64.19 64.55 65.21 65.52 65.21 63.78 62.02 59.83 60.50 62.73 63.58 65.74 67.64 68.16 68.83 69.80 71.56 70.83 69.91 69.42 67.95 67.50 67.84 68.32 69.19 70.23 70.61 70.88 70.93 71.37
66.01 65.45 65.67 65.31 65.68 66.47 66.58 66.15 67.05 68.09 66.91 64.77 64.46 64.44 64.80 65.74 66.33 66.60 65.63 64.89 62.44 59.39 59.93 62.86 63.19 66.49 67.18 68.43 69.27 69.60 68.54 68.90 69.49 67.91 66.57 66.14 66.76 66.71 67.32 67.93 68.02 67.17 67.50
64.93 65.32 65.31 65.55 65.50 65.88 65.99 66.32 66.67 66.65 66.15 65.51 64.65 65.00 65.36 65.37 65.76 66.12 66.08 65.60 65.20 63.29 60.34 62.50 63.77 65.90 68.05 69.47 69.51 68.38 68.54 67.87 67.46 67.30 66.75 65.35 65.06 65.22 65.96 66.51 66.29 65.95 66.04
64.88 65.31 64.64 64.36 64.38 64.34 64.72 64.36 64.07 65.56 65.83 65.19 64.66 65.06 64.65 65.24 64.90 65.37 65.83 64.84 64.66 64.36 61.55 63.19 65.11 65.85 66.37 66.19 65.56 64.84 64.74 64.14 64.07 65.19 65.33 64.83 63.88 64.06 64.08 64.25 64.14 63.91 63.76
64.79 65.61 65.27 63.84 64.07 64.34 64.61 64.90 66.15 66.38 65.65 64.84 65.19 63.67 64.36 66.18 65.11 65.35 64.85 64.56 64.16 64.66 63.31 61.29 63.75 63.99 65.03 65.17 64.36 63.13 62.93 63.12 62.28 63.19 62.89 62.52 61.92 61.27 60.66 60.35 59.94 59.40 59.16
63.73 63.49 63.42 63.43 62.59 62.02 61.66 61.62 62.26 62.22 62.15 62.76 63.72 65.00 64.43 64.77 63.81 62.75 62.70 62.66 62.68 63.95 63.88 62.82 61.70 62.70 63.67 62.51 59.38 58.00 58.86 59.88 60.36 62.15 61.48 60.74 59.88 59.03 57.78 56.81 56.11 54.68 53.78
62.31 62.01 62.19 62.31 62.45 62.76 62.34 61.81 61.25 60.39 59.80 59.70 60.18 60.59 61.04 61.57 60.41 60.32 61.19 61.37 61.89 62.88 62.84 61.96 61.30 61.48 61.57 60.77 59.70 56.67 54.68 57.50 56.93 58.58 59.42 58.61 58.00 57.53 56.63 56.05 55.23 54.01 52.13
60.20 59.64 59.92 60.46 61.28 61.57 61.73 60.90 60.92 59.79 58.67 57.99 58.70 59.90 60.80 61.85 61.57 61.42 60.62 60.42 61.15 60.26 61.01 60.89 60.37 60.51 60.59 60.13 58.66 58.55 55.18 55.51 55.02 57.48 55.99 55.19 54.11 53.60 53.69 55.53 55.94 55.08 53.35
55.87 56.05 56.33 58.62 59.70 60.40 58.53 59.28 58.11 56.21 55.95 56.03 55.54 56.23 56.59 57.03 57.91 58.75 59.01 58.64 58.67 59.84 59.54 59.30 59.74 58.82 56.93 56.91 57.07 58.76 55.00 54.07 52.45 53.70 54.70 54.10 55.75 55.23 55.38 54.57 55.87 55.01 53.27
52.44 51.75 53.35 55.59 56.47 57.83 57.01 57.53 58.69 56.73 57.04 57.23 56.53 56.75 57.09 56.19 53.62 52.02 52.07 52.24 52.45 54.06 56.20 59.08 56.01 52.97 53.05 54.12 55.81 55.22 55.10 54.48 53.12 52.74 53.58 51.26 52.69 53.35 53.37 52.99 55.70 54.22 52.83
50.17 48.92 49.10 50.54 54.60 55.57 53.67 53.22 53.76 50.64 49.02 49.45 50.75 54.07 54.72 51.56 50.16 50.05 49.91 49.27 49.15 50.53 50.68 51.18 50.90 50.83 50.99 51.63 52.93 53.86 54.31 51.61 51.32 50.21 50.48 47.94 48.96 48.31 51.78 52.73 55.97 54.91 53.37
47.25 46.94 49.28 51.06 52.49 51.07 50.58 50.67 49.53 47.20 46.43 46.21 48.06 50.47 48.34 48.05 52.45 52.14 49.95 48.94 49.20 48.77 51.68 52.06 52.10 51.92 52.02 52.04 51.40 47.96 45.93 46.23 45.71 46.68 48.68 47.26 47.46 47.21 47.32 47.04 49.15 53.10 53.84
47.01 47.67 48.05 49.57 51.01 49.82 48.53 48.68 49.48 48.29 45.60 46.16 46.09 46.81 50.87 48.31 48.92 49.12 49.11 49.00 48.17 48.75 49.06 48.79 48.26 48.59 49.07 49.43 51.33 48.57 48.63 46.47 46.23 45.96 48.71 47.76 47.65 47.58 45.95 49.58 47.42 46.35 48.43

GFSMA_sfc_wetblb_012.txt.gz
Wetbulb
72.44 72.73 73.02 72.99 72.81 73.19 73.32 73.21 73.37 73.76 73.67 73.40 73.89 73.23 73.11 72.95 72.64 73.27 73.98 76.21 76.17 76.09 77.09 76.34 76.30 75.77 75.22 75.41 75.49 74.75 74.81 74.46 73.98 74.04 73.39 73.81 73.65 73.29 72.54 72.07 72.48 71.43 71.07
71.90 71.83 71.43 71.38 71.82 72.73 72.85 72.78 72.78 72.47 72.61 72.95 72.92 73.31 72.99 73.13 72.72 72.69 73.11 73.74 75.45 75.97 75.96 76.80 76.40 76.11 75.71 75.50 75.24 75.24 74.77 74.64 74.61 74.70 73.97 74.40 74.26 73.96 73.13 72.97 72.20 71.58 71.63
70.50 70.00 70.86 70.83 71.42 71.87 72.03 72.12 72.04 71.84 71.75 71.66 71.89 72.51 72.72 72.69 72.96 72.82 72.86 73.06 74.07 75.52 76.29 76.55 76.47 76.48 76.46 75.91 75.49 75.27 75.13 74.98 74.87 74.48 74.43 74.33 74.00 73.63 74.00 73.83 72.86 72.78 72.86
70.14 70.02 70.05 70.12 71.11 71.26 71.15 70.72 71.26 70.61 70.64 70.85 70.79 71.70 72.89 72.56 72.57 72.37 72.80 72.61 73.06 73.27 74.92 75.51 75.87 75.75 76.28 75.82 75.81 75.84 75.43 75.08 74.78 74.48 74.07 74.15 74.25 73.90 73.75 73.88 73.91 73.26 72.79
70.31 69.34 69.23 69.66 70.44 70.28 70.23 70.31 69.63 70.19 69.68 70.15 70.24 70.64 71.57 71.88 72.04 72.68 72.50 72.71 72.71 72.86 73.01 74.25 74.92 74.72 75.79 76.02 76.16 76.18 76.10 75.48 75.00 74.79 74.70 74.40 74.33 73.90 73.37 73.50 73.57 73.65 73.16
69.95 69.93 70.02 69.59 70.25 70.04 69.42 69.33 69.25 69.23 69.81 69.55 69.83 70.63 70.58 71.50 70.88 72.08 72.31 72.36 72.68 72.79 72.75 73.14 74.15 74.25 75.27 76.29 76.39 76.37 76.02 75.35 75.40 75.14 74.77 74.53 73.83 73.89 73.44 73.17 73.02 73.07 73.11
69.79 69.75 69.06 69.19 69.64 69.62 69.32 69.01 69.10 68.92 68.60 69.05 68.33 66.59 68.24 69.77 71.09 71.54 72.59 72.16 72.38 72.41 72.65 73.19 73.26 74.06 73.76 74.65 75.35 75.65 76.26 76.15 74.90 74.70 74.11 73.24 72.69 72.39 72.90 72.61 72.20 72.21 72.81
69.84 70.13 69.10 68.51 68.22 68.88 68.33 68.65 68.47 67.45 67.59 68.69 66.31 65.50 65.09 67.33 69.25 70.54 71.42 71.72 72.25 72.99 72.26 72.55 73.01 73.51 74.16 74.30 75.10 74.98 75.33 75.93 75.59 74.68 74.05 73.01 72.56 72.37 72.51 72.34 72.18 71.92 71.77
68.54 68.72 69.17 68.58 67.97 68.74 67.86 68.20 68.62 68.04 66.76 67.50 67.46 65.50 62.53 62.51 64.79 68.35 69.55 70.74 71.43 71.68 71.96 72.89 73.06 73.28 73.55 73.42 73.74 73.88 73.69 73.36 74.90 74.69 73.41 72.96 72.39 72.15 72.44 72.08 71.98 71.56 71.17
67.38 68.64 68.42 68.49 68.04 67.81 68.24 68.08 68.85 68.58 67.79 66.67 67.25 67.43 66.63 65.67 63.88 64.40 67.12 69.40 71.06 70.75 71.33 72.34 72.76 72.89 73.10 73.49 73.50 73.46 72.68 72.10 72.79 73.52 72.48 73.56 72.71 72.19 72.16 72.09 72.07 71.66 71.34
66.58 67.05 68.24 67.86 67.59 67.70 68.56 68.54 68.31 68.20 68.18 67.28 67.03 66.75 66.87 66.83 65.92 64.17 62.90 65.38 68.55 70.42 71.13 71.16 71.86 72.70 73.01 73.19 73.19 72.80 72.35 72.06 72.22 72.29 72.52 72.94 73.11 73.18 73.01 72.88 72.66 72.74 72.64
66.21 66.47 67.36 67.68 68.04 67.84 67.91 68.31 69.03 68.42 68.04 67.86 67.39 67.59 66.87 66.38 65.95 65.37 64.01 64.05 64.63 66.75 68.41 71.00 70.93 71.24 72.35 72.26 72.42 72.24 72.34 71.88 71.29 70.96 71.22 72.11 73.13 72.81 73.21 73.90 72.81 72.62 72.52
65.83 66.33 66.87 67.30 67.50 68.04 68.29 68.31 68.27 68.40 67.93 67.14 66.74 66.85 66.80 67.52 67.79 66.65 65.89 64.37 64.59 66.45 67.70 69.97 71.06 71.49 71.45 71.96 71.91 72.87 72.97 71.71 70.33 69.23 69.48 70.21 70.86 71.26 71.69 72.05 72.68 72.44 72.14
65.28 66.74 67.48 67.61 67.79 68.15 68.24 68.22 68.47 68.27 67.86 67.57 66.76 66.51 66.35 67.16 68.13 67.70 66.92 65.46 63.55 63.92 65.80 66.94 68.95 70.29 71.05 71.22 71.52 71.54 72.73 70.39 69.56 68.33 67.63 67.79 68.47 69.25 69.97 70.73 70.50 70.60 70.71
66.80 67.01 67.16 67.32 67.59 68.06 68.40 68.22 68.22 67.77 67.84 67.63 67.59 66.53 66.73 67.43 68.02 68.63 68.13 67.57 65.84 62.66 63.16 66.13 66.79 69.45 70.27 70.91 71.08 71.78 71.70 69.34 69.45 67.52 66.29 66.41 66.66 67.05 67.43 67.79 68.13 68.32 68.28
66.44 66.94 67.01 67.34 67.57 67.88 68.11 68.02 67.97 68.13 67.50 67.00 67.18 66.46 66.76 67.64 68.13 68.33 67.97 67.55 67.21 65.63 62.83 65.26 64.97 67.14 69.73 69.03 69.14 69.10 69.11 66.76 66.49 66.71 66.74 66.21 65.83 65.30 65.68 66.32 66.62 66.48 66.57
66.31 65.58 65.29 65.73 66.29 66.90 67.50 67.23 66.56 66.63 66.09 66.40 66.40 66.58 66.54 67.30 67.43 67.34 67.16 65.78 65.83 65.24 62.54 63.84 66.00 66.46 67.10 67.01 65.54 64.91 64.81 64.97 65.17 64.73 65.13 64.89 64.12 64.30 64.58 64.79 64.91 65.01 65.17
65.39 64.55 64.87 64.21 64.62 65.40 66.25 66.13 66.32 66.65 65.89 65.64 66.24 66.42 66.33 67.07 66.19 65.96 65.71 65.12 65.10 65.44 63.77 62.11 64.21 64.39 64.69 63.91 62.42 60.81 61.99 62.33 62.46 63.29 62.92 62.61 62.34 62.20 62.14 61.95 60.97 60.18 59.95
63.69 63.63 63.85 63.65 63.22 62.93 63.10 63.19 63.39 62.76 63.15 63.61 65.26 64.64 65.46 65.51 64.37 64.60 64.23 63.35 63.87 64.80 64.42 63.31 62.29 63.87 63.51 61.61 58.79 58.56 59.07 58.75 59.89 61.63 60.81 60.46 59.92 59.36 58.56 58.17 57.21 55.91 55.49
62.72 62.68 62.76 63.00 62.99 62.91 62.72 62.01 61.52 60.83 60.70 60.54 61.06 61.25 61.83 61.91 61.64 62.20 62.56 62.56 63.49 63.24 63.04 62.20 61.90 61.92 61.14 60.61 59.24 56.97 56.15 56.97 56.31 58.02 58.60 58.61 58.61 58.51 57.47 57.09 56.33 54.86 53.00
60.66 60.89 61.40 61.62 61.92 61.99 62.09 61.60 60.92 59.96 59.47 58.50 58.50 59.90 61.20 62.19 61.96 61.75 61.07 60.59 61.07 61.68 61.50 61.14 60.63 60.95 61.36 60.25 59.26 57.86 56.21 55.79 54.94 56.87 55.63 55.19 54.80 55.06 56.44 56.62 56.13 54.99 53.57
58.65 60.51 60.70 60.68 60.22 59.98 57.79 58.50 59.00 58.48 58.32 57.77 56.63 56.93 56.61 56.47 56.41 56.25 56.56 57.63 57.89 58.94 60.16 60.17 60.39 58.98 57.17 57.17 57.31 59.16 56.05 55.23 52.53 55.14 54.94 53.67 55.75 55.18 56.15 56.10 55.71 54.62 53.00
55.89 56.69 57.78 59.38 59.08 58.05 55.79 56.65 57.81 57.19 56.73 56.97 57.21 57.39 55.45 53.51 52.79 51.85 52.77 53.32 53.76 54.81 56.70 57.61 51.63 51.76 52.00 52.71 55.81 55.75 55.34 53.85 51.96 51.16 54.08 51.36 54.04 53.75 55.16 55.11 54.59 53.45 52.19
52.81 53.16 54.86 56.31 54.72 53.28 52.63 52.15 52.52 52.33 52.03 53.01 54.58 52.33 51.22 52.33 52.36 51.29 50.41 49.45 49.99 50.80 51.65 52.30 52.61 52.05 52.18 52.13 51.64 54.47 52.72 50.30 51.43 50.83 52.60 49.15 50.12 50.24 53.42 52.68 53.70 54.88 52.68
50.95 51.34 53.14 53.62 52.41 51.50 50.32 49.84 51.13 51.00 50.03 49.97 51.77 52.31 52.41 52.87 52.36 51.85 52.09 51.06 50.69 50.35 51.16 51.75 51.58 51.39 51.62 51.60 52.14 51.47 49.47 51.35 49.22 48.19 50.91 50.99 49.55 50.10 49.93 49.34 49.37 50.93 53.46
50.31 50.81 51.19 51.09 50.79 49.95 48.44 48.38 50.54 50.52 49.44 49.45 49.96 50.45 50.69 50.03 48.42 48.77 51.75 51.35 50.07 50.16 50.23 49.53 49.25 49.71 50.61 50.06 51.16 49.87 50.16 48.56 48.01 47.98 50.23 48.52 48.27 49.10 47.21 49.33 47.42 47.62 48.20

GFSMA_sfc_wetblb_015.txt.gz
Wetbulb
71.02 77.55 76.39 76.43 76.20 76.75 76.17 76.09 76.15 76.29 75.77 75.80 75.52 75.27 74.41 74.62 74.68 74.11 74.44 75.93 76.01 76.18 76.94 76.56 75.58 75.83 75.77 75.54 75.42 75.39 74.99 74.46 74.16 74.06 73.93 73.92 73.63 73.22 72.56 72.89 72.38 71.94 71.37
72.64 76.39 76.31 76.63 76.41 76.81 76.00 75.84 75.20 75.12 75.76 75.42 74.70 74.84 75.37 75.18 74.64 74.27 73.90 75.37 76.49 75.94 76.43 76.97 75.83 76.51 75.71 75.73 75.54 75.33 75.47 74.86 74.82 74.96 74.86 74.44 73.77 74.04 73.44 72.99 72.67 72.15 71.66
76.27 75.43 75.80 75.06 75.26 77.25 76.39 75.78 75.54 75.38 74.72 74.95 74.49 74.95 74.85 75.03 74.85 74.35 74.39 74.82 75.55 75.35 75.75 75.58 75.58 75.96 76.43 76.01 76.07 75.88 75.54 75.19 74.96 74.91 74.51 74.12 74.34 73.68 73.44 73.99 73.30 72.56 72.60
75.34 75.24 75.81 74.18 74.96 75.86 76.52 75.24 75.00 73.74 73.46 73.57 73.84 75.34 75.69 74.76 74.96 74.88 74.40 74.33 75.20 74.85 75.34 75.95 75.15 75.21 75.04 75.93 76.16 75.65 75.54 74.96 74.76 74.71 74.51 74.51 73.98 73.71 73.86 74.01 74.06 73.74 73.25
75.31 74.74 73.66 75.08 75.48 74.28 73.90 73.82 74.69 74.33 72.67 72.28 72.55 74.27 74.73 74.73 75.11 75.05 74.62 73.88 74.81 74.88 74.85 75.34 74.72 74.78 74.76 75.11 76.06 76.24 75.81 75.36 75.03 74.98 74.56 74.49 74.54 74.03 72.57 73.66 74.01 73.86 73.51
74.22 74.56 73.15 73.71 73.98 72.65 72.61 72.94 72.65 72.93 72.68 71.95 71.24 71.64 74.22 73.19 74.84 74.24 74.34 74.02 74.28 75.00 75.29 75.37 75.46 74.70 74.87 74.72 75.79 76.53 76.16 75.92 75.23 74.88 74.41 74.76 74.26 73.76 73.02 72.69 73.25 73.53 73.50
74.35 74.29 73.40 73.25 72.59 71.43 72.96 73.49 73.54 72.25 71.66 72.41 70.52 70.49 71.93 72.72 72.74 73.53 74.19 73.20 74.04 74.77 75.31 75.34 74.43 74.98 74.96 74.46 74.69 75.54 76.26 76.31 75.54 74.52 73.79 73.98 74.09 73.27 73.14 72.60 71.98 72.58 72.82
72.37 72.26 71.76 72.95 73.38 72.23 71.63 72.97 72.53 71.46 71.06 72.16 68.74 69.76 67.30 69.74 71.35 72.55 73.12 73.79 74.23 74.57 74.31 75.15 75.14 75.56 75.50 75.64 75.01 74.76 75.41 76.09 75.96 74.86 73.77 73.14 72.84 72.23 72.35 72.13 71.98 71.72 71.85
71.96 72.35 71.10 71.17 73.10 70.07 68.95 69.73 72.59 71.04 69.67 71.02 71.82 70.29 67.17 64.05 70.01 71.58 73.00 73.23 74.03 74.32 74.48 75.40 75.38 74.85 75.52 75.87 75.53 75.27 74.84 74.29 75.21 75.00 74.58 72.85 72.11 71.77 71.81 72.07 71.89 71.57 71.30
70.83 71.54 72.28 71.41 71.17 70.84 68.20 68.67 72.23 72.88 72.67 69.21 70.40 70.73 70.38 68.86 68.25 66.91 70.81 72.39 73.45 73.82 74.27 74.98 74.87 74.74 76.17 76.07 75.98 75.07 73.24 72.57 73.24 74.11 74.18 73.94 72.11 71.23 72.16 71.93 72.15 72.02 71.57
71.02 70.98 71.28 71.83 71.87 71.26 70.15 68.20 69.07 72.62 71.96 71.82 69.96 69.61 70.20 71.11 69.30 65.58 65.16 68.38 71.19 72.65 73.82 74.68 74.83 75.05 75.80 75.77 75.45 75.42 73.46 72.76 72.44 72.74 72.92 73.52 72.67 72.32 72.56 72.37 72.67 73.02 72.72
70.60 71.37 71.15 71.54 71.90 71.76 71.70 71.57 71.42 72.11 72.02 71.66 71.50 70.46 69.30 69.11 70.18 69.27 67.56 68.62 67.88 70.36 71.99 73.06 73.96 74.04 74.62 74.70 74.86 73.76 73.30 72.38 71.61 71.46 71.62 72.15 72.52 73.09 72.91 73.02 73.34 73.15 73.25
69.30 70.31 70.94 71.10 71.01 72.03 71.85 72.08 72.03 72.04 71.81 71.12 71.39 70.40 70.59 69.45 72.48 71.59 70.92 66.44 66.41 69.27 69.78 72.09 72.93 73.82 73.80 74.41 74.74 73.62 73.89 72.06 70.86 69.38 69.53 70.09 70.97 71.38 72.38 72.35 72.47 72.80 73.10
69.94 71.44 71.14 71.21 70.95 70.55 70.40 70.42 70.99 72.45 71.84 71.52 71.60 71.41 70.49 70.72 69.61 68.91 70.49 67.79 68.20 67.49 68.75 70.02 72.72 72.58 73.13 73.57 73.97 71.87 74.00 71.36 70.41 68.63 67.80 67.84 68.56 69.39 70.22 70.60 70.92 70.95 71.04
70.00 71.02 70.95 71.00 71.80 71.44 71.46 71.33 70.92 70.93 71.46 71.69 71.36 71.28 70.45 69.89 68.09 69.51 69.40 69.86 68.47 63.49 65.61 68.72 70.01 71.71 71.71 72.54 72.76 73.49 73.59 68.50 69.69 68.45 67.09 66.93 67.21 67.80 68.20 68.24 68.45 68.15 68.09
68.44 70.00 69.88 70.60 70.58 71.10 71.51 70.98 70.50 70.26 69.90 69.37 69.02 69.77 70.31 70.39 70.09 69.33 69.19 69.69 69.28 69.81 66.42 68.61 68.46 69.12 69.79 68.70 68.97 69.75 68.89 67.75 65.70 66.06 66.33 65.22 65.60 65.58 66.14 66.47 66.55 66.96 67.05
69.72 69.11 67.80 67.34 68.46 69.99 70.69 69.74 68.75 68.38 68.02 68.35 68.61 68.16 69.17 69.98 69.82 69.92 70.16 69.89 69.04 68.68 65.71 66.90 66.99 67.53 67.15 67.17 65.75 66.16 66.53 66.45 64.48 64.20 64.50 64.90 64.29 64.17 64.64 65.01 65.58 65.88 66.01
69.20 69.18 66.83 65.87 66.03 67.32 68.77 69.29 67.78 67.78 66.97 66.82 67.36 67.18 67.59 69.21 69.33 70.19 69.80 68.67 66.01 65.74 64.38 63.09 65.03 65.76 64.25 62.09 61.80 60.97 62.02 62.24 62.01 62.67 61.72 61.75 61.66 61.61 61.05 61.34 61.06 60.33 60.16
68.31 68.08 67.97 66.92 66.37 66.01 65.39 64.87 64.46 63.64 62.88 64.20 66.43 67.08 66.79 67.21 66.35 66.19 65.90 65.71 65.62 65.98 65.78 64.40 63.13 64.58 63.11 61.09 58.84 58.63 58.65 59.62 60.32 61.36 60.63 60.16 59.99 59.41 58.61 57.87 56.56 55.08 54.38
67.62 67.37 67.38 67.16 66.73 66.52 66.58 65.65 64.63 63.24 61.81 61.58 61.75 61.79 61.93 61.97 62.44 63.20 63.22 62.70 64.01 64.19 63.95 63.41 62.59 62.22 61.12 60.57 60.23 58.08 56.27 57.37 56.47 57.51 57.68 57.75 58.15 58.11 57.40 56.77 56.32 55.06 53.07
66.68 66.97 66.81 66.50 66.14 64.75 63.24 64.08 64.10 63.64 60.60 59.13 58.69 59.43 60.15 60.72 60.76 61.19 60.67 59.85 61.64 62.72 62.54 62.46 61.87 61.96 61.12 60.57 59.47 58.02 56.13 55.56 55.58 57.35 55.27 56.65 56.95 56.57 56.61 56.22 55.65 54.20 53.02
65.58 65.76 65.03 64.66 64.05 62.25 57.49 59.35 62.90 62.15 61.14 60.56 58.75 57.92 56.07 56.11 56.72 56.81 57.28 57.68 58.63 59.95 60.75 60.69 59.28 57.78 54.66 56.15 57.37 58.68 55.75 55.14 52.71 55.14 54.64 53.29 56.17 54.78 55.05 54.29 54.59 53.39 52.56
63.05 62.50 63.16 63.23 61.85 60.98 54.90 55.89 59.00 61.69 60.12 59.29 59.11 57.60 55.10 53.82 53.83 53.80 53.89 54.42 54.91 55.95 56.89 57.42 53.91 53.53 52.97 52.64 56.49 56.61 55.99 53.48 52.45 53.05 54.96 52.17 54.86 54.18 55.56 55.45 53.52 52.77 51.68
61.67 59.78 59.55 59.41 59.92 56.56 52.23 53.08 56.45 61.09 58.05 57.01 56.80 57.91 57.85 56.92 55.74 56.04 55.54 54.65 54.17 55.01 56.01 55.55 55.59 54.69 52.93 55.24 56.23 56.09 52.80 51.51 52.12 52.72 54.33 50.71 52.15 49.96 50.53 51.53 54.07 53.47 51.68
61.31 59.38 57.99 57.90 58.37 56.60 50.34 51.43 57.26 58.65 56.40 56.56 56.85 57.69 57.34 56.18 52.07 53.35 56.35 54.89 54.06 52.59 50.96 51.39 51.37 51.56 51.64 51.71 53.54 55.64 52.42 54.99 52.61 51.38 52.77 52.01 51.72 50.55 50.49 49.76 51.14 52.13 52.76
59.88 59.05 55.42 54.95 52.83 54.64 48.35 49.45 55.48 57.14 55.95 55.47 56.28 54.99 50.12 53.04 48.74 50.01 57.24 56.29 53.82 53.30 53.09 53.04 52.99 52.86 52.68 50.77 51.72 54.34 52.71 51.47 51.92 51.33 51.78 51.79 51.00 52.47 49.83 50.41 49.32 49.83 50.52

GFSMA_sfc_wetblb_021.txt.gz
Wetbulb
76.07 73.86 72.41 72.24 74.62 75.75 75.18 74.92 74.61 76.14 76.11 76.28 75.76 75.84 75.04 74.88 74.98 74.64 75.21 77.08 76.55 76.14 76.55 76.33 76.21 75.53 75.06 75.81 75.49 75.26 75.12 75.02 74.69 74.35 74.22 74.15 74.28 73.97 73.42 73.11 72.65 72.99 72.67
75.00 73.21 72.13 71.58 72.71 74.56 75.36 73.08 75.65 75.52 75.26 75.50 75.60 75.23 75.60 76.13 75.39 75.36 74.72 75.56 76.87 76.10 76.29 76.44 76.51 75.82 74.69 75.77 75.62 75.48 75.56 75.26 75.31 75.03 75.10 74.86 74.69 74.49 74.06 73.79 73.30 73.13 73.13
76.37 74.84 73.56 73.16 72.30 72.48 71.61 70.47 73.09 76.68 74.47 75.46 75.27 75.54 75.23 75.68 75.49 75.82 75.32 75.73 75.24 76.36 76.37 76.24 76.75 76.42 75.90 75.03 75.55 75.27 75.73 75.66 75.31 75.24 75.06 74.99 74.66 74.36 74.26 74.14 74.10 73.93 73.61
77.27 76.88 75.14 74.34 74.10 70.86 68.90 68.61 73.59 73.61 75.35 74.11 74.35 73.96 75.21 75.28 75.66 76.29 77.17 76.04 74.87 74.34 76.00 76.02 75.87 76.01 73.48 72.96 74.11 74.61 75.26 75.09 74.89 74.99 75.14 74.76 74.94 74.56 74.30 74.11 74.21 73.94 73.84
76.58 76.54 74.94 75.54 75.80 73.39 73.02 74.73 73.83 73.39 73.02 73.32 73.63 73.84 73.96 75.04 74.93 74.96 75.24 75.75 75.94 75.83 75.20 75.77 75.11 74.94 73.74 74.10 73.49 72.37 73.81 75.19 74.74 74.81 75.39 74.31 74.64 74.18 74.01 74.01 73.78 73.74 73.69
76.98 77.72 76.91 75.48 78.17 75.26 73.33 73.72 73.56 74.08 73.04 72.43 71.52 72.31 73.97 74.11 74.77 74.60 74.98 76.27 76.69 75.50 75.79 77.58 75.89 73.56 74.26 74.36 73.99 73.89 73.78 74.01 75.36 74.91 74.96 74.63 74.34 73.69 73.00 72.65 72.59 72.98 73.26
76.60 77.40 77.19 77.04 76.83 75.76 75.30 76.10 74.19 75.38 72.44 73.42 73.18 71.43 71.38 73.18 74.23 74.59 74.84 74.29 75.21 75.41 75.03 77.59 75.52 75.51 73.93 74.44 74.44 74.73 74.54 74.45 75.56 75.59 74.86 74.08 74.23 74.06 73.62 73.22 72.32 72.30 72.48
75.99 76.04 76.39 75.55 76.25 75.51 75.79 75.66 75.78 74.73 73.70 75.50 70.29 69.29 66.55 67.83 71.37 73.75 74.00 75.77 75.00 76.89 75.39 76.57 76.47 76.21 74.27 73.32 73.72 74.74 75.14 75.26 74.96 75.94 75.41 74.21 73.23 72.43 72.67 72.75 72.45 72.09 72.23
74.58 74.69 74.67 75.88 75.59 76.43 75.28 74.28 74.58 72.92 71.54 73.97 73.40 69.39 65.55 63.73 66.93 73.28 74.38 73.64 75.42 76.99 75.80 76.67 74.41 76.44 76.13 73.67 74.10 75.22 74.89 73.98 75.09 75.58 75.61 74.81 73.05 72.17 71.97 71.60 71.59 72.13 71.79
73.36 73.80 74.10 73.69 75.06 76.23 74.41 74.64 75.06 73.19 73.08 71.35 73.86 72.16 73.64 71.58 67.49 66.50 73.81 74.24 76.36 75.68 75.91 73.51 72.95 73.90 76.66 75.21 76.02 75.60 74.81 73.82 74.43 75.04 75.25 74.18 73.79 73.34 72.67 72.33 72.39 72.17 71.71
74.23 73.36 73.69 73.23 73.69 74.79 75.18 74.14 74.44 74.43 74.03 73.14 71.71 73.05 72.53 69.92 71.00 68.17 67.19 69.38 72.87 73.36 75.09 73.76 73.36 74.30 75.94 76.33 75.62 75.38 74.44 74.11 73.55 73.98 74.04 74.06 74.29 73.29 73.07 73.04 72.96 72.19 71.30
72.73 73.61 73.59 73.75 74.36 74.09 73.69 75.14 74.71 73.77 73.89 71.44 72.13 72.50 71.75 69.93 68.30 68.31 69.43 69.38 67.55 70.00 72.31 72.33 73.43 74.06 75.20 73.77 74.91 76.93 75.83 73.42 72.68 72.76 72.83 73.02 73.23 73.54 73.52 73.59 73.47 72.75 72.42
71.62 73.92 73.67 73.56 73.06 73.76 73.65 74.46 74.11 73.34 73.26 70.90 71.40 71.26 73.37 70.41 74.94 71.93 71.83 67.37 66.50 70.32 70.46 70.27 73.64 75.84 74.07 73.77 73.57 74.38 74.61 72.26 71.64 70.65 70.49 70.87 71.53 72.07 72.40 73.11 73.34 73.31 73.22
73.10 73.62 72.65 73.03 73.43 72.65 72.99 73.69 72.17 72.13 73.50 71.81 71.31 72.62 72.55 71.89 71.41 70.04 71.98 71.71 68.32 66.75 68.70 70.33 72.52 74.14 74.78 73.19 73.34 74.29 72.42 68.59 68.71 68.51 67.58 67.74 68.24 69.13 70.22 70.89 71.22 71.32 71.61
72.42 72.90 72.76 72.68 73.23 72.77 72.96 73.57 73.70 72.90 73.55 73.37 72.46 71.42 72.96 73.11 71.77 71.58 71.98 71.94 70.73 63.88 65.02 69.12 71.73 72.56 72.00 71.76 70.91 71.47 68.30 66.33 66.75 65.97 66.25 66.57 66.95 67.52 68.46 68.93 69.22 68.55 68.71
72.20 71.95 71.38 72.11 71.88 72.92 73.31 73.64 74.03 73.48 72.85 73.27 73.07 72.32 73.12 74.95 74.46 75.52 72.62 71.11 72.38 68.86 64.33 68.63 69.87 70.35 70.03 68.46 67.92 67.20 66.04 64.88 64.55 64.32 63.61 63.68 64.98 65.71 66.68 67.31 67.52 67.11 67.40
71.51 70.85 70.55 70.53 70.82 71.75 72.57 73.17 71.91 71.55 71.29 71.04 71.07 70.44 70.65 72.30 73.19 75.55 75.98 75.00 72.26 71.89 68.21 68.84 69.65 70.65 66.01 65.63 64.29 64.37 64.14 62.97 62.88 62.91 62.43 61.59 60.90 61.12 61.64 61.64 62.06 62.28 62.82
71.73 70.77 70.45 70.15 70.16 69.43 70.69 70.33 68.91 69.02 68.84 68.44 68.81 69.33 69.30 70.55 71.46 72.36 72.39 71.64 71.23 71.39 69.62 67.64 68.53 64.90 61.74 60.82 60.72 60.00 60.31 61.30 60.42 61.71 61.02 60.23 59.37 58.65 58.09 57.95 57.57 57.41 57.73
70.25 70.05 69.82 69.11 69.50 69.52 68.91 68.71 68.07 66.65 66.31 65.40 65.66 65.37 66.46 67.99 66.82 66.77 67.34 67.47 68.00 68.59 68.15 66.38 65.01 63.53 60.75 60.42 59.00 59.10 58.48 57.99 59.02 60.48 59.38 58.91 58.30 57.75 56.91 55.97 54.90 53.65 53.03
70.28 69.49 69.55 69.10 69.20 68.59 68.23 67.93 67.33 66.19 65.09 63.96 63.55 63.96 64.45 64.26 64.99 65.46 64.99 65.31 66.40 65.26 64.35 63.24 62.06 61.36 61.34 60.97 60.67 58.34 55.73 56.93 56.13 57.97 58.78 58.03 57.52 57.58 57.13 56.50 55.53 54.33 52.45
69.43 69.11 68.70 68.79 67.89 67.39 65.83 67.36 66.22 65.43 64.75 63.56 62.71 60.76 60.26 60.73 60.39 61.25 63.82 63.98 65.33 64.44 63.94 63.02 61.39 59.90 59.34 59.28 58.94 58.60 55.73 55.41 55.37 56.69 55.87 55.49 55.13 54.35 53.96 53.94 54.31 53.39 51.57
68.40 68.56 67.84 66.97 66.74 65.12 58.30 60.77 65.23 65.93 64.45 64.10 63.79 63.99 63.80 62.30 59.17 58.55 59.26 59.47 62.59 64.10 62.37 60.10 59.27 57.43 57.89 58.45 59.73 57.87 55.73 54.91 52.09 56.97 55.57 54.11 55.46 53.73 53.90 52.92 52.48 52.04 51.22
67.37 67.53 66.97 66.98 65.85 63.76 56.97 58.12 62.14 65.23 64.53 64.00 63.69 63.12 62.21 61.22 62.32 61.40 58.90 58.93 58.94 59.33 61.01 62.27 58.89 58.17 57.93 58.47 60.25 58.01 57.30 56.52 54.76 55.71 56.33 51.89 53.66 51.87 54.28 54.11 52.71 52.22 51.69
66.12 65.92 65.64 65.61 64.55 60.45 54.31 54.59 58.37 65.71 64.54 63.91 63.45 63.08 62.60 61.52 58.62 60.89 59.26 57.04 55.76 55.85 58.96 59.48 59.28 59.30 59.86 61.67 60.45 59.83 59.17 57.05 56.19 56.50 57.66 51.20 51.56 50.12 51.94 53.93 52.73 51.34 50.73
65.47 65.25 65.55 64.74 64.48 62.15 53.49 54.44 58.13 64.48 63.37 62.29 60.86 58.54 60.79 59.66 53.66 54.27 59.89 57.44 55.89 54.05 51.77 51.66 51.67 52.42 52.57 52.93 55.38 59.76 58.66 57.57 55.36 55.88 57.76 55.55 53.70 52.39 52.50 53.30 54.88 52.36 50.49
65.42 64.45 64.18 63.63 59.29 62.33 50.31 51.72 54.95 62.69 61.81 59.92 59.93 57.96 51.07 53.85 50.30 51.44 61.54 60.07 58.10 58.05 58.47 57.58 55.90 54.42 56.18 54.78 55.03 60.05 57.14 56.09 57.41 54.77 57.47 55.15 54.57 54.45 51.73 55.30 55.26 55.59 54.65

GFSMA_sfc_wetblb_024.txt.gz
Wetbulb
76.82 77.77 75.64 73.69 73.82 75.84 71.66 69.89 68.90 68.70 71.66 74.04 74.96 74.60 73.98 73.89 74.43 74.53 74.77 76.50 75.89 76.05 76.93 76.88 76.67 75.83 75.62 76.08 76.51 75.55 75.01 74.73 74.82 75.05 74.28 74.13 74.53 74.13 73.92 72.87 73.19 72.99 72.97
77.44 76.58 74.77 74.18 73.41 74.32 73.93 71.99 70.77 69.27 69.13 69.49 74.31 74.49 75.18 75.18 75.14 74.63 74.04 74.96 76.08 76.31 76.85 77.30 77.27 76.25 75.02 74.27 76.01 76.06 75.69 75.16 75.63 75.26 75.04 74.91 74.69 74.12 74.07 74.00 73.37 73.65 73.74
77.20 76.28 74.36 72.64 73.53 74.28 71.78 68.59 70.14 67.76 67.46 67.22 72.72 74.22 74.85 74.92 74.99 75.53 75.07 75.04 75.36 76.31 75.97 76.65 77.34 76.97 76.75 74.90 75.91 75.88 75.79 75.42 75.64 75.42 74.92 74.74 74.74 74.54 74.26 74.04 74.21 73.92 73.94
77.69 76.93 75.13 75.34 75.30 73.74 71.16 68.55 66.99 67.44 67.35 67.65 71.25 72.45 73.25 74.20 74.39 75.12 75.86 75.11 75.24 74.42 75.44 76.15 76.18 76.21 76.79 75.89 75.66 75.19 75.97 74.99 75.19 75.16 75.11 74.81 74.94 74.65 74.55 74.43 74.16 74.09 73.74
77.23 76.11 75.01 75.38 76.37 74.20 71.05 70.09 68.58 69.19 69.94 71.07 72.14 71.39 72.53 72.92 73.94 74.62 74.55 74.92 74.79 74.69 74.89 75.42 75.81 75.31 76.37 75.42 73.59 74.43 73.58 74.24 74.88 75.09 75.16 75.09 74.57 74.09 73.58 74.17 74.11 73.71 73.66
77.04 76.30 75.84 75.37 74.56 75.29 74.00 73.25 72.54 72.16 71.30 70.27 71.37 70.70 72.85 73.19 73.80 74.21 74.03 75.15 75.16 75.39 74.42 74.18 73.50 73.50 75.42 75.16 74.80 74.08 73.95 73.76 74.27 75.51 75.21 75.07 74.86 74.26 73.72 73.34 73.32 72.90 73.26
75.49 76.30 75.64 74.78 74.92 73.83 73.79 73.80 72.47 69.51 68.64 70.31 70.09 71.26 72.86 73.88 72.39 72.47 74.39 73.73 73.83 74.27 74.64 73.73 74.32 72.87 73.46 74.31 74.14 74.51 74.86 74.31 74.27 74.74 75.36 74.84 74.86 74.01 73.98 73.14 72.94 72.74 72.41
75.87 76.50 75.29 73.91 73.56 72.61 72.04 72.72 71.97 70.02 70.26 72.10 69.80 70.02 66.24 67.79 69.89 72.56 73.22 73.47 73.28 74.21 74.35 74.79 74.34 72.86 72.76 71.89 72.41 74.48 74.87 74.86 75.34 75.27 75.19 74.58 74.12 73.72 73.84 73.29 72.58 72.51 72.56
75.98 76.03 74.80 74.84 73.62 73.69 72.14 71.91 71.86 70.56 68.79 69.58 72.03 68.64 65.52 62.90 67.00 71.10 71.78 72.71 72.85 74.04 74.34 74.79 74.16 73.40 73.21 73.21 73.08 73.96 74.64 73.67 74.94 75.69 75.14 74.64 73.70 73.11 73.19 72.51 71.98 71.32 71.89
75.78 74.91 74.59 74.46 73.66 73.69 72.77 72.32 72.51 71.81 71.22 68.94 71.04 70.24 69.87 69.82 65.75 64.35 69.83 71.36 72.65 73.72 73.64 73.88 73.76 73.41 73.81 73.42 74.19 73.77 73.46 73.28 74.20 74.89 74.92 74.89 74.49 73.81 73.17 72.58 72.29 71.90 71.15
75.12 73.34 74.11 73.92 73.72 73.74 73.21 72.49 71.87 71.30 71.22 69.77 69.69 68.69 68.50 69.32 70.13 67.22 65.15 67.94 72.10 72.68 73.00 72.92 72.86 72.44 72.58 72.96 73.68 73.71 73.37 73.68 73.47 74.08 74.48 74.67 74.59 73.99 73.96 73.65 73.25 73.21 72.78
73.97 73.55 73.96 73.52 73.80 73.20 73.00 72.44 72.71 72.30 70.27 70.09 70.86 69.70 68.16 66.84 67.21 67.01 66.30 67.14 66.80 69.28 71.13 72.20 71.96 71.70 72.35 72.76 73.01 72.16 73.31 73.32 73.02 72.39 72.13 73.33 73.62 74.00 74.19 74.22 73.99 73.62 73.65
71.67 72.75 73.47 73.19 72.68 73.47 73.35 73.50 72.49 71.82 70.60 69.98 70.52 70.27 68.74 68.82 69.23 68.51 68.42 66.99 65.86 68.68 69.23 70.45 70.89 70.58 72.27 72.05 72.42 71.21 70.95 69.94 69.74 69.07 69.76 70.22 70.35 71.19 72.04 72.76 73.18 73.59 73.84
72.26 73.07 72.99 72.95 72.68 73.05 73.74 74.27 73.82 73.90 73.52 72.21 71.39 71.31 70.40 70.19 71.00 69.58 68.09 66.57 65.43 66.40 68.30 67.96 71.59 71.27 70.93 70.21 70.70 69.03 67.35 67.71 67.56 67.22 66.77 67.22 67.47 68.12 68.75 69.46 70.10 70.87 71.82
71.64 72.16 71.74 72.20 72.22 72.93 73.32 73.62 72.08 72.14 73.07 71.86 72.06 71.73 71.25 70.53 70.96 70.34 70.61 69.96 67.62 63.67 64.04 68.25 69.37 70.26 68.70 68.10 67.98 66.10 64.98 66.17 65.87 64.95 64.98 65.58 66.32 66.84 67.89 68.64 68.59 68.43 68.32
72.10 71.58 70.48 70.99 71.50 71.92 72.71 72.90 71.51 70.50 69.65 69.75 70.79 71.17 69.32 69.66 70.89 71.11 70.49 70.10 70.03 67.49 63.88 68.17 68.66 68.57 66.75 65.55 65.61 63.90 63.77 63.95 64.44 63.67 62.90 63.03 63.43 63.79 64.15 64.60 65.34 65.86 66.40
71.44 70.44 70.03 69.74 69.30 69.68 71.17 71.10 70.12 70.59 70.09 70.15 69.99 69.78 69.84 70.62 70.45 70.37 71.47 70.52 69.04 68.31 66.14 67.29 68.32 66.04 62.41 62.18 61.61 61.79 61.48 60.79 61.52 62.20 61.69 61.12 60.80 61.02 61.56 61.99 62.49 62.58 62.86
70.81 69.98 69.54 70.02 70.17 69.38 68.74 68.48 67.85 67.92 67.42 67.10 66.66 68.13 68.02 69.38 68.99 69.56 70.10 69.53 69.20 68.93 67.22 64.91 66.79 60.98 60.33 61.02 60.36 58.94 59.41 60.16 59.46 60.53 59.79 59.16 58.45 57.72 57.32 57.40 57.26 57.22 57.50
69.96 69.53 69.13 69.38 68.24 67.63 67.43 67.38 66.88 65.23 65.04 64.82 64.90 64.72 64.81 65.77 64.94 65.77 66.73 67.22 67.54 67.71 67.42 65.80 62.21 61.36 59.97 60.01 58.24 58.28 57.40 57.18 59.22 59.97 59.12 58.91 58.37 57.62 56.67 55.96 54.88 53.38 52.46
69.47 69.68 68.98 68.71 68.68 67.96 66.32 66.22 65.90 65.01 64.22 63.27 62.88 62.59 62.84 63.36 64.47 65.14 65.52 65.47 65.62 65.01 63.94 62.14 60.84 60.38 60.13 60.17 59.81 56.48 54.57 56.28 56.10 57.71 57.94 56.76 56.55 57.00 56.83 55.81 54.89 53.69 51.84
68.34 69.18 69.13 68.14 67.53 65.82 62.95 65.04 64.97 64.39 63.78 62.73 62.46 61.94 60.89 61.08 61.25 62.52 63.75 64.16 64.80 63.87 62.52 60.43 59.01 58.62 58.35 58.53 57.98 57.12 54.55 54.33 54.43 55.90 53.99 54.03 53.82 52.74 52.35 53.03 53.47 52.42 51.21
67.92 69.16 68.12 66.66 64.88 62.68 58.49 59.73 64.39 63.99 63.62 63.12 61.96 63.03 62.33 61.07 59.38 59.73 60.30 60.45 62.18 63.90 61.12 59.86 58.89 57.94 57.88 58.27 58.88 56.34 54.82 54.77 52.34 57.17 54.61 53.14 54.37 52.44 52.79 51.90 52.45 51.95 51.68
67.24 67.87 67.09 66.02 63.82 61.70 56.48 57.60 59.60 64.39 63.60 63.68 63.64 62.83 61.59 60.39 61.43 60.54 59.18 58.82 58.00 59.90 61.12 60.62 58.31 58.53 58.00 58.49 58.87 57.08 57.05 56.17 54.09 55.52 54.25 51.43 53.94 51.78 54.21 53.10 52.45 52.12 51.76
65.37 65.09 65.83 65.45 62.51 57.72 55.73 54.45 56.28 63.76 62.81 61.24 60.58 62.33 61.30 58.83 56.44 59.01 55.69 52.64 51.28 52.17 55.48 57.24 56.92 57.41 55.77 59.84 60.25 59.44 58.11 55.92 56.13 56.11 57.72 51.18 52.06 51.05 52.94 54.00 52.45 51.42 50.91
65.92 65.89 65.70 65.12 63.09 58.81 52.93 52.31 58.31 63.27 61.43 60.24 58.31 55.52 60.04 58.25 53.91 54.14 57.85 55.48 53.61 51.19 51.22 52.29 52.79 52.81 53.00 53.71 55.58 58.82 57.25 55.79 54.40 55.29 56.60 54.53 52.62 50.82 51.38 52.22 52.88 52.49 50.87
64.48 64.48 63.17 61.94 58.31 58.00 50.75 50.02 53.74 63.93 61.11 58.34 58.52 56.45 51.93 51.33 50.69 51.18 61.88 60.30 57.87 58.30 57.41 54.58 53.94 53.54 55.92 54.65 56.40 56.90 54.25 53.23 53.99 53.14 56.38 54.24 53.18 52.82 50.07 53.57 53.11 52.19 50.90

GFSMA_sfc_wetblb_027.txt.gz
Wetbulb
71.96 72.57 69.42 69.83 69.00 72.42 70.75 68.57 68.39 68.01 67.81 68.61 69.09 69.36 72.10 71.90 72.04 72.62 72.74 76.46 75.64 75.80 77.53 77.28 76.75 75.95 76.48 76.39 76.52 75.63 74.76 74.89 74.32 74.40 74.09 73.80 74.43 73.90 72.99 72.37 72.93 73.21 72.76
72.00 71.83 69.01 69.05 68.74 70.36 68.78 67.40 66.97 67.67 67.26 67.77 68.40 67.80 68.94 71.89 72.00 71.95 72.70 73.64 76.32 75.80 76.75 77.27 76.78 76.64 75.92 76.81 76.74 76.44 75.75 75.03 75.10 75.22 75.12 74.87 74.72 74.62 73.97 73.95 73.02 73.26 73.37
73.05 72.47 71.16 69.67 69.49 70.62 70.39 69.40 68.21 67.65 65.97 67.51 67.01 68.56 70.30 72.21 72.76 72.91 72.13 72.98 74.44 75.87 76.09 76.62 76.90 77.15 76.69 75.49 76.05 76.32 76.47 75.92 75.52 75.52 75.36 75.06 74.98 74.83 74.59 74.37 74.42 74.09 73.80
73.33 72.77 71.98 70.93 69.97 69.41 68.12 66.72 67.22 65.00 64.73 65.14 66.95 67.78 68.93 71.39 72.78 73.09 72.94 72.76 73.37 73.44 75.55 76.19 76.13 76.55 76.97 76.60 75.12 76.24 76.09 75.82 75.49 75.46 75.21 75.28 75.01 74.72 74.63 74.48 74.46 74.24 73.99
73.49 72.54 72.21 71.98 71.23 70.94 67.78 65.86 65.72 64.88 65.93 66.76 67.51 67.67 69.85 70.65 71.84 73.47 72.75 73.09 72.52 73.50 73.12 74.66 75.46 75.48 76.46 76.50 76.05 76.50 76.50 75.64 75.18 75.23 75.28 75.41 75.14 74.61 74.37 74.42 74.20 74.28 74.01
70.18 70.71 72.11 72.19 70.55 69.86 69.11 67.28 65.74 65.66 66.12 68.65 70.53 70.45 69.31 67.94 70.38 71.45 72.42 73.24 72.66 72.94 73.44 73.02 73.40 74.04 76.03 76.29 76.35 76.41 75.75 75.24 75.04 75.01 75.25 75.28 75.18 74.45 74.20 73.97 73.90 73.66 73.66
67.98 67.85 71.60 70.83 70.42 69.87 69.76 69.47 69.63 68.62 67.69 68.39 67.67 65.35 68.81 69.66 70.21 70.84 71.64 72.16 72.69 72.75 72.74 72.97 72.35 72.41 73.27 75.36 75.24 74.66 75.33 74.85 74.44 74.22 74.61 75.05 75.00 74.58 74.42 73.69 72.81 73.12 73.00
68.08 71.48 70.50 70.14 70.15 69.09 68.54 69.40 69.02 67.42 67.06 68.37 64.94 63.08 61.88 63.95 68.01 70.35 70.30 71.19 71.14 72.05 72.43 73.16 72.64 72.11 71.65 72.69 73.49 74.77 74.97 75.29 74.86 74.84 74.64 74.24 74.66 74.38 74.18 73.82 73.23 72.63 72.61
71.88 70.54 69.86 69.37 69.39 69.20 68.71 68.55 68.07 67.02 66.21 68.10 68.50 65.62 61.97 59.75 63.06 67.15 68.79 69.78 69.66 71.15 71.88 73.27 72.37 71.94 71.74 71.49 72.31 72.66 74.03 73.80 74.54 75.02 75.29 74.67 73.95 73.91 73.89 73.48 73.31 72.59 72.29
71.04 70.51 69.99 70.24 69.63 69.49 68.75 69.07 69.54 67.85 66.95 65.22 66.88 68.69 67.96 67.04 61.62 60.20 65.65 68.03 69.20 70.66 71.27 70.66 70.84 71.50 71.70 71.95 73.32 73.11 72.75 71.85 73.22 74.09 74.42 74.62 74.04 73.58 73.43 73.42 73.06 72.70 71.84
70.03 70.60 70.41 70.28 69.66 69.63 69.36 69.22 68.55 67.96 67.47 66.68 66.23 65.99 65.50 66.50 67.04 62.84 60.50 63.36 68.05 69.61 70.66 71.31 71.65 70.65 71.35 71.19 71.55 70.43 70.25 69.53 71.41 72.66 73.26 73.77 74.12 74.09 74.19 74.06 73.91 73.48 73.01
69.06 69.96 70.88 70.16 69.78 69.19 68.68 69.29 68.82 68.34 67.40 67.62 67.94 67.49 65.67 64.82 64.36 64.84 62.04 62.05 62.42 64.91 67.71 69.72 69.65 69.02 70.38 69.20 72.67 69.60 69.13 69.62 70.50 70.89 71.57 72.28 72.83 73.37 74.61 74.59 74.47 74.27 74.22
68.46 69.15 69.71 69.51 69.43 69.32 69.18 68.92 68.36 68.07 67.28 66.77 66.97 67.04 67.31 66.26 67.20 66.53 64.20 62.44 61.97 64.41 66.01 66.77 68.41 69.29 71.39 71.15 70.08 70.03 70.21 69.14 69.37 68.66 68.86 69.92 70.28 70.61 71.25 71.97 72.67 73.09 73.52
67.92 68.79 68.88 69.42 69.51 70.13 69.81 68.92 68.73 68.03 67.84 67.45 66.93 67.04 66.93 67.80 68.34 67.58 65.17 62.80 61.53 62.14 63.66 64.11 68.25 68.32 69.50 69.23 70.35 70.21 68.21 67.96 67.29 66.68 66.84 67.06 67.27 67.67 68.32 69.04 69.61 69.79 70.03
68.77 67.91 68.14 68.48 69.31 70.11 69.78 68.72 68.25 67.98 68.25 67.85 67.60 67.11 66.70 67.42 68.77 68.45 68.46 66.14 62.60 59.17 60.06 63.94 64.52 66.79 66.38 66.63 66.35 65.07 65.52 65.81 64.86 64.88 64.72 64.99 65.92 66.73 67.60 67.71 67.65 67.60 67.83
68.69 68.32 68.79 68.43 67.94 68.88 69.15 68.59 68.46 68.34 67.49 67.94 68.39 67.27 68.19 68.41 68.50 68.03 67.58 67.29 66.93 62.90 60.13 64.07 65.24 64.84 64.85 64.69 64.97 63.08 63.43 63.78 63.73 63.25 62.74 62.69 63.43 63.91 64.29 64.61 65.01 65.44 66.02
67.44 67.43 68.47 68.24 67.33 66.44 66.66 66.12 66.10 65.94 65.62 65.03 66.91 67.20 67.13 67.47 66.90 67.01 67.08 66.61 65.78 64.90 61.78 64.93 65.08 63.28 62.38 61.28 60.75 60.29 60.60 60.14 60.72 61.28 60.60 59.82 59.43 59.69 60.42 61.07 61.65 62.35 62.87
67.18 67.13 67.17 66.95 66.51 66.70 65.81 64.50 63.64 63.78 63.61 63.29 63.98 64.29 64.82 65.68 64.17 64.94 65.57 65.21 65.02 64.98 63.15 62.05 62.33 59.90 59.69 59.09 58.52 58.36 58.94 59.41 59.18 60.42 59.56 59.03 58.17 57.51 56.74 56.42 56.38 56.26 56.58
65.81 65.15 65.90 64.98 64.19 65.57 65.41 65.04 63.68 62.72 62.19 62.09 61.95 61.86 62.38 63.79 62.80 63.83 63.67 63.64 63.43 64.18 63.41 62.60 60.46 60.34 59.27 58.52 57.16 57.36 57.12 57.70 58.74 59.26 58.48 58.48 57.88 57.24 56.17 55.25 54.20 52.98 52.40
65.68 64.73 64.57 64.38 62.80 62.82 64.72 64.34 63.14 61.94 61.50 60.28 59.26 59.08 59.07 59.87 62.25 62.43 61.99 62.15 62.06 61.40 61.03 60.43 59.93 59.25 59.07 59.33 58.12 55.23 54.22 56.14 54.81 55.76 56.60 55.47 55.68 56.64 55.98 55.17 54.11 52.92 51.52
64.80 65.04 63.36 62.16 61.26 60.69 62.09 63.80 63.52 62.59 61.07 60.02 58.31 57.97 58.07 61.02 61.95 61.90 60.05 60.09 60.81 59.75 58.51 57.98 58.29 58.02 58.23 58.25 57.30 56.22 53.86 53.63 54.19 54.58 53.73 53.60 52.51 51.67 51.94 52.58 52.87 52.69 51.86
65.68 63.99 61.99 60.88 59.42 58.43 57.45 60.00 62.99 62.12 62.01 60.95 58.77 57.53 57.48 58.06 59.06 58.87 58.23 59.45 60.84 58.02 57.12 56.40 57.74 56.62 56.88 57.78 56.86 54.90 53.36 53.24 51.35 55.76 53.09 52.10 52.99 50.93 49.93 49.35 52.63 52.30 52.01
64.83 62.46 61.15 59.82 57.49 54.79 55.43 56.82 61.50 61.21 60.72 60.38 59.83 56.73 55.55 56.47 55.08 51.51 52.91 53.75 55.10 58.78 59.43 58.50 55.44 56.78 56.78 58.02 57.26 55.06 55.92 53.02 52.37 52.93 51.17 50.98 52.53 51.63 52.86 51.15 52.26 52.03 51.79
63.38 62.40 60.83 57.95 54.69 52.57 53.58 53.64 59.38 58.04 55.86 54.26 54.52 56.66 54.10 52.42 53.39 50.31 47.30 45.77 45.18 48.18 51.97 53.64 52.15 50.22 50.85 56.30 55.96 55.26 52.81 51.51 51.80 52.37 53.20 49.50 47.94 49.61 52.45 49.60 52.43 51.94 51.39
63.38 62.19 62.10 59.21 53.99 50.20 51.28 51.48 57.13 56.99 54.89 52.24 51.03 51.93 52.15 50.66 52.68 54.61 50.27 47.04 45.91 45.48 50.84 52.60 52.55 52.63 53.79 54.78 54.73 56.14 52.21 50.71 49.62 50.50 52.85 48.64 47.45 46.06 47.47 48.12 49.19 52.08 50.86
62.87 60.19 58.25 55.88 55.52 49.96 49.67 49.59 53.75 56.77 53.61 52.29 51.08 49.57 51.86 49.18 49.64 52.12 52.42 50.73 48.14 47.35 47.36 47.69 47.91 49.19 51.40 52.05 54.32 49.81 48.90 48.82 49.56 47.94 48.30 50.30 48.18 47.58 45.35 48.44 48.85 48.65 47.40

GFSMA_sfc_wetblb_030.txt.gz
Wetbulb
70.49 71.40 71.61 71.69 72.00 72.58 71.49 69.03 69.66 69.88 68.55 68.61 69.84 69.52 70.31 71.61 71.64 72.24 72.40 74.63 75.27 75.52 76.96 77.07 76.47 75.82 75.29 76.02 75.75 75.06 74.11 74.04 74.08 73.68 74.05 74.38 73.84 73.06 72.78 72.42 73.14 72.81 72.77
70.87 70.90 68.40 68.40 68.03 70.50 69.48 68.45 67.84 67.66 67.48 67.61 68.72 68.30 68.28 69.56 71.88 72.02 72.34 72.51 75.46 75.67 76.15 77.23 77.32 76.68 76.00 76.18 76.10 76.18 74.75 74.72 74.97 74.73 74.83 74.33 74.63 74.58 73.73 72.88 72.26 73.10 73.46
71.47 70.93 69.26 68.58 68.28 67.96 69.52 67.86 67.23 66.87 66.15 66.25 67.01 67.32 68.36 69.57 72.12 72.58 71.91 72.21 73.01 75.90 75.70 76.07 77.10 76.70 76.22 76.06 76.09 76.83 76.06 75.80 75.48 75.25 75.25 74.82 74.32 74.52 74.67 74.18 73.78 73.75 74.00
72.37 71.76 70.86 69.91 69.86 69.21 68.94 67.84 67.38 65.99 64.69 64.46 64.67 66.47 68.58 69.31 70.77 71.85 72.51 72.52 72.82 73.06 74.71 75.94 75.96 76.09 76.88 76.41 75.93 76.13 76.51 76.08 75.40 75.03 75.39 75.14 74.74 74.36 74.50 74.44 74.48 74.18 74.03
73.36 72.47 72.30 71.51 70.41 69.67 68.20 67.05 66.95 64.60 64.08 64.29 64.70 66.51 67.73 69.52 71.00 72.34 72.59 72.21 72.10 73.12 72.66 74.72 75.50 75.50 76.19 76.18 76.13 75.27 75.80 75.80 75.59 75.54 75.49 75.41 75.21 74.81 74.27 74.20 74.48 74.22 73.96
70.00 69.41 70.57 70.29 69.42 69.33 67.56 66.68 65.18 64.57 64.83 65.79 69.62 70.26 69.50 69.64 69.66 69.43 71.17 71.83 72.20 72.12 72.65 72.49 72.59 73.54 75.48 75.89 76.08 75.57 75.47 75.98 75.70 75.57 75.02 74.81 75.06 74.93 74.12 73.89 73.69 73.95 73.95
68.19 65.71 67.83 70.06 69.72 68.63 68.33 67.81 66.14 64.54 65.18 66.91 66.30 65.01 65.89 68.42 68.30 67.73 69.33 70.84 71.36 71.24 71.64 72.29 71.54 71.63 72.43 74.67 74.35 74.99 75.45 76.33 75.68 74.65 73.93 74.09 74.28 74.20 74.06 74.15 73.80 73.68 73.10
68.23 67.09 69.55 69.59 69.22 68.11 67.32 67.36 67.86 66.23 66.93 68.26 64.52 62.30 59.77 62.88 66.57 68.86 69.25 70.30 70.91 70.78 71.75 71.99 72.06 71.43 71.35 72.00 73.13 74.20 74.67 74.89 74.33 74.35 73.66 72.96 72.59 73.98 74.21 73.67 73.63 73.12 72.84
70.91 70.19 69.00 68.33 68.11 67.86 67.34 66.98 66.98 66.12 64.58 66.23 66.78 63.36 60.65 59.86 62.58 65.22 67.54 69.30 69.94 69.15 70.07 70.71 71.39 72.24 71.52 70.77 72.50 72.76 73.76 72.87 73.40 73.76 74.08 73.88 73.00 72.47 73.03 73.55 73.47 72.88 72.56
69.07 69.63 69.39 68.97 68.49 68.20 67.54 67.45 68.29 66.89 65.76 64.17 66.64 68.20 67.21 65.55 61.94 60.79 64.27 66.73 68.76 68.88 69.38 69.57 70.34 71.11 71.38 71.11 72.09 72.42 70.59 70.34 70.90 71.59 72.31 73.22 73.46 73.09 72.73 72.79 72.81 72.75 72.28
69.35 70.07 69.76 69.07 67.95 68.20 68.22 67.70 67.43 66.96 66.23 65.11 64.30 64.97 66.08 65.67 65.47 63.60 61.40 63.20 65.93 67.99 68.98 68.74 69.86 70.39 70.05 71.07 69.78 69.90 69.53 69.32 69.79 69.84 69.57 71.34 72.83 73.01 73.08 73.86 74.05 73.78 73.60
67.57 68.35 69.33 68.78 68.42 68.11 67.43 67.66 67.70 67.12 66.51 66.03 65.94 65.88 65.73 63.86 63.25 64.03 62.71 62.80 61.68 63.84 66.66 67.38 68.22 68.54 68.96 68.42 71.46 70.25 69.09 68.62 69.20 68.54 67.95 70.27 71.89 72.77 72.81 72.53 73.05 74.30 74.13
65.87 66.62 67.57 67.97 67.77 68.24 68.13 67.48 66.94 66.58 66.11 65.61 65.66 65.87 66.80 65.87 66.11 65.45 64.55 63.35 62.11 62.82 65.10 67.70 68.90 69.12 71.15 69.58 69.19 68.94 68.89 68.34 68.47 68.06 67.64 68.18 69.28 70.29 70.86 71.54 72.12 72.45 72.89
65.65 66.45 67.16 67.86 68.31 68.94 68.42 67.82 67.34 67.34 66.42 65.97 65.25 65.42 65.74 66.37 67.21 65.95 65.02 63.50 61.78 61.55 62.39 65.28 67.43 68.22 68.81 69.76 69.99 69.03 67.37 67.12 66.56 65.93 65.74 65.99 66.78 67.59 67.95 68.69 69.67 69.76 69.98
67.87 67.53 68.36 67.14 67.90 68.22 67.84 67.57 66.86 66.71 66.80 66.46 66.49 65.49 65.16 65.41 66.94 67.48 66.89 65.78 63.11 59.01 58.81 64.21 64.55 65.75 66.16 65.76 66.38 64.72 64.69 65.38 65.17 64.42 63.82 64.00 64.32 64.77 65.58 66.21 66.82 66.76 67.10
66.95 67.61 67.93 67.03 65.97 66.17 66.04 65.83 65.51 65.42 65.20 66.18 66.86 66.50 66.01 66.26 66.37 67.36 66.89 67.16 66.14 62.83 59.76 64.06 63.73 64.01 64.20 63.89 64.26 62.04 62.53 62.90 62.83 62.04 61.29 61.28 61.82 62.40 62.72 63.03 63.62 64.45 65.09
65.33 67.46 67.23 65.43 64.84 64.21 63.72 63.26 63.18 63.22 62.81 63.01 63.87 64.77 64.16 64.59 65.28 66.16 66.21 65.98 65.19 64.83 61.27 61.88 62.54 62.52 61.19 59.68 59.70 59.79 60.22 59.57 60.24 60.83 60.22 59.53 59.04 59.10 59.38 59.94 60.38 61.03 62.01
64.73 65.60 63.93 63.45 63.85 63.72 62.64 63.18 62.72 62.37 61.21 60.82 61.04 61.84 62.75 63.79 62.75 63.68 64.49 64.13 64.01 63.60 62.55 59.86 60.17 59.89 58.54 58.70 58.78 58.25 58.61 59.34 58.97 60.11 59.39 58.84 58.03 57.20 56.65 56.45 55.99 55.89 56.45
63.63 64.18 63.62 62.53 62.53 62.85 62.15 61.49 60.51 60.33 59.37 58.68 58.78 58.62 59.52 61.18 61.41 61.32 61.59 61.66 61.45 61.68 62.39 61.27 58.74 59.62 58.22 58.03 56.69 57.13 57.29 56.83 57.79 58.19 57.83 58.25 57.72 56.74 55.68 54.88 53.70 52.48 51.84
63.45 62.88 61.96 61.04 60.86 61.90 62.11 61.13 60.34 59.03 58.25 57.29 57.31 57.59 58.90 60.95 61.48 59.74 60.59 60.39 59.78 60.81 61.31 59.86 58.52 58.02 58.16 57.51 56.87 55.14 54.27 55.14 53.56 54.96 55.41 54.70 55.28 55.91 55.07 54.28 53.32 52.21 51.37
63.38 61.57 60.37 59.41 58.82 60.13 61.02 60.82 60.59 59.42 57.96 56.61 56.43 57.34 58.39 59.71 59.70 60.37 58.70 58.96 58.52 57.61 58.88 59.04 58.20 58.38 57.86 56.07 55.26 55.50 53.69 53.14 53.72 53.64 52.64 52.34 51.39 50.66 51.14 52.47 53.42 53.03 51.77
62.05 60.31 59.06 58.38 56.50 56.76 56.34 60.03 60.83 60.54 59.00 57.37 56.25 55.39 55.97 55.78 54.68 57.17 58.43 60.87 59.68 56.41 54.93 57.74 57.45 56.89 57.27 56.05 55.55 53.89 52.69 52.01 51.16 54.78 51.14 51.66 50.63 48.15 48.04 49.02 52.98 52.42 52.15
61.43 58.92 58.07 56.41 53.08 52.69 54.68 58.21 60.18 56.96 56.69 56.79 53.60 52.84 53.53 53.55 50.53 48.62 52.24 54.36 56.58 58.67 58.73 56.78 54.01 54.65 56.43 57.81 56.51 54.32 54.35 54.50 52.35 52.11 51.36 50.92 52.80 51.64 49.44 49.82 52.11 51.81 51.67
61.88 58.52 57.65 53.88 51.50 51.64 52.70 55.93 57.29 54.29 53.13 53.86 54.16 52.47 51.10 50.80 50.46 46.88 45.58 45.12 45.70 49.84 52.40 52.96 50.68 52.10 56.17 56.61 55.19 54.15 51.85 49.92 50.66 52.80 52.51 48.65 50.10 49.84 51.80 47.63 52.56 51.65 51.15
61.93 60.20 57.52 53.86 50.77 49.64 50.29 51.77 55.08 52.53 50.71 49.81 50.63 50.88 50.16 49.75 53.06 51.82 47.85 46.69 45.62 45.48 50.58 52.58 53.18 53.63 54.04 53.94 55.57 54.19 51.70 50.26 47.74 49.49 52.85 47.30 45.53 44.50 46.11 46.11 47.39 51.94 51.02
59.83 58.52 55.29 53.51 52.30 49.19 48.98 49.08 54.74 53.33 49.98 49.34 48.22 47.31 51.26 48.98 50.25 51.43 48.94 47.82 48.00 48.07 46.94 47.68 47.76 49.16 49.32 50.72 52.48 48.60 48.07 49.24 51.57 46.65 47.41 49.47 45.93 45.50 44.04 46.42 47.05 47.36 46.02

GFSMA_sfc_wetblb_033.txt.gz
Wetbulb
68.97 69.49 71.38 71.60 71.85 71.94 71.63 70.68 70.64 70.69 69.24 69.51 70.28 70.18 70.55 70.96 71.21 71.39 71.85 74.65 76.15 75.84 75.54 76.15 76.33 75.64 75.34 75.49 75.37 74.86 74.63 73.49 73.96 73.99 73.39 74.54 73.61 73.37 72.79 73.68 73.05 72.45 72.17
68.94 69.94 69.42 68.88 69.08 69.66 70.46 69.76 68.70 68.65 68.54 67.28 67.56 69.06 68.94 68.89 70.04 71.50 71.45 72.03 75.67 75.72 75.70 76.03 76.33 76.53 75.63 75.35 75.65 75.42 75.00 74.14 74.26 74.60 74.20 74.43 74.66 74.06 73.50 72.68 72.97 72.95 73.09
69.91 70.45 69.31 67.75 67.89 67.95 69.39 68.41 67.80 67.37 66.60 66.11 65.96 67.82 67.62 67.89 68.85 70.86 71.24 71.84 72.67 75.78 75.68 76.03 76.38 76.73 77.00 76.66 76.20 75.88 75.88 75.35 75.21 74.91 74.58 74.75 74.38 74.40 74.28 73.61 73.55 73.28 73.44
67.34 70.41 70.66 69.33 69.55 68.27 68.23 67.93 66.83 65.76 65.18 64.50 64.30 64.94 66.27 67.56 68.12 69.59 71.50 71.67 71.94 72.32 74.58 75.89 75.31 75.32 76.73 76.52 76.64 76.20 76.03 75.28 75.23 75.21 75.03 74.67 74.65 74.45 74.32 74.07 74.01 73.68 73.68
70.93 69.92 70.57 70.51 70.01 69.56 68.16 67.57 66.87 66.05 63.94 63.19 63.53 63.84 65.14 66.30 68.05 70.11 70.76 71.33 71.60 72.13 71.71 73.89 75.38 75.00 75.82 75.94 75.66 76.54 75.98 75.88 75.57 75.40 75.32 75.12 74.87 74.59 74.21 74.23 74.12 73.95 73.77
71.17 70.29 69.89 69.89 69.67 68.81 67.82 66.57 65.97 65.76 64.95 64.28 66.07 67.53 66.92 67.21 68.09 68.97 69.77 71.41 71.22 71.55 72.11 71.95 71.74 72.99 74.94 75.43 74.95 75.62 75.84 75.37 75.61 75.53 75.45 75.22 74.94 74.20 73.82 73.80 73.55 73.73 74.01
67.18 66.85 65.90 68.76 68.61 67.89 67.89 66.98 65.47 64.36 63.62 64.89 64.26 63.75 64.15 66.56 68.41 68.34 68.63 69.34 70.36 71.68 71.51 71.49 71.68 71.65 72.15 74.08 74.17 74.24 74.99 74.97 74.67 74.66 74.48 74.62 74.01 73.19 72.99 73.33 72.71 73.02 72.96
67.42 65.98 66.30 68.68 67.95 67.61 67.03 66.64 67.16 66.23 64.27 65.47 63.62 62.63 61.06 62.08 65.19 67.53 67.64 68.43 68.83 70.61 70.62 71.27 71.33 71.26 71.36 71.43 72.05 74.13 74.40 74.47 74.03 73.26 73.86 72.99 72.69 72.34 72.20 72.76 72.34 72.37 72.61
69.94 69.06 68.37 67.73 67.33 66.94 66.67 66.22 66.03 66.08 63.83 66.77 65.07 62.86 59.46 59.09 62.19 64.79 66.41 67.71 68.31 68.83 69.80 70.54 70.81 71.13 71.04 70.57 71.60 71.71 73.36 73.43 73.88 73.61 73.43 73.12 72.85 72.47 72.36 72.19 72.51 72.78 72.58
68.89 69.33 68.76 68.47 67.53 67.03 66.51 66.42 67.34 66.19 64.72 63.29 65.64 66.46 64.82 64.73 61.18 59.89 63.63 64.86 67.10 67.71 68.36 68.56 69.24 70.07 70.48 70.24 71.85 72.40 71.39 71.26 71.50 71.28 71.33 71.48 72.24 72.58 72.81 73.01 72.99 72.49 72.03
67.75 68.71 68.70 68.18 67.55 66.96 66.89 66.92 66.42 66.41 65.62 64.04 63.62 63.55 63.60 65.13 65.69 62.65 60.60 62.80 64.52 66.35 68.04 68.09 68.70 69.13 70.51 71.07 69.97 71.30 70.83 70.68 70.82 71.23 70.07 70.16 71.13 72.36 72.61 72.18 72.51 73.13 73.55
66.22 66.56 67.95 67.75 67.44 67.26 66.78 66.58 66.69 66.53 65.87 65.17 64.56 64.26 63.55 63.36 63.81 62.50 61.14 62.58 62.53 64.67 66.47 67.32 67.41 69.47 68.83 68.49 70.76 70.34 69.85 69.12 69.05 69.55 68.71 69.12 70.05 70.86 71.46 71.89 72.28 72.56 72.82
63.99 65.21 66.49 66.94 66.87 67.36 67.44 66.41 66.09 65.79 65.54 64.86 64.77 64.54 65.21 64.81 65.61 63.99 63.70 62.82 62.13 63.52 65.65 67.12 68.00 69.83 69.60 69.06 69.44 69.71 69.76 68.64 67.46 66.63 66.97 67.28 68.02 68.60 69.23 70.08 70.89 71.35 71.86
63.98 65.87 66.90 66.83 67.32 67.52 67.03 66.51 66.13 66.15 65.17 64.71 64.76 64.80 64.77 65.42 66.17 65.05 63.86 62.79 61.68 62.14 63.20 64.94 66.75 67.09 66.87 67.18 68.31 67.64 66.07 66.21 65.76 64.92 64.98 65.12 65.90 66.87 67.41 67.95 68.58 69.19 69.52
66.96 67.86 67.70 65.41 65.70 65.54 65.83 66.03 65.30 64.74 65.26 65.17 65.05 64.58 64.24 64.80 66.67 67.01 65.50 65.16 63.36 59.71 59.79 63.93 64.40 65.44 64.97 64.94 65.31 63.12 63.12 64.27 64.02 63.07 62.68 63.04 63.60 64.22 64.58 65.10 65.28 65.63 66.06
66.38 65.60 64.53 64.28 63.81 63.63 63.63 63.15 62.98 63.06 63.42 64.74 65.28 64.88 65.26 64.85 64.98 66.31 66.24 66.05 65.11 62.76 60.60 63.97 63.17 63.29 63.10 62.57 63.17 60.94 61.49 62.07 62.25 61.79 61.04 60.75 61.15 61.55 61.99 62.68 63.48 63.93 64.20
64.18 63.70 63.20 63.06 62.57 62.02 62.16 61.78 61.64 61.30 61.14 61.07 62.15 62.38 62.62 63.26 63.67 64.72 66.03 65.80 65.42 64.43 61.66 61.59 62.43 61.60 60.09 59.34 59.38 59.43 59.89 59.31 59.88 60.82 60.06 59.43 58.97 59.10 59.30 59.64 60.04 60.64 61.40
62.92 62.53 62.58 62.12 62.00 61.48 61.40 62.24 60.47 59.68 59.24 58.94 59.32 60.44 61.03 62.66 61.80 62.32 63.29 62.93 64.40 64.70 62.98 59.57 60.05 58.60 57.80 58.32 58.40 57.88 58.15 58.42 58.57 60.12 59.43 58.72 57.54 56.82 56.31 55.99 55.48 55.64 55.97
62.49 62.13 61.43 61.06 61.10 60.70 59.80 59.36 58.43 57.66 57.40 57.42 57.80 58.56 59.73 61.21 61.29 60.78 60.21 60.07 60.07 62.04 61.53 60.13 58.10 58.56 57.72 57.82 56.53 56.96 56.27 55.57 56.87 57.78 57.31 57.79 56.70 55.68 54.97 54.23 53.22 52.19 51.45
61.93 60.67 59.81 59.90 60.66 60.75 60.15 59.51 57.99 56.53 56.63 56.65 57.21 58.79 59.21 58.40 57.68 58.66 59.31 58.62 61.17 61.31 60.89 58.84 57.68 57.18 57.16 57.10 56.73 54.98 53.72 54.30 53.34 54.41 54.86 54.34 55.19 55.50 55.07 54.32 53.15 52.12 51.46
61.08 59.76 58.75 58.03 58.28 58.76 59.57 59.15 58.47 56.33 55.22 54.92 55.16 55.52 56.09 59.34 60.48 61.16 58.48 57.36 57.28 59.73 59.47 58.40 57.88 57.26 56.77 55.57 54.76 55.20 53.13 52.97 53.38 53.23 51.17 51.32 50.03 49.87 51.02 52.58 53.26 52.66 51.62
59.47 58.95 57.33 56.25 54.71 55.68 56.21 60.09 59.59 57.27 56.71 54.96 53.05 51.39 52.43 53.63 54.68 58.26 59.72 60.80 58.60 56.15 58.01 57.98 57.62 56.98 57.10 56.49 55.39 54.18 52.51 52.37 51.32 53.65 51.00 51.37 49.13 49.49 48.87 50.38 53.14 52.39 51.83
59.90 57.81 55.79 54.29 52.49 52.49 55.76 57.46 58.77 56.63 54.50 52.57 51.59 49.88 49.74 50.02 49.26 49.09 53.91 55.30 56.28 57.87 58.32 57.31 54.79 56.11 56.83 57.36 55.57 53.73 53.16 54.36 52.69 53.29 51.55 50.89 52.62 50.47 48.52 48.77 52.16 51.60 51.58
59.67 57.98 54.56 53.24 51.38 51.00 54.01 54.77 56.20 54.08 53.12 52.53 51.53 50.66 49.03 47.73 47.65 46.32 45.74 46.03 46.65 49.63 49.78 51.37 53.01 54.39 57.51 57.65 56.47 55.83 54.90 51.52 51.01 51.72 51.23 48.08 50.42 49.19 50.14 46.93 52.45 51.60 51.03
59.50 57.44 55.01 53.39 50.73 49.52 50.42 53.25 53.03 51.18 49.93 49.15 49.80 50.21 49.44 50.18 52.58 51.38 47.30 45.57 45.08 45.55 50.80 53.18 52.99 52.74 53.39 54.84 54.14 52.16 50.77 49.92 50.22 51.79 54.01 46.50 44.59 43.75 47.72 44.96 46.66 51.69 50.95
58.72 56.35 53.81 52.60 51.62 49.22 48.41 50.09 52.27 50.60 48.70 48.01 47.20 46.45 50.77 49.20 51.57 49.99 48.22 47.99 47.76 47.27 46.32 46.72 47.02 46.92 47.70 48.52 51.35 47.30 50.65 51.21 51.58 49.60 52.13 50.43 44.07 44.12 43.64 44.84 45.52 46.19 44.95

GFSMA_sfc_wetblb_036.txt.gz
Wetbulb
71.85 70.33 71.38 72.71 73.06 72.97 73.14 73.14 73.39 73.38 72.76 72.37 72.64 72.00 71.82 72.85 72.91 72.64 72.80 74.16 75.18 75.52 76.29 75.78 74.67 75.19 75.33 75.86 75.38 75.08 74.96 73.91 73.46 74.39 74.13 74.13 73.90 74.09 73.56 73.01 73.22 72.63 72.09
70.52 70.37 70.91 71.01 71.25 72.04 72.70 72.58 71.66 71.89 71.84 70.76 69.97 71.01 70.97 71.21 71.78 72.53 72.71 73.86 75.22 75.20 75.66 75.96 75.36 75.78 75.65 75.97 75.81 75.64 75.04 74.79 74.27 74.57 74.80 74.00 74.22 74.05 73.90 72.93 73.69 73.20 72.95
71.39 71.13 71.10 70.27 70.16 69.82 71.16 71.07 70.35 69.99 69.79 69.35 68.99 68.98 69.88 69.99 69.91 70.65 72.25 72.93 73.42 74.74 75.62 75.43 75.43 76.10 76.19 76.67 75.98 76.07 75.80 75.45 74.92 74.52 74.87 74.20 74.52 74.22 73.77 73.98 73.72 73.62 74.03
68.73 68.99 70.51 70.90 70.24 69.91 69.12 69.37 68.83 68.35 68.13 67.86 67.79 68.06 68.40 68.64 69.18 69.55 71.38 72.95 73.21 72.74 74.68 75.68 75.23 75.20 75.56 76.58 76.71 76.34 75.98 75.80 75.20 74.82 74.95 74.77 74.64 74.38 74.28 74.11 73.92 74.02 73.60
70.79 70.05 70.49 71.08 71.89 70.75 70.09 69.17 68.60 68.31 67.25 66.69 65.94 66.36 66.60 67.00 67.63 68.68 70.17 71.62 72.65 73.69 73.17 74.05 75.06 74.99 75.61 75.72 75.98 76.03 76.35 75.62 75.37 74.75 75.09 75.27 74.69 74.26 74.00 74.23 74.18 73.94 73.74
71.90 71.60 71.44 71.59 71.15 70.54 69.98 69.08 68.53 68.13 67.77 67.02 66.55 66.86 67.20 66.70 67.98 68.79 69.08 71.11 72.51 73.10 73.82 73.77 74.33 74.00 75.22 75.16 74.94 74.79 74.74 74.77 74.75 74.85 75.02 74.94 74.25 73.89 73.56 73.67 73.66 73.72 73.73
68.71 68.71 69.01 69.36 70.48 69.88 69.94 69.14 68.31 67.45 66.57 66.49 66.17 66.02 66.74 68.20 68.64 69.44 70.35 70.39 71.59 72.97 73.27 73.98 74.09 74.14 74.04 74.52 74.15 74.72 75.04 74.73 74.02 74.22 74.05 73.75 73.75 73.43 73.47 73.25 72.97 72.90 73.35
69.78 68.38 68.03 69.78 69.81 69.43 69.34 69.00 68.02 66.98 66.39 66.26 64.98 64.62 64.10 65.53 66.06 68.35 69.63 70.02 70.17 71.49 72.48 72.94 73.39 73.24 73.56 73.74 73.97 73.53 75.00 74.80 74.82 74.32 73.04 72.95 71.18 72.46 72.70 72.48 72.23 72.20 72.60
70.31 70.25 69.81 69.37 69.07 68.85 68.56 68.47 67.95 67.25 65.09 67.09 66.81 65.93 61.84 61.92 64.14 65.58 67.85 69.05 70.25 70.68 71.59 72.29 72.80 73.26 73.24 73.60 73.48 73.55 73.59 73.51 74.57 75.00 73.74 72.91 71.99 72.10 71.27 72.18 72.15 71.74 71.83
69.65 70.17 70.00 69.66 69.47 69.12 68.56 68.53 68.85 67.72 66.89 65.39 67.58 67.45 67.25 65.94 61.87 60.30 66.58 66.00 69.38 69.23 70.05 71.11 71.86 72.40 72.82 73.42 72.64 72.40 71.92 72.01 72.81 72.82 72.29 72.10 72.51 72.63 71.72 72.32 72.58 72.22 72.03
68.30 68.67 69.38 69.18 68.87 69.05 69.03 68.71 68.60 68.67 67.56 66.66 66.39 66.23 66.64 67.27 67.46 65.08 62.53 64.01 66.96 67.93 68.13 68.58 71.04 71.82 72.26 71.47 72.28 72.20 71.23 70.92 70.69 70.90 71.01 70.60 71.14 71.47 71.73 71.63 71.66 71.74 72.18
66.94 67.61 68.59 68.78 68.89 69.05 69.01 68.87 68.78 68.42 68.24 67.68 67.25 66.94 66.17 65.86 65.45 64.22 62.82 62.85 63.26 66.18 67.90 69.19 69.41 69.77 69.53 70.54 71.62 70.75 69.91 68.94 68.23 68.19 68.16 68.21 68.85 69.80 70.33 70.06 71.32 71.97 71.84
65.80 66.84 67.97 67.93 68.02 68.56 68.92 68.76 68.40 68.22 68.26 67.47 67.34 67.02 67.66 67.84 67.52 66.98 64.86 63.72 63.66 64.83 66.20 67.13 68.02 69.51 69.64 69.28 68.92 69.05 69.16 67.88 66.78 66.36 66.67 67.10 67.76 68.61 68.96 69.54 70.19 70.54 70.91
66.29 68.81 67.43 67.05 67.07 67.68 68.02 67.81 67.47 67.81 67.68 67.41 67.14 67.45 68.04 68.35 69.02 67.66 66.08 64.66 62.05 63.04 64.49 65.46 66.57 66.36 66.77 67.02 67.43 66.42 66.07 65.69 65.13 64.65 64.74 65.05 65.80 66.67 67.39 67.77 67.99 68.30 68.75
67.46 66.14 65.87 65.44 65.26 65.37 65.59 65.70 65.30 65.46 66.51 67.27 67.09 67.37 67.32 67.97 68.98 68.73 67.97 67.70 65.32 60.47 61.40 64.39 65.00 64.81 64.40 64.78 64.66 63.18 63.35 64.00 63.71 62.88 62.51 62.73 63.29 64.05 64.63 65.19 65.32 65.66 66.09
66.09 65.04 64.55 64.49 64.19 64.31 64.19 64.00 63.80 64.11 64.42 64.94 65.40 66.01 66.61 67.47 68.13 68.71 67.70 67.93 67.50 64.26 61.34 64.37 63.03 61.82 62.24 62.54 63.04 61.49 61.97 62.35 62.40 61.69 61.01 60.78 61.31 61.73 61.95 62.51 63.07 63.64 64.31
64.63 64.23 64.01 63.50 63.06 63.16 63.48 63.06 62.58 62.26 62.23 62.73 63.61 64.19 64.51 65.46 65.89 67.02 68.47 68.31 67.14 66.28 62.00 61.80 62.24 61.01 59.84 59.42 59.51 59.53 60.05 60.05 60.41 60.50 59.83 59.23 58.90 58.78 59.20 59.42 59.86 60.49 61.29
63.96 63.73 63.15 62.74 62.31 61.69 61.07 60.69 60.44 60.63 60.48 60.81 61.33 62.57 61.94 63.49 63.15 64.41 65.44 65.80 66.98 66.17 63.24 59.49 60.05 58.10 57.98 58.58 58.27 57.75 57.73 58.04 58.28 59.71 58.71 57.73 56.99 56.33 55.66 55.44 55.13 55.39 56.09
63.21 62.93 62.80 62.12 61.71 61.05 60.21 59.81 59.51 59.54 59.55 59.85 60.75 61.23 61.49 62.27 61.72 61.98 62.59 62.69 64.05 64.13 63.60 61.31 58.66 58.82 58.00 58.06 56.77 56.57 55.63 55.13 56.29 57.46 57.00 57.12 56.37 55.46 54.70 53.83 52.95 52.46 51.84
62.48 61.88 61.81 62.14 62.06 61.59 60.47 59.44 58.79 58.29 58.15 57.66 58.19 58.99 59.96 60.83 61.36 61.65 61.50 61.84 62.51 61.48 60.78 59.24 57.82 57.31 57.13 57.21 57.13 55.30 53.15 54.16 53.32 53.53 54.36 54.15 54.94 55.60 54.91 53.87 53.21 52.55 51.85
61.69 61.29 60.30 59.75 59.96 60.65 60.66 59.41 58.65 58.14 57.76 56.06 55.39 56.05 59.11 61.07 61.55 61.83 61.11 61.11 62.32 60.92 59.63 58.60 58.04 57.29 56.23 55.70 55.26 55.68 53.22 53.59 53.95 54.31 53.49 52.06 51.60 51.68 52.59 53.48 53.14 52.71 52.31
60.95 60.27 58.81 57.95 57.85 58.58 58.11 59.80 59.61 58.07 56.24 54.27 53.64 53.78 54.19 55.37 57.28 58.57 59.30 59.85 60.54 61.60 59.92 59.08 58.56 57.51 57.11 57.27 55.67 54.74 53.07 53.15 52.42 56.01 53.51 52.37 53.94 51.63 52.07 52.68 52.95 52.19 51.81
60.77 58.52 57.18 56.50 56.18 58.04 56.45 57.70 58.61 56.55 55.34 54.37 53.07 52.18 51.51 51.33 53.40 54.57 54.91 54.97 55.30 56.96 59.25 60.32 58.91 57.71 57.89 58.12 56.91 54.65 54.38 54.79 53.79 54.25 54.43 51.55 53.66 52.53 53.72 53.54 52.48 51.75 51.29
60.02 57.44 55.40 55.06 55.23 54.74 54.26 54.76 56.10 55.96 54.78 53.84 53.68 53.46 52.21 52.13 52.47 52.46 52.32 51.33 51.68 53.76 54.43 55.39 55.89 55.57 58.67 59.11 58.19 57.30 56.35 52.90 53.82 53.82 54.15 50.67 51.90 51.08 53.34 54.08 52.68 51.81 51.19
59.40 57.05 55.29 55.01 54.09 53.04 51.73 52.55 54.96 54.24 52.93 52.08 52.08 53.54 54.19 53.78 51.96 51.32 51.62 51.10 51.65 51.55 52.06 52.62 52.33 52.05 53.87 54.40 55.55 57.40 55.52 54.65 53.16 53.45 55.06 51.66 50.95 51.43 50.79 53.20 53.64 52.08 50.84
58.40 54.87 53.31 53.25 51.98 51.52 48.57 51.10 53.26 53.31 52.02 51.43 50.90 50.61 50.82 52.99 50.34 50.01 53.50 52.73 51.87 51.91 52.34 52.70 51.26 51.05 50.90 51.26 51.08 52.50 54.64 54.33 54.60 53.15 55.80 54.34 51.86 51.64 50.89 52.67 53.12 53.29 52.12

GFSMA_sfc_wetblb_039.txt.gz
Wetbulb
73.64 72.91 72.05 74.46 75.05 76.43 76.47 77.72 76.91 76.06 75.70 75.70 75.95 74.98 74.48 74.79 74.96 74.31 73.93 74.37 75.15 75.60 75.90 75.63 75.63 75.67 75.44 75.79 75.68 75.16 74.50 74.38 73.54 74.19 74.47 74.18 74.09 74.00 73.98 73.29 73.39 72.62 71.97
72.66 74.75 74.18 73.60 75.12 75.75 75.96 75.81 76.66 76.54 76.53 75.79 74.86 75.19 74.95 74.60 75.24 75.27 74.75 74.33 74.82 75.63 75.86 75.93 76.45 75.30 75.44 75.93 76.18 76.03 75.54 75.41 75.00 74.48 74.76 74.87 74.59 73.94 74.16 73.83 73.24 73.44 73.31
75.39 74.55 73.93 73.87 74.77 75.37 75.43 75.38 75.45 75.14 75.07 75.43 74.89 74.44 74.15 74.38 73.92 74.15 74.54 75.19 75.13 75.19 75.58 75.80 75.89 75.49 75.31 76.64 76.63 76.11 75.94 75.69 75.49 74.84 74.44 75.04 74.39 74.53 74.26 74.04 74.11 74.09 73.84
75.04 74.81 74.61 74.34 74.66 74.58 73.95 73.03 73.50 73.47 73.55 73.45 73.24 73.02 73.35 73.46 73.40 73.76 73.84 74.08 74.83 75.03 75.47 75.40 75.59 75.44 75.51 75.43 75.97 75.81 75.49 75.44 75.14 74.89 74.67 74.84 74.96 74.46 74.53 74.33 74.31 74.04 73.79
74.23 73.31 73.11 73.54 75.14 73.57 72.63 72.86 72.68 71.90 70.48 72.05 71.80 72.16 72.13 71.68 72.00 72.51 73.01 73.40 73.64 74.30 75.06 75.48 75.21 74.81 75.95 75.64 75.73 75.89 75.39 74.22 74.09 74.19 74.91 75.06 74.76 74.33 74.12 74.14 74.28 74.03 73.71
74.51 74.10 73.32 74.26 75.06 74.77 74.23 73.95 73.33 73.07 72.63 72.30 71.21 70.64 71.13 71.40 70.97 70.57 70.93 71.68 72.81 73.90 75.16 75.85 75.70 75.36 75.30 75.68 75.71 75.62 75.31 74.71 73.53 73.53 73.89 74.07 74.21 74.03 73.49 73.32 73.50 73.41 73.54
72.35 73.52 72.85 73.84 74.48 73.99 74.07 74.26 73.30 72.43 71.05 71.07 70.09 70.54 70.80 71.62 71.43 71.60 72.09 72.39 71.93 74.03 75.46 75.77 77.68 78.00 75.59 74.94 74.81 74.73 74.70 74.39 74.71 73.77 73.27 73.49 72.44 73.29 73.40 73.17 72.74 72.57 72.69
73.92 73.70 73.92 74.18 74.67 73.30 73.53 73.32 72.58 70.10 69.35 71.02 69.00 68.88 66.22 68.69 69.98 70.90 70.92 72.03 72.81 73.34 74.28 75.15 76.03 76.58 77.19 76.77 76.42 74.86 75.04 75.21 74.59 74.41 73.94 72.85 73.05 72.43 72.28 72.51 71.80 72.33 72.31
73.62 73.61 73.75 74.07 73.80 72.98 71.85 72.77 72.38 70.16 67.96 68.77 70.63 69.58 66.39 64.71 67.79 68.05 69.38 70.37 71.42 72.24 73.18 73.79 74.70 75.03 75.95 76.65 75.48 75.14 73.50 73.09 73.59 74.39 74.57 73.87 72.77 72.25 72.00 71.43 70.87 71.34 71.89
72.26 72.62 72.87 73.26 73.64 73.15 72.55 72.49 72.68 71.14 70.08 68.74 68.45 69.00 70.43 69.23 67.40 64.75 69.06 68.67 69.90 70.49 72.40 73.67 74.03 74.92 75.63 76.36 74.54 73.31 71.98 71.63 71.98 72.79 73.00 72.69 72.29 72.26 72.08 72.33 72.09 71.73 70.85
71.87 71.95 72.57 72.60 73.49 73.66 73.25 72.66 72.33 71.89 69.91 69.09 68.00 69.44 67.82 69.65 70.70 69.24 65.39 65.90 68.26 69.13 69.35 70.59 73.04 73.87 73.26 73.17 73.11 71.92 70.32 69.63 70.11 70.65 70.86 70.84 70.53 70.74 71.10 71.02 70.89 71.38 71.56
70.98 72.28 72.40 71.48 71.77 72.37 72.57 72.77 72.50 71.65 71.64 70.08 69.98 70.84 70.47 68.53 68.95 68.50 68.11 65.76 66.50 67.76 69.19 70.22 70.71 70.99 71.87 73.00 71.93 70.57 69.59 68.56 67.86 67.68 67.76 68.21 68.67 69.34 70.30 70.72 70.38 70.04 70.35
69.14 70.57 71.29 69.35 69.56 71.10 72.05 72.85 72.23 72.33 71.92 70.65 70.44 70.53 71.68 71.83 72.22 71.83 69.74 66.61 64.49 66.27 67.56 67.48 68.07 68.79 69.53 69.53 69.40 68.98 68.72 67.42 66.59 66.35 66.73 67.46 67.92 68.67 69.34 69.82 70.21 70.70 70.61
69.31 70.26 70.50 70.32 69.71 70.12 71.07 71.46 69.44 69.48 71.24 71.68 70.71 70.75 71.38 72.34 72.59 72.37 66.97 65.14 62.94 64.24 66.04 65.02 66.12 66.65 66.72 67.67 67.44 66.72 65.98 65.39 65.03 64.51 64.46 64.76 65.81 66.46 67.11 67.46 68.04 68.44 68.77
68.76 69.16 69.65 69.51 69.82 70.10 70.42 70.47 67.84 68.10 68.80 68.93 69.89 71.28 71.18 72.19 72.16 72.75 71.42 70.80 68.89 62.27 62.89 65.56 63.90 63.96 64.92 65.23 65.15 64.59 64.72 63.99 63.59 62.94 62.84 63.04 63.37 63.82 64.42 64.85 65.14 65.40 65.63
69.01 68.53 68.55 68.74 68.83 68.71 69.15 69.14 68.55 69.18 69.15 67.90 68.27 68.53 68.73 69.57 71.37 71.84 71.88 70.46 70.24 68.53 62.48 65.18 62.25 61.90 63.09 63.20 63.51 62.66 62.81 62.64 62.31 61.62 60.94 60.89 61.47 61.78 61.96 62.58 63.16 63.69 64.40
68.50 67.79 67.68 67.75 67.54 67.48 67.87 67.84 67.43 67.73 67.79 67.97 68.40 67.56 66.96 68.69 67.99 69.37 71.28 71.09 68.00 67.37 62.80 61.93 61.74 61.24 60.18 59.93 60.09 60.85 61.08 60.88 60.45 60.29 59.66 58.96 58.38 58.27 58.33 58.99 59.62 60.68 61.43
67.99 67.36 67.19 66.46 65.98 66.14 66.45 66.52 65.83 65.82 66.04 65.85 66.34 65.60 65.18 66.43 66.34 68.13 67.78 67.73 68.85 68.96 65.42 60.90 59.77 58.39 58.28 58.72 58.81 57.99 58.19 58.36 58.60 59.36 58.17 57.37 56.54 55.54 55.22 55.25 55.43 55.62 55.98
67.41 67.00 66.64 65.69 65.07 65.12 65.33 65.36 65.24 64.93 64.58 64.33 65.26 65.37 64.87 66.74 65.67 64.28 64.98 65.35 65.76 66.23 66.12 63.33 59.40 58.98 58.42 58.49 56.90 56.64 56.02 55.60 56.38 57.39 57.66 57.08 55.88 55.11 54.16 53.77 53.44 53.04 52.45
67.09 66.73 66.59 65.91 65.27 64.36 64.36 63.93 63.60 63.03 63.09 63.50 64.27 64.31 63.47 63.58 65.58 65.39 64.65 65.01 64.43 63.66 62.84 60.42 58.50 57.60 57.78 57.74 58.03 55.96 54.28 55.06 53.40 53.47 54.81 55.65 56.22 55.48 54.72 54.25 53.78 53.39 52.76
66.65 66.34 65.49 65.67 65.48 64.66 63.39 64.31 63.81 61.14 61.56 62.01 62.25 63.31 63.45 62.40 61.07 62.31 65.53 65.90 65.90 63.66 61.49 60.08 58.62 57.70 56.66 56.52 56.20 56.36 54.34 54.54 54.65 57.74 55.13 55.24 57.97 56.96 56.59 54.69 54.25 53.59 52.93
66.32 65.51 64.93 64.96 64.96 64.04 58.87 59.59 61.81 60.12 60.12 60.42 59.64 59.82 62.47 62.70 60.20 57.59 58.32 58.76 61.68 65.29 63.29 61.52 60.15 58.95 59.17 58.38 57.20 55.76 54.68 55.24 54.29 59.05 57.81 55.54 57.81 54.44 56.23 55.14 52.72 52.39 52.70
63.53 61.50 63.61 64.57 64.84 64.05 57.37 57.27 59.03 61.03 59.72 58.41 58.50 58.17 57.73 58.98 61.19 61.71 58.53 59.26 58.50 58.46 60.81 63.93 60.90 61.13 60.62 61.60 60.95 57.47 57.63 56.31 55.08 56.66 59.50 53.98 55.53 54.35 58.11 55.38 52.16 51.24 51.34
62.46 60.03 59.52 62.61 63.89 60.47 55.24 54.85 57.77 61.42 60.64 59.97 59.23 58.87 58.68 57.21 57.20 59.75 59.84 59.44 58.64 58.13 59.10 59.29 60.29 60.99 62.27 62.69 62.32 62.02 60.37 56.05 57.03 57.84 57.58 53.84 54.87 54.73 57.69 57.32 52.68 51.57 50.96
63.52 61.38 60.85 60.75 60.09 57.96 52.71 53.32 58.54 60.63 59.57 58.39 58.81 58.83 59.33 58.21 51.68 53.28 58.13 57.87 57.05 55.56 52.04 52.01 52.50 53.18 53.03 52.58 54.94 60.62 59.82 57.64 57.83 58.32 59.30 57.88 54.95 55.23 56.71 55.95 55.55 51.93 51.02
62.42 57.75 55.65 57.20 53.72 55.91 49.61 50.79 56.86 59.07 57.86 57.37 57.35 57.45 51.26 55.90 50.79 51.48 57.92 57.20 55.89 56.21 56.58 56.32 56.62 55.28 55.88 53.95 54.04 57.19 55.75 54.65 55.80 56.32 59.41 57.48 57.82 56.70 53.83 56.13 55.89 55.42 54.33

GFSMA_sfc_wetblb_042.txt.gz
Wetbulb
74.34 75.15 75.45 74.48 75.75 78.85 77.04 76.83 77.43 76.17 76.54 76.10 76.11 75.81 75.31 75.56 75.50 74.89 74.67 75.48 75.48 76.12 75.86 75.97 76.09 76.13 76.38 76.34 76.27 75.50 74.93 74.94 74.13 74.35 74.55 74.44 74.27 73.71 73.89 73.96 73.20 72.82 72.28
73.89 74.30 73.31 73.33 75.05 77.42 79.01 79.10 77.45 75.60 75.30 75.54 75.68 76.10 76.06 75.82 75.71 75.73 75.37 75.81 76.08 76.20 76.17 75.91 77.02 76.38 75.89 76.15 76.04 76.07 75.47 74.92 75.54 75.02 74.69 75.26 74.68 74.63 74.20 74.14 74.02 73.91 73.60
74.29 75.76 77.41 76.50 75.27 76.44 77.78 78.26 77.12 77.03 75.86 75.43 75.27 75.81 75.44 75.75 75.50 75.65 76.08 75.76 76.09 75.64 76.17 76.64 76.61 76.41 75.96 75.64 75.92 76.46 76.18 75.60 75.58 75.26 74.71 74.78 74.86 74.50 74.73 74.06 73.96 74.15 74.31
76.61 76.58 74.91 75.58 76.26 78.60 80.08 78.61 75.87 77.64 76.86 75.45 75.95 75.41 74.88 75.09 75.34 75.44 75.71 75.74 75.54 75.50 75.91 76.33 76.15 76.04 75.77 75.84 75.57 75.60 74.86 74.76 74.46 74.58 74.76 74.86 74.63 74.57 74.55 74.70 74.43 74.16 74.06
76.63 77.45 77.02 76.37 77.36 75.39 75.88 74.97 74.62 75.21 74.75 74.35 73.68 74.36 74.55 74.54 74.45 73.94 74.34 75.59 75.90 75.65 75.91 76.43 75.89 75.77 76.00 75.64 75.61 75.48 75.47 74.36 73.65 73.59 73.22 73.80 73.93 73.56 74.22 74.44 74.57 74.25 73.93
76.97 76.69 77.03 74.91 75.63 76.88 77.63 76.57 75.28 75.27 74.06 73.48 72.82 72.18 73.51 74.18 74.12 73.18 73.35 74.44 75.33 75.50 75.31 75.98 76.59 75.88 75.81 76.27 75.29 75.69 76.02 75.38 74.03 73.51 73.28 73.13 73.20 73.68 73.63 73.61 73.31 73.13 73.63
75.29 76.80 77.34 75.95 75.89 74.91 74.76 75.49 74.59 74.12 74.22 73.95 72.76 71.46 72.12 73.95 73.80 73.38 73.41 72.59 73.05 73.53 74.59 75.64 79.33 76.30 75.86 75.16 74.93 75.47 75.91 75.59 75.38 74.13 73.55 73.20 73.04 72.80 72.65 73.31 73.00 72.84 72.63
75.78 75.87 75.80 75.32 75.58 75.50 75.18 74.87 74.76 73.98 73.38 74.02 70.69 69.96 67.99 70.53 72.10 73.31 73.50 73.22 73.61 73.22 74.20 76.36 77.18 76.62 75.73 74.68 76.07 74.85 74.95 74.95 74.97 74.48 74.28 73.85 73.40 73.01 72.82 72.04 72.08 72.14 72.38
75.80 75.86 75.12 75.36 75.28 74.68 72.74 74.67 74.16 73.43 70.58 71.78 72.80 70.25 68.16 65.70 71.12 72.64 72.90 73.20 74.28 72.69 73.21 74.81 75.77 76.42 76.95 76.00 75.91 75.37 73.64 73.47 73.36 73.69 74.51 73.91 73.22 72.58 72.45 72.37 71.97 71.78 71.54
74.44 74.45 74.55 74.48 74.48 73.96 74.53 73.94 74.16 73.91 72.81 70.67 71.11 71.75 72.15 72.22 69.26 68.56 71.97 72.04 72.89 71.78 72.81 74.08 75.16 76.10 76.37 77.13 75.08 73.03 71.16 71.13 71.88 72.68 72.93 73.28 72.69 71.97 72.17 72.06 72.06 72.27 72.08
73.31 72.93 73.48 73.76 74.08 75.96 75.32 74.64 74.12 73.96 73.33 72.33 71.83 70.25 70.62 71.09 72.54 70.45 68.25 68.20 70.67 70.21 70.52 71.38 72.57 74.73 74.63 75.10 73.46 70.67 69.75 69.55 69.44 69.72 70.16 70.51 70.34 70.47 70.80 71.18 71.42 70.86 71.09
71.71 73.07 73.10 72.30 72.77 74.41 74.71 74.72 74.59 73.73 72.44 72.46 71.23 70.27 70.95 69.79 69.36 70.96 69.92 69.47 69.00 67.77 68.53 69.70 70.90 72.33 72.24 72.42 71.17 69.98 69.29 68.23 68.04 68.22 68.52 69.14 69.49 69.76 70.12 70.68 71.13 71.13 71.26
69.53 71.87 72.76 72.47 71.70 73.80 74.50 74.42 74.11 73.69 73.63 73.31 72.38 71.95 71.28 72.86 73.73 73.35 71.87 69.20 65.08 67.83 67.25 67.97 68.53 69.03 68.85 70.00 69.81 69.42 68.25 66.89 66.60 66.51 66.69 67.38 68.06 68.80 69.15 69.49 69.81 70.42 70.67
70.39 71.09 72.07 71.90 71.97 72.71 73.26 73.00 71.56 72.02 73.10 74.06 72.08 73.58 73.43 73.21 74.55 73.97 71.71 70.10 66.20 65.05 66.48 64.47 65.35 66.02 66.75 68.37 67.73 67.56 67.25 65.25 64.91 64.37 64.48 65.04 65.53 66.09 66.80 67.36 67.49 67.81 67.94
70.59 71.23 70.36 70.27 71.14 71.46 71.85 72.23 70.84 70.00 70.75 70.68 72.15 72.59 73.63 74.73 75.31 74.88 72.81 70.25 69.39 64.65 64.45 64.26 63.25 64.27 64.98 65.72 66.15 66.70 66.20 64.21 63.87 63.11 62.79 62.99 63.20 63.62 63.94 64.84 65.00 65.13 65.71
71.37 71.18 69.79 69.65 70.09 70.87 71.67 72.02 71.13 70.47 70.89 70.47 70.50 70.93 71.80 72.84 74.98 75.20 74.09 70.79 70.43 69.01 65.89 65.18 61.85 62.44 63.08 63.70 64.60 63.92 63.58 62.91 62.15 61.46 60.81 60.45 60.73 61.05 61.80 62.26 62.66 63.17 63.77
70.84 70.63 69.63 69.84 69.70 69.91 69.81 69.86 70.14 69.50 68.40 68.52 69.20 69.25 69.42 70.94 70.36 71.80 73.30 73.36 72.49 70.18 63.97 60.56 61.42 61.37 60.91 60.94 61.33 62.32 62.57 62.44 61.27 59.90 59.16 58.42 57.97 58.20 58.51 58.99 59.40 60.06 60.88
70.41 70.12 69.98 69.89 69.65 69.43 69.64 69.29 68.56 68.81 67.35 66.60 67.16 68.23 68.94 69.55 70.20 70.18 70.52 69.21 71.35 71.18 66.18 59.05 59.09 58.45 58.31 59.22 59.77 59.39 59.10 59.31 59.27 58.77 57.77 57.06 56.15 55.54 55.40 55.52 55.66 55.76 56.20
69.72 69.65 69.31 68.46 68.47 68.52 68.33 68.33 68.21 68.18 68.12 66.65 66.38 66.87 66.49 67.68 66.65 66.55 67.58 66.95 67.03 67.83 66.64 60.91 58.01 59.12 58.53 58.51 57.39 57.09 56.63 56.70 57.22 58.01 57.67 56.48 55.72 55.07 54.55 54.46 54.36 53.87 53.03
69.69 69.17 68.98 68.10 67.85 67.74 67.32 67.21 66.81 67.27 67.21 67.41 67.38 66.99 66.82 66.68 66.52 67.47 66.86 67.82 67.58 65.33 63.12 60.53 58.34 57.67 58.21 58.36 58.28 56.53 55.27 55.91 54.85 55.20 55.85 56.80 57.23 55.84 55.26 54.65 54.68 54.37 53.29
69.39 69.17 68.77 68.50 67.81 66.80 66.09 66.73 64.80 66.03 65.97 65.75 66.51 66.06 65.16 62.55 60.39 61.80 67.02 67.27 67.77 65.59 62.08 59.84 58.46 57.66 56.78 56.92 57.16 56.90 56.10 55.26 55.11 56.97 57.87 59.43 60.99 60.96 58.93 55.45 54.79 54.13 53.68
69.18 68.81 68.31 67.98 67.23 64.97 59.15 60.05 63.28 64.06 63.94 63.33 63.20 64.22 65.18 64.50 61.02 59.58 60.29 60.17 62.14 66.28 65.74 63.11 61.08 59.93 59.96 59.01 58.77 59.25 57.15 57.31 56.95 61.08 59.56 60.01 62.26 60.52 60.02 58.44 52.83 53.32 53.33
68.52 67.51 67.79 68.09 67.02 65.39 57.75 57.89 60.85 63.96 63.04 62.99 62.90 62.63 62.56 62.64 63.64 64.44 60.48 60.35 59.55 59.36 61.60 64.88 62.58 62.66 62.21 62.69 63.09 60.74 60.52 59.98 59.54 60.23 60.80 59.20 61.93 60.40 61.25 56.57 52.15 51.99 52.44
67.40 66.29 66.60 67.75 66.78 63.06 56.14 56.36 59.22 64.83 64.18 63.70 63.56 63.20 61.78 60.10 59.18 62.23 62.18 59.90 57.80 58.68 60.70 60.53 61.25 61.36 62.45 63.16 63.31 62.64 62.71 62.52 60.91 60.78 62.26 56.84 59.93 59.29 59.69 58.87 52.79 51.60 51.27
67.64 66.26 66.68 66.95 65.64 63.47 53.78 54.56 59.51 64.26 63.21 63.21 63.16 62.88 62.97 59.72 52.61 54.06 60.62 59.23 57.72 55.46 52.77 53.78 53.80 53.37 52.74 53.24 55.51 59.29 61.27 58.18 58.73 59.01 61.24 59.14 58.39 57.87 58.79 58.13 56.84 52.43 51.65
66.65 66.06 64.68 65.17 59.69 63.96 51.18 52.00 57.74 63.20 60.56 60.75 62.63 61.51 53.13 57.30 52.20 52.22 61.19 60.04 58.44 58.52 58.80 59.17 58.74 56.18 57.55 56.10 56.14 58.76 56.34 54.57 55.17 57.69 61.71 58.18 58.85 57.23 54.07 58.26 57.66 56.27 55.10

GFSMA_sfc_wetblb_045.txt.gz
Wetbulb
75.71 74.49 74.08 74.52 74.64 78.36 74.35 77.74 77.56 76.20 76.35 76.12 75.83 75.64 74.73 75.24 75.19 73.98 75.07 76.86 76.26 76.50 76.24 75.98 76.43 76.30 76.52 76.69 76.08 75.43 74.89 75.31 74.77 74.39 74.50 74.26 74.44 73.80 73.84 74.12 73.81 73.03 72.63
73.57 73.00 72.96 72.94 72.98 74.48 75.86 76.10 78.20 76.14 76.04 75.96 75.13 75.71 76.38 76.05 75.15 76.06 75.09 75.69 77.05 76.68 76.50 76.33 77.04 77.17 76.22 76.11 76.62 76.22 75.82 75.02 75.55 75.37 74.74 75.15 75.08 74.20 73.93 73.82 74.22 73.86 73.99
73.52 73.81 73.26 73.34 73.55 75.05 77.26 77.06 77.85 77.73 76.60 75.72 74.97 75.70 75.38 75.65 74.96 75.24 75.32 75.89 74.74 76.20 76.88 76.77 76.77 77.12 76.92 76.44 75.93 75.83 75.68 75.41 74.93 74.93 74.86 74.73 74.76 75.23 74.68 74.43 74.63 74.35 74.48
73.11 75.10 75.23 74.63 75.79 77.27 77.71 78.30 78.27 75.35 76.59 75.82 77.00 74.89 74.93 75.16 75.88 75.10 75.42 75.24 76.30 74.09 75.69 76.38 76.32 76.78 76.95 76.27 75.71 75.23 74.91 74.70 73.43 73.83 74.35 74.56 74.78 74.46 74.55 74.88 74.75 74.66 74.25
75.41 75.80 74.79 75.53 77.61 75.46 79.41 76.64 74.99 76.77 75.27 74.51 75.13 75.97 75.16 74.54 74.88 73.51 73.92 75.38 75.74 75.43 74.43 75.23 76.04 76.23 76.56 75.74 75.59 74.73 73.91 74.25 73.76 73.33 73.13 73.27 73.15 73.39 74.03 74.38 74.45 74.40 74.35
74.78 77.38 76.34 77.77 77.25 78.21 78.81 75.33 75.43 76.97 74.49 74.19 72.81 72.41 74.26 74.05 73.18 72.98 73.69 73.77 73.54 74.41 75.15 76.32 76.52 75.14 76.47 76.21 75.87 75.96 75.55 74.65 74.25 73.81 73.75 73.87 73.23 73.01 73.39 72.75 73.13 73.89 73.92
76.48 77.68 77.94 77.73 78.13 77.83 76.25 76.11 74.91 75.07 73.01 74.14 72.68 71.95 72.24 72.95 73.59 73.20 73.89 72.90 73.74 74.03 75.38 75.40 76.16 76.08 74.96 75.65 75.59 75.50 75.87 75.91 75.56 74.06 74.43 74.01 73.92 73.61 73.19 72.99 72.80 72.85 73.06
76.00 76.25 76.36 76.83 76.04 75.73 75.90 75.27 75.33 74.10 73.78 74.78 71.45 73.23 68.40 70.43 70.08 72.53 72.07 73.17 72.88 73.40 73.37 75.52 76.06 77.83 78.08 75.53 74.75 75.35 75.62 75.40 75.33 75.27 74.73 74.08 73.82 72.90 72.76 72.98 72.73 71.85 72.39
75.38 75.44 75.25 75.08 75.48 75.31 72.58 76.27 74.79 74.14 73.12 74.65 74.03 70.89 67.80 68.24 69.54 71.90 72.58 72.39 73.28 74.83 73.69 74.99 74.36 71.34 77.09 74.51 75.56 75.52 74.80 74.43 73.99 74.05 74.98 74.68 73.62 72.69 72.48 72.52 72.60 71.81 72.13
74.76 74.27 74.47 74.89 75.05 74.09 75.20 74.50 76.42 74.98 74.56 71.90 74.28 74.43 72.52 72.82 69.64 68.68 73.71 75.17 74.05 73.34 73.99 74.97 74.68 75.40 74.26 74.76 73.81 72.32 71.17 71.39 72.51 72.71 72.88 73.11 73.06 72.09 71.73 72.22 72.41 72.23 71.64
73.60 73.36 74.35 75.06 74.78 75.10 75.46 75.11 75.04 74.55 74.81 72.91 72.63 72.65 72.36 71.59 71.23 70.66 66.49 69.22 70.27 70.43 71.63 72.47 73.61 73.89 73.20 71.63 70.34 70.22 69.79 69.50 69.62 69.84 70.03 70.39 70.54 70.58 70.51 70.79 71.26 71.63 71.54
72.17 73.58 73.14 73.72 73.70 74.10 75.07 75.30 75.21 74.39 74.43 74.23 74.31 72.09 70.45 71.38 71.50 69.96 70.16 67.52 67.81 67.75 68.78 68.78 69.14 69.26 70.04 70.54 70.82 69.70 68.80 68.36 68.40 68.60 69.03 69.39 69.79 70.44 70.77 70.92 71.07 71.30 71.39
70.82 72.92 73.62 73.63 73.55 74.54 74.69 74.98 74.72 74.38 74.15 73.76 73.46 73.36 72.31 72.44 73.08 73.71 71.67 67.10 66.83 68.73 66.28 66.19 68.27 68.78 69.54 70.33 70.04 68.79 67.52 66.62 66.16 66.09 66.74 67.29 67.73 68.01 68.71 69.25 69.45 69.80 70.18
72.25 72.50 72.72 72.82 73.32 73.68 73.77 73.62 72.15 72.23 72.94 73.52 73.35 74.01 73.83 74.58 75.13 75.08 73.08 68.09 65.59 67.30 67.16 63.44 65.37 66.16 66.96 67.70 68.04 68.04 65.60 65.27 65.03 64.53 64.42 64.49 65.18 65.83 66.38 66.54 66.73 67.00 67.11
71.82 71.67 71.09 70.99 71.91 71.99 72.07 73.05 71.67 72.31 73.07 72.80 72.66 73.34 74.32 75.08 75.58 74.74 73.80 72.04 68.15 64.03 63.45 64.63 62.80 64.75 65.67 66.16 66.45 65.54 64.19 64.05 63.61 62.85 62.62 62.67 62.74 63.31 63.87 63.80 63.94 64.83 65.20
72.12 71.50 70.42 70.42 70.78 71.67 72.34 73.29 71.99 71.26 70.98 71.19 71.33 72.01 72.89 73.83 74.32 74.55 73.94 73.30 72.37 70.30 64.63 64.14 62.19 62.87 63.46 63.93 65.00 63.79 63.22 62.63 61.86 61.12 60.58 60.53 60.77 61.32 61.52 61.98 62.20 62.52 62.94
71.79 71.45 71.01 71.12 70.72 70.73 70.75 70.99 70.79 69.69 68.95 68.84 69.96 70.18 70.55 72.41 73.38 72.92 74.27 73.68 72.59 72.50 62.87 60.47 61.66 61.56 61.04 61.27 61.30 62.69 63.48 62.80 61.23 59.68 59.07 58.42 58.12 58.33 58.60 59.08 59.48 59.98 60.38
71.50 71.25 71.03 70.92 70.53 70.42 70.57 69.94 69.21 69.52 67.54 67.23 68.06 68.73 69.08 69.19 69.57 70.45 69.92 71.05 71.77 72.33 65.59 58.55 58.61 58.38 58.41 59.63 60.48 60.56 60.41 60.64 60.44 58.43 57.55 56.95 56.47 56.12 55.99 56.19 56.25 56.38 56.68
70.66 70.21 70.19 69.84 69.69 69.52 69.27 69.54 69.51 68.74 67.58 67.09 67.67 67.91 67.50 68.58 67.84 68.30 68.51 67.88 67.84 68.04 66.17 60.89 57.33 58.43 57.93 58.43 57.24 57.68 57.41 58.26 58.78 58.65 57.39 56.43 55.88 55.53 55.51 55.40 54.91 54.17 53.67
70.11 69.92 69.96 69.51 69.04 68.78 68.60 68.27 68.35 68.17 68.36 67.62 67.29 66.64 65.90 66.04 66.97 68.59 68.04 69.09 67.49 63.57 62.25 59.56 57.72 57.65 57.91 58.31 58.43 56.92 55.61 57.19 56.65 57.92 57.20 58.33 57.34 56.47 55.81 55.72 55.37 55.30 54.34
70.19 69.94 69.63 69.02 68.46 67.91 66.62 66.72 67.69 67.39 67.09 66.82 66.59 65.26 64.35 63.15 61.99 62.65 67.39 67.86 68.56 63.63 59.67 58.22 57.61 57.49 56.81 57.15 57.76 59.15 57.56 58.73 58.55 57.57 57.50 58.28 59.49 59.16 57.79 55.84 55.50 55.01 55.02
70.16 70.04 69.46 68.89 67.72 64.89 60.44 61.32 64.54 65.44 65.39 65.23 64.78 65.55 65.59 64.41 61.77 60.15 61.04 60.84 64.48 67.41 65.21 61.75 60.73 60.24 61.27 61.34 61.07 60.24 60.06 58.40 56.71 61.63 60.29 60.89 63.80 61.36 60.88 57.61 54.00 53.83 54.60
70.10 68.85 68.63 68.58 67.55 64.48 58.88 59.51 62.83 65.50 65.17 64.91 64.81 64.64 64.05 64.09 65.07 64.52 61.16 60.68 60.04 60.48 62.95 66.14 63.09 63.24 62.78 63.09 63.48 62.18 62.15 61.81 60.43 61.16 62.20 59.17 61.42 61.08 60.04 54.83 53.53 53.07 53.43
69.08 68.22 68.42 69.33 67.54 62.88 57.29 57.26 60.15 66.27 65.63 65.39 65.21 63.99 62.16 62.18 59.22 62.47 59.69 57.75 58.14 58.62 60.64 60.22 61.01 59.90 61.09 61.94 63.50 63.63 63.48 62.78 62.01 61.91 62.99 58.49 60.16 59.72 59.05 55.55 53.40 52.79 52.42
68.71 67.40 68.12 68.05 66.73 64.09 55.46 55.94 58.25 66.03 65.14 64.66 64.50 62.72 63.21 60.28 54.78 54.33 61.29 58.53 57.00 55.17 54.07 53.98 53.43 53.49 53.94 54.66 56.76 59.09 62.02 56.69 58.00 60.51 62.32 61.58 58.95 59.78 59.08 55.84 54.59 52.96 52.42
68.76 66.94 67.57 67.80 62.53 65.26 53.92 53.19 56.09 64.64 63.63 62.76 64.08 62.31 54.07 57.23 50.97 50.89 62.53 61.38 59.77 59.80 60.12 59.41 58.44 56.05 58.08 57.11 57.40 61.56 57.04 54.63 55.70 57.44 61.03 57.93 59.05 58.09 55.84 58.35 57.86 53.96 53.51

GFSMA_sfc_wetblb_051.txt.gz
Wetbulb
72.15 71.76 71.70 72.01 71.68 71.95 71.25 71.36 69.34 67.60 67.49 69.63 72.57 72.53 72.68 72.52 72.27 73.10 72.92 77.06 76.64 75.77 76.50 76.42 76.55 76.44 76.06 76.38 76.05 75.18 74.72 74.32 74.15 74.52 74.79 73.94 74.75 74.55 74.19 73.91 73.81 73.67 73.09
71.24 70.90 69.67 69.37 70.36 72.39 71.00 70.72 71.33 70.54 70.09 70.27 70.96 72.50 72.95 72.45 72.09 73.40 73.71 73.99 76.79 75.93 76.64 76.85 77.24 77.08 76.42 76.28 76.58 76.15 75.41 75.07 75.57 75.64 75.26 75.29 75.28 75.13 74.63 74.15 73.84 74.35 74.36
71.58 70.86 69.38 69.83 70.79 70.19 69.04 68.61 68.72 71.34 70.74 71.33 71.30 72.12 72.92 72.78 73.47 73.28 73.19 72.84 74.33 76.48 76.50 76.38 76.92 77.16 77.13 76.69 76.71 76.97 76.54 76.11 75.81 75.81 75.61 75.33 74.80 75.13 75.38 75.11 74.14 74.81 74.73
71.61 71.01 69.53 71.22 71.22 70.24 68.25 67.69 67.08 67.51 69.73 70.74 70.29 71.01 71.76 71.30 71.53 71.72 73.06 73.37 72.91 73.17 75.37 76.09 75.57 75.88 77.11 77.10 77.28 77.17 76.56 76.11 75.88 75.35 75.33 75.43 74.87 74.13 74.20 74.08 74.08 74.50 74.62
71.34 70.57 69.41 72.13 72.69 70.40 69.65 69.88 68.52 67.49 68.21 70.04 70.88 70.70 70.98 71.37 71.98 73.09 72.03 72.73 73.46 73.68 73.15 75.11 75.81 75.65 76.51 76.28 76.81 77.05 76.28 75.56 75.11 75.18 75.13 74.36 74.01 73.78 73.60 73.06 73.41 74.04 74.08
71.57 70.40 71.65 72.02 71.92 71.47 70.60 70.04 68.91 69.29 70.23 70.11 71.37 70.82 69.96 70.66 71.19 71.28 71.04 72.25 72.23 73.37 73.24 73.24 73.19 73.30 75.12 75.58 75.69 76.75 76.70 75.21 74.71 74.71 74.27 73.90 73.88 74.16 73.88 73.49 73.35 73.10 73.22
71.74 71.12 71.47 71.76 71.83 70.61 71.24 70.78 69.96 68.79 68.79 69.98 67.78 67.51 68.72 70.05 70.65 70.58 70.59 70.67 70.71 71.11 72.51 72.35 71.39 71.89 71.88 73.68 73.58 73.93 75.30 75.56 74.69 74.46 73.96 73.89 73.89 73.99 73.51 73.21 73.32 73.17 72.57
71.50 71.96 70.96 71.42 71.23 70.42 70.04 69.79 69.57 68.79 69.13 69.39 66.68 65.51 62.79 65.01 67.91 70.09 70.05 70.71 70.04 70.75 71.16 71.93 71.04 71.51 70.17 69.74 71.48 72.37 73.15 74.46 74.95 74.68 74.09 73.73 73.87 73.93 74.09 73.83 73.12 72.74 72.31
72.38 71.24 71.03 71.24 70.93 70.52 69.46 69.49 69.56 69.16 67.40 68.36 68.78 65.36 62.23 60.89 63.45 67.13 67.49 68.39 69.58 69.74 70.91 71.58 71.22 70.20 69.90 68.86 70.75 71.94 71.59 72.32 72.48 73.19 73.81 73.50 72.44 72.90 73.42 73.67 73.10 72.32 72.31
71.78 71.11 71.13 71.16 70.92 70.70 70.29 70.42 71.14 69.19 68.52 66.70 67.89 69.36 67.85 66.19 62.19 60.83 66.36 68.18 69.09 68.68 70.26 71.19 70.01 69.29 67.62 67.62 70.44 71.41 71.46 71.34 71.83 72.29 71.75 71.72 71.51 71.68 71.87 71.52 71.55 72.01 71.89
70.50 71.22 70.51 70.23 70.15 70.39 70.43 69.98 69.59 68.67 69.35 68.30 67.33 66.97 66.12 66.30 65.76 63.50 60.01 65.19 66.94 67.87 68.70 68.82 69.92 69.15 69.58 69.65 69.56 70.50 70.36 70.25 70.20 70.20 70.69 70.91 71.37 71.67 71.70 71.57 71.45 71.33 71.35
69.00 70.34 70.71 69.77 69.84 69.86 69.75 70.23 69.89 69.63 69.31 69.06 68.07 67.80 66.76 64.74 64.09 64.17 62.20 63.93 63.82 65.35 66.17 67.73 68.61 68.98 69.13 69.38 70.10 69.82 69.04 68.47 68.26 68.36 68.95 69.55 70.12 70.49 70.55 70.51 70.24 69.88 70.10
67.83 68.99 69.61 69.21 69.40 69.23 69.90 70.02 69.42 69.17 68.88 68.03 67.47 67.04 67.69 67.35 67.20 66.21 64.96 64.27 63.50 64.99 64.65 64.93 66.03 67.26 67.38 66.70 67.56 68.21 67.79 66.81 66.44 66.12 66.48 67.12 67.40 67.63 67.79 68.05 67.99 67.91 68.01
67.58 68.11 68.31 68.73 68.88 69.44 69.53 69.44 68.25 68.59 68.27 68.30 68.03 68.03 67.47 67.94 68.36 67.53 66.09 64.69 63.00 63.50 63.68 62.09 64.40 65.61 66.49 66.05 66.52 66.59 65.30 65.57 64.68 63.84 64.10 64.45 64.50 64.92 64.81 65.05 65.03 65.50 65.74
68.66 67.54 68.86 68.75 68.80 69.33 68.99 67.42 66.38 67.13 66.86 67.08 67.40 67.62 67.71 68.00 68.12 68.16 67.42 65.79 63.32 61.31 60.69 62.48 61.71 63.82 64.82 63.81 63.78 62.49 62.95 64.19 63.60 62.95 62.33 62.53 62.86 62.97 63.11 63.20 62.94 63.20 63.57
67.15 66.83 67.21 67.38 66.65 67.20 67.76 66.46 65.52 67.09 65.99 65.93 66.50 66.61 66.90 67.76 68.34 68.28 67.44 67.06 65.98 64.05 60.24 61.81 61.37 62.25 63.15 63.22 63.70 61.14 61.04 61.89 61.89 61.38 60.99 60.94 61.05 61.14 61.03 61.33 61.71 62.36 62.94
66.78 68.05 68.11 67.25 66.65 66.19 67.17 66.17 64.98 64.95 64.11 65.07 65.70 64.79 64.73 66.10 66.18 67.87 67.55 66.54 64.80 61.46 58.60 59.16 60.04 60.10 59.61 60.11 60.28 60.58 59.50 57.76 58.46 59.79 59.30 59.05 58.62 58.76 58.99 59.36 59.70 60.39 61.63
66.78 67.62 66.80 65.93 65.55 65.52 66.03 64.73 63.89 64.69 64.57 64.11 64.64 64.79 65.36 66.52 65.27 66.01 66.01 63.78 63.33 60.79 59.90 56.78 57.97 57.59 57.51 58.47 58.64 58.00 57.98 57.68 55.78 58.66 58.18 57.93 57.39 56.92 56.96 57.14 57.12 57.18 57.52
66.13 66.02 65.56 64.58 64.59 64.77 64.76 65.24 64.53 63.37 62.25 61.25 60.72 60.69 61.24 62.77 64.76 64.28 62.73 61.85 60.28 59.94 59.77 57.57 56.14 57.51 57.20 57.55 56.42 56.89 55.78 56.44 57.16 58.97 57.51 57.05 56.73 56.55 56.62 56.65 56.00 54.97 54.13
65.79 65.21 64.93 64.82 64.28 62.28 62.49 64.23 64.59 62.42 60.93 60.19 59.91 59.70 59.45 59.81 61.16 63.50 61.35 59.43 59.82 58.42 58.05 56.94 56.38 56.82 56.88 57.32 56.86 55.64 53.68 55.82 54.40 57.03 57.62 55.84 56.35 57.03 56.91 56.88 56.82 56.00 54.34
66.33 65.46 64.58 63.77 60.60 59.48 60.80 62.03 63.10 62.72 60.94 60.09 59.18 58.89 59.24 61.87 62.46 63.20 61.48 58.55 57.90 57.38 57.14 56.28 55.66 56.28 55.90 55.96 54.27 54.84 53.05 52.65 53.57 53.25 51.90 52.25 52.44 52.28 53.66 55.74 56.62 56.34 54.52
65.85 65.55 64.46 60.39 58.40 59.79 59.35 60.81 62.31 61.39 61.86 61.17 59.34 59.25 59.92 60.16 60.21 60.26 60.74 62.34 59.52 56.86 55.42 54.67 53.91 54.07 53.38 54.62 56.20 54.84 54.62 53.22 51.83 55.48 53.92 53.90 54.44 53.54 53.09 50.06 55.55 55.42 54.22
65.49 64.09 62.55 59.92 57.81 56.55 58.85 58.10 62.44 60.68 60.30 58.32 57.85 59.58 57.66 58.04 56.12 54.65 56.41 57.64 59.12 60.39 60.45 58.81 56.24 56.34 57.88 56.94 57.50 55.02 57.08 56.38 54.78 55.10 55.13 53.49 56.20 53.97 52.73 51.94 55.96 55.17 54.16
65.35 64.37 63.59 60.57 57.72 56.36 57.77 58.30 58.92 61.33 60.39 59.16 57.44 57.87 55.04 52.96 53.65 52.40 49.61 48.10 48.32 51.19 53.56 53.97 51.99 50.64 50.17 51.00 53.03 53.59 56.64 56.78 56.12 56.74 57.00 52.57 54.64 53.54 51.12 49.98 55.44 54.75 53.99
65.72 64.77 64.86 61.24 57.45 54.96 55.67 55.16 57.91 60.73 59.96 58.00 56.56 56.90 55.74 51.06 53.19 54.59 49.98 47.32 45.33 45.43 51.68 53.25 52.02 52.64 53.28 54.12 53.79 51.35 49.84 49.93 51.55 55.70 51.89 53.73 53.12 52.23 51.19 49.04 52.19 54.53 53.13
65.01 65.16 64.43 63.21 59.22 56.83 53.52 53.39 54.49 57.26 58.47 57.64 54.74 51.15 53.54 50.23 50.64 52.36 51.84 48.89 46.35 47.25 48.28 48.85 49.18 50.59 52.03 52.30 55.16 50.13 49.33 46.46 48.36 49.91 50.74 51.39 52.86 51.92 49.49 50.73 49.69 50.55 49.06

GFSMA_sfc_wetblb_054.txt.gz
Wetbulb
68.90 68.16 69.28 71.22 70.54 71.06 70.41 69.28 68.51 67.07 66.86 67.60 71.06 71.82 72.25 72.53 71.31 71.86 71.40 74.96 75.42 75.51 76.32 76.70 76.08 75.83 75.84 75.66 75.12 74.50 74.28 74.20 73.63 73.79 73.99 73.78 73.94 74.38 74.18 74.11 73.55 73.46 72.76
70.39 69.60 69.10 68.86 69.11 70.61 69.78 69.66 69.51 69.35 68.92 69.31 70.12 70.38 71.05 72.11 71.33 71.79 72.10 72.41 76.14 76.25 76.36 76.48 76.49 76.34 76.23 76.15 75.69 75.79 75.04 74.63 74.77 74.96 75.12 75.12 74.64 74.77 74.57 74.21 73.78 73.81 73.67
70.34 69.06 67.80 67.61 68.11 70.03 68.60 67.57 66.97 68.51 69.80 70.30 70.36 70.68 71.82 72.26 72.13 72.22 72.67 72.52 74.19 76.60 76.23 75.97 75.71 76.01 76.44 76.28 76.33 76.04 75.67 75.57 75.59 75.54 75.51 75.14 74.54 75.03 74.85 74.69 74.42 74.39 74.11
70.63 69.39 68.61 68.87 70.06 68.90 67.80 65.98 65.85 65.98 67.37 69.01 69.73 69.89 70.71 71.25 71.24 70.61 71.97 72.44 72.84 73.60 75.40 75.92 75.47 75.85 76.65 76.81 76.54 76.74 76.27 75.64 74.91 75.19 74.86 75.13 74.38 74.20 73.71 74.38 74.14 74.06 74.30
71.72 69.66 68.70 68.31 71.05 70.03 68.63 67.23 68.20 67.00 66.13 67.97 69.16 69.63 69.89 70.10 70.85 71.92 71.68 71.88 72.19 72.48 72.75 74.80 75.49 75.49 75.61 75.89 76.88 77.26 76.87 76.12 74.67 74.19 73.92 73.86 73.89 73.27 73.00 73.49 73.00 73.15 73.32
70.19 69.58 69.10 69.76 70.88 70.59 69.65 68.81 68.25 67.93 68.16 68.65 70.88 71.26 69.70 69.98 69.92 69.70 70.59 71.56 70.39 72.45 72.03 72.70 72.84 73.67 75.29 75.18 75.26 75.95 76.00 75.97 74.63 74.16 73.57 73.47 73.64 73.17 72.78 72.74 72.96 73.40 73.16
70.52 69.28 69.22 69.89 70.02 69.89 70.04 70.53 69.42 68.61 68.16 68.79 67.23 66.52 67.62 68.83 69.06 69.88 70.36 70.27 70.04 71.06 71.03 70.78 70.96 71.64 71.51 73.37 74.04 74.31 73.93 74.74 75.35 74.63 73.72 73.07 73.02 73.22 73.22 72.73 72.77 72.92 72.60
70.61 71.05 69.55 70.01 70.42 70.20 69.83 69.53 69.34 67.89 68.13 68.45 65.75 64.21 62.08 63.63 65.85 68.47 68.65 69.37 68.94 70.53 70.95 70.97 70.84 70.79 69.33 70.28 71.38 73.30 72.20 72.30 73.05 73.02 73.09 73.23 73.20 72.45 72.84 72.52 72.68 72.66 72.38
70.88 70.45 70.25 69.77 70.14 69.77 68.92 68.86 68.73 68.02 66.29 66.94 67.80 64.79 61.05 60.17 62.28 65.83 67.71 68.00 68.90 69.15 70.19 70.91 70.05 69.56 68.81 70.30 71.75 71.88 71.79 71.57 71.84 71.71 73.09 72.50 72.21 72.28 72.39 72.42 72.53 71.00 71.67
70.46 70.61 70.35 70.08 69.82 69.84 69.66 69.41 70.13 67.95 67.32 66.13 67.05 68.36 66.72 64.87 60.79 59.38 66.37 67.34 68.45 68.02 68.16 67.55 69.15 68.31 67.91 67.57 69.64 70.90 71.05 71.63 72.08 72.56 71.86 71.36 71.38 71.67 71.98 72.04 71.83 71.85 71.69
70.59 70.65 69.77 69.98 69.86 69.49 69.35 69.30 68.67 68.07 68.27 67.03 66.33 65.97 65.41 65.13 64.85 61.95 60.06 64.01 66.23 67.68 68.43 69.53 69.33 68.97 69.17 69.76 69.69 70.94 70.91 70.63 70.84 71.07 71.27 71.53 71.45 71.41 71.43 71.24 71.06 70.67 70.40
68.47 69.28 69.73 68.63 68.54 68.94 68.74 68.85 68.61 68.31 67.80 67.32 66.96 66.93 65.92 63.60 62.87 62.83 62.46 63.20 63.36 64.47 65.71 67.16 68.40 68.09 68.29 69.17 70.14 69.90 69.45 68.84 68.74 69.28 69.74 69.89 69.89 70.08 70.19 70.10 69.73 69.32 69.52
66.44 67.01 68.04 68.13 68.43 68.74 68.81 68.52 67.77 67.50 66.90 66.27 66.00 66.21 66.82 66.19 66.31 64.66 64.10 64.13 63.02 64.73 64.17 64.63 66.48 66.44 66.22 66.94 67.81 68.39 68.30 67.29 66.76 66.70 66.97 67.11 67.14 67.29 67.08 67.02 67.17 67.33 67.81
66.00 66.68 67.72 67.92 68.50 68.83 67.95 67.21 66.89 67.07 66.76 66.44 65.95 66.15 66.13 66.76 67.21 66.35 64.34 63.33 62.88 63.31 62.54 62.16 64.33 65.44 65.60 65.84 66.87 66.71 65.52 65.43 64.83 64.30 64.36 64.56 64.52 64.61 64.65 64.81 64.54 65.09 65.80
66.96 66.77 67.18 67.05 68.05 67.63 66.70 66.16 65.56 64.98 65.16 65.12 65.61 65.95 66.17 66.57 67.12 67.16 66.03 65.70 63.75 60.87 59.84 62.02 61.63 63.90 63.32 63.06 63.97 62.82 63.48 64.50 64.14 63.20 62.78 62.87 62.77 62.75 62.69 62.47 62.88 63.19 65.00
65.70 65.92 66.14 65.56 66.34 66.50 65.36 64.48 64.38 64.43 64.52 64.48 64.68 64.80 65.54 65.78 66.35 66.62 66.06 65.41 65.84 63.40 59.74 61.62 61.09 61.98 62.87 62.52 63.05 60.86 61.27 62.01 62.12 61.71 60.94 60.85 61.03 60.88 60.93 61.45 61.64 62.41 64.13
65.38 65.54 66.59 65.72 65.22 65.15 64.60 62.99 62.66 63.25 63.31 63.06 63.34 63.52 63.75 64.72 65.05 65.60 65.83 64.81 64.13 61.29 58.77 58.74 59.82 60.06 59.76 59.81 59.98 58.94 57.51 56.29 57.80 60.02 59.55 59.19 59.00 59.03 59.38 60.03 60.04 60.93 62.01
65.01 65.18 65.14 64.37 65.20 64.73 63.31 62.70 62.46 62.61 61.40 61.09 61.30 61.60 62.41 65.47 63.76 63.46 62.66 60.92 60.02 59.74 60.21 57.35 57.77 57.67 57.91 58.55 58.40 57.39 56.70 56.32 55.75 58.65 58.38 57.94 57.59 57.64 57.97 58.13 57.93 57.74 57.74
64.63 64.34 64.10 63.57 63.67 64.04 63.26 62.52 61.60 60.32 59.43 59.40 59.60 59.84 60.59 62.49 61.06 60.40 60.52 58.88 59.85 60.71 60.21 57.96 56.06 57.43 57.29 57.65 56.75 56.05 55.31 55.79 56.44 58.49 57.69 57.21 56.85 57.18 57.51 57.15 56.64 54.89 54.14
64.04 63.62 63.33 63.13 62.09 62.65 63.59 62.76 60.05 58.66 58.55 58.53 58.59 58.78 59.38 61.31 60.43 59.11 58.63 57.69 58.11 58.84 58.26 57.31 56.44 56.54 56.85 57.25 56.73 55.23 54.04 53.43 52.71 57.02 55.81 55.66 56.36 57.23 57.10 57.08 56.58 55.88 53.57
64.25 63.51 62.92 59.91 58.70 60.18 62.50 61.96 60.21 58.51 57.45 57.11 57.40 58.83 59.71 62.69 63.84 61.28 58.42 56.06 56.08 57.18 57.32 56.66 56.30 56.00 55.46 54.77 55.12 55.17 52.11 51.02 52.32 51.32 50.31 51.07 51.49 51.38 52.66 55.54 56.71 55.98 54.42
64.19 63.13 60.39 58.30 57.29 60.01 59.06 61.06 61.61 59.99 59.02 57.41 57.18 57.11 57.83 58.14 60.16 61.57 61.11 59.90 57.82 56.16 54.42 55.02 52.50 52.61 51.95 53.06 54.14 53.60 51.91 51.01 50.68 53.10 51.30 51.19 51.96 50.61 51.23 50.37 55.14 55.16 53.92
64.03 62.81 58.29 57.12 56.26 57.33 57.50 59.27 60.82 59.34 58.48 58.38 57.98 55.42 55.20 56.04 55.37 55.19 58.43 59.79 60.07 59.62 58.59 55.53 53.68 53.45 53.50 55.18 54.55 53.00 53.61 55.53 53.18 53.24 53.37 51.72 52.39 52.00 52.20 51.10 56.14 55.11 53.66
63.67 60.93 58.95 56.79 55.85 56.75 56.43 57.20 59.84 58.41 56.26 56.64 55.81 53.70 51.67 51.42 51.38 50.60 48.90 49.05 50.75 53.33 55.79 57.99 56.78 54.89 52.88 52.63 56.33 55.83 55.13 54.23 54.24 54.22 54.11 51.45 52.60 52.08 50.08 49.18 55.84 55.21 53.89
65.21 63.64 60.61 57.36 55.55 54.97 54.03 55.99 58.89 58.26 56.58 55.55 55.29 53.99 51.88 50.63 53.54 51.59 45.77 43.85 43.23 44.64 51.86 52.36 51.37 51.80 52.71 53.08 52.79 49.78 47.72 51.31 50.25 55.40 52.84 53.05 51.86 51.27 49.35 48.12 50.17 55.13 53.52
64.45 64.96 63.55 60.23 56.06 54.83 52.73 52.78 57.01 58.77 55.51 54.10 51.96 52.05 54.06 50.88 51.86 50.59 46.23 46.00 46.06 45.35 46.55 47.24 47.76 49.49 51.42 51.88 53.18 48.36 47.60 48.90 47.98 47.48 49.99 51.38 51.94 50.17 48.40 51.40 47.80 49.76 49.62

GFSMA_sfc_wetblb_057.txt.gz
Wetbulb
66.77 65.96 65.30 69.61 70.33 70.33 70.44 69.11 67.87 66.34 65.24 66.41 68.89 71.05 71.60 71.75 71.54 71.32 71.52 75.46 75.93 75.85 76.26 76.43 75.60 75.28 75.71 75.50 75.05 74.76 75.36 74.71 73.54 73.62 74.31 74.27 73.67 73.88 73.70 73.89 73.82 73.24 72.64
68.16 67.71 67.62 69.81 69.42 69.83 69.54 69.18 68.48 68.32 68.32 68.02 68.57 69.85 69.93 71.00 71.68 71.70 71.18 71.21 75.16 75.65 75.51 75.81 76.57 76.14 75.83 75.82 75.71 75.07 74.71 74.29 74.49 74.36 74.29 74.64 74.62 74.27 74.24 74.24 73.90 73.76 73.94
69.38 68.91 68.48 67.80 68.14 69.49 68.48 67.46 66.97 67.64 68.30 69.20 69.02 69.84 70.45 71.10 71.64 71.29 70.84 71.16 72.22 75.89 75.41 76.47 76.17 76.15 76.60 76.52 76.28 76.22 75.82 75.29 75.17 74.89 74.92 74.97 74.68 74.65 74.71 74.49 74.32 74.37 74.37
70.64 68.50 67.40 66.99 67.87 68.39 67.53 66.29 65.78 64.57 65.20 66.54 67.71 69.24 69.85 70.63 71.07 70.98 71.42 72.23 71.57 72.55 75.21 76.32 75.31 75.42 75.72 76.59 76.48 76.72 76.22 75.62 75.04 74.66 74.74 74.76 74.39 74.03 74.16 73.74 73.84 73.89 73.37
71.16 69.82 68.20 67.78 68.90 68.52 67.62 66.52 65.71 66.11 65.59 65.84 67.47 68.27 69.03 69.33 70.07 71.44 70.45 71.22 71.56 72.19 72.62 74.33 75.21 75.35 75.28 75.71 75.33 76.08 76.42 75.87 75.07 74.22 74.02 73.87 73.47 73.67 72.98 73.13 73.30 73.50 72.58
70.34 69.53 68.52 67.80 68.18 69.49 68.97 67.91 67.42 67.44 67.03 66.23 69.52 70.29 69.26 69.47 69.47 69.26 69.85 71.70 71.17 71.67 71.67 70.97 71.31 72.72 74.86 75.03 75.18 74.78 75.36 76.09 75.49 74.58 73.99 73.02 73.07 72.82 72.93 72.85 73.00 73.12 73.15
69.67 68.57 67.89 68.05 68.84 68.73 68.97 69.56 68.55 68.03 67.17 67.96 66.86 66.45 66.70 67.97 68.07 68.41 69.40 69.40 70.10 70.41 70.80 71.20 70.91 71.34 71.10 74.60 74.48 74.11 74.54 74.16 74.59 73.62 72.85 73.17 73.35 73.25 72.95 72.62 72.25 72.47 72.67
68.85 69.38 68.27 68.18 68.95 68.73 68.95 69.17 69.31 67.06 67.60 67.89 65.32 63.52 61.15 62.79 65.48 67.71 67.39 68.73 68.48 69.85 70.41 70.68 70.23 69.94 69.97 69.99 70.87 73.32 73.14 72.53 72.68 73.12 72.31 72.54 72.12 72.23 72.13 72.50 72.56 72.32 71.68
70.08 69.74 69.92 69.09 69.02 68.72 68.23 68.69 68.61 67.94 66.09 66.61 67.04 64.23 60.48 59.59 61.26 66.94 67.71 68.05 68.45 68.45 69.36 69.13 69.18 68.88 68.91 69.31 71.02 72.19 72.27 71.59 71.72 72.18 71.59 71.66 71.44 72.02 71.99 71.73 71.49 71.48 71.20
70.42 70.44 69.85 69.70 69.37 69.98 69.27 68.84 69.15 67.69 66.63 65.44 66.00 67.62 65.25 63.89 59.81 59.08 66.29 66.62 67.80 67.46 65.93 68.70 67.82 68.03 67.53 66.99 70.38 71.55 71.28 71.54 72.29 71.88 71.47 71.77 71.54 71.78 72.10 72.11 71.82 71.69 71.42
69.71 70.20 69.16 68.78 68.32 68.52 68.25 68.41 68.61 67.85 67.46 66.49 65.75 65.18 64.48 64.59 63.72 62.33 61.68 63.53 66.08 66.80 67.84 68.52 69.00 68.48 68.88 68.05 68.82 70.90 70.89 71.21 71.37 71.48 71.97 71.80 71.65 71.65 71.31 70.70 70.77 70.64 70.52
67.28 68.45 69.47 68.12 68.61 67.76 67.98 67.82 67.69 67.94 67.80 67.03 66.29 65.99 64.78 63.22 62.34 61.63 62.87 63.13 63.05 64.49 65.20 67.19 66.98 67.03 67.93 69.06 70.39 70.35 69.93 69.35 68.91 69.38 69.79 69.78 70.06 70.01 69.71 69.47 69.37 69.33 69.13
65.73 66.37 67.44 67.58 67.96 67.98 67.85 67.51 66.75 66.68 66.50 65.60 65.17 65.49 66.40 65.32 64.76 63.15 62.47 63.45 62.65 64.29 63.84 64.50 65.40 65.52 66.14 67.15 67.95 68.63 68.55 67.44 66.64 66.32 66.70 66.74 66.97 66.86 66.88 66.89 66.99 67.15 67.46
64.95 65.54 66.48 66.97 67.89 67.69 67.02 66.99 66.42 66.65 65.86 65.48 65.17 65.12 65.63 66.01 66.13 64.71 63.60 63.67 62.16 62.61 62.21 62.00 64.18 64.79 65.29 65.86 67.03 66.93 65.46 65.74 64.95 64.37 64.25 64.57 64.50 64.46 64.39 64.28 64.57 65.87 66.97
66.01 65.77 66.15 66.55 67.04 66.44 66.21 65.60 64.69 64.36 64.62 64.55 64.76 65.09 65.43 65.67 66.58 65.90 64.87 65.28 62.83 60.11 59.53 61.86 61.48 63.05 62.84 63.52 64.31 63.09 63.69 64.59 64.35 63.45 62.96 62.88 62.58 62.33 62.31 62.70 63.34 64.88 65.56
65.14 65.30 65.12 65.77 65.68 64.67 64.38 64.15 63.41 64.00 63.73 63.38 63.56 64.44 64.60 64.84 65.65 65.85 65.36 64.33 64.90 62.68 59.44 61.25 60.76 62.18 62.17 61.94 63.03 61.20 61.76 62.30 62.51 61.93 61.21 60.93 60.91 61.05 61.19 61.52 62.22 63.91 64.35
64.07 64.48 64.70 64.53 64.31 63.86 63.15 62.05 61.87 62.27 62.19 61.97 62.38 62.92 63.40 64.05 64.18 64.70 64.70 66.06 64.12 62.75 58.88 58.58 59.85 60.31 60.05 59.80 57.73 57.44 56.97 56.13 58.09 60.36 59.85 59.58 59.62 60.24 59.99 60.25 61.17 62.13 62.40
64.34 64.83 63.98 64.17 64.21 63.15 61.91 61.61 61.65 61.01 60.58 60.11 60.31 61.48 62.54 64.21 61.76 61.78 62.10 62.21 61.93 61.34 60.30 57.62 58.18 57.88 57.98 58.46 57.79 56.53 56.41 55.97 55.64 58.89 58.47 58.28 58.49 58.77 58.92 58.95 58.26 58.30 58.36
64.05 63.87 63.33 63.69 62.72 62.15 61.34 60.68 59.81 59.26 58.81 58.75 59.11 60.44 61.02 60.89 59.48 59.02 58.38 59.65 60.04 61.02 60.71 58.33 56.11 57.32 57.16 57.56 56.41 56.57 55.80 55.89 55.65 58.41 57.80 57.31 57.60 57.98 57.61 57.32 56.09 54.84 54.07
63.43 62.56 62.44 62.52 62.78 62.40 61.65 59.24 58.19 57.87 58.01 57.93 58.35 59.42 60.08 59.81 58.72 58.02 57.80 59.81 59.91 59.33 59.00 57.62 56.61 56.43 56.71 57.20 56.87 55.51 54.50 54.67 53.37 55.54 55.66 55.71 56.72 57.64 57.30 56.70 56.62 55.16 53.42
63.53 62.68 61.90 60.02 60.88 62.33 61.71 58.22 57.35 56.71 56.49 56.67 57.29 58.77 60.31 62.13 61.52 59.76 57.62 56.41 59.07 58.32 57.91 57.15 56.31 56.05 55.67 55.49 55.21 55.36 53.59 53.01 50.94 50.99 49.97 50.61 50.71 50.26 51.43 55.68 56.07 55.66 54.14
62.80 62.48 60.16 58.32 58.30 61.31 59.99 59.90 58.91 56.91 56.37 55.97 55.64 55.93 56.81 60.55 60.99 60.48 60.03 59.19 57.25 56.81 57.49 57.21 55.19 55.69 55.63 56.51 55.21 52.04 50.15 50.07 49.53 51.22 49.58 49.53 50.86 49.45 50.49 49.66 55.34 54.89 53.69
64.21 61.87 58.82 57.26 57.07 58.05 58.18 59.22 60.88 58.23 56.95 56.19 54.83 53.67 54.66 56.54 58.06 57.94 59.49 59.77 59.32 59.08 57.85 55.44 53.31 52.85 52.57 53.83 53.49 51.80 51.59 51.75 52.24 51.49 51.87 50.76 50.45 50.04 51.34 51.56 55.59 54.94 53.45
64.54 62.78 60.21 56.84 56.23 57.35 56.55 56.83 59.06 57.63 56.69 57.13 54.75 52.31 52.11 51.95 52.96 54.24 53.48 53.04 53.04 53.74 56.07 56.71 55.42 55.16 55.10 55.53 55.06 54.80 54.26 52.86 52.56 51.83 52.32 50.63 51.37 51.36 49.79 49.10 55.91 55.14 53.61
64.92 63.31 61.40 58.86 56.45 56.19 54.07 55.16 56.94 55.72 55.40 55.10 53.92 51.32 50.61 50.27 52.12 51.23 48.48 45.51 43.92 45.02 52.03 52.87 52.73 52.19 52.60 53.16 53.96 51.33 51.70 52.20 49.87 51.61 53.16 52.33 51.12 53.36 49.16 47.93 49.21 55.40 53.57
63.66 64.74 62.84 61.19 57.42 57.26 52.45 53.53 56.33 56.23 53.52 53.31 52.42 52.05 54.15 50.44 51.06 48.70 43.88 43.21 42.50 43.25 45.66 46.60 47.58 49.69 50.00 50.91 53.09 46.91 47.09 46.87 47.66 45.54 46.60 50.80 52.63 50.40 48.20 48.15 46.92 48.73 49.88

GFSMA_sfc_wetblb_060.txt.gz
Wetbulb
69.32 68.28 68.03 70.73 71.93 72.56 72.71 71.90 70.72 70.07 68.93 68.70 70.01 71.11 72.28 72.72 73.10 73.00 73.98 75.16 76.00 75.83 75.86 76.34 75.82 75.72 75.40 75.49 75.27 74.73 74.60 75.08 74.12 73.92 74.88 74.17 73.67 73.21 73.24 73.84 73.59 73.20 72.62
68.46 67.58 66.85 68.30 71.12 71.31 72.08 71.16 70.48 69.86 69.44 70.31 69.55 70.13 71.17 72.53 73.66 73.23 72.95 73.81 75.83 75.91 75.79 75.77 75.75 75.55 75.51 76.12 75.68 75.30 74.91 75.07 75.13 74.46 73.96 74.29 74.72 74.49 74.24 73.92 73.82 73.62 73.99
68.80 69.00 68.39 68.98 70.94 71.59 71.10 70.41 70.22 69.98 69.89 70.41 70.48 70.69 71.54 71.65 72.33 73.18 73.00 73.38 73.09 75.09 75.96 76.09 75.89 76.39 75.72 75.83 76.20 76.47 76.14 75.49 75.29 74.92 74.59 74.37 74.56 74.45 74.51 74.27 74.12 74.12 74.01
70.02 69.70 69.18 69.73 70.03 70.29 70.35 69.05 68.46 67.85 67.31 67.74 69.17 70.33 71.86 72.18 72.76 73.04 73.31 73.50 73.05 73.01 74.28 76.06 75.50 75.36 75.45 76.03 75.70 76.18 76.17 75.79 74.51 74.74 74.81 74.86 74.36 73.86 74.18 73.96 74.02 73.94 73.22
71.30 69.88 69.66 69.43 69.58 69.77 69.19 68.78 68.06 67.45 67.90 68.05 67.82 69.32 70.19 71.04 71.46 72.31 72.39 72.69 73.64 73.66 74.05 75.00 75.47 75.43 75.74 75.71 75.31 75.78 75.70 75.42 75.09 74.57 74.39 74.12 73.84 73.37 72.98 73.02 73.17 73.15 73.12
71.22 70.40 69.93 68.52 69.45 69.91 69.77 69.27 68.60 68.80 68.71 68.78 68.47 70.52 71.75 71.38 71.57 71.62 71.72 72.49 73.32 73.27 74.34 74.22 74.02 74.76 75.41 75.51 75.29 75.28 75.35 74.97 74.41 74.84 74.39 73.92 73.82 73.15 72.88 72.93 73.07 73.10 72.95
70.29 69.61 69.79 69.52 69.41 68.96 69.87 69.92 70.13 68.69 68.67 68.53 68.91 69.11 68.75 68.93 69.27 69.45 70.55 71.29 71.82 72.69 73.26 73.83 73.89 74.06 73.87 74.12 74.46 74.58 74.44 74.27 74.52 74.17 73.89 72.95 72.85 72.56 72.54 72.75 72.76 72.71 72.43
70.15 69.87 69.34 69.00 69.29 69.21 69.45 69.99 70.45 67.87 67.92 69.55 68.33 67.09 65.12 65.50 67.23 69.08 69.76 70.47 70.43 71.88 72.14 72.24 72.66 72.50 72.60 72.57 72.63 73.59 73.96 73.74 73.31 73.40 73.00 72.03 71.69 71.48 71.80 71.84 71.98 72.00 72.01
70.16 70.54 70.54 70.04 70.04 69.93 69.70 70.19 70.14 69.65 68.06 69.21 69.13 67.16 62.98 61.69 64.79 67.94 67.92 68.85 69.09 69.43 70.05 70.66 70.89 71.02 71.26 72.12 72.29 73.58 72.58 71.69 72.03 72.57 71.86 71.49 71.41 71.09 71.50 71.70 71.77 72.09 71.59
71.09 71.04 70.29 70.46 70.31 69.80 69.25 69.37 69.52 69.50 68.60 67.20 67.92 68.87 67.67 66.11 63.02 62.53 66.95 67.54 68.06 68.41 69.11 69.40 69.69 69.57 68.97 69.72 72.35 72.07 71.66 71.59 72.05 72.18 71.42 71.24 70.68 71.47 71.92 72.00 71.42 71.30 71.19
70.01 70.33 70.18 70.42 70.09 69.68 70.04 69.52 70.69 69.63 69.32 68.60 68.31 67.72 67.79 67.13 66.35 64.83 62.64 64.46 66.61 66.09 68.40 68.97 69.27 69.48 69.99 70.42 71.21 71.63 71.32 71.39 71.92 71.97 71.64 71.73 71.79 71.43 71.38 70.99 70.62 70.65 70.50
68.70 69.75 69.70 69.47 69.52 69.50 69.56 70.19 70.10 69.87 69.68 69.50 68.76 68.08 67.24 66.68 65.68 65.06 64.28 64.26 63.85 64.23 65.27 66.54 66.88 67.60 68.98 70.33 70.90 70.66 70.24 69.88 69.48 69.61 69.88 70.14 70.00 69.80 69.71 69.47 69.37 68.87 68.72
67.56 68.41 69.23 68.89 69.07 69.96 69.98 69.96 69.51 69.20 68.86 68.35 68.08 67.97 68.76 67.95 67.11 66.19 65.52 64.31 63.56 64.48 63.91 64.57 65.48 66.07 66.69 67.88 68.96 69.16 68.92 67.56 66.71 66.67 66.89 67.28 67.32 67.19 66.91 66.99 67.47 68.58 69.48
67.31 67.79 68.21 68.74 69.41 69.45 68.81 68.77 68.10 68.26 68.10 68.08 67.81 67.67 68.44 68.80 68.37 67.45 66.19 64.99 62.38 62.53 62.62 62.51 63.51 63.62 65.08 66.73 67.21 66.98 66.24 65.86 65.00 64.71 64.59 64.60 64.42 64.51 64.49 64.75 66.01 67.07 66.93
67.16 67.65 67.65 68.47 68.19 67.74 67.29 67.54 66.93 66.94 67.25 67.20 67.29 68.06 68.08 68.53 68.87 68.26 68.06 67.05 65.33 60.24 60.53 61.92 61.36 63.20 63.95 64.72 65.13 64.51 64.97 64.53 64.20 63.44 62.86 62.78 62.87 63.01 62.93 63.89 65.35 65.40 65.42
67.13 67.09 66.87 67.59 66.85 66.50 66.55 66.49 65.89 65.33 65.30 65.73 65.89 66.98 67.45 67.99 68.85 68.64 68.08 67.47 66.82 63.96 60.54 61.71 62.14 62.20 62.33 62.63 63.69 62.60 63.49 62.69 62.53 62.09 61.55 61.54 61.37 61.54 62.05 62.73 64.30 64.52 64.35
66.15 66.32 66.64 66.95 65.68 65.40 64.80 64.53 64.46 64.82 64.42 64.62 65.00 65.75 66.06 67.20 67.76 67.99 67.58 67.47 66.44 63.71 59.27 59.59 60.29 61.07 60.38 58.25 57.95 58.66 59.95 61.25 61.29 60.78 60.49 60.64 60.44 60.14 60.56 61.53 62.29 62.60 62.66
66.17 66.43 66.19 66.07 65.71 64.65 63.87 64.07 63.45 63.12 63.14 63.09 63.42 65.13 65.24 65.46 65.29 66.73 66.78 65.06 63.81 63.33 61.01 58.01 58.56 58.52 58.34 58.51 57.90 57.18 57.86 58.80 59.46 59.53 59.31 59.39 59.38 59.29 59.01 58.79 58.21 58.23 58.05
65.68 66.08 65.55 65.80 64.78 64.01 63.21 62.46 62.20 61.91 61.97 61.61 62.55 63.75 63.73 63.84 63.29 63.04 63.38 62.53 62.50 62.64 61.58 59.35 56.89 57.94 57.75 58.11 57.35 57.44 56.35 57.60 58.63 59.04 58.44 58.68 58.61 58.20 57.73 56.97 55.95 54.82 53.64
65.35 64.80 64.82 65.49 64.51 64.03 62.95 60.90 60.78 60.80 60.82 60.97 61.85 62.77 62.80 62.63 62.49 61.82 62.33 62.47 62.11 60.85 60.65 58.81 57.29 57.03 57.33 57.67 58.11 56.43 54.89 55.93 55.47 56.51 57.49 57.71 57.85 57.72 57.35 56.94 56.01 54.78 52.95
65.11 64.60 64.12 63.78 64.29 64.14 61.17 60.18 60.32 60.09 60.22 60.26 60.80 63.01 63.64 63.01 61.29 61.16 61.78 61.49 61.05 59.85 59.19 58.04 56.93 56.85 56.23 56.07 55.81 56.21 55.15 55.35 55.02 56.08 55.80 56.58 56.40 56.45 57.26 56.86 56.75 55.51 53.86
64.28 63.91 63.16 62.45 62.64 63.88 59.27 58.60 59.60 59.30 59.54 59.50 59.59 59.92 60.93 61.73 61.38 60.35 60.08 60.27 61.58 59.76 59.06 58.35 57.25 57.17 56.55 57.23 56.61 55.81 54.50 54.76 53.97 56.55 56.15 55.37 56.25 56.01 55.97 55.95 55.66 54.75 53.72
64.11 63.53 62.15 61.12 61.05 62.05 58.19 58.15 59.49 59.37 59.22 58.67 58.17 59.00 59.61 60.10 60.66 60.70 59.83 59.69 59.78 59.26 60.36 61.15 58.98 58.47 57.51 58.48 57.15 55.23 56.34 57.22 57.55 56.31 56.93 56.34 55.95 56.37 56.87 56.05 55.81 54.68 53.59
65.01 63.88 61.72 59.79 59.59 60.39 56.85 56.67 59.41 60.49 60.13 59.74 58.27 57.27 58.99 58.71 59.23 59.52 59.23 58.62 58.54 59.09 60.34 60.02 60.65 59.70 60.33 59.72 59.84 59.49 58.82 58.83 58.23 56.75 58.51 57.19 57.03 57.27 57.16 57.08 55.55 55.11 53.61
65.79 63.35 62.56 60.83 58.92 58.82 54.54 54.67 58.59 59.95 59.51 59.80 57.20 55.50 56.87 57.25 53.54 53.84 57.37 54.93 53.88 53.75 53.63 54.45 55.27 54.84 55.22 55.99 58.12 59.05 57.90 57.96 57.08 57.46 57.28 58.65 57.08 57.36 55.94 55.91 55.68 55.87 53.49
64.25 64.48 61.70 60.46 58.94 59.19 53.69 52.06 56.68 58.62 58.24 57.10 56.25 55.39 53.76 54.64 50.72 49.61 54.19 51.74 52.22 51.26 52.39 53.27 53.50 53.05 53.92 54.62 54.84 57.93 58.47 57.60 55.66 54.83 57.34 57.63 56.73 55.91 55.62 55.40 55.16 55.42 56.11

GFSMA_sfc_wetblb_063.txt.gz
Wetbulb
76.16 75.55 74.97 75.39 75.35 76.15 75.91 75.63 75.43 75.19 75.07 74.89 75.10 74.68 74.41 74.14 74.61 74.19 74.11 74.87 75.45 75.65 75.96 75.56 75.55 75.85 75.22 75.81 75.59 75.74 75.20 75.25 74.51 73.86 74.46 74.10 74.18 73.55 73.22 73.86 73.69 73.34 72.99
75.56 74.75 74.78 74.05 74.91 75.46 75.63 75.22 75.31 74.88 73.95 73.46 73.17 74.16 74.48 74.81 75.66 75.81 75.12 74.85 75.59 76.04 75.74 76.24 76.46 75.97 75.67 75.75 75.87 75.67 75.20 74.85 75.62 75.23 74.48 74.88 74.71 74.41 73.92 73.61 73.85 73.71 73.86
70.48 70.92 72.77 72.32 74.92 75.13 75.65 75.83 74.90 74.18 73.50 73.54 73.52 73.68 73.00 74.24 74.31 75.78 76.29 76.00 75.66 75.24 76.24 75.99 76.10 75.95 76.14 76.39 76.04 75.98 75.81 75.61 75.45 75.21 75.13 74.43 74.46 74.83 74.61 73.61 73.86 74.01 74.36
71.23 70.09 71.14 72.33 73.38 74.20 74.52 74.03 73.73 72.38 72.13 72.07 72.25 72.66 73.10 73.84 74.64 75.55 75.88 76.02 76.04 75.85 76.08 75.80 75.75 75.93 76.16 76.22 76.22 76.01 75.86 75.26 75.31 74.93 74.76 74.96 74.73 74.40 73.88 73.41 73.74 74.08 73.69
73.27 72.81 70.23 71.03 74.00 73.74 73.87 73.70 72.98 72.34 71.67 71.89 71.85 71.69 72.39 72.78 73.91 74.08 75.01 75.78 76.26 76.02 76.09 76.13 75.47 75.70 76.31 75.84 76.38 76.02 75.68 75.33 74.76 74.86 74.76 74.58 74.38 73.69 73.21 73.14 73.17 72.72 72.79
71.27 73.54 72.24 71.46 72.16 71.39 71.03 72.42 72.53 72.60 71.96 71.97 71.73 71.69 73.01 73.47 74.57 74.25 74.54 74.98 75.55 75.90 76.31 76.60 78.24 75.85 75.85 75.90 75.98 75.67 75.23 75.49 75.18 74.73 74.86 74.58 74.19 73.39 73.14 72.97 72.94 73.14 73.26
72.46 71.64 70.70 71.74 72.11 71.35 72.40 72.92 72.50 71.97 71.84 72.47 68.75 71.64 72.17 73.01 73.49 73.42 71.58 72.57 74.76 75.09 75.83 76.14 76.47 76.34 75.69 74.56 74.56 75.25 75.09 75.39 75.06 74.26 74.13 73.93 73.74 73.04 71.95 72.05 72.44 72.23 72.31
71.81 71.01 70.35 70.42 73.76 72.09 72.41 72.53 72.37 71.33 72.03 69.04 67.30 68.04 67.41 68.24 71.43 71.42 72.05 72.11 73.46 74.69 75.07 75.30 75.83 75.97 76.08 76.09 75.52 73.14 74.62 74.74 74.42 74.06 73.58 73.12 72.79 71.81 71.53 71.54 72.05 72.03 72.13
70.20 71.56 73.05 72.98 72.90 72.53 70.85 72.08 72.46 71.98 70.20 69.35 70.20 70.84 68.14 65.56 67.82 70.60 69.95 70.29 70.74 71.12 71.41 72.64 73.63 74.07 74.58 75.33 74.78 74.13 72.82 72.52 72.53 72.95 72.83 72.57 71.97 71.54 71.12 71.36 71.27 71.89 72.03
71.03 72.43 73.18 72.73 73.87 73.24 73.01 72.64 74.43 73.53 73.43 68.40 70.97 72.05 71.80 70.60 67.13 64.91 69.02 68.91 69.62 69.61 71.37 70.64 70.81 72.06 73.27 74.43 73.29 72.53 71.64 71.90 72.55 72.81 72.20 71.85 71.11 70.88 71.07 71.27 71.65 71.28 71.38
71.58 71.19 70.66 71.03 72.02 71.52 70.77 70.14 71.09 70.03 71.11 73.12 71.44 70.53 70.25 69.03 69.24 67.93 64.23 66.14 67.50 67.53 69.66 70.74 70.79 71.88 72.44 73.46 73.89 71.78 71.93 72.16 72.06 71.90 71.85 71.52 71.34 71.25 71.10 70.99 71.20 71.08 70.59
72.60 72.42 70.83 70.99 71.55 71.09 71.53 71.60 71.86 73.79 73.16 72.40 72.01 71.56 70.08 68.72 68.01 68.63 67.20 66.36 65.03 64.74 65.85 67.05 68.27 70.69 71.48 72.11 72.22 70.95 70.80 70.26 69.96 70.12 70.52 70.86 70.48 70.27 70.01 69.69 69.35 69.34 70.18
71.65 72.65 73.48 70.72 71.10 71.51 71.26 71.74 72.89 73.19 72.97 72.42 72.54 71.50 71.28 70.51 72.28 72.04 70.83 65.76 64.78 64.90 64.17 64.67 65.24 66.84 68.13 69.70 69.65 70.00 69.38 67.94 67.43 67.12 67.45 67.72 67.89 67.74 67.84 68.31 69.22 70.06 69.99
72.08 72.72 72.96 73.13 72.45 71.54 73.33 73.29 72.98 73.04 73.52 72.40 71.61 71.90 70.76 70.85 71.70 71.20 70.03 67.09 63.40 62.93 63.29 62.48 63.81 64.55 67.03 67.35 67.90 67.76 66.61 66.23 65.67 65.12 64.72 64.90 65.45 65.28 65.76 67.09 67.40 67.37 67.84
71.22 72.00 71.93 72.50 72.80 72.24 71.01 71.82 71.30 69.94 70.64 71.92 71.80 71.65 71.06 71.60 73.00 72.08 71.24 70.16 66.12 61.86 60.73 62.78 61.86 64.05 65.69 65.92 65.99 65.89 66.41 64.96 64.52 63.70 63.33 63.52 63.59 64.03 64.87 66.03 65.63 65.47 65.45
71.18 70.83 71.34 71.63 71.00 70.72 70.96 70.79 70.60 70.08 69.04 71.06 70.90 71.20 71.06 71.00 72.07 72.35 70.82 70.74 69.22 65.33 61.17 62.68 62.48 62.67 63.96 64.27 65.07 64.43 63.93 63.55 62.91 62.43 61.98 62.08 62.59 62.91 63.77 64.57 64.53 64.38 64.09
70.79 70.35 70.63 71.05 70.15 69.79 69.85 70.03 69.89 69.30 68.98 69.22 69.65 69.33 69.75 70.31 70.66 71.42 71.30 71.96 67.55 65.51 60.83 60.37 61.66 61.79 60.65 61.45 61.28 62.09 64.48 65.26 63.36 61.57 61.36 60.77 60.87 61.59 62.01 62.56 62.67 62.64 62.53
70.47 70.68 70.49 70.40 69.78 69.32 68.76 68.30 67.91 68.41 68.20 67.96 68.49 69.31 69.44 70.27 68.42 70.34 69.68 69.10 67.40 64.83 61.79 58.42 59.38 59.28 58.89 61.52 60.77 60.00 60.72 63.19 62.97 60.35 60.58 59.70 59.73 59.55 59.13 59.18 59.02 58.71 58.50
70.25 70.33 70.29 70.01 69.20 68.26 68.12 67.98 67.84 67.52 67.57 67.53 68.32 68.94 68.86 69.74 67.50 68.19 69.39 67.27 64.41 63.91 62.45 59.59 58.06 59.18 58.36 59.14 58.75 58.82 59.32 59.73 60.21 60.10 59.93 59.34 59.02 58.39 57.68 57.08 55.92 54.65 53.78
69.86 70.16 70.07 70.07 69.15 68.07 67.59 65.88 65.68 66.97 67.50 67.74 68.17 67.94 68.15 68.81 68.35 67.05 67.94 67.03 65.82 63.39 62.40 60.01 57.92 57.63 57.99 58.19 58.64 56.83 56.70 58.40 56.65 58.86 59.32 59.77 59.04 58.43 57.51 56.65 55.72 54.59 52.78
69.90 69.34 68.22 69.68 69.12 68.34 66.59 64.98 66.12 66.18 66.72 67.33 67.72 67.55 67.38 65.60 62.80 66.04 66.70 66.35 65.82 63.22 60.97 58.83 57.41 57.25 57.05 56.31 57.05 58.65 57.25 55.44 57.34 60.09 58.97 59.45 58.67 58.66 58.56 57.55 56.88 55.10 53.37
68.82 67.94 65.91 67.07 68.28 67.50 58.50 59.53 64.09 65.96 65.62 66.51 66.58 66.01 66.07 64.26 62.45 60.86 62.02 62.68 64.65 63.40 61.38 59.72 58.95 57.58 57.49 58.15 58.16 56.51 55.73 54.97 56.83 60.99 60.15 58.62 59.50 57.64 58.59 58.90 56.31 54.70 53.74
68.67 67.25 66.48 64.04 65.09 67.67 57.89 57.88 60.06 64.59 64.22 64.75 66.09 66.60 65.08 64.10 64.57 65.11 60.86 60.64 60.58 60.17 62.41 64.73 62.50 62.22 60.53 61.07 60.29 57.39 58.07 59.45 61.06 61.19 61.32 58.98 60.27 59.00 59.61 57.87 55.99 54.99 53.94
69.27 69.12 64.47 63.03 61.74 63.33 57.35 56.21 58.75 65.00 64.71 64.45 63.72 64.52 65.95 64.61 64.16 64.84 65.06 64.86 64.44 64.25 63.61 63.42 64.70 63.65 63.36 63.74 61.98 61.79 60.19 61.61 63.12 61.34 62.86 58.81 60.86 59.98 61.39 61.12 56.41 55.35 53.88
68.31 67.44 66.11 62.34 59.77 61.11 55.45 54.72 59.19 65.36 64.33 64.68 64.04 61.77 63.50 64.40 56.92 57.12 64.42 63.77 63.63 63.01 55.86 55.47 56.56 56.82 57.76 58.86 61.98 63.17 61.44 60.76 59.98 60.50 61.26 61.21 61.11 60.90 61.16 61.21 60.37 56.08 53.64
68.14 66.20 64.83 66.63 59.92 60.83 54.12 52.62 57.29 65.53 64.27 63.87 64.08 62.20 54.53 60.50 52.10 52.99 64.40 63.55 62.90 62.51 62.25 61.63 60.38 57.61 60.04 59.46 57.30 64.30 62.81 60.37 59.93 59.98 62.31 60.01 60.88 60.90 58.06 60.91 61.45 59.81 57.21

GFSMA_sfc_wetblb_066.txt.gz
Wetbulb
77.14 76.62 75.76 75.67 75.91 76.59 76.58 76.19 76.58 77.12 76.02 75.73 76.10 75.58 74.90 74.49 74.96 75.34 75.39 76.19 75.83 75.98 76.04 75.97 76.07 75.92 75.65 76.03 76.19 75.78 75.60 75.54 74.69 74.29 74.21 74.56 74.62 74.40 73.65 73.73 74.00 73.61 73.26
76.38 75.75 75.57 75.25 76.88 76.57 76.15 75.83 75.76 75.98 75.95 75.45 75.23 75.81 75.49 75.04 74.68 75.05 74.65 75.47 76.41 75.96 76.49 76.34 75.99 76.31 75.64 75.66 76.09 76.22 75.77 75.24 76.02 75.62 75.17 74.97 75.30 74.47 73.93 73.55 73.35 74.05 73.70
76.65 76.38 74.92 74.96 75.41 77.03 76.75 76.04 76.70 76.85 75.71 74.62 75.04 75.52 75.35 75.71 75.16 75.75 76.06 75.91 76.17 75.89 76.53 76.59 76.32 76.17 76.70 76.66 76.33 75.97 76.12 75.75 75.49 75.22 75.02 75.10 74.87 75.10 74.60 74.20 73.57 73.60 73.55
73.92 74.57 71.93 73.36 75.15 76.07 76.37 76.65 77.44 74.49 74.11 73.93 74.04 74.17 74.45 75.10 75.40 76.33 76.47 76.85 76.33 75.36 76.02 76.43 76.21 76.00 76.51 76.87 77.08 76.71 76.45 75.62 75.62 75.25 74.92 74.25 74.32 74.19 74.28 72.86 71.50 71.88 71.84
72.21 71.74 71.89 72.11 75.93 76.30 74.78 75.36 75.37 75.31 73.61 73.59 73.54 73.83 74.36 74.17 74.54 74.90 75.72 76.30 76.97 76.46 75.89 76.58 76.26 76.04 76.04 76.52 77.06 76.93 76.30 75.66 75.02 74.85 75.37 75.12 74.37 73.79 73.29 73.35 69.86 71.69 72.51
72.86 73.38 73.52 71.42 71.89 75.00 74.55 76.67 75.34 74.32 73.50 72.93 72.34 72.91 74.05 74.48 74.31 74.57 75.14 76.64 77.08 75.48 77.07 77.02 79.50 75.89 75.95 75.99 76.17 75.89 75.76 76.05 75.51 75.14 75.25 75.00 74.62 74.12 73.53 73.00 72.35 72.62 72.70
74.66 71.81 73.26 71.98 71.52 71.11 71.78 71.07 72.40 73.47 71.92 73.39 72.75 71.02 71.88 74.90 75.10 76.59 76.84 75.59 73.01 74.92 76.24 76.78 79.95 76.93 75.79 75.99 75.34 75.31 75.61 75.67 75.30 75.33 74.72 73.98 74.29 74.21 73.56 73.07 72.07 72.05 72.25
74.13 72.50 72.02 71.86 71.94 72.44 73.75 74.03 73.84 71.95 71.90 75.27 70.42 68.44 66.44 70.91 72.80 74.48 73.91 73.83 74.60 76.18 75.88 76.35 76.89 77.01 76.89 77.14 76.67 73.55 74.52 75.25 75.41 74.85 74.53 73.55 73.43 73.32 72.64 71.87 71.57 71.89 72.09
72.53 74.24 71.88 70.91 71.85 70.90 73.95 74.63 74.76 73.33 71.40 73.77 70.32 68.53 64.95 65.79 69.96 71.65 71.89 72.64 72.48 72.76 74.07 75.07 75.37 75.96 76.45 77.26 75.88 74.82 72.99 73.66 73.66 74.30 73.80 73.11 72.74 72.17 71.54 70.95 70.76 71.34 71.64
72.85 70.84 71.75 73.59 75.56 77.10 75.29 74.25 75.36 75.15 75.75 72.96 71.29 71.86 70.89 71.54 68.68 67.29 70.54 71.12 71.38 71.09 73.58 73.48 73.38 74.57 74.93 75.93 74.03 72.55 71.30 72.10 72.37 73.22 72.88 72.49 71.71 70.95 71.00 70.91 71.04 71.19 71.04
72.18 71.10 71.75 72.94 73.42 75.64 75.37 75.05 73.97 72.84 72.00 69.68 69.55 72.34 72.69 72.27 71.60 69.39 67.13 67.44 68.13 69.08 70.97 71.23 73.78 73.12 74.44 75.64 74.92 72.46 72.55 72.33 72.53 72.62 72.41 71.79 71.57 71.42 71.11 70.87 70.67 71.06 71.38
74.03 73.70 72.21 71.98 71.17 72.47 73.37 73.43 71.62 71.49 71.68 71.54 72.87 72.91 71.44 70.03 69.19 69.45 69.06 68.30 68.26 65.31 66.26 68.04 69.73 72.46 73.56 74.18 72.76 71.45 71.15 70.70 70.69 70.86 71.44 71.71 71.44 71.10 70.96 70.39 70.24 70.34 70.78
73.12 73.79 74.42 73.92 71.64 71.86 74.31 74.43 74.56 74.39 74.10 73.39 74.07 72.62 73.38 74.18 74.07 72.43 71.27 68.36 67.55 65.79 64.69 64.87 65.43 68.04 69.41 71.96 71.75 70.10 69.62 68.47 67.69 67.38 67.67 68.25 68.86 68.94 69.23 69.99 70.61 70.63 70.54
74.00 74.49 73.84 74.15 74.37 72.10 72.15 74.40 72.96 73.38 73.72 74.16 73.28 74.13 74.11 75.49 74.99 73.63 72.30 71.08 66.14 64.80 63.38 62.63 64.94 66.00 67.58 68.33 68.68 68.04 67.00 66.51 65.75 65.20 65.11 65.29 65.95 66.86 67.79 67.92 68.29 68.66 69.11
72.90 73.24 73.10 73.50 73.72 73.51 73.63 73.35 73.03 73.12 73.73 73.75 73.43 73.09 72.56 72.46 73.52 73.48 72.62 74.15 69.16 62.69 60.87 62.87 62.47 65.02 66.51 66.73 67.41 68.01 67.55 65.02 64.82 63.98 63.82 63.87 64.42 65.44 66.07 65.95 65.91 65.78 65.91
73.19 72.60 72.25 73.02 73.46 73.99 73.89 73.46 72.53 71.11 72.39 72.03 72.39 72.70 72.53 72.96 73.48 74.27 74.68 74.68 72.60 68.21 62.05 63.60 62.85 63.42 65.71 65.47 66.24 66.75 66.28 64.36 63.30 63.10 62.90 62.92 63.65 64.61 64.83 64.72 64.53 64.29 64.18
72.18 72.37 72.59 72.64 72.20 71.95 72.73 72.37 71.66 71.38 71.02 71.20 71.58 71.09 72.08 72.97 71.96 73.10 74.33 74.18 72.34 69.37 61.57 61.20 62.28 62.71 62.90 63.69 64.93 65.41 65.67 66.82 64.49 61.92 61.75 62.23 62.32 62.79 63.17 63.38 63.08 63.09 63.03
72.56 72.06 71.85 71.57 71.75 71.61 71.94 70.72 70.22 70.76 69.43 69.24 69.62 71.20 71.07 71.45 72.35 72.95 73.35 72.26 72.79 70.27 62.94 60.77 60.66 60.44 60.72 62.88 63.70 64.00 65.36 65.53 65.01 61.38 60.76 60.85 60.53 60.18 60.39 60.31 59.83 59.26 58.97
71.89 71.73 71.83 71.51 71.32 70.71 70.39 70.40 70.29 69.94 69.64 69.91 69.50 69.50 69.53 70.14 70.39 71.23 72.11 71.02 69.94 68.41 63.98 60.18 59.26 59.80 58.97 61.92 62.25 62.65 62.75 63.42 62.66 61.29 60.30 60.09 59.73 59.01 58.10 57.33 56.21 55.19 54.80
72.19 71.89 71.88 71.49 71.19 70.57 70.15 69.81 68.13 68.72 69.86 69.91 69.79 69.56 69.48 69.10 69.37 68.76 70.73 69.36 69.04 63.91 63.19 60.75 59.82 59.05 58.39 59.69 60.94 60.12 60.87 61.40 58.80 61.56 61.22 61.29 60.11 58.79 57.76 56.68 55.77 54.60 53.33
72.10 72.40 71.57 71.08 70.63 70.39 69.79 68.65 68.65 68.58 68.91 69.05 69.47 69.82 69.83 66.39 63.70 66.45 68.34 68.99 67.91 65.33 62.84 61.52 59.62 58.55 57.86 57.14 57.73 59.76 58.57 60.29 60.68 59.92 61.00 59.83 59.41 59.44 59.06 57.15 56.94 54.96 53.59
72.23 71.98 71.19 70.26 69.05 68.24 59.34 61.25 65.15 68.09 68.59 68.46 68.74 69.27 69.06 65.15 63.78 61.87 62.99 63.29 66.92 66.76 64.44 61.07 59.27 57.93 58.14 57.92 60.12 60.21 61.36 57.61 53.88 60.13 62.17 60.60 61.41 59.73 59.41 59.63 58.02 54.87 53.48
72.65 72.03 71.07 70.05 67.94 67.67 57.95 58.42 61.25 67.68 67.06 67.86 68.48 68.65 67.62 66.30 66.30 67.56 61.89 61.48 61.42 61.78 63.68 63.90 61.21 60.84 59.62 60.95 59.64 58.82 58.33 56.24 59.00 61.89 63.25 59.34 61.37 60.09 61.27 58.99 56.38 55.16 54.01
71.62 71.31 70.83 69.92 64.48 65.26 57.30 56.34 58.91 67.59 67.27 66.87 67.39 68.05 68.62 67.45 66.92 67.21 67.46 66.20 65.87 65.65 65.31 65.52 67.14 66.09 66.20 63.71 62.01 62.54 62.40 59.87 63.67 63.91 65.26 58.92 61.46 60.71 61.44 60.71 56.37 55.32 53.82
71.10 71.39 71.46 69.59 64.02 62.42 55.78 55.02 57.96 66.81 66.74 66.75 66.79 66.23 66.31 66.73 58.81 58.83 66.47 66.19 66.42 66.06 58.42 56.99 58.28 59.42 59.92 60.73 63.13 62.86 61.36 60.15 60.30 60.94 64.06 62.11 61.04 60.82 60.27 60.76 58.34 55.53 53.72
69.97 69.11 69.38 69.43 64.38 63.26 53.27 52.87 56.60 66.13 66.32 65.78 67.13 65.85 56.63 61.25 54.99 55.03 65.42 65.49 64.66 65.55 65.11 64.62 64.39 61.17 61.71 62.60 59.69 66.01 65.02 62.13 61.68 61.13 63.48 61.64 61.22 61.06 59.02 61.98 60.75 57.85 56.31

GFSMA_sfc_wetblb_069.txt.gz
Wetbulb
76.34 75.96 76.34 76.00 75.34 77.68 76.53 75.81 76.85 76.40 76.96 75.94 75.52 76.03 74.52 74.49 74.29 75.08 74.79 77.43 76.93 76.82 76.37 76.31 76.33 76.38 75.97 76.36 76.06 75.57 75.41 75.60 75.00 74.49 74.15 74.78 74.91 74.40 73.71 73.36 74.14 74.04 73.49
76.84 75.59 75.77 74.57 75.94 76.15 75.97 75.85 76.27 77.39 75.57 75.70 75.16 76.07 75.32 75.03 74.68 74.64 74.48 76.39 76.78 76.31 76.85 76.81 77.22 76.55 76.34 76.04 76.37 76.14 75.78 75.66 75.99 75.70 75.37 75.02 75.20 75.05 74.02 74.03 73.57 73.52 74.41
78.30 78.18 75.08 74.90 75.64 76.93 77.24 76.81 77.58 76.62 75.40 75.48 74.81 75.49 74.85 75.59 75.19 75.54 75.04 75.11 75.58 76.50 76.64 77.22 77.10 76.97 77.06 76.69 76.57 76.26 76.10 76.10 75.97 75.73 75.58 75.15 74.87 75.15 74.78 74.17 74.22 73.50 72.32
76.98 76.86 75.06 74.49 75.38 76.34 75.58 75.25 75.73 76.91 74.88 73.81 74.15 74.08 74.15 75.95 75.21 75.70 75.59 76.37 76.03 74.63 75.79 76.79 76.81 76.56 76.77 77.11 77.14 77.24 76.91 76.20 75.95 75.80 75.50 75.30 74.65 74.32 74.34 74.64 73.60 71.18 70.29
74.89 75.76 74.07 73.81 74.97 75.22 74.74 75.85 75.29 75.46 74.68 73.90 74.20 73.82 74.69 74.21 75.47 74.33 75.33 76.29 76.82 76.36 75.67 75.83 76.31 75.92 76.60 76.79 77.27 77.32 77.22 76.60 76.00 75.67 75.55 75.60 74.88 74.00 73.59 72.38 72.96 70.54 69.59
74.54 72.82 73.11 73.55 73.20 73.05 73.78 75.55 75.16 75.13 73.05 72.49 72.01 72.04 75.01 73.88 73.76 73.58 74.71 74.71 75.59 76.46 73.51 73.52 74.97 75.83 76.15 76.75 76.57 76.33 76.61 76.69 75.90 75.25 75.28 75.18 74.95 74.40 73.56 71.66 71.65 72.09 70.78
74.21 73.85 73.56 76.37 74.62 72.89 74.36 75.40 75.64 74.34 72.25 73.22 73.45 71.68 72.45 73.48 73.13 74.02 75.17 75.66 76.01 76.24 75.75 75.72 79.95 75.48 76.58 76.10 75.56 75.23 75.79 75.94 75.85 75.56 75.32 74.48 73.83 74.02 73.73 73.28 72.64 72.45 72.09
75.32 75.12 74.22 72.40 73.57 72.74 73.57 72.86 72.18 72.02 72.30 74.16 72.06 72.88 66.77 69.81 71.76 73.90 76.54 75.32 75.26 76.48 74.55 76.23 77.10 76.88 77.26 78.93 76.33 74.67 75.65 75.51 75.76 75.84 74.88 74.17 73.46 73.10 72.98 72.84 72.46 71.81 71.70
74.75 74.84 72.96 72.63 72.83 72.02 70.82 71.98 73.50 74.05 73.28 75.80 74.96 71.20 66.27 66.09 67.12 74.11 73.86 73.29 72.87 73.03 75.24 75.05 75.23 75.93 76.87 77.07 76.63 75.89 73.54 73.48 74.91 75.24 74.30 73.67 72.93 72.55 72.65 71.37 70.59 70.35 71.11
73.62 74.17 74.61 73.38 71.63 71.50 72.93 70.84 74.82 75.51 75.15 72.83 74.00 72.42 71.82 70.50 65.01 64.47 70.85 72.43 73.35 72.48 73.97 74.08 73.58 74.65 75.60 76.78 74.15 72.33 71.27 72.14 73.66 74.04 73.33 72.87 72.49 71.97 71.10 71.05 70.85 71.02 71.16
73.25 72.15 70.84 72.61 71.58 73.68 75.25 74.79 75.10 75.19 75.61 73.77 73.60 70.64 70.33 69.34 68.73 67.52 65.12 69.48 70.13 69.88 69.99 71.46 74.19 74.86 74.96 75.57 75.15 72.38 72.55 73.04 73.17 73.57 72.96 72.29 71.81 71.73 71.39 71.22 71.19 71.02 70.99
73.76 72.77 71.03 71.72 71.55 72.16 73.45 72.85 74.30 74.03 74.15 73.75 71.51 69.48 69.28 71.18 70.36 69.64 69.31 69.58 68.10 65.74 66.69 68.19 70.01 73.32 74.15 74.11 72.36 71.63 71.49 71.02 71.18 71.55 71.96 72.02 71.82 71.64 71.25 71.35 71.13 71.37 71.30
73.00 73.58 73.98 73.44 72.06 72.79 71.60 72.21 73.37 73.04 73.01 73.06 73.28 72.51 72.26 72.53 73.80 72.84 72.22 70.52 67.14 65.75 65.05 65.21 66.39 70.26 71.28 72.46 71.22 70.72 69.97 68.64 68.10 67.87 68.36 68.90 69.72 70.14 70.64 70.47 70.33 71.03 71.08
72.55 74.66 74.21 74.42 74.17 73.72 72.57 72.04 73.97 74.02 74.33 74.36 73.58 74.00 74.15 75.57 75.64 74.71 73.09 70.79 64.75 64.15 64.05 63.09 65.55 67.20 67.86 68.85 68.86 68.55 68.03 66.95 66.38 66.02 65.89 66.40 67.72 68.23 68.54 69.02 69.45 69.75 69.96
73.07 73.21 73.41 73.37 73.80 74.04 73.83 73.33 71.74 70.71 71.26 71.97 71.77 72.52 72.32 73.48 72.58 75.87 73.60 72.17 69.00 62.52 61.43 62.75 63.03 66.78 66.59 67.54 68.23 68.30 67.05 65.69 65.29 64.76 64.80 64.80 66.00 66.20 66.29 66.51 66.65 66.51 66.42
73.51 72.96 72.37 72.62 73.27 73.41 73.22 73.71 74.35 72.55 71.91 72.43 72.52 72.99 73.09 72.61 74.12 75.83 74.54 73.39 71.45 70.23 62.93 64.05 63.51 64.99 65.98 66.18 67.72 67.56 65.82 64.86 64.05 63.79 63.96 64.39 65.19 64.97 64.84 64.86 64.89 64.76 64.76
73.24 72.67 72.25 73.52 73.11 72.47 72.69 72.55 72.56 72.00 71.24 71.69 72.29 71.82 72.26 73.20 72.63 74.28 75.22 71.12 72.64 72.49 66.43 62.49 63.59 64.58 64.77 65.06 66.41 67.24 66.12 65.94 64.12 62.71 63.17 63.52 63.73 63.94 63.94 63.75 63.53 63.56 63.61
73.17 72.70 72.10 71.66 72.54 71.94 71.56 71.43 70.55 70.51 70.27 69.59 70.14 70.66 70.90 71.50 72.26 73.75 73.97 72.32 72.45 72.99 66.81 61.80 61.67 61.19 62.15 64.87 66.12 66.20 65.97 66.02 64.77 61.84 61.62 61.94 61.96 61.82 61.57 61.27 60.84 60.36 60.17
72.59 72.43 72.03 71.59 72.18 72.37 70.52 70.70 70.59 70.25 70.10 70.14 69.93 70.42 70.29 70.79 71.29 72.20 72.47 72.64 72.13 71.68 67.02 62.47 60.41 60.78 60.17 63.30 63.43 65.67 65.94 66.06 64.35 61.62 60.60 60.64 60.05 59.81 59.29 58.31 57.44 56.55 56.52
72.83 72.63 72.35 72.18 71.38 70.96 70.54 70.29 69.05 69.12 69.95 70.05 69.96 70.16 69.96 69.86 70.52 70.95 71.24 71.61 71.18 68.56 66.75 61.57 59.66 59.22 59.09 60.80 62.34 61.73 61.66 62.61 60.27 61.83 62.00 61.93 60.30 59.17 58.18 57.29 56.34 55.64 54.68
72.83 73.25 72.17 72.14 71.66 70.81 68.97 70.17 69.09 68.87 69.62 69.66 70.01 70.11 70.14 66.58 65.11 66.53 68.99 71.08 69.01 66.77 63.93 62.25 59.17 58.83 57.95 57.88 58.88 62.60 62.28 62.59 62.83 62.92 61.49 59.68 60.36 59.97 59.45 57.47 57.32 55.71 54.86
73.14 73.07 71.55 71.33 70.81 70.95 60.25 63.31 64.20 69.21 69.12 69.25 69.21 69.27 69.59 65.77 64.39 63.39 64.45 63.49 68.17 67.45 64.34 62.45 60.78 58.90 59.33 59.34 61.98 60.76 61.07 59.96 57.55 63.05 62.05 59.85 61.08 59.13 58.54 58.84 58.23 55.16 54.35
73.57 73.32 72.52 71.47 70.55 70.10 58.83 58.94 61.47 64.15 68.36 68.39 68.83 68.89 68.21 66.86 66.87 67.85 62.80 62.59 63.10 62.99 65.69 66.53 63.33 61.62 60.34 61.86 62.92 59.27 60.30 62.10 61.37 59.25 59.27 59.72 62.23 61.03 61.28 59.89 56.62 55.17 54.18
72.55 72.61 72.05 71.59 70.88 69.38 58.49 56.67 58.88 62.50 67.42 68.05 67.53 68.29 68.81 68.37 67.73 67.13 68.10 67.50 66.78 66.94 66.47 65.92 65.74 64.88 65.79 64.74 64.04 64.32 61.74 62.89 62.89 63.61 63.42 59.86 62.33 61.36 62.26 60.25 56.53 55.21 53.84
72.16 72.10 71.85 70.90 70.52 69.26 56.95 55.51 57.29 62.43 65.68 67.82 67.59 67.46 67.40 67.76 60.59 60.59 67.50 67.18 66.64 66.43 59.49 58.74 59.77 60.22 61.90 61.27 63.46 61.83 60.38 59.75 58.56 61.33 63.76 62.53 60.17 60.68 61.39 59.13 56.81 55.31 53.55
71.83 71.25 71.31 70.34 65.86 68.57 54.85 54.01 55.85 61.83 64.36 66.96 68.54 68.14 59.02 59.83 57.22 56.90 66.24 66.53 65.24 66.29 65.72 65.00 65.32 62.76 63.19 63.26 60.64 66.26 64.11 60.46 61.34 62.83 65.10 62.41 62.87 62.11 57.87 61.49 58.25 54.26 54.45

GFSMA_sfc_wetblb_072.txt.gz
Wetbulb
75.75 75.23 75.02 75.47 75.78 76.51 74.96 74.96 76.11 73.96 74.56 76.03 75.48 74.26 74.38 74.60 74.19 73.38 74.76 77.40 77.08 76.77 77.26 76.85 77.03 76.73 76.59 76.53 76.40 75.56 74.81 75.11 75.11 74.89 73.90 74.25 75.43 75.13 74.31 73.01 73.12 74.19 74.20
76.77 76.11 76.18 73.87 75.63 75.08 75.06 75.56 74.76 75.18 74.21 75.53 75.54 75.59 74.04 74.29 74.73 74.76 74.72 75.76 76.68 76.61 77.23 77.50 77.64 77.42 77.08 76.92 76.56 76.33 75.61 75.56 76.00 75.96 75.53 75.18 75.08 75.39 75.16 74.38 74.08 74.12 74.28
77.11 76.90 76.74 75.42 74.66 75.52 77.21 74.24 75.11 76.14 74.81 75.25 74.67 74.13 74.54 74.07 74.01 73.70 74.16 74.86 75.45 76.88 76.51 76.66 77.05 77.18 77.23 77.14 76.90 76.79 76.49 76.34 75.96 75.89 75.86 75.53 75.23 75.06 75.28 74.76 74.38 74.19 72.13
77.03 76.92 74.19 73.64 75.63 74.72 76.46 76.03 74.18 74.93 75.21 74.39 73.34 74.33 74.21 74.24 74.24 74.26 74.87 74.06 74.83 74.43 75.76 76.75 76.38 75.67 76.00 76.39 77.01 76.98 76.46 76.14 76.03 75.88 75.71 75.73 75.37 74.98 74.52 74.82 74.86 74.06 70.82
76.71 76.75 75.02 75.79 75.45 75.55 76.06 75.51 75.60 75.23 73.58 72.99 73.02 71.89 72.61 74.48 73.41 73.68 73.68 74.01 74.09 75.20 74.41 76.05 75.58 74.19 74.87 75.58 76.43 76.70 76.81 76.34 76.03 75.81 75.88 75.68 75.41 74.77 74.00 73.93 72.72 72.97 71.49
76.26 75.01 74.77 75.04 74.68 72.82 74.51 73.03 73.79 74.36 74.24 74.14 72.80 71.85 73.67 72.00 74.06 73.08 73.73 73.54 75.28 75.09 74.98 74.91 71.41 72.17 74.09 72.59 74.11 75.72 76.14 76.80 75.56 75.61 75.68 75.38 74.88 74.57 73.79 73.42 72.14 72.17 72.78
74.51 74.31 73.61 74.94 74.14 72.11 70.89 73.83 74.06 71.59 72.89 74.11 69.70 70.68 71.73 71.95 73.35 72.80 72.91 74.27 72.99 74.17 72.56 75.05 73.78 73.58 72.84 72.09 71.77 74.54 75.83 76.22 75.91 75.44 75.31 74.64 74.29 73.99 73.95 73.61 72.45 72.26 72.46
72.89 73.38 73.43 72.78 74.47 73.73 73.82 73.07 72.78 72.04 72.69 71.91 70.84 70.36 67.56 69.63 71.58 72.39 73.69 73.18 73.15 73.73 73.81 74.74 74.44 74.33 74.20 74.36 74.56 74.81 74.63 74.73 74.89 75.53 74.98 73.93 73.84 73.36 73.08 73.14 72.46 72.12 72.09
73.95 72.51 72.55 73.71 73.49 73.05 71.37 72.18 72.25 72.09 69.78 70.45 73.03 69.59 66.18 64.23 68.91 71.91 70.56 71.51 72.18 72.62 73.96 73.63 74.22 74.70 74.71 74.57 75.58 74.86 75.54 74.65 75.31 75.57 75.09 74.35 73.27 72.57 72.69 72.53 71.84 71.16 70.80
74.36 73.30 72.70 72.93 73.12 72.57 71.06 70.40 70.15 69.78 70.10 68.62 71.56 71.38 71.54 70.60 65.66 63.56 68.13 67.59 71.21 71.56 71.93 72.49 72.66 73.25 73.35 73.49 73.20 72.19 71.61 72.28 74.36 74.63 74.36 74.26 73.19 72.80 72.37 71.50 71.04 70.81 70.53
74.21 73.42 72.63 73.06 72.60 72.61 71.86 71.55 71.26 71.66 70.98 70.76 70.17 70.50 70.39 70.28 69.04 65.98 63.03 65.60 68.47 68.45 68.64 69.21 70.79 72.61 73.08 72.93 72.49 72.16 72.91 72.86 73.22 73.55 73.53 72.99 72.45 71.82 71.60 71.26 71.36 71.24 71.39
73.29 73.19 72.37 72.10 71.25 70.60 69.16 70.57 71.21 70.54 70.95 71.60 71.65 68.99 67.45 67.00 66.48 65.96 65.54 66.78 66.76 65.61 66.13 66.92 68.11 71.13 71.62 71.23 71.80 71.79 71.89 72.00 71.48 71.65 72.07 72.33 72.17 71.89 71.57 71.45 71.35 71.45 71.47
74.09 72.64 72.14 71.52 71.12 71.36 72.00 70.64 71.62 70.91 71.16 71.16 70.25 69.18 68.82 67.87 68.96 69.57 67.97 67.57 66.33 65.38 65.07 65.32 66.21 69.48 70.22 70.94 70.38 70.51 70.47 69.37 69.09 68.75 69.12 69.66 70.60 70.90 71.03 70.94 71.39 71.58 71.60
72.58 73.44 73.55 74.23 73.48 73.14 72.68 73.06 71.93 70.99 71.21 71.03 71.72 71.53 71.12 72.59 72.44 70.91 69.38 67.61 64.97 63.79 63.93 63.27 65.53 66.81 68.04 69.07 69.10 69.12 67.33 67.35 67.18 66.65 66.98 67.86 68.33 68.77 69.37 70.00 70.38 70.88 70.68
72.82 73.43 73.48 72.92 73.02 74.06 72.39 72.45 71.57 70.63 69.97 70.16 70.10 69.88 70.70 71.55 71.96 70.85 70.02 69.66 66.06 61.40 61.10 62.65 62.95 66.56 67.06 68.06 68.43 67.22 65.76 66.22 65.91 65.65 65.69 66.16 66.27 66.58 66.96 67.25 67.18 67.07 67.00
74.27 74.53 74.03 73.93 73.22 73.64 73.01 72.54 72.03 71.79 70.74 70.40 70.27 70.00 70.14 71.10 72.00 72.84 72.18 71.17 69.43 66.85 61.83 63.18 63.21 65.00 66.29 66.58 67.82 65.57 64.65 64.58 64.49 64.58 65.08 65.01 65.11 65.11 65.28 65.31 65.33 65.16 65.11
75.09 74.97 72.80 74.26 73.63 72.91 72.67 72.43 71.90 71.48 70.16 70.69 71.22 70.25 70.39 71.64 70.90 72.57 72.29 71.14 69.70 68.24 63.26 62.49 63.75 64.93 64.70 64.47 66.07 65.06 64.89 63.26 62.73 63.85 64.52 64.45 63.96 63.87 63.92 63.95 63.84 64.00 63.92
75.03 74.35 73.81 72.45 73.41 72.89 72.79 70.40 69.86 71.06 69.74 69.64 68.76 70.26 69.98 71.33 70.96 71.09 70.22 69.70 69.48 68.71 64.08 60.94 61.28 61.20 62.67 65.04 65.91 64.91 65.42 64.21 61.91 62.38 62.86 63.13 62.81 62.46 61.96 61.81 61.52 61.28 61.13
73.59 73.19 73.73 73.10 71.84 72.05 70.76 71.00 71.03 70.20 70.41 70.31 68.92 68.55 70.03 70.23 69.69 70.61 70.55 70.29 69.68 67.11 64.49 61.91 59.60 60.36 61.06 63.39 63.46 63.96 64.14 63.06 62.13 61.89 61.45 61.40 61.65 61.06 60.13 59.29 58.67 57.66 57.17
73.53 71.08 71.61 71.46 71.02 71.71 71.95 71.43 70.26 69.64 70.05 69.88 69.00 69.25 70.03 70.06 69.95 70.57 70.71 69.93 68.58 67.00 64.20 61.72 59.75 59.01 59.85 61.39 62.87 61.44 60.41 61.69 59.55 60.71 61.38 61.11 60.58 60.26 59.48 58.36 57.67 57.05 55.52
72.52 72.39 71.27 71.14 71.35 70.13 66.66 69.00 70.03 69.28 69.24 69.26 68.70 69.61 68.07 66.56 65.49 65.49 68.20 69.42 68.46 65.51 62.83 60.70 59.29 58.59 58.43 59.23 59.21 61.59 60.98 61.21 60.19 60.33 59.33 58.87 58.53 58.09 57.33 57.47 57.37 57.21 56.01
74.07 74.11 72.83 70.57 71.43 72.00 61.36 64.37 65.24 66.09 67.81 68.39 66.65 68.15 67.00 65.04 64.07 64.47 65.16 63.96 68.29 66.08 63.87 62.24 60.31 58.43 58.66 59.35 60.72 60.54 61.04 59.83 57.20 62.19 59.79 57.84 58.78 57.39 57.63 57.32 58.37 56.33 55.24
73.97 73.48 73.01 71.26 70.40 71.14 59.81 59.43 61.60 63.35 64.05 66.46 67.09 68.23 67.58 67.14 67.40 65.87 63.08 63.71 63.76 63.74 65.63 64.60 61.79 60.86 59.62 60.22 60.51 60.99 59.91 59.19 58.84 61.04 61.54 57.82 58.95 57.25 57.50 56.86 57.49 55.35 54.30
73.66 73.16 72.72 72.47 71.55 65.60 58.35 58.48 58.87 63.64 61.52 65.30 66.01 68.17 67.55 67.55 65.76 67.59 66.88 66.42 66.04 65.93 65.16 65.95 66.06 64.14 62.87 62.06 62.06 61.77 60.27 60.75 61.03 60.69 59.52 56.34 59.80 58.61 58.35 56.71 56.83 55.05 53.62
72.99 72.51 72.84 72.17 72.17 67.18 58.04 56.88 59.89 62.87 61.41 63.66 64.85 64.62 66.43 66.52 61.10 61.01 66.02 66.15 65.69 63.83 59.64 60.54 60.78 61.67 61.10 60.48 62.74 61.83 59.43 58.65 57.42 59.06 59.51 58.79 61.23 59.13 56.87 54.82 54.50 54.82 53.11
72.30 71.74 71.80 72.05 67.39 69.15 55.59 54.61 59.23 62.99 63.32 63.16 64.19 65.57 60.49 62.66 56.90 57.83 63.13 64.76 64.31 65.24 62.69 61.79 62.26 61.98 62.09 61.41 60.80 62.78 61.60 59.19 59.24 59.08 61.75 59.19 61.42 59.01 56.70 56.74 54.51 52.94 51.76

GFSMA_sfc_wetblb_075.txt.gz
Wetbulb
71.82 72.10 72.21 72.79 72.37 72.82 72.84 72.37 72.47 72.08 72.30 72.80 73.19 73.28 72.38 72.20 72.86 72.43 72.89 77.15 76.60 76.40 76.60 76.43 76.86 76.43 76.13 76.38 76.33 75.57 74.45 74.92 74.99 75.15 74.44 74.04 74.67 74.70 73.96 72.95 72.20 72.89 73.37
72.83 72.62 71.81 71.90 72.15 73.94 72.61 72.65 71.62 71.66 72.36 72.39 72.30 72.50 72.07 72.30 72.33 72.30 73.45 74.82 76.96 76.35 76.41 77.31 77.24 77.26 76.83 76.26 75.98 76.28 75.51 75.10 75.85 76.01 75.81 74.96 75.14 75.36 75.36 74.40 73.85 73.54 74.13
72.38 72.35 71.94 71.49 73.09 72.50 72.38 72.01 72.32 72.57 71.54 72.09 71.35 71.73 72.62 72.43 72.41 72.23 73.29 72.99 75.26 76.87 76.73 76.54 76.65 77.09 77.05 76.63 76.38 76.13 75.69 75.76 75.81 75.99 75.63 75.58 75.18 74.95 75.43 75.29 74.41 74.66 73.44
72.80 71.61 71.42 70.54 71.84 72.61 72.67 71.22 71.51 70.95 70.33 70.90 70.28 71.10 71.60 72.23 72.96 72.23 72.89 73.03 73.52 73.46 76.21 76.62 76.56 76.68 76.97 77.07 76.58 76.52 75.97 75.76 75.48 75.38 75.85 75.88 75.68 75.07 75.10 75.05 75.13 74.96 72.82
73.31 72.15 71.06 71.68 73.20 71.62 71.56 71.13 70.68 70.99 69.83 69.25 69.90 70.45 71.48 72.12 71.51 73.03 72.17 72.56 72.48 73.08 72.57 74.95 76.05 76.07 75.41 75.15 74.60 74.93 75.67 75.88 75.21 75.21 75.46 75.78 75.56 75.40 74.89 74.35 74.45 74.25 72.91
72.89 72.95 71.08 70.85 70.86 69.26 69.00 70.20 69.36 70.44 70.40 69.87 71.67 70.68 70.26 70.03 70.25 71.64 70.42 71.59 73.08 73.11 72.97 72.53 72.05 72.93 74.68 73.63 74.29 73.69 74.58 74.96 75.31 75.13 75.29 75.45 75.48 75.17 74.66 74.09 73.59 73.01 72.27
72.56 72.05 70.56 70.18 70.09 68.80 67.94 68.84 69.88 69.27 68.64 68.98 66.76 66.92 68.46 70.59 68.40 70.13 69.77 70.38 70.68 72.90 73.07 71.66 70.99 71.02 73.38 71.63 70.55 72.57 73.08 74.29 75.45 75.14 75.11 74.68 74.85 74.41 74.05 73.85 73.24 72.65 72.24
71.90 72.23 71.52 70.40 71.62 70.33 69.24 69.15 69.14 67.99 68.87 69.12 65.46 65.10 63.40 64.19 67.81 69.58 70.05 70.17 69.98 72.19 71.98 71.34 72.70 72.94 71.85 72.78 70.91 72.61 74.10 73.42 74.84 75.06 74.47 74.56 74.08 73.83 73.56 73.45 73.12 72.71 72.30
71.92 71.92 72.08 71.01 71.16 71.27 69.69 69.29 68.46 67.90 65.86 67.30 68.28 65.22 61.42 59.69 63.29 67.52 66.78 66.06 69.24 70.88 71.38 70.92 71.71 71.88 72.05 71.76 73.13 73.18 73.16 72.83 75.01 74.98 75.40 74.06 73.49 72.84 72.84 72.83 72.56 72.37 72.00
71.40 71.13 71.56 71.49 70.68 70.18 68.87 68.89 69.78 68.49 67.66 65.88 66.98 69.16 67.50 66.23 61.14 59.99 64.96 64.73 69.14 69.26 68.51 68.40 70.02 71.14 71.02 71.30 72.08 72.09 72.21 71.79 73.21 74.49 75.16 74.88 73.28 72.61 72.50 72.21 71.64 71.32 71.19
70.70 71.33 70.08 70.72 70.97 70.91 69.89 70.08 69.34 68.47 67.79 66.53 66.37 67.43 67.86 67.52 66.20 62.37 60.04 62.56 67.34 66.73 66.67 67.16 67.59 69.67 70.79 70.61 69.60 71.92 72.62 72.09 72.92 73.61 73.96 73.46 72.91 72.68 72.01 71.60 71.27 71.24 71.03
70.01 70.17 69.31 68.91 70.13 70.56 69.73 69.16 69.43 69.18 68.98 68.87 68.78 68.02 66.39 64.90 64.20 64.29 63.45 63.83 64.30 64.82 65.44 66.04 65.91 69.39 69.87 70.09 71.27 72.09 72.47 72.24 71.46 71.59 71.84 72.28 72.39 72.11 71.89 71.70 71.57 71.64 71.91
69.08 69.46 69.54 67.93 67.25 66.92 67.61 68.80 69.09 69.63 68.82 68.04 67.90 67.90 68.08 67.34 67.52 66.24 65.81 64.35 63.83 64.73 64.26 65.12 65.84 68.31 69.69 68.40 69.21 70.54 71.13 70.25 69.70 69.21 69.69 70.55 71.11 71.67 71.74 71.79 71.68 71.76 71.88
68.97 70.77 70.13 68.90 68.84 68.33 69.79 69.52 68.74 69.62 69.86 69.26 69.57 68.15 68.26 68.60 68.45 66.60 65.79 64.54 63.17 62.97 63.54 63.17 65.37 66.77 67.52 67.57 69.08 68.67 67.74 68.18 68.01 67.46 67.50 67.75 68.26 69.45 70.14 70.66 70.88 71.05 71.11
70.12 70.85 70.95 71.13 70.65 70.92 70.66 69.79 68.54 68.04 67.68 67.97 68.37 68.53 68.51 68.94 69.71 69.01 68.33 67.16 64.92 60.93 60.54 62.40 63.01 66.08 66.91 67.43 67.33 65.45 65.45 66.91 66.80 66.63 66.20 66.15 66.22 66.76 66.98 67.48 67.88 67.74 67.71
69.36 69.63 69.64 70.46 69.96 69.69 69.95 69.05 68.24 68.28 67.23 66.89 68.04 68.13 68.71 69.14 69.25 68.76 68.63 67.31 67.22 63.58 60.46 63.15 62.68 64.38 65.84 66.87 67.06 63.95 64.65 65.14 65.49 65.91 65.26 64.84 65.26 65.22 65.49 65.62 65.73 65.71 65.56
68.32 67.91 67.91 68.79 68.91 68.68 68.88 68.03 67.94 67.92 67.79 67.57 68.49 68.44 68.03 68.65 68.31 67.81 67.97 67.81 67.25 66.24 62.00 62.96 63.17 64.41 64.06 64.88 64.57 63.28 62.53 60.81 62.60 65.01 64.72 64.12 63.83 63.92 63.99 64.22 64.31 64.38 64.47
68.62 68.39 67.77 68.06 68.15 68.54 68.51 68.72 67.86 67.18 67.39 66.60 66.63 66.67 66.34 69.35 66.73 66.56 67.00 66.76 66.91 66.84 62.75 60.46 61.99 61.47 62.76 64.38 63.61 62.42 62.48 61.89 60.91 64.01 63.89 63.33 62.67 62.27 61.75 61.89 61.82 61.52 61.26
68.54 68.86 67.83 67.20 67.17 67.35 67.35 68.14 66.80 65.41 66.47 65.85 67.02 66.70 66.00 66.36 65.87 66.22 66.43 66.37 66.25 65.75 64.17 61.77 60.59 60.70 61.37 63.18 63.49 63.34 62.37 59.76 60.43 63.26 63.10 62.73 62.17 61.35 60.63 59.82 59.22 58.19 57.71
68.80 68.45 68.20 68.74 68.99 67.94 67.79 67.38 67.00 64.20 64.64 65.58 66.72 65.43 66.93 66.31 65.26 65.68 66.38 65.70 64.82 64.10 63.22 61.93 60.70 59.84 60.04 61.34 62.26 60.15 59.00 58.23 57.00 60.04 60.98 60.19 60.95 61.13 60.10 59.39 58.91 58.12 55.90
69.03 69.77 69.11 68.09 67.50 66.92 64.93 66.28 66.15 63.92 63.76 65.11 65.79 66.57 65.03 64.96 65.44 64.49 65.22 66.23 66.10 62.92 61.52 60.07 59.17 58.39 58.33 59.46 60.35 60.59 59.19 57.34 56.26 56.70 56.04 56.74 56.18 55.74 56.82 58.75 58.87 58.94 56.45
68.33 67.61 66.73 66.88 66.24 66.19 61.69 62.73 63.14 63.35 63.22 64.41 63.48 64.67 63.76 64.49 63.97 64.20 64.39 65.19 65.04 62.71 61.25 59.97 59.15 58.69 58.96 59.70 60.23 60.41 59.19 57.32 54.10 57.66 56.50 54.83 55.98 54.55 55.28 53.99 57.82 57.54 55.98
67.72 67.25 67.28 67.08 66.55 63.72 59.52 59.55 61.47 60.99 61.23 63.48 64.09 64.54 64.59 66.09 63.19 62.33 63.06 63.59 64.12 64.45 63.68 62.06 59.96 59.15 58.96 60.00 60.43 59.38 59.27 59.60 56.62 58.27 57.38 53.42 56.02 54.45 56.85 56.49 57.99 56.62 55.23
68.05 68.42 67.63 67.12 66.27 62.20 58.11 57.97 59.75 59.00 60.64 63.72 63.84 64.25 63.61 63.54 63.32 63.10 61.25 62.47 63.00 64.49 64.89 64.86 62.09 61.05 61.15 60.69 61.30 61.62 60.55 60.06 60.08 59.12 58.44 55.15 55.86 55.08 56.75 55.56 58.27 56.42 54.50
68.62 67.95 67.92 67.57 66.29 61.06 57.10 56.63 58.42 58.72 59.65 61.41 64.05 62.77 64.15 61.94 60.46 60.18 63.96 62.92 61.13 60.13 59.39 60.90 61.98 61.09 59.96 59.28 61.04 61.27 59.23 58.41 57.40 57.99 57.78 57.12 57.87 55.36 53.44 52.39 54.95 56.35 53.76
68.51 68.04 67.14 66.85 65.30 63.32 54.91 54.80 58.34 59.50 58.73 60.44 61.57 63.34 61.52 60.76 57.02 56.88 61.38 61.53 60.98 61.00 60.61 59.38 59.51 59.75 60.25 59.52 60.29 61.82 60.44 58.14 57.68 57.50 59.48 56.21 56.19 57.45 54.45 54.11 52.30 53.54 51.76

GFSMA_sfc_wetblb_078.txt.gz
Wetbulb
71.19 71.53 71.48 71.68 72.17 72.07 71.92 71.55 71.67 72.18 72.07 71.72 71.77 71.96 71.29 70.55 71.45 71.82 71.77 76.24 75.90 76.11 76.30 76.31 75.72 75.31 75.09 75.58 75.41 74.69 73.97 74.74 75.35 75.02 74.79 73.66 73.70 73.78 73.72 73.20 72.14 72.18 72.55
71.64 71.17 71.22 70.86 71.69 71.74 71.85 70.75 70.66 71.08 71.72 71.76 71.77 72.22 72.37 72.54 73.04 72.46 72.33 73.95 76.23 76.18 76.42 77.48 77.43 76.77 76.21 75.82 75.81 75.85 75.51 74.64 75.08 75.65 75.80 75.22 74.67 74.92 74.32 74.25 73.50 72.83 73.90
71.46 71.68 70.79 70.90 71.26 71.57 72.00 71.43 71.21 71.04 70.57 71.01 71.12 70.98 71.60 71.64 71.37 72.10 72.34 72.59 74.22 76.86 76.30 76.79 77.20 76.48 77.32 77.24 76.94 76.35 76.35 75.97 75.60 75.60 75.95 75.21 74.99 75.02 75.17 75.15 74.62 74.23 74.17
71.53 71.27 70.94 70.32 70.82 71.37 71.26 70.00 70.07 70.92 69.95 69.63 69.76 70.10 70.74 71.35 71.32 71.88 71.56 72.14 72.41 74.05 75.40 76.38 75.93 75.99 76.68 77.60 77.59 77.11 76.20 75.90 75.62 75.60 75.62 75.89 75.41 74.81 74.83 74.66 75.11 74.92 74.69
72.35 71.38 69.69 70.25 70.86 70.09 70.41 70.38 68.99 68.69 68.47 68.67 69.63 69.52 69.66 70.75 71.43 71.63 71.94 71.23 72.63 72.36 71.74 74.60 75.78 75.35 76.31 76.36 75.98 76.01 76.19 75.67 75.57 75.32 75.42 75.42 75.44 74.85 74.73 74.38 74.46 74.38 74.08
71.93 71.41 70.32 70.56 69.59 69.63 69.19 69.44 68.58 69.57 68.51 68.26 70.17 69.44 68.08 68.98 69.79 70.06 70.66 71.27 72.09 73.31 72.54 71.78 72.17 73.17 75.37 76.49 75.81 75.88 75.44 75.47 75.27 75.62 75.32 75.12 74.95 74.89 74.68 74.23 74.10 73.74 73.44
71.45 71.83 70.28 70.05 69.39 67.86 68.06 68.51 68.20 68.12 67.97 68.15 65.86 65.84 66.67 68.38 68.50 68.19 69.01 69.42 70.15 71.86 71.08 71.82 71.53 71.22 71.49 74.35 74.87 74.82 74.57 73.86 74.24 75.19 75.37 74.95 74.52 74.17 73.65 73.83 73.54 73.06 72.55
71.29 70.74 70.87 70.18 69.69 68.60 67.03 66.76 68.50 66.96 66.87 67.41 64.64 64.19 62.20 63.39 66.22 68.53 67.99 69.73 69.29 70.23 71.14 71.46 70.66 71.63 71.53 72.09 71.85 72.60 74.05 74.13 74.67 74.45 75.12 74.24 73.97 73.59 73.44 73.27 73.20 72.68 72.46
71.70 71.06 70.90 70.61 70.11 69.70 68.31 67.84 67.72 66.92 66.13 66.35 67.83 64.59 61.14 59.45 61.48 65.76 64.10 66.98 68.81 68.72 69.39 70.34 71.62 71.87 71.97 71.47 72.77 73.15 74.52 74.27 74.59 74.05 74.57 74.30 73.33 72.61 72.92 72.89 72.63 72.30 72.14
71.26 70.76 71.03 70.50 70.28 70.25 68.65 68.58 69.04 68.13 66.58 64.40 66.06 67.59 65.60 63.68 60.57 59.72 64.75 62.93 67.86 67.75 67.84 68.40 69.10 70.50 70.94 71.06 71.83 72.71 73.00 72.16 73.01 74.13 74.87 75.00 74.08 72.85 72.64 72.25 72.09 71.90 71.57
70.12 70.57 69.98 70.18 70.32 70.37 69.33 69.01 68.60 67.27 67.00 66.17 65.56 65.29 65.52 65.92 64.80 63.15 61.13 61.43 65.34 64.53 65.35 66.35 66.82 69.30 70.34 70.27 69.03 70.93 72.11 71.64 72.22 73.21 73.78 74.12 73.45 72.88 72.30 72.07 71.59 71.41 71.27
68.74 69.72 69.14 69.21 70.13 70.30 69.62 69.17 68.71 68.31 68.04 68.08 67.40 66.91 66.41 65.05 64.44 63.85 62.52 62.91 63.54 64.53 64.71 65.44 66.14 69.28 69.48 69.82 71.24 72.20 72.47 72.01 71.43 71.54 72.02 72.66 72.75 72.53 72.17 71.95 71.63 71.51 71.65
67.92 68.63 68.22 67.54 67.99 68.81 68.72 68.26 68.22 68.47 68.15 66.65 67.10 67.65 67.79 67.11 67.25 65.96 64.66 63.93 63.45 64.46 64.03 64.85 65.69 67.99 68.63 67.43 68.67 70.84 71.35 70.59 69.77 69.30 69.90 70.66 71.30 71.79 72.08 71.60 71.49 71.86 71.62
67.39 69.00 68.92 67.70 67.21 66.49 66.54 67.34 66.48 67.29 68.62 68.29 67.61 67.48 67.63 67.70 67.47 66.41 65.09 63.27 62.83 62.79 63.57 63.39 64.29 66.93 67.58 67.72 69.08 69.21 68.49 68.95 68.42 67.70 67.25 67.88 68.72 69.59 69.99 70.55 70.88 71.05 71.12
68.68 69.34 69.21 67.93 67.61 67.61 67.57 68.22 67.47 67.23 67.27 67.14 68.02 68.33 68.15 68.56 69.05 68.29 67.05 65.82 63.45 60.65 60.59 62.65 63.13 66.14 67.16 66.87 66.74 65.42 65.78 67.83 68.06 67.07 66.26 66.35 66.67 67.43 67.99 68.67 68.51 68.46 68.68
68.04 68.83 69.12 69.30 69.46 69.32 69.28 68.38 67.03 66.89 66.44 65.68 65.94 65.75 65.73 68.11 68.33 68.51 67.81 67.47 67.00 63.80 60.69 62.92 62.90 65.01 66.26 66.51 66.80 64.23 65.20 66.14 66.76 66.29 65.57 65.07 65.32 65.68 65.86 66.36 66.54 66.27 66.00
67.71 67.78 67.67 68.42 69.07 68.26 68.22 67.32 66.92 67.01 66.40 65.95 66.67 67.01 66.51 66.92 67.79 67.86 68.53 67.34 66.93 64.93 61.62 62.35 63.31 64.47 64.67 64.75 64.15 63.31 63.12 62.73 64.34 65.26 64.88 64.63 64.18 64.07 64.57 64.86 64.93 64.96 64.94
67.44 66.97 66.80 67.53 67.75 67.84 67.34 66.65 66.23 67.44 66.13 65.59 66.09 66.51 65.89 67.45 65.96 65.91 66.53 66.33 66.55 65.96 62.59 60.53 62.42 62.31 62.96 64.28 62.36 60.96 61.67 61.91 62.42 64.66 64.03 63.67 63.02 62.49 62.11 62.22 62.23 62.00 61.68
66.99 67.25 66.75 66.41 66.58 67.20 66.98 67.00 66.69 65.14 65.27 65.76 65.11 64.78 65.73 65.67 64.97 65.39 65.45 65.31 65.17 65.86 63.00 61.66 60.33 61.20 62.28 63.98 61.60 61.56 58.69 57.65 61.00 64.27 63.56 62.89 62.25 61.70 60.96 60.27 59.76 58.46 57.59
67.21 66.89 66.61 66.58 66.09 66.30 66.45 66.29 65.97 63.69 63.50 64.53 65.14 64.18 65.29 65.42 64.86 64.99 65.09 65.12 64.55 63.49 62.70 62.00 61.00 60.98 61.38 62.09 62.41 60.43 58.38 58.55 57.31 60.30 62.24 61.35 61.66 61.90 61.00 60.24 59.86 58.95 56.45
67.95 67.42 67.41 68.06 67.88 67.65 65.72 66.76 65.57 62.77 62.42 62.69 64.27 66.09 65.09 65.00 65.42 64.13 64.58 65.15 64.06 62.84 61.75 60.37 59.91 59.57 59.75 60.45 60.82 59.99 58.23 57.05 55.57 56.39 56.31 58.36 57.76 58.42 57.77 60.07 60.39 60.71 57.36
67.35 67.29 67.71 67.63 64.85 65.26 60.77 62.35 64.25 63.42 63.11 63.59 62.76 63.37 62.99 64.95 63.89 63.67 64.10 65.23 64.23 62.25 60.61 59.85 59.12 59.30 60.00 60.78 60.62 60.04 58.08 56.45 54.66 56.85 55.10 55.04 55.52 55.56 55.06 54.90 58.69 58.78 56.74
66.40 66.31 65.53 65.56 65.00 64.29 59.30 59.24 61.28 61.55 62.06 62.01 63.36 63.12 62.44 63.51 62.78 62.54 62.34 63.16 63.26 62.56 62.58 61.47 59.79 60.02 59.55 60.78 60.92 60.05 59.00 57.44 55.69 56.96 55.93 54.88 55.71 53.89 55.81 55.75 57.35 57.59 56.15
66.63 65.71 65.64 65.85 65.01 63.91 57.59 57.33 59.59 58.39 60.34 63.50 63.17 63.83 63.77 62.76 61.37 61.92 61.67 61.63 62.72 64.25 63.01 62.85 61.17 59.19 59.59 61.66 61.97 61.88 60.72 59.86 59.34 58.42 58.15 54.37 55.53 54.82 54.78 55.89 57.99 57.33 55.73
66.02 66.58 66.65 66.20 65.12 63.00 55.77 55.93 58.15 58.03 58.68 62.29 63.42 63.86 63.44 62.63 60.54 59.32 62.43 60.77 59.79 59.37 59.35 60.34 60.68 59.12 58.58 58.37 60.19 60.62 59.40 59.02 57.90 57.99 58.27 56.01 54.27 53.76 53.32 53.12 54.31 57.46 55.18
60.69 67.52 67.07 66.80 63.85 62.62 54.12 54.08 57.98 58.49 57.22 58.73 59.82 61.03 60.39 59.43 56.58 57.62 62.38 60.05 58.57 59.33 59.85 59.33 59.71 59.54 58.59 58.07 59.02 60.68 59.49 58.85 58.00 56.85 58.77 56.75 56.41 55.60 53.45 52.93 52.22 54.54 54.90

GFSMA_sfc_wetblb_081.txt.gz
Wetbulb
70.30 70.54 70.81 71.36 71.81 71.69 71.47 71.11 71.36 72.05 71.91 71.74 71.42 71.57 71.14 70.62 70.44 71.41 70.61 76.24 75.62 75.73 77.10 75.66 74.80 75.13 75.10 74.96 74.05 74.92 74.70 73.83 74.33 73.95 73.85 73.35 73.41 73.39 73.43 72.74 72.50 72.45 72.45
70.61 70.52 70.25 70.68 71.09 71.47 71.24 71.02 70.66 70.86 71.22 71.55 71.20 71.47 71.46 71.51 70.78 71.47 71.20 72.68 75.87 75.72 75.98 76.86 75.94 75.85 75.13 75.61 75.48 75.05 74.69 74.29 75.05 75.72 75.34 75.19 74.37 74.24 74.19 73.83 73.56 72.71 73.11
70.70 70.51 70.30 70.03 70.66 70.93 71.10 70.86 70.27 70.45 70.07 70.79 70.22 70.71 70.66 71.12 71.59 71.89 71.64 71.64 72.85 76.25 75.99 76.39 76.27 76.01 76.18 76.24 76.28 76.45 76.30 75.82 74.91 75.22 75.57 75.41 75.01 74.49 74.99 74.67 74.47 74.32 73.87
71.46 70.74 70.34 70.00 70.41 70.39 70.55 70.16 69.78 68.87 69.15 69.19 69.34 69.98 69.94 70.31 70.90 70.88 71.09 71.27 71.27 73.27 75.38 76.22 75.53 75.61 75.93 76.17 76.66 77.05 76.20 76.15 75.62 75.09 75.49 75.56 75.11 74.78 74.68 74.93 74.86 74.86 74.36
72.04 70.73 70.45 70.45 70.00 70.43 70.41 70.09 68.92 68.94 67.72 68.11 68.90 69.03 69.36 69.47 70.24 71.60 70.58 71.05 71.18 71.96 72.00 73.90 75.52 75.24 76.06 76.56 76.70 76.80 76.22 75.34 74.92 75.06 75.61 75.57 75.46 74.89 74.54 74.27 74.43 74.26 74.13
71.15 71.08 69.69 69.57 69.51 68.31 68.81 68.51 68.11 68.33 68.13 68.15 69.56 69.32 67.82 68.13 68.72 68.89 69.82 71.61 71.52 71.57 71.85 71.52 72.07 73.23 75.60 75.72 75.54 75.78 75.67 75.29 75.22 74.82 75.02 74.89 75.14 74.79 74.35 74.31 74.14 74.04 73.78
70.26 70.83 70.05 70.02 69.30 67.86 68.38 68.58 67.86 67.75 67.52 67.52 65.85 65.14 65.62 67.37 67.79 67.79 68.29 69.00 69.51 70.97 71.30 71.29 70.93 70.97 71.25 73.17 74.09 75.24 75.65 75.17 74.86 74.89 74.94 74.59 74.07 74.46 74.33 74.01 73.59 73.15 73.13
70.46 70.27 70.09 69.67 69.28 67.86 67.01 67.39 67.72 66.51 65.87 66.39 63.99 62.78 61.04 62.95 65.57 67.41 67.61 68.78 68.42 69.87 71.04 71.00 70.40 70.69 70.67 71.13 72.04 73.56 74.19 74.34 74.31 74.59 74.27 74.19 73.35 73.42 73.60 73.48 72.90 72.70 72.30
70.59 70.24 70.02 69.62 69.71 68.81 67.41 66.31 66.56 66.83 65.10 65.80 65.62 63.49 59.58 59.56 60.67 64.70 63.59 66.66 68.06 68.26 68.74 69.78 70.86 71.40 71.80 71.86 72.52 72.48 73.82 73.81 74.33 74.99 75.27 74.21 73.34 72.62 72.67 72.82 72.54 72.27 72.21
70.98 70.74 70.23 70.16 69.46 69.73 68.94 67.79 68.00 66.62 65.23 64.08 65.36 66.87 64.64 63.01 60.01 60.10 63.31 62.88 67.27 66.71 66.42 67.11 67.88 69.23 70.65 70.98 71.99 72.90 72.71 72.68 73.07 73.97 74.39 74.51 73.85 72.97 72.70 72.65 72.80 72.25 71.81
70.11 69.88 69.33 69.46 69.05 69.01 68.90 68.85 68.20 67.05 66.82 65.41 64.71 64.63 64.50 64.54 62.99 60.35 58.67 61.20 65.84 65.50 64.29 64.63 65.47 68.97 70.38 70.34 69.08 70.02 72.47 71.72 71.85 72.53 73.24 74.17 74.10 73.57 73.35 72.75 72.12 71.89 71.50
67.81 68.96 68.90 68.65 69.03 69.01 69.17 69.01 68.74 67.55 66.89 66.19 65.72 65.33 64.79 64.51 64.30 62.46 60.99 61.59 62.22 64.37 63.29 63.91 64.85 68.56 69.03 68.24 70.49 71.89 72.02 71.70 71.24 71.18 71.85 72.73 73.37 73.44 72.80 72.45 72.17 71.82 71.87
67.25 67.63 67.25 67.11 67.97 68.47 68.96 68.17 67.93 67.95 67.72 66.96 67.66 67.47 67.66 66.44 65.81 65.69 63.82 63.54 63.11 64.32 62.99 63.75 65.19 67.56 68.60 66.86 68.29 70.82 71.16 70.48 69.83 69.23 69.94 70.66 71.53 72.15 72.33 72.01 71.68 71.83 71.56
67.48 67.77 67.73 66.74 67.39 67.64 67.48 67.27 66.12 66.51 66.78 66.30 65.51 67.07 67.45 67.68 67.63 66.86 65.51 63.99 62.71 63.19 63.62 62.69 63.20 66.55 67.72 67.32 68.50 69.72 68.58 69.61 68.69 67.57 67.66 68.31 69.20 69.99 70.58 70.81 71.06 71.45 71.43
67.92 67.70 68.27 67.25 66.40 65.96 65.02 65.39 65.40 65.43 66.19 66.10 66.48 67.41 67.09 67.70 67.81 67.18 66.37 65.54 63.71 60.88 61.30 62.83 62.83 66.03 67.18 67.25 66.85 65.02 66.83 68.46 68.24 67.07 66.10 66.49 67.21 67.70 68.12 68.75 68.58 68.62 68.91
67.50 68.06 68.31 67.88 66.83 66.87 66.38 66.29 66.06 65.99 65.67 65.38 65.76 65.68 66.62 67.54 67.79 68.20 67.83 66.96 66.19 64.04 61.32 63.01 63.53 65.26 66.75 66.03 67.36 65.08 65.93 67.16 67.19 66.49 65.82 65.30 65.66 66.13 66.69 66.69 67.07 66.99 66.85
67.36 67.05 67.91 68.09 67.97 68.02 67.30 66.68 65.96 65.84 65.27 64.42 64.12 64.11 64.35 65.15 66.32 66.70 67.13 67.16 66.79 64.74 62.12 62.17 62.93 64.72 65.19 64.78 64.54 63.65 63.52 63.91 65.04 65.76 65.42 64.83 64.45 64.65 64.89 65.16 65.44 65.47 65.31
66.74 67.05 66.54 66.74 67.34 67.57 67.01 66.60 66.22 66.96 65.47 64.95 64.93 65.18 65.48 66.49 64.83 64.79 65.50 65.84 65.89 65.24 62.73 60.98 62.31 62.90 63.35 64.13 62.26 61.28 62.05 62.83 63.47 64.60 64.23 63.98 63.30 62.54 62.34 62.73 62.72 62.46 62.18
66.40 65.96 65.60 66.27 66.45 66.74 66.36 66.51 66.07 66.20 65.60 65.33 64.63 64.42 65.06 65.13 64.25 64.22 64.42 64.14 63.27 65.03 62.76 62.13 60.52 61.75 62.87 62.97 61.16 60.47 59.88 59.31 62.24 64.45 63.64 63.07 62.66 61.81 61.22 60.78 60.07 58.81 57.93
66.54 66.05 66.18 65.51 66.18 66.03 66.20 66.07 66.00 64.62 63.44 64.19 64.47 64.33 64.89 64.83 64.28 64.03 63.90 64.47 65.16 64.12 62.91 62.43 61.06 61.38 62.11 62.29 62.18 59.53 57.38 56.60 59.15 61.40 62.54 61.26 61.71 62.26 61.68 60.78 60.42 59.17 56.62
66.63 66.16 65.76 65.63 65.25 65.38 66.22 64.76 65.45 63.75 62.34 62.10 63.28 64.89 65.66 65.47 65.54 64.06 63.41 64.94 64.26 62.79 61.93 61.36 60.16 59.96 60.34 60.82 60.21 60.76 58.30 57.46 56.64 56.76 58.22 59.15 59.39 59.45 58.36 60.66 61.18 61.27 57.55
66.31 66.58 65.80 65.94 65.78 66.13 62.08 62.13 64.10 62.45 62.90 62.53 62.22 63.63 63.13 64.91 63.70 63.75 64.03 65.08 64.62 62.88 61.08 60.44 59.35 59.71 60.27 61.26 60.72 60.16 57.88 56.38 55.25 56.42 55.77 57.26 58.38 57.74 56.48 56.25 59.82 59.77 57.43
63.74 64.41 65.07 65.51 64.74 63.95 59.14 60.01 62.48 62.24 61.31 61.61 62.11 62.86 63.01 64.56 63.40 63.35 62.70 63.34 63.05 62.52 62.52 61.86 60.13 60.07 60.43 61.26 61.95 60.16 59.12 57.31 56.48 56.46 55.46 54.05 56.58 55.91 56.66 56.58 58.09 58.24 56.77
62.25 62.09 61.07 63.65 64.90 64.45 58.17 56.85 60.20 60.02 59.96 61.53 61.99 62.56 62.05 62.74 62.14 62.74 63.37 63.68 61.80 62.73 62.82 62.43 61.64 61.25 60.93 61.79 62.67 61.86 60.41 59.35 58.82 57.16 57.76 53.96 54.08 53.92 54.67 56.66 57.94 57.49 56.48
60.89 62.02 61.38 60.44 64.24 65.04 56.47 55.16 57.50 57.50 57.66 60.60 61.58 62.34 63.02 63.14 60.21 58.73 62.17 61.70 60.60 60.14 58.87 59.59 59.40 58.61 58.44 58.90 60.54 61.57 59.66 58.83 57.74 57.44 57.60 55.81 54.19 53.85 53.70 54.47 55.02 57.48 55.98
59.53 60.69 60.53 60.59 61.54 65.71 54.76 53.42 57.42 58.01 56.81 58.50 59.46 59.61 60.62 61.38 57.30 56.43 61.91 61.16 58.82 59.34 59.66 59.24 59.58 58.78 57.56 57.72 58.72 61.64 60.75 59.15 58.16 57.12 58.29 56.42 54.17 54.85 53.53 53.45 53.95 54.27 56.00

GFSMA_sfc_wetblb_084.txt.gz
Wetbulb
71.32 72.01 71.92 72.50 73.15 73.43 73.37 73.01 73.39 73.18 73.57 73.37 73.36 72.65 72.14 72.19 72.34 72.98 72.49 74.30 75.99 75.73 76.04 76.06 75.31 74.53 74.46 75.30 75.46 74.92 74.80 73.40 74.17 74.66 73.74 73.68 74.13 73.80 73.17 72.76 72.72 73.75 73.11
71.38 71.49 71.49 71.83 72.46 72.86 72.89 72.82 72.84 72.74 72.80 73.00 72.63 72.48 72.72 73.18 73.11 72.65 73.20 73.05 76.65 75.55 76.00 76.57 76.31 75.33 75.14 75.69 75.46 74.88 75.25 74.74 74.55 75.30 74.95 74.68 74.30 74.13 74.37 73.56 73.36 72.93 73.27
71.69 71.65 71.54 71.20 72.01 72.70 72.81 72.33 72.32 72.25 71.88 72.14 71.77 72.12 73.06 72.71 72.98 73.38 74.12 73.51 74.03 76.43 75.87 76.07 75.47 75.77 75.81 75.75 76.21 75.87 75.60 75.40 75.42 75.00 75.35 75.17 74.95 74.50 74.58 74.55 74.58 74.73 74.23
72.17 71.50 71.36 71.40 72.14 71.96 72.33 72.15 71.58 70.89 71.27 70.83 71.23 71.65 72.59 71.80 72.44 72.89 73.12 73.27 73.63 73.33 75.56 75.90 75.22 75.35 75.77 76.36 76.55 76.15 76.31 75.88 75.70 75.13 75.13 75.45 75.52 74.52 74.49 74.89 75.07 74.92 74.47
72.67 71.61 71.40 71.56 72.14 71.57 71.59 71.67 71.20 71.31 70.63 70.67 70.85 71.58 71.18 71.60 72.18 72.76 72.57 72.71 73.26 73.09 73.49 74.77 75.19 75.10 76.25 76.39 76.27 76.22 76.47 75.85 75.45 75.58 75.28 75.18 75.25 74.87 74.14 74.44 74.52 74.61 74.41
72.09 71.93 71.54 71.42 71.05 70.46 70.58 71.20 70.77 70.70 70.47 70.05 70.43 71.39 71.20 71.26 71.21 71.60 71.89 72.75 73.68 73.53 74.37 73.92 74.60 74.77 75.52 75.69 75.32 75.20 75.57 75.11 74.72 74.73 75.38 75.03 75.00 74.65 74.24 74.14 74.36 74.18 73.82
70.63 71.69 71.00 70.61 70.93 69.63 70.07 70.07 69.58 68.79 69.35 69.62 68.59 68.49 69.09 69.55 69.86 70.89 71.21 71.27 71.92 72.78 73.62 74.09 73.94 73.69 73.51 73.92 74.63 75.04 75.50 75.02 75.30 74.63 74.38 74.03 74.50 74.15 74.17 73.94 73.66 73.41 73.19
71.13 70.89 70.99 70.37 70.64 69.18 67.87 68.81 68.81 68.23 69.08 68.54 67.08 65.91 65.25 66.22 67.85 69.48 69.99 70.66 71.09 72.06 72.49 73.14 72.94 72.73 73.05 73.05 73.07 72.99 74.01 74.28 75.37 74.94 74.35 73.68 73.46 73.70 73.35 73.16 72.91 72.78 72.97
71.49 71.07 70.50 70.68 70.17 69.67 68.48 67.53 67.89 68.27 67.12 67.64 67.60 66.52 62.64 62.86 64.33 67.46 67.04 69.00 70.51 70.81 71.94 72.17 72.23 72.75 72.91 73.20 73.14 73.26 73.57 73.25 74.02 74.55 74.85 74.97 73.60 73.28 73.03 72.83 72.78 72.47 72.32
71.12 71.37 70.95 70.95 70.37 69.79 69.11 68.34 67.87 67.82 68.18 66.85 67.50 68.29 67.35 66.58 64.24 63.51 66.97 66.57 69.28 69.52 69.87 70.12 70.04 70.76 71.89 72.84 72.52 72.26 72.09 71.96 72.70 73.80 74.59 74.94 74.91 73.54 73.18 72.96 72.96 72.60 72.10
70.78 71.12 70.52 70.77 70.53 69.97 69.87 68.84 68.59 67.41 68.34 67.17 67.22 67.15 67.10 66.99 65.63 64.22 63.26 65.14 66.19 68.95 68.34 67.76 68.42 68.94 71.72 71.93 71.14 71.35 72.06 72.52 72.04 72.40 73.19 74.13 74.26 74.23 73.91 73.58 73.31 72.46 72.09
69.55 70.24 70.16 69.71 70.26 69.81 69.44 68.88 68.79 68.11 67.43 67.23 67.69 67.93 67.64 66.06 65.20 65.07 63.45 64.17 64.63 66.38 67.73 66.87 66.61 68.94 71.09 71.39 71.15 71.53 71.70 71.47 71.03 71.14 71.71 72.70 73.54 73.96 73.98 73.11 72.85 72.28 72.16
68.75 69.49 69.91 69.12 69.54 69.49 70.05 69.15 69.08 68.41 67.71 67.01 67.19 66.78 67.19 67.48 68.38 66.96 65.84 65.39 65.13 65.59 65.46 66.65 66.04 68.82 70.19 70.62 70.75 70.73 71.13 70.40 69.79 69.19 69.81 70.71 71.47 72.05 72.43 72.44 72.37 72.12 72.05
69.39 69.77 69.84 68.74 69.12 69.39 69.82 69.56 68.86 68.97 68.99 68.81 67.82 67.34 67.68 68.20 67.91 67.26 66.04 64.96 63.54 64.15 64.49 65.18 66.21 68.20 69.99 69.82 69.73 69.84 70.19 69.65 68.67 67.71 67.84 68.32 69.41 70.29 70.86 71.31 71.40 71.80 71.74
68.81 69.39 69.62 69.09 68.44 68.67 68.97 68.16 67.73 67.37 68.20 68.54 68.27 68.34 68.38 68.14 68.43 68.18 67.32 66.67 65.27 61.03 61.77 63.91 65.06 67.64 68.95 69.34 68.91 68.49 68.80 68.60 68.26 67.08 66.31 66.68 67.31 68.04 68.69 69.01 69.03 69.12 69.27
69.16 69.56 69.22 69.11 68.26 67.61 66.90 66.48 66.92 67.35 67.22 68.00 68.25 67.66 68.29 68.99 68.09 68.99 67.52 66.94 66.35 64.75 62.55 63.77 63.98 65.88 67.48 66.56 68.28 67.12 68.25 67.64 67.08 66.52 65.82 65.50 66.07 66.70 67.06 67.28 67.22 67.28 67.22
69.02 68.69 69.22 69.13 68.46 67.85 68.46 68.02 67.89 68.13 67.46 67.44 67.10 66.41 66.41 66.72 67.62 67.71 67.95 67.41 66.57 66.03 63.72 63.02 64.02 65.34 66.35 66.13 65.50 65.23 65.50 66.14 66.37 65.87 65.29 64.93 64.76 65.23 65.48 65.75 65.77 65.87 66.05
68.82 68.57 68.62 68.90 68.92 69.15 68.98 68.54 68.07 68.71 67.48 66.90 66.90 66.61 66.47 67.81 67.71 68.05 66.37 66.33 66.28 65.76 64.11 62.31 62.98 63.40 64.42 64.95 63.45 62.24 63.28 64.39 64.89 65.07 64.60 63.94 63.23 62.68 62.66 62.80 62.83 62.93 62.68
68.15 67.97 68.23 68.22 68.31 68.56 68.70 68.53 68.17 67.71 67.67 67.38 67.36 67.08 67.36 67.25 67.17 67.22 66.86 66.54 66.30 66.67 65.36 63.61 61.73 62.86 63.56 62.79 61.23 60.98 60.94 61.81 63.48 64.59 63.85 63.35 62.91 62.24 61.43 60.96 60.45 59.22 58.60
68.24 68.09 67.86 67.78 68.12 68.30 68.65 68.34 68.18 67.54 67.49 66.83 67.06 66.72 66.71 67.33 67.85 67.45 67.04 66.99 66.26 65.59 64.74 63.36 62.29 62.48 63.00 62.79 62.15 59.33 57.97 59.56 61.08 62.72 63.01 62.85 62.69 62.91 62.47 61.23 60.80 59.63 57.08
67.71 67.64 67.50 67.80 67.45 67.41 67.17 67.76 67.17 67.29 66.27 65.57 66.12 66.83 66.51 67.04 66.03 66.39 67.17 67.21 66.52 65.00 63.98 62.49 61.05 61.05 60.89 60.89 60.56 60.64 58.85 58.83 59.18 59.98 60.77 61.26 61.56 61.91 62.78 61.89 63.06 61.80 58.07
67.66 67.48 67.17 66.76 67.01 66.88 62.74 62.62 65.89 66.49 65.94 64.98 64.97 66.25 66.81 66.40 65.52 63.64 64.32 64.82 66.41 65.23 63.15 62.00 60.91 61.02 62.02 62.45 61.19 60.76 58.65 58.13 58.08 59.88 59.82 59.56 60.44 60.45 60.76 61.35 61.36 60.33 57.76
66.61 66.90 67.21 66.79 66.68 67.12 60.89 60.09 62.29 65.85 65.06 65.07 65.63 65.81 65.36 65.64 64.26 65.75 63.38 63.51 63.54 62.65 62.94 64.13 61.82 61.97 62.38 63.85 62.69 60.90 60.18 59.69 59.91 58.44 58.07 57.95 58.85 58.41 59.58 60.33 58.76 58.98 57.48
65.58 66.08 66.57 65.79 66.92 66.90 59.98 57.86 60.57 65.62 64.45 64.50 64.56 65.30 65.59 65.23 64.46 65.27 66.43 65.90 65.03 64.63 64.21 63.62 63.46 63.89 64.30 63.27 63.15 62.83 61.92 60.85 58.86 58.16 59.60 55.44 57.74 58.29 59.06 58.97 58.61 58.11 57.06
65.44 65.80 65.03 64.07 64.57 65.63 57.90 56.16 59.38 62.77 62.31 63.58 64.41 64.76 65.10 64.83 60.26 59.29 65.19 65.49 65.09 64.87 59.67 60.01 59.60 59.07 58.91 59.52 62.18 62.23 59.67 58.59 57.79 57.78 58.65 57.60 58.00 56.88 58.79 58.27 59.45 57.91 56.22
64.02 63.40 63.50 62.24 59.66 63.72 56.38 53.99 58.38 62.34 61.40 62.46 63.62 64.32 60.18 63.75 56.22 55.53 65.01 64.31 63.14 63.11 64.30 63.86 63.73 61.03 60.13 60.38 59.25 64.65 62.10 59.85 59.66 58.47 59.17 57.82 58.77 57.65 58.90 58.85 57.43 58.10 57.60

GFSMA_sfc_wetblb_087.txt.gz
Wetbulb
75.07 75.45 75.31 74.92 75.66 76.07 76.56 76.04 75.70 75.34 74.90 74.30 74.02 73.93 73.49 73.94 74.47 75.21 74.87 74.31 75.88 76.21 76.27 76.74 76.36 75.98 75.49 76.12 76.16 74.80 74.38 74.13 74.63 74.32 74.61 74.16 75.10 74.72 73.80 73.24 73.04 73.48 74.26
75.33 74.46 75.16 75.43 75.35 75.92 76.30 75.78 75.95 75.26 74.67 74.97 74.69 74.77 74.32 74.24 75.35 75.82 75.45 75.86 75.32 76.49 76.06 76.33 76.47 76.13 76.01 75.73 75.67 76.26 75.64 75.24 75.11 74.97 75.56 75.16 74.64 74.69 74.38 74.09 73.68 73.21 74.11
75.83 75.49 74.43 76.38 77.00 76.73 76.40 76.28 75.91 75.54 74.79 74.93 74.35 74.26 74.21 74.48 75.48 75.95 76.39 76.20 76.25 76.28 76.28 76.06 76.25 76.34 76.27 76.05 75.69 76.28 75.99 75.41 75.64 75.31 74.84 75.44 74.84 74.89 74.64 74.74 74.89 74.91 74.76
75.93 75.51 74.62 74.90 77.14 76.97 76.89 75.20 74.65 73.82 74.01 74.31 74.49 74.50 74.14 75.73 75.75 75.71 75.95 76.25 76.18 76.10 76.67 76.28 75.94 75.69 75.74 76.43 76.42 76.15 76.02 75.69 75.49 75.29 75.36 75.34 75.34 74.65 74.90 74.88 75.04 74.86 74.84
75.22 75.11 75.25 75.66 76.82 76.79 75.50 76.38 75.45 74.55 73.57 74.76 74.40 74.84 75.28 74.64 75.20 75.01 75.55 76.02 76.48 76.27 76.03 76.14 76.00 75.70 76.06 76.12 76.44 76.57 76.53 75.49 75.47 75.76 75.81 75.44 75.06 74.56 74.41 74.60 74.58 74.26 74.36
73.05 73.58 74.59 74.52 76.39 74.74 75.73 74.59 74.74 75.40 75.10 75.36 74.22 73.64 75.44 74.49 75.05 74.89 75.19 75.48 76.14 76.49 76.69 76.87 76.57 76.21 75.88 75.70 75.95 76.21 76.14 75.93 74.85 75.01 75.34 75.36 75.31 74.56 74.11 74.14 73.86 73.83 73.98
75.33 74.99 73.39 75.40 74.14 74.27 74.54 73.62 73.94 73.53 74.13 74.60 73.74 73.37 74.03 74.17 74.13 74.05 74.86 74.78 75.28 76.00 76.59 76.67 76.92 76.69 76.39 74.64 74.66 75.11 75.43 75.59 74.79 74.33 74.40 74.41 74.56 74.49 74.16 74.06 73.65 73.41 73.63
75.33 74.34 74.03 74.55 74.18 72.16 71.38 69.80 70.74 70.32 73.32 75.51 72.58 71.83 67.29 69.48 71.78 72.92 73.85 73.93 74.40 75.08 75.10 75.88 76.31 76.59 76.17 75.87 75.77 73.87 73.97 74.34 74.64 74.78 74.83 74.59 73.72 73.34 73.42 73.00 73.45 73.06 72.93
75.32 75.11 74.51 74.61 74.60 73.66 72.77 73.20 72.18 69.35 67.71 71.79 73.47 72.11 67.86 64.60 68.85 71.56 72.32 72.76 73.75 74.17 74.74 75.39 75.59 75.77 75.98 75.70 74.94 74.71 73.87 73.52 73.99 74.30 75.14 74.91 73.91 73.16 73.09 73.43 73.42 72.75 72.49
74.96 75.11 74.63 73.27 73.99 73.64 73.24 73.30 71.76 69.82 68.81 66.46 70.25 71.76 71.36 70.30 65.61 65.10 71.00 71.70 72.28 73.02 74.29 74.45 74.15 74.20 74.61 74.75 73.80 73.39 72.36 72.10 72.61 73.46 74.22 74.96 74.98 74.32 74.08 73.74 73.60 73.11 72.74
75.18 74.54 74.76 74.29 74.13 73.59 73.40 73.09 72.30 71.16 68.20 67.82 67.87 71.91 71.93 71.66 70.19 67.29 64.85 67.60 70.54 71.90 73.11 73.09 73.26 73.28 74.02 73.97 73.89 73.48 72.10 72.76 72.82 72.60 73.02 73.38 74.45 75.15 74.55 74.21 73.99 73.82 73.39
73.78 74.62 74.25 73.52 73.76 73.15 72.57 72.04 71.79 70.21 68.20 68.07 69.06 70.34 71.18 69.90 69.13 68.28 66.50 67.27 67.77 70.01 72.01 72.61 71.69 71.40 71.74 73.13 72.86 71.34 71.84 71.62 71.31 71.33 71.58 72.60 73.55 74.11 74.09 74.14 74.04 73.33 72.86
72.67 73.41 74.08 73.67 72.55 72.75 71.88 71.26 69.80 68.65 68.16 67.98 67.80 67.75 69.77 70.29 70.28 69.29 69.55 67.71 67.89 68.84 69.68 71.00 70.18 69.45 71.73 71.79 73.24 71.13 71.00 70.73 70.17 69.64 70.16 71.30 72.30 72.69 72.95 73.27 73.54 72.92 72.85
72.58 74.37 74.29 73.68 72.90 72.47 71.86 72.28 71.70 71.50 70.42 69.38 68.20 68.36 68.74 68.99 69.17 69.53 67.08 66.94 63.89 66.04 69.00 68.69 67.96 68.36 70.58 72.51 71.89 69.86 71.46 69.54 69.17 68.27 68.29 68.94 69.68 70.51 71.26 71.69 71.82 72.05 72.18
73.02 73.85 73.98 73.47 72.60 73.02 72.94 72.80 71.58 71.78 71.73 70.76 70.34 71.06 70.57 70.84 70.58 70.93 69.24 68.83 65.56 62.38 62.75 65.49 65.49 67.32 69.42 71.02 71.46 72.18 72.44 68.63 68.39 67.46 66.83 67.21 68.07 68.87 69.29 69.83 69.98 69.64 69.43
73.44 73.29 73.43 73.36 72.76 72.38 72.38 72.06 70.95 71.74 71.78 71.60 71.57 71.59 71.48 70.91 72.35 71.42 71.16 70.44 68.11 65.53 62.59 65.69 65.97 67.48 68.99 68.83 69.36 70.70 70.78 68.60 67.35 66.57 66.12 65.93 66.90 67.55 67.84 67.98 68.13 67.93 67.59
73.33 73.31 73.77 73.44 73.08 71.92 71.24 70.31 69.82 69.62 69.57 70.38 70.86 70.92 71.17 71.98 70.32 70.79 71.57 70.10 69.14 68.22 65.54 65.83 66.63 67.71 67.57 67.01 67.57 68.42 68.28 69.46 68.28 66.07 65.51 65.26 65.35 66.07 66.24 66.04 66.17 66.72 66.45
73.30 73.12 73.76 73.11 72.89 72.63 72.06 71.83 71.82 71.37 71.24 70.60 70.51 70.56 69.81 69.25 69.55 70.51 70.60 70.92 70.26 70.49 68.34 65.65 64.30 64.67 66.01 66.64 65.56 63.88 64.35 66.43 66.48 65.52 64.57 64.09 63.52 63.03 62.89 63.37 63.50 63.32 63.39
73.43 72.97 73.20 72.71 72.67 72.69 72.68 72.62 72.29 71.45 71.29 70.95 70.79 70.70 70.73 70.75 70.54 71.78 71.12 70.18 70.12 69.84 68.63 66.08 65.91 66.48 66.45 64.29 62.54 61.98 61.98 63.46 65.18 64.99 64.34 63.93 63.22 62.39 61.58 61.38 60.79 59.82 59.33
73.62 73.12 73.00 73.03 72.86 72.85 72.71 72.47 72.45 71.69 71.32 70.85 71.33 70.89 70.66 70.67 70.80 71.14 70.53 70.68 69.07 68.68 68.67 67.57 66.59 65.02 65.60 64.61 62.89 59.77 59.37 61.32 62.51 63.99 63.91 64.50 64.72 63.79 62.64 61.60 61.36 60.09 57.35
73.71 73.50 72.87 72.74 72.81 72.28 71.57 72.13 72.18 71.75 71.35 70.86 70.95 70.58 70.67 70.14 67.98 68.81 69.90 70.33 68.50 67.83 66.05 65.59 64.30 63.52 62.99 62.27 60.47 60.55 59.67 59.51 60.95 62.73 62.94 63.68 64.26 65.66 64.84 63.16 63.63 61.94 58.52
73.32 72.58 72.14 72.28 71.85 71.08 64.28 63.99 69.11 70.88 71.23 70.72 70.35 70.40 70.38 67.75 67.27 64.26 64.49 65.52 68.06 68.03 66.87 65.69 64.59 63.34 63.59 63.27 62.14 61.19 60.73 59.56 58.56 62.74 62.69 62.00 64.53 63.98 62.81 65.03 63.97 60.87 58.38
73.32 72.50 72.62 72.46 71.64 72.08 61.19 60.61 63.31 70.67 70.62 70.60 70.78 70.22 69.55 68.94 67.88 69.50 63.84 62.97 64.08 63.41 64.48 68.71 66.24 66.36 66.22 64.96 64.15 62.11 61.30 62.58 62.21 60.75 63.44 61.93 62.34 63.10 64.50 62.53 60.23 59.68 57.73
72.50 72.87 72.45 72.50 72.08 71.90 60.64 58.60 60.87 70.62 70.69 70.65 70.45 70.15 69.94 70.12 69.46 68.66 69.14 67.87 67.13 67.02 67.16 66.73 68.47 68.94 68.70 68.51 65.90 64.42 62.61 61.18 59.48 60.14 62.01 61.83 64.04 62.81 64.74 65.10 59.68 58.91 57.43
71.46 72.22 70.88 70.31 70.30 71.48 58.36 56.79 61.40 70.47 70.34 69.71 70.04 70.05 69.77 69.66 62.81 59.83 68.84 66.58 66.62 67.46 60.92 59.87 60.59 60.21 60.17 60.39 64.12 63.71 60.80 59.24 58.10 58.24 59.42 60.75 61.46 61.04 59.76 61.48 61.36 58.36 56.73
69.94 69.56 68.38 68.14 64.36 68.27 58.74 54.68 59.41 69.94 69.38 68.71 69.59 69.59 61.25 66.78 56.57 56.59 68.64 68.41 67.35 67.54 67.55 66.87 66.06 62.35 62.47 62.38 60.32 66.40 63.29 61.00 61.43 59.78 62.28 60.02 61.29 61.57 62.04 64.36 63.77 63.64 59.79

GFSMA_sfc_wetblb_090.txt.gz
Wetbulb
77.17 76.08 75.74 76.08 76.27 77.35 77.96 75.12 75.13 74.74 75.32 74.94 74.45 74.21 74.50 74.84 75.06 75.22 76.16 75.91 75.49 75.83 75.89 75.66 76.87 76.38 75.79 75.39 75.61 75.25 74.65 74.08 74.33 74.58 74.52 74.70 74.76 74.97 74.56 74.00 73.43 73.46 73.96
76.08 75.63 75.46 75.43 75.64 76.10 76.45 76.05 74.91 74.94 74.65 74.28 73.65 73.68 74.03 74.43 74.97 75.34 75.67 76.63 76.59 76.66 76.59 76.10 76.60 76.77 76.41 76.51 76.48 76.28 76.20 75.17 75.87 75.53 75.41 75.39 75.34 75.09 75.31 74.49 73.82 73.82 73.67
76.90 76.41 74.91 75.55 77.17 78.09 77.63 76.66 77.26 76.08 74.34 74.09 74.01 74.48 74.41 74.72 74.45 75.43 76.28 76.52 76.85 76.48 77.07 76.93 76.78 76.91 77.03 76.76 76.36 76.30 76.19 76.35 75.94 75.84 75.17 74.99 75.54 75.09 75.07 75.19 74.71 74.96 74.94
76.99 76.64 75.24 76.47 79.09 77.21 77.71 77.81 75.30 74.55 74.38 73.74 73.60 73.75 73.82 74.38 74.62 76.05 76.75 76.63 76.47 76.10 76.66 76.88 76.30 76.34 76.68 76.66 76.46 76.70 76.52 76.20 75.79 75.39 75.67 75.49 75.24 75.21 74.96 74.73 74.74 74.62 74.92
76.63 75.78 75.24 75.68 78.67 76.85 76.28 77.62 77.18 75.36 74.34 75.59 74.99 74.94 74.62 73.87 74.30 74.77 75.88 76.33 76.69 76.59 76.04 76.91 76.51 76.10 76.47 76.13 76.94 76.99 76.62 75.89 75.69 74.92 75.04 75.34 75.44 74.91 74.71 74.41 74.73 74.56 74.39
75.73 75.86 76.43 77.01 77.62 75.88 76.84 76.69 75.74 77.02 77.04 75.59 74.51 73.84 75.54 75.03 74.24 74.55 75.20 75.85 76.44 76.56 77.23 77.45 77.90 77.24 76.51 76.72 76.78 76.96 76.28 75.76 75.55 75.11 75.01 74.94 75.19 74.96 74.61 74.33 73.98 73.64 74.06
76.70 75.74 74.42 74.14 75.37 74.09 73.95 76.41 76.69 74.95 74.36 76.27 73.93 72.62 73.81 74.60 74.72 75.00 75.84 75.60 76.03 76.17 77.21 77.25 77.60 77.19 76.74 76.52 75.82 75.79 76.06 75.82 75.35 75.28 74.71 74.44 74.79 74.54 74.34 74.18 73.60 73.38 73.43
76.98 76.34 76.01 75.67 73.27 73.86 74.34 73.30 75.27 73.98 73.36 76.70 70.61 70.72 68.67 70.78 73.06 74.58 74.69 74.32 75.20 75.90 75.95 76.89 77.33 77.60 77.72 76.94 77.56 74.96 74.64 74.57 75.03 75.61 74.96 74.19 74.22 73.87 73.86 73.62 72.70 72.65 73.18
76.92 76.82 76.42 76.26 75.56 75.74 76.02 74.53 73.70 72.27 70.33 72.72 73.69 72.20 68.27 66.17 68.82 73.07 74.10 74.05 74.65 74.80 75.47 75.87 76.46 77.49 77.80 77.22 76.25 76.86 75.24 74.36 73.92 74.26 74.72 74.57 73.99 73.74 73.51 73.49 73.29 72.82 72.76
76.54 76.59 76.80 76.31 75.81 73.93 75.56 75.37 76.73 74.52 73.64 71.54 72.35 72.97 73.68 72.33 68.93 67.22 71.62 73.12 74.51 74.90 75.56 75.66 75.70 76.78 76.94 76.37 75.51 74.38 72.97 72.38 72.73 73.32 73.92 74.44 74.68 74.57 74.14 73.91 73.86 73.46 73.29
76.58 76.14 76.50 76.12 76.04 75.30 76.74 76.18 75.91 75.29 74.76 72.34 68.58 71.54 70.65 72.24 72.00 68.26 65.65 69.47 72.84 73.48 73.95 74.79 75.07 75.29 75.94 75.76 75.17 74.63 71.95 72.73 72.59 72.58 73.07 73.27 73.62 74.83 75.22 74.96 74.70 74.68 74.41
77.45 76.07 75.77 75.48 75.79 75.39 74.98 74.57 75.47 74.72 74.12 72.31 70.99 69.44 69.78 70.20 69.46 69.79 68.69 68.85 69.15 71.71 72.47 73.78 74.65 74.35 74.65 74.69 73.97 71.59 71.52 71.82 71.28 71.21 71.47 72.23 73.05 73.64 74.17 74.41 74.59 74.22 73.61
74.06 75.96 76.17 75.60 74.63 74.99 74.29 75.00 75.14 74.40 74.01 72.63 71.67 69.49 69.94 69.77 68.82 71.68 70.97 69.15 69.15 71.14 72.27 72.83 73.62 74.69 73.94 74.02 73.29 71.74 72.40 70.81 70.50 70.39 70.85 71.72 72.56 73.30 74.06 74.14 74.34 73.97 73.51
74.53 75.77 75.51 75.11 75.24 74.62 73.80 74.29 73.56 71.55 71.92 70.29 69.59 69.69 69.99 68.88 69.96 71.81 70.92 70.01 67.92 68.95 71.65 72.38 72.67 73.19 73.08 73.13 73.54 70.98 72.78 70.11 69.51 69.10 69.31 69.92 70.27 71.39 72.09 72.34 72.47 72.76 72.72
74.56 75.25 75.34 75.22 75.14 74.71 74.02 74.01 72.82 72.62 73.16 71.76 70.54 70.64 70.01 69.86 70.62 69.76 69.99 70.01 68.22 64.16 65.39 69.08 69.51 70.75 71.41 73.32 72.32 72.05 73.26 68.84 68.87 67.90 67.85 68.16 69.14 69.76 70.29 70.75 70.90 70.33 70.27
75.82 74.72 74.88 75.25 75.25 74.56 74.29 74.28 72.36 72.66 72.43 73.69 72.95 72.05 72.47 72.81 73.22 73.13 72.96 72.82 70.52 68.41 66.42 68.88 68.16 70.10 70.37 71.15 70.76 71.42 71.88 69.12 67.66 67.06 66.64 67.15 67.98 68.56 69.01 69.14 69.24 68.23 68.07
76.08 75.66 74.76 74.97 75.13 74.69 74.26 73.70 72.94 71.83 71.49 71.56 72.41 72.26 72.26 72.89 73.95 74.41 74.04 72.67 71.64 70.68 68.25 69.53 71.40 71.19 69.92 70.09 70.88 71.14 69.14 71.03 68.56 66.37 65.85 65.85 66.28 66.93 67.49 67.13 66.99 67.02 66.79
76.20 75.89 74.41 75.17 74.94 74.70 74.28 73.33 72.53 71.91 71.13 71.09 71.48 71.28 71.49 71.67 72.38 72.47 71.38 73.82 73.40 71.41 68.64 68.57 69.95 68.82 69.86 70.63 68.32 67.49 68.54 68.44 68.63 65.54 64.87 64.41 64.13 64.10 63.87 63.84 64.34 63.78 63.27
75.85 75.61 74.28 74.29 74.20 74.42 74.35 74.06 73.77 73.24 72.85 72.61 72.63 72.18 72.18 71.98 71.92 72.37 71.63 72.03 71.84 72.05 71.32 69.02 68.45 68.58 68.38 67.53 64.32 63.50 63.59 65.02 66.50 65.66 64.76 64.12 63.62 63.18 62.65 62.03 61.26 60.67 60.41
75.82 75.59 75.07 74.83 74.35 74.40 74.52 74.15 73.76 73.25 72.85 72.85 72.84 72.55 72.04 71.56 71.82 72.27 72.00 72.37 72.04 71.31 71.07 71.04 70.93 67.58 67.92 67.08 65.52 62.65 60.48 62.77 64.74 65.19 64.37 65.25 65.67 63.99 62.88 61.91 61.65 60.64 58.13
75.79 76.20 75.16 75.08 74.75 74.07 73.63 73.90 73.52 73.06 72.74 72.53 72.64 72.77 72.49 71.75 69.11 69.62 70.38 72.30 71.91 70.70 68.93 67.36 66.76 66.65 64.87 63.73 62.88 62.82 61.20 61.16 62.27 63.60 64.52 66.17 66.72 68.33 66.56 63.58 63.93 62.15 59.14
75.62 75.34 75.13 74.36 73.88 73.04 65.32 65.23 69.32 72.81 72.83 72.33 71.96 72.48 72.73 68.94 68.11 65.57 65.83 65.83 68.86 70.67 69.47 67.21 66.70 66.76 66.97 64.82 63.42 61.04 59.79 59.11 59.27 63.01 62.90 63.19 65.68 67.22 67.53 69.33 63.95 60.68 58.76
74.51 74.87 75.03 74.87 73.80 74.01 63.44 61.99 64.37 71.94 72.09 72.06 72.24 72.17 71.66 71.04 69.70 71.28 64.92 63.76 64.52 64.07 65.43 69.51 68.21 68.65 68.89 68.84 65.17 62.24 61.86 62.13 63.40 62.84 62.85 62.90 66.13 64.77 66.78 66.14 61.57 59.79 58.50
72.38 72.94 73.02 74.56 74.20 73.99 62.30 59.70 61.66 71.73 71.99 72.41 72.46 72.22 72.34 72.17 71.50 70.85 70.81 69.93 70.15 69.87 69.83 69.55 70.91 70.49 70.83 71.20 68.58 65.94 64.46 62.06 62.27 63.88 63.32 61.06 64.72 64.97 66.92 67.57 60.53 59.45 58.03
70.88 72.84 73.35 74.22 73.79 73.31 60.86 58.28 62.42 71.37 71.88 71.93 72.31 72.73 72.22 72.35 65.05 61.64 70.29 69.46 69.04 69.34 62.88 62.18 62.57 62.25 62.28 62.68 66.23 65.56 61.23 59.91 58.46 59.15 61.04 61.91 63.31 63.12 64.14 62.48 61.23 58.97 57.21
71.49 71.82 72.39 71.16 67.15 72.15 60.97 55.79 61.38 71.04 71.86 72.11 72.75 73.30 63.13 68.74 57.97 57.90 69.31 70.09 67.55 68.31 69.11 68.23 67.33 63.92 64.46 64.39 61.64 67.69 64.26 61.23 61.19 59.33 61.05 60.87 62.81 63.12 65.47 66.70 65.92 65.31 63.69

GFSMA_sfc_wetblb_093.txt.gz
Wetbulb
77.95 75.97 76.62 76.67 76.17 75.10 75.58 75.18 75.07 74.88 75.53 75.41 74.36 74.40 74.19 75.00 74.33 74.56 75.50 77.32 76.31 76.38 76.03 76.03 76.26 76.31 76.15 75.43 74.72 74.62 75.22 75.02 74.89 74.82 74.31 74.25 74.96 74.68 74.95 74.20 74.05 73.68 73.17
76.84 76.61 75.35 75.34 74.56 76.72 75.74 76.30 75.61 74.88 74.78 74.50 74.15 74.03 73.94 74.43 74.68 75.58 74.47 76.71 77.34 77.11 76.88 76.80 77.02 77.21 76.83 76.55 76.25 75.94 75.79 75.52 75.38 75.38 75.36 75.61 75.34 75.64 75.24 75.00 74.65 74.18 74.37
78.49 78.14 75.22 76.25 75.44 77.02 78.01 78.16 77.74 75.84 74.10 73.96 74.13 73.99 73.32 73.97 73.90 74.72 74.76 75.34 76.42 77.03 77.22 77.37 77.25 77.30 77.60 77.08 76.90 76.89 76.87 76.64 76.70 75.87 76.07 75.54 75.32 75.59 75.29 75.09 75.17 75.04 74.96
77.08 77.21 75.97 74.70 76.48 77.53 77.09 75.65 75.43 74.56 74.51 74.11 74.62 73.22 74.07 74.55 75.26 74.91 75.01 76.56 75.39 75.00 77.26 77.42 77.19 77.01 77.07 77.10 77.39 77.36 76.82 76.09 75.99 75.99 75.89 76.12 75.36 75.08 75.35 75.24 74.34 74.76 73.96
76.97 76.11 75.69 75.41 78.17 76.96 76.45 76.21 75.22 74.34 72.99 73.71 74.01 74.55 75.56 73.73 74.66 73.73 74.32 75.78 76.87 75.81 75.59 76.98 76.76 76.69 77.01 76.76 77.05 77.35 77.10 76.32 75.99 75.72 75.72 75.57 75.62 75.43 74.93 75.07 74.95 74.51 74.42
76.48 76.79 75.37 77.88 77.82 77.10 76.98 76.21 75.88 75.35 75.88 76.66 73.80 73.33 75.59 74.87 75.22 75.10 74.73 75.32 75.62 76.86 77.47 76.86 77.69 76.36 76.88 76.94 76.66 77.03 77.09 76.70 76.29 75.94 75.54 75.22 75.14 74.59 74.78 74.77 74.57 74.30 73.71
76.98 76.97 75.12 76.24 77.75 74.67 76.02 76.08 76.29 75.07 74.33 76.43 75.40 72.97 74.77 75.16 74.66 74.25 74.57 75.15 74.90 75.42 76.50 77.05 76.62 75.85 75.78 76.39 76.46 76.59 77.21 76.92 76.56 76.11 75.71 74.92 74.79 74.04 74.19 74.36 73.97 73.76 73.32
77.52 76.63 76.13 74.79 75.17 74.11 74.87 74.71 74.92 73.91 73.89 76.22 73.32 72.59 71.55 70.57 72.83 74.45 74.42 73.84 75.40 75.87 75.52 76.21 76.55 78.69 77.70 75.26 77.30 76.52 75.99 75.91 75.45 75.89 75.79 74.67 74.12 73.82 73.67 73.72 73.71 73.34 72.85
77.11 77.18 76.89 77.36 77.60 75.65 73.40 76.07 74.05 73.49 70.97 75.31 74.91 72.77 69.78 66.06 70.02 71.46 74.59 74.10 76.02 73.99 75.04 77.14 77.25 77.39 77.42 77.08 77.63 77.79 76.32 75.54 74.62 74.69 74.74 75.04 74.33 73.78 73.86 73.62 73.44 73.29 72.94
76.02 76.88 77.98 76.76 77.41 78.14 76.22 74.91 76.88 75.61 73.99 71.15 75.93 73.67 74.19 73.20 69.99 68.91 71.40 72.70 74.82 75.17 77.16 75.55 75.00 76.69 77.55 76.61 77.24 75.59 75.03 73.58 72.87 73.27 73.80 74.12 74.71 74.42 74.30 74.08 73.98 73.58 73.23
77.04 75.97 76.84 76.72 76.33 75.96 75.05 76.47 75.69 74.71 75.56 74.79 74.20 73.71 72.73 71.71 73.97 69.51 69.26 69.64 71.75 73.62 74.05 75.44 74.00 75.80 77.18 76.35 75.99 75.79 74.39 72.40 72.58 72.77 72.73 73.06 73.44 73.69 74.41 75.30 75.22 74.77 74.60
75.31 76.66 76.37 76.71 76.13 76.23 75.92 75.35 75.00 74.71 74.84 74.95 74.89 73.44 71.69 69.56 69.34 69.98 68.03 69.14 68.84 71.45 72.13 73.77 75.67 75.18 75.52 75.13 75.79 73.11 72.93 72.33 71.99 71.70 71.59 71.94 72.43 73.02 73.84 74.24 74.79 75.24 75.17
73.66 76.30 76.40 75.46 77.08 76.17 76.22 76.37 75.96 74.54 74.93 73.56 74.04 73.85 72.23 72.31 72.28 72.76 69.45 71.37 70.75 70.72 72.96 73.98 74.10 75.29 75.38 74.61 75.02 73.52 73.43 72.43 71.43 71.18 71.17 71.65 72.32 73.20 73.85 74.33 74.74 74.08 74.07
75.03 76.39 76.66 75.96 75.54 75.56 74.97 75.18 73.79 74.34 73.32 73.27 72.78 73.02 71.95 73.05 69.45 70.35 69.48 67.30 66.66 69.50 73.27 72.55 76.88 78.10 75.67 74.81 75.29 72.70 73.31 71.79 70.65 70.16 70.24 70.63 71.13 71.80 72.55 72.87 73.12 72.94 72.96
75.14 76.59 75.92 74.90 75.52 75.22 75.13 74.79 73.09 73.37 74.13 73.50 72.83 72.55 71.35 70.97 70.24 69.21 67.99 67.12 68.20 65.80 67.31 71.12 72.22 75.14 73.99 73.31 74.89 73.89 73.78 69.98 69.54 68.82 68.64 69.18 70.07 70.76 71.11 71.68 71.63 70.92 70.51
76.49 76.30 74.84 74.63 74.91 75.74 75.19 74.98 73.36 73.60 73.14 73.45 73.03 72.69 72.18 71.39 71.34 71.60 70.44 70.91 72.46 70.24 67.43 72.87 71.14 71.73 71.65 71.86 72.75 72.14 72.40 69.68 68.28 67.50 67.27 67.82 69.09 69.72 70.24 70.58 70.07 69.02 68.55
77.22 76.32 75.19 75.15 74.99 74.94 74.91 74.61 73.83 73.15 72.52 72.70 73.34 72.49 72.55 73.24 71.87 73.02 73.05 73.60 73.43 72.44 68.96 71.11 73.64 73.25 71.32 71.76 71.94 72.67 72.53 71.97 69.53 66.62 66.49 66.54 67.21 67.85 68.37 68.20 67.48 67.32 67.32
76.88 76.05 75.74 74.74 74.92 74.77 73.75 73.43 73.02 72.46 71.89 71.67 71.80 72.30 72.04 72.19 72.82 73.73 72.36 73.45 72.86 73.35 71.38 69.62 72.15 71.88 70.89 71.85 71.56 70.45 70.09 68.80 70.27 65.91 65.17 65.06 65.16 65.31 65.27 65.08 64.72 64.17 63.95
76.33 75.52 75.13 74.34 74.18 74.31 74.38 73.66 73.39 72.96 72.64 72.24 72.52 73.06 72.11 72.28 73.35 74.14 72.75 73.45 71.79 73.64 72.67 71.25 71.00 72.47 69.93 69.78 65.76 65.60 65.07 66.16 66.39 66.07 65.19 64.44 64.26 64.02 63.45 62.81 61.99 60.86 60.09
75.33 76.05 75.40 74.60 74.50 74.04 74.26 73.96 73.95 73.71 73.74 72.72 73.25 73.37 72.41 71.59 72.80 73.03 73.07 72.47 73.28 71.59 71.31 71.28 70.54 71.22 70.41 69.41 67.66 63.92 62.83 63.60 64.58 65.93 65.47 65.84 65.40 64.38 63.50 62.35 62.07 61.05 58.72
75.95 75.95 75.72 74.68 75.10 74.22 73.00 73.91 72.82 73.06 73.35 73.08 73.16 73.03 73.17 72.49 70.48 70.72 72.24 73.71 73.72 70.85 69.03 68.57 68.86 70.12 68.52 66.60 65.00 65.24 64.18 62.79 62.87 64.85 64.80 65.17 65.57 66.72 64.89 63.85 64.21 62.48 59.45
76.60 76.27 75.55 74.69 74.61 73.45 67.17 66.56 70.98 73.28 73.01 72.65 72.46 72.38 72.98 70.48 69.11 67.03 67.21 67.09 70.45 71.13 71.50 70.33 69.50 67.93 70.01 67.30 66.38 65.50 62.30 60.14 58.73 63.58 64.46 64.80 66.91 66.16 66.11 66.62 63.93 61.25 59.24
76.71 76.42 75.44 75.35 74.89 74.87 63.58 63.33 65.37 72.71 72.39 72.78 72.27 71.71 70.70 71.52 70.32 71.62 65.71 65.20 65.00 65.16 66.20 70.77 69.52 69.12 70.28 69.52 67.38 63.53 61.03 60.46 61.29 63.25 64.78 61.34 64.13 64.47 67.52 67.82 61.85 59.94 58.84
74.96 74.14 74.75 76.33 75.79 75.40 61.10 60.76 63.37 73.20 72.91 72.92 72.44 72.04 72.91 72.54 72.47 71.53 71.49 70.06 69.38 69.35 68.55 68.31 70.30 71.29 71.64 72.06 69.35 66.43 63.77 63.31 62.81 65.70 65.49 61.58 63.56 64.45 67.83 68.80 61.69 60.50 58.58
72.86 72.60 74.08 74.96 75.68 75.39 61.62 58.77 63.18 72.87 72.27 72.54 72.71 73.14 72.90 72.16 67.77 63.09 70.78 70.59 70.64 71.35 63.42 63.28 62.17 63.29 64.62 66.21 67.70 66.95 62.57 60.97 58.39 59.97 66.34 64.82 62.91 63.67 66.53 66.34 65.40 59.60 57.71
71.71 71.13 72.76 74.40 70.86 75.29 61.24 56.61 61.99 71.42 71.50 70.77 73.88 74.27 65.15 69.64 62.21 59.20 70.72 71.00 69.94 69.64 69.90 69.08 68.36 64.07 64.25 65.82 62.86 68.76 65.17 61.81 60.50 58.87 61.79 60.87 62.71 64.38 60.17 64.66 65.70 63.69 63.31

GFSMA_sfc_wetblb_096.txt.gz
Wetbulb
74.25 74.59 75.15 76.04 75.26 74.52 73.44 73.30 73.67 72.87 72.73 74.61 74.56 74.53 73.04 74.02 74.82 74.16 74.16 76.93 76.46 76.36 77.00 76.64 76.95 77.01 76.38 76.32 75.89 75.59 75.07 76.07 75.55 75.58 74.94 74.42 75.00 75.74 75.28 74.67 75.00 74.62 74.50
75.21 73.35 73.12 74.77 73.97 75.72 73.79 72.25 74.18 72.81 74.79 73.42 72.77 74.16 74.14 74.02 74.59 75.48 74.70 76.26 77.39 76.79 77.01 77.42 77.41 77.46 77.13 76.90 76.30 76.10 75.68 75.49 76.05 75.48 75.48 75.26 75.24 75.42 75.59 75.71 75.48 75.23 74.71
75.36 74.84 74.45 74.34 73.51 75.93 77.85 76.79 76.73 76.12 73.05 74.37 74.74 73.67 73.58 73.78 73.59 74.80 75.33 75.35 75.93 77.47 77.19 77.37 77.46 77.38 77.23 77.46 77.52 77.07 76.72 76.62 76.47 76.07 75.72 75.61 75.41 75.48 75.74 75.79 75.54 75.64 75.24
76.00 76.79 74.31 74.86 73.71 76.33 75.86 75.99 76.19 75.23 74.38 73.48 72.95 73.35 72.33 72.74 72.79 74.08 74.97 74.95 75.00 75.06 76.32 77.08 76.77 77.19 77.39 77.70 77.84 77.20 76.72 76.57 76.31 76.41 76.46 76.31 75.96 75.48 75.20 75.83 75.46 74.12 75.09
76.38 75.53 75.23 74.76 77.06 75.99 75.92 75.16 74.26 75.31 74.22 73.91 73.79 74.24 74.19 73.56 74.09 73.63 73.49 73.78 75.16 75.05 75.08 76.64 76.84 76.64 77.61 77.62 77.90 77.74 77.16 76.67 76.24 76.14 76.29 76.29 76.04 75.70 75.00 74.93 75.38 74.95 74.31
76.63 76.36 75.64 75.37 75.64 75.16 75.02 76.13 73.97 75.41 73.87 73.01 72.73 71.82 72.73 73.45 73.84 73.83 73.78 73.75 74.66 75.83 75.35 75.87 75.91 75.82 77.09 77.34 77.09 76.79 76.97 76.91 76.59 76.34 76.12 76.02 75.69 75.28 74.66 74.63 74.55 74.94 74.87
76.12 76.27 74.68 75.40 75.79 74.65 74.15 75.22 73.98 73.87 72.69 73.74 72.13 72.05 73.10 74.86 74.87 74.57 74.61 73.08 74.36 75.19 74.22 76.81 75.49 75.33 75.69 76.67 76.19 76.31 76.51 76.56 76.99 76.52 76.37 75.81 75.36 75.06 74.59 74.13 73.71 74.14 74.26
76.23 76.00 75.61 75.86 76.34 75.11 74.72 75.01 74.67 73.31 73.12 73.24 70.89 69.63 67.49 70.61 72.60 72.90 73.14 73.78 73.98 74.14 73.76 75.05 76.44 75.53 75.41 76.14 75.49 76.44 76.52 76.44 77.03 76.79 76.02 75.53 75.15 74.36 73.82 73.76 73.29 73.07 73.38
76.21 76.14 76.21 74.77 75.72 75.26 72.63 74.01 73.02 73.36 71.42 72.18 73.28 68.43 65.61 65.36 68.86 72.64 72.32 72.66 72.98 73.48 73.53 73.53 74.90 75.82 76.73 75.46 76.14 76.53 76.32 75.93 76.04 75.58 75.17 75.01 74.39 73.89 73.96 73.89 73.55 73.25 73.05
76.17 75.52 75.18 75.53 75.89 75.58 74.35 72.95 75.15 73.09 71.96 70.48 72.53 71.77 71.01 70.64 66.87 66.20 71.68 71.77 71.17 71.45 75.31 75.61 75.33 76.05 75.52 76.18 77.21 76.64 75.37 76.08 74.84 74.07 73.54 73.99 74.28 74.51 74.53 74.13 74.06 73.72 73.05
76.17 75.58 75.35 74.42 74.38 75.42 74.14 73.52 73.94 74.07 73.45 72.02 71.26 70.63 71.26 70.58 70.68 68.35 65.95 67.00 71.17 72.04 72.53 74.15 73.67 74.79 76.55 76.02 75.88 76.27 74.62 74.59 73.09 72.93 72.71 72.54 72.89 73.63 74.22 74.77 75.12 75.02 74.64
75.32 75.89 75.54 74.97 74.99 75.24 73.78 73.93 73.86 73.36 73.32 73.02 71.58 71.28 70.26 69.75 68.57 68.48 67.00 67.58 68.27 69.73 73.04 71.49 72.79 74.83 75.39 74.91 75.36 74.66 74.11 73.25 72.84 72.15 71.76 71.90 72.14 72.61 73.29 73.69 74.57 74.76 75.13
74.19 74.70 75.87 75.48 74.87 75.54 74.44 75.05 74.70 74.44 74.12 73.16 72.61 72.10 72.47 70.95 71.11 70.52 69.27 67.00 67.49 69.42 70.34 71.78 72.75 74.24 74.86 74.55 73.74 74.45 73.97 72.39 72.06 72.02 71.34 71.43 71.86 72.54 73.19 73.97 74.38 74.81 75.01
73.70 76.02 75.47 75.78 75.66 75.16 75.10 75.04 74.44 74.38 74.02 72.95 72.34 71.71 71.14 71.21 71.32 70.53 68.41 67.29 64.64 66.33 68.13 70.45 73.08 74.15 74.25 73.72 73.82 73.27 72.85 72.35 71.48 71.05 70.44 70.53 70.99 71.69 72.05 72.24 73.37 73.25 73.09
74.90 76.11 75.43 75.61 75.73 75.06 74.83 75.12 73.52 73.64 73.53 73.07 72.64 72.77 71.85 71.52 72.11 70.93 69.27 67.04 65.60 62.92 63.74 67.25 70.49 74.24 73.74 73.05 73.11 73.08 72.88 70.80 70.73 69.73 69.54 69.68 70.12 70.64 71.16 71.66 71.41 70.84 70.56
75.88 75.73 75.64 75.24 75.04 75.14 75.55 74.96 74.02 73.79 73.46 73.36 72.63 71.66 71.67 71.39 71.53 69.91 68.34 67.81 67.04 65.30 63.86 68.39 70.91 72.06 72.02 71.25 72.55 71.81 71.67 69.75 69.17 68.28 67.82 68.29 69.33 69.86 70.41 70.72 70.16 69.00 68.80
77.01 75.17 75.90 75.29 74.85 74.77 75.33 74.64 74.14 73.82 72.65 72.54 72.30 72.07 71.83 72.38 70.54 70.20 70.53 70.06 68.57 68.37 66.70 68.14 71.37 71.04 69.92 70.49 70.56 71.40 70.38 69.86 67.47 67.06 66.75 66.69 67.20 68.07 68.38 68.42 67.70 67.63 67.90
76.88 75.36 75.76 75.55 75.27 74.97 74.50 73.96 72.93 72.53 72.08 72.01 71.59 71.14 71.26 72.31 71.59 72.06 71.27 70.28 70.22 70.13 68.93 66.98 70.11 70.17 69.80 70.36 70.64 69.85 69.61 69.43 68.01 66.06 65.51 65.44 65.27 65.29 65.42 65.14 64.89 64.56 64.34
75.34 75.25 75.47 74.79 74.74 74.96 74.13 73.60 73.05 73.26 73.31 72.38 72.27 71.74 70.90 71.42 71.10 70.41 70.95 70.44 70.45 70.75 70.90 69.32 68.64 70.53 69.76 69.22 66.68 67.13 66.50 66.70 66.29 66.31 65.48 65.05 64.77 64.67 64.07 63.25 62.04 60.87 60.34
73.62 74.48 74.56 74.96 74.64 74.63 74.95 73.24 73.23 73.13 73.36 73.23 73.02 72.06 71.17 70.87 71.17 70.27 70.68 70.20 70.28 69.62 69.69 69.16 69.04 69.16 68.82 68.37 66.04 63.48 62.32 64.45 64.45 66.00 65.93 65.79 65.37 64.96 64.16 62.70 62.05 60.91 58.75
73.37 74.00 73.81 74.66 74.67 74.64 73.44 73.88 73.40 73.01 72.84 72.16 72.60 72.48 70.94 71.53 71.97 71.61 71.09 70.49 70.23 69.90 69.02 68.05 67.98 67.74 67.22 66.19 65.35 65.06 63.70 63.28 63.16 64.87 64.50 64.74 64.82 64.39 63.48 63.57 63.83 62.73 60.14
73.44 73.79 73.96 73.56 73.47 73.08 67.74 68.08 72.26 72.87 72.94 73.14 72.62 72.80 72.78 70.53 69.76 67.59 68.03 67.90 70.51 69.67 68.64 68.05 67.47 66.53 66.60 66.89 66.93 65.55 63.34 60.35 59.06 63.44 63.51 64.02 66.07 65.50 64.95 64.63 63.82 62.01 60.02
74.37 73.41 72.94 72.28 72.65 73.58 64.90 63.95 67.24 73.34 73.19 72.77 72.80 72.18 71.81 71.32 69.16 70.59 65.79 66.01 65.83 65.65 66.71 68.95 67.38 67.48 66.93 67.87 66.74 64.85 62.25 61.66 61.26 62.55 63.43 63.08 65.76 65.39 66.09 65.32 61.78 60.03 59.69
71.88 70.90 71.03 71.05 73.20 73.37 62.53 61.36 64.05 73.16 73.02 73.13 73.33 73.05 71.96 71.28 72.00 70.70 70.72 68.18 68.21 68.07 66.97 66.81 67.20 69.56 70.21 69.87 68.08 65.06 63.16 63.19 63.76 62.68 63.78 60.92 63.24 62.58 65.63 66.22 61.76 60.25 58.82
68.64 69.61 72.10 74.09 73.36 71.89 60.90 59.36 63.50 72.03 72.14 72.17 72.82 72.80 72.39 71.35 67.39 63.43 70.15 69.52 69.33 69.09 63.62 62.58 61.82 63.74 65.20 66.28 67.60 65.83 62.92 61.17 59.06 61.38 64.79 63.78 62.93 62.79 64.01 65.68 63.54 60.37 57.80
68.64 69.56 69.46 72.26 69.88 72.61 62.50 58.22 61.78 71.01 70.87 71.17 72.54 72.59 65.09 69.55 63.12 59.28 68.64 69.75 68.40 69.02 68.80 66.02 64.80 63.23 64.23 65.63 63.08 66.65 63.98 61.28 60.19 58.68 62.40 63.13 63.10 62.95 61.37 64.64 65.09 61.82 60.12

GFSMA_sfc_wetblb_102.txt.gz
Wetbulb
70.81 72.06 72.43 72.69 71.53 70.05 70.12 71.85 71.80 71.91 71.55 71.43 71.10 70.86 69.62 69.28 70.93 71.35 72.28 76.50 76.52 76.85 77.06 76.40 75.70 75.42 74.73 75.37 75.78 75.20 74.59 75.16 74.63 73.82 74.17 74.58 74.61 75.02 74.33 75.04 74.35 74.28 74.21
70.66 71.82 71.83 72.42 71.77 70.57 69.23 71.17 70.56 70.36 69.94 70.08 69.74 70.49 69.74 69.95 72.53 71.78 71.52 74.27 76.36 76.60 77.09 77.06 77.15 76.35 75.57 75.30 75.30 75.63 75.47 75.39 75.64 75.65 75.57 75.42 75.10 75.52 75.77 75.34 75.39 75.19 75.60
71.43 70.89 71.44 71.44 72.30 71.54 69.66 69.69 70.39 70.10 69.69 69.89 69.44 69.43 69.30 69.12 70.85 71.76 71.66 72.39 73.97 76.46 76.24 76.98 76.49 77.15 77.09 76.65 76.13 75.99 76.02 75.79 75.92 76.20 75.97 75.86 75.48 75.01 75.27 75.62 75.92 75.82 75.67
72.11 70.21 70.68 71.09 71.58 71.43 71.34 70.46 69.62 69.13 69.81 69.01 68.74 69.21 69.59 68.79 68.75 69.98 71.66 72.31 73.20 73.94 75.82 76.74 76.48 76.72 76.95 77.15 77.08 76.80 76.50 75.85 75.47 75.64 75.61 75.81 75.71 75.23 75.13 75.34 75.62 75.62 75.39
72.82 71.32 70.82 71.11 71.28 71.05 71.40 70.94 70.40 69.58 68.98 68.66 69.13 69.30 68.92 68.02 68.50 69.66 69.10 71.79 72.28 73.28 73.13 75.01 75.96 75.98 76.61 77.36 77.49 77.50 77.08 76.32 75.79 75.99 75.94 76.17 75.91 75.41 74.97 74.97 75.16 75.06 75.06
72.90 72.27 71.52 71.47 71.30 70.70 70.43 70.45 70.05 70.48 69.71 68.96 70.12 69.80 69.44 69.80 69.33 68.43 69.03 69.74 70.54 72.63 72.66 72.46 73.03 74.19 76.68 77.00 77.10 76.45 76.38 76.74 76.48 76.22 76.19 76.02 75.81 75.28 75.01 74.22 74.11 74.09 74.41
72.09 71.87 71.40 71.16 71.21 71.00 70.72 70.96 70.06 69.27 69.43 69.04 67.54 67.09 67.63 69.07 69.60 70.24 70.16 69.68 70.09 70.16 71.89 72.34 72.40 73.05 73.61 76.32 75.87 76.03 76.06 76.63 76.43 76.20 75.57 75.59 75.41 75.01 74.74 74.61 74.16 73.54 73.54
71.86 71.23 70.32 69.88 70.42 70.22 69.74 69.90 69.02 68.58 68.60 69.32 67.05 64.86 62.55 64.38 66.62 69.46 70.22 70.67 70.40 70.54 71.00 72.21 72.26 72.82 72.72 72.84 74.26 75.87 75.88 76.14 76.13 75.86 75.53 74.90 74.45 74.11 74.53 74.34 73.86 73.76 73.41
72.74 72.05 71.40 70.65 70.56 70.16 70.03 69.84 70.01 69.16 67.79 68.40 68.50 65.41 62.36 61.07 64.31 65.80 67.66 69.34 69.68 69.25 70.23 70.37 72.11 73.04 72.81 72.58 74.36 75.39 76.07 75.05 75.90 75.94 75.62 75.17 74.29 73.63 74.10 74.11 73.93 73.74 73.60
72.51 72.81 72.36 71.68 71.08 70.47 69.25 69.90 70.90 69.79 68.33 66.84 67.47 69.11 66.82 66.33 63.68 61.65 65.62 67.47 69.07 69.44 69.28 70.81 70.63 71.20 72.57 73.10 74.67 75.32 75.08 73.97 74.97 75.54 75.47 75.09 74.31 73.89 73.87 73.88 74.13 73.85 73.66
71.79 72.31 72.05 71.53 71.26 71.80 71.09 70.35 69.84 69.46 69.52 66.88 66.66 66.43 66.95 66.23 65.68 64.33 62.72 65.15 67.65 68.96 69.46 70.22 69.33 68.65 70.07 72.60 73.75 73.97 74.61 74.14 73.98 74.57 73.84 74.22 73.94 73.39 73.31 73.31 73.53 74.00 74.55
70.98 71.48 72.01 71.62 71.00 71.13 71.19 70.89 70.29 70.24 69.70 69.07 68.40 67.97 67.03 66.14 65.29 64.26 65.01 64.49 64.78 66.38 68.64 69.46 69.84 70.38 71.12 72.00 73.97 74.36 74.65 73.98 72.34 71.75 71.79 72.30 72.48 72.17 72.40 72.88 73.20 73.57 74.07
70.85 71.24 71.53 71.04 70.84 70.89 71.18 70.49 70.40 70.17 69.21 69.21 69.18 68.42 68.85 67.61 66.87 66.33 65.31 64.28 63.34 64.64 65.59 68.55 69.59 70.42 71.84 71.38 72.28 74.21 75.27 72.41 70.77 69.92 70.09 70.14 70.66 71.20 71.50 72.02 72.41 73.15 73.67
71.03 72.26 71.87 71.71 71.24 71.14 71.13 70.87 69.73 70.07 69.03 67.76 68.15 68.87 68.89 68.76 69.10 68.53 67.05 64.67 62.35 62.26 63.58 64.29 68.33 69.50 69.66 70.51 71.62 73.15 72.38 71.36 70.39 69.00 68.58 68.44 69.15 69.50 69.88 70.42 70.86 71.44 72.91
71.79 71.49 72.57 72.14 71.57 71.36 71.24 70.80 69.30 69.23 69.23 68.58 68.85 69.12 69.66 69.86 69.78 69.23 67.74 66.25 65.04 63.05 61.70 63.30 64.96 68.04 68.67 69.32 70.58 70.87 71.26 70.87 70.69 69.00 67.81 67.51 67.97 68.17 68.55 68.87 68.86 68.88 69.78
71.89 71.53 71.91 72.39 71.91 71.44 71.23 70.40 69.66 69.00 69.32 68.85 69.07 68.49 68.76 69.03 69.16 68.73 67.63 66.84 65.84 65.19 62.81 63.76 65.05 67.74 69.95 70.05 70.68 70.04 70.15 69.95 69.51 68.36 67.23 66.65 67.31 67.47 67.73 67.96 68.19 68.19 68.17
70.70 71.36 71.89 71.68 71.54 71.14 71.15 70.58 69.55 69.27 68.87 68.62 68.94 68.37 68.17 67.95 67.92 67.65 66.40 65.41 65.41 65.32 63.83 64.48 66.75 68.15 67.86 68.01 69.05 68.13 68.82 67.95 67.65 67.56 66.85 66.49 65.89 65.84 66.33 66.64 66.95 67.22 67.14
67.70 70.43 70.94 71.15 71.38 71.40 71.07 70.26 69.56 69.77 68.22 67.63 67.90 67.59 67.59 68.96 66.93 67.27 66.58 65.25 64.91 65.30 64.20 62.64 65.25 66.89 66.73 67.09 66.68 66.56 66.61 66.43 65.10 66.87 65.78 65.44 64.86 64.26 64.52 64.89 64.88 64.18 63.98
67.32 66.96 67.74 70.15 70.51 70.95 70.55 70.37 69.98 69.20 68.68 68.37 68.20 67.30 67.14 67.38 66.71 66.57 66.75 66.56 66.74 66.68 66.02 64.33 64.13 65.80 65.53 65.82 66.09 66.58 66.20 66.22 64.96 66.75 65.53 64.81 64.49 64.16 63.72 63.41 62.19 60.55 60.01
66.22 66.14 65.77 69.56 70.36 70.13 70.12 70.04 69.64 68.57 67.83 68.32 68.34 67.90 67.25 66.85 67.30 66.66 66.61 67.16 66.81 66.56 66.54 66.36 64.43 64.24 63.92 65.30 64.28 63.69 63.21 64.64 64.09 65.43 65.96 64.49 64.68 65.30 64.43 63.35 62.51 62.14 60.19
64.54 65.34 64.72 69.89 69.69 69.76 70.55 69.79 69.51 68.85 67.71 67.65 68.10 68.19 67.88 68.08 67.28 66.76 67.18 66.26 65.85 65.44 63.92 63.60 62.84 62.78 62.87 63.67 63.96 63.22 63.26 62.99 63.67 64.35 63.46 62.84 61.84 62.20 63.22 63.76 64.48 64.49 60.99
64.56 65.02 68.84 69.56 68.53 70.86 66.09 65.17 67.90 68.46 68.29 67.62 67.16 67.63 67.94 68.12 67.26 65.40 65.73 65.91 66.44 65.56 64.39 63.20 62.63 62.13 61.96 63.02 63.06 61.88 61.13 61.03 59.91 61.95 63.19 62.40 61.72 61.20 62.06 64.09 64.15 62.28 59.40
67.41 68.12 68.55 68.24 67.59 68.39 63.75 62.16 64.72 69.14 68.51 68.22 67.92 67.40 67.57 69.31 66.86 67.36 64.86 64.35 64.89 64.47 65.22 65.66 62.93 62.70 62.35 63.30 63.25 60.47 59.87 60.67 60.74 60.79 62.84 61.49 61.94 61.17 62.22 64.19 62.26 59.93 58.64
65.20 66.31 67.11 67.97 67.88 68.28 61.60 60.51 62.34 66.78 67.65 67.92 68.83 68.37 67.99 67.69 67.13 67.02 66.18 64.46 65.61 66.11 65.99 66.35 65.10 64.59 64.59 64.51 65.42 64.51 62.87 61.81 61.91 61.85 63.58 60.27 62.67 62.34 62.08 64.46 61.79 59.73 58.30
65.05 65.50 67.45 67.94 67.65 68.01 62.00 58.92 61.03 65.03 65.74 66.93 67.20 67.34 68.01 67.52 63.95 61.07 65.77 63.79 63.42 64.06 62.33 60.81 62.27 61.88 61.54 61.25 63.55 63.11 60.97 60.71 59.95 60.65 62.77 61.88 60.83 61.03 63.01 63.57 62.40 59.57 57.43
64.77 66.43 66.46 66.59 64.37 66.98 59.63 57.65 58.68 65.82 65.10 66.07 66.76 66.51 63.25 65.39 61.07 58.47 65.01 65.54 64.24 64.60 63.81 62.00 61.47 60.86 60.59 61.36 61.23 65.11 63.10 61.19 59.66 59.40 62.07 61.75 60.13 60.83 59.95 63.01 63.22 60.40 59.28

GFSMA_sfc_wetblb_105.txt.gz
Wetbulb
70.97 71.51 71.28 71.65 71.19 69.81 71.03 71.53 71.53 71.84 71.34 71.17 71.07 70.80 69.94 69.12 69.14 69.62 69.64 75.97 76.29 76.55 77.29 75.87 75.60 76.04 75.19 74.77 74.94 75.45 75.00 74.39 73.62 74.94 74.24 73.90 74.40 74.38 74.14 74.32 74.35 74.35 74.89
70.24 71.48 71.35 71.62 70.76 69.84 69.00 70.88 70.70 70.67 70.60 70.59 70.17 70.32 70.11 69.59 70.56 71.85 71.14 74.30 76.48 75.77 76.18 76.69 76.78 75.94 75.38 74.83 75.26 74.89 75.01 74.63 75.28 74.96 74.61 74.64 74.97 75.19 75.29 75.09 75.36 75.19 74.74
70.19 71.09 71.30 71.46 71.28 70.18 68.59 68.60 69.92 69.79 69.43 69.43 69.05 69.27 69.40 68.98 69.97 70.93 70.39 72.94 73.84 76.40 76.20 76.92 77.40 76.86 76.55 76.07 75.40 75.60 76.07 75.94 75.72 75.64 75.59 75.39 75.09 75.21 75.26 75.71 75.77 75.17 75.49
70.83 70.33 70.53 70.89 71.42 70.74 69.36 67.81 68.01 68.44 68.75 68.41 68.01 68.35 68.52 68.65 68.56 70.48 70.21 70.80 72.26 72.67 75.17 76.63 76.43 76.21 76.81 77.29 76.75 76.54 76.04 75.74 75.62 75.69 75.96 75.96 75.81 75.59 75.49 75.23 75.09 75.44 75.41
71.77 70.08 70.17 70.23 70.78 70.58 70.40 69.52 68.64 68.08 67.60 67.81 68.23 68.43 68.44 67.96 67.75 68.93 69.46 70.71 71.29 72.52 72.50 74.46 76.31 76.27 76.63 76.78 77.11 77.19 76.59 76.24 75.66 75.61 75.69 75.71 75.93 75.40 74.96 74.77 74.80 74.96 74.96
72.09 70.63 70.18 69.94 70.58 70.02 69.86 69.63 69.27 69.29 68.55 68.21 69.41 69.42 68.78 68.84 68.55 67.53 67.92 68.84 70.62 71.71 72.04 71.96 72.22 73.98 76.71 76.27 76.11 76.37 76.11 75.96 75.59 75.71 75.36 75.59 75.46 75.38 75.00 74.45 73.89 74.01 74.29
72.10 71.36 70.50 70.09 70.44 69.98 69.87 69.99 69.32 68.23 68.30 67.90 66.64 66.40 66.96 68.43 68.55 69.06 69.43 68.20 68.19 69.63 71.37 71.76 71.40 71.81 72.40 75.91 75.53 75.81 76.24 76.42 75.82 75.49 75.23 75.12 75.11 74.86 74.66 74.29 73.89 73.64 73.72
71.66 71.62 70.84 70.16 70.35 70.35 69.41 69.43 69.22 67.47 68.03 68.28 65.65 63.96 62.45 64.27 65.74 67.81 68.76 69.98 69.41 69.68 69.55 71.00 71.58 71.74 72.12 72.04 73.74 75.67 75.90 76.06 76.38 75.95 75.45 74.74 74.27 73.99 73.72 73.84 73.83 73.75 73.68
71.37 71.60 70.84 70.57 70.36 70.57 69.45 69.29 68.80 67.94 65.88 67.33 67.56 64.96 60.99 60.67 62.32 65.78 66.60 68.31 69.49 69.54 69.99 70.22 70.89 71.48 72.02 71.91 73.44 74.62 75.64 74.99 75.95 76.11 75.81 75.06 74.29 73.71 73.66 73.46 73.72 73.65 73.62
71.67 71.52 70.97 70.32 69.91 70.22 69.24 69.47 69.99 68.91 67.87 65.96 66.20 67.83 65.68 64.51 61.69 60.78 64.97 66.71 68.08 68.57 68.68 69.35 70.63 71.05 72.31 72.28 73.65 74.74 74.38 73.83 75.06 75.87 75.77 75.67 74.56 73.60 73.35 73.54 73.99 73.82 73.61
71.78 72.07 71.28 70.45 70.02 70.15 69.78 69.45 69.22 69.04 68.71 66.50 66.05 65.93 66.67 65.61 64.55 63.16 61.91 64.88 66.51 67.83 68.71 69.25 69.45 69.04 69.99 70.90 72.18 73.26 74.26 74.14 74.00 74.64 74.71 74.92 74.73 74.27 73.69 73.61 73.43 73.70 74.30
70.87 71.36 71.72 71.07 70.78 70.75 70.12 69.65 69.78 69.45 69.16 68.66 67.02 65.89 65.67 64.83 64.62 63.48 63.58 63.77 64.60 66.53 67.20 68.73 69.18 69.38 69.50 69.47 72.00 73.91 74.24 73.89 73.23 71.79 72.37 73.32 73.63 73.24 72.88 72.83 73.15 73.45 73.65
69.11 69.94 70.56 70.56 70.15 70.27 70.89 69.70 69.45 69.54 69.65 69.32 68.46 67.80 66.97 66.57 65.98 65.44 64.31 62.33 63.02 64.75 66.15 66.62 68.19 68.98 70.24 70.60 71.40 73.73 74.79 73.58 71.03 70.00 70.21 70.72 71.00 71.46 71.83 71.95 72.26 72.77 73.07
70.07 70.61 70.63 70.70 70.74 70.22 70.27 70.28 70.17 69.61 68.69 68.23 67.35 67.15 67.74 67.80 68.03 67.22 65.53 63.69 63.54 63.33 63.91 64.78 66.39 68.69 69.23 70.08 71.06 73.16 72.43 71.56 70.31 68.91 68.48 68.50 68.94 69.37 69.91 70.13 70.53 71.00 71.47
70.78 71.03 71.06 70.80 70.84 70.46 70.31 70.01 69.61 69.07 68.91 67.85 68.08 68.10 68.05 68.35 68.78 68.26 67.71 66.63 65.37 62.78 61.31 63.01 63.87 66.89 67.96 68.39 69.58 68.90 70.30 71.04 70.84 69.02 67.74 67.52 67.29 67.34 67.78 68.01 68.36 68.39 68.16
70.90 70.93 71.31 71.32 70.99 70.72 70.50 70.19 69.72 68.89 68.73 68.08 68.64 67.65 67.35 67.51 67.92 68.39 68.57 67.10 65.88 65.21 63.72 63.23 63.96 65.65 67.45 68.82 69.53 69.60 69.20 70.02 69.72 68.73 67.38 66.40 66.53 66.84 66.93 67.11 67.16 67.38 67.43
71.10 70.83 70.82 71.30 71.13 70.58 70.37 70.17 69.74 69.05 68.53 67.87 67.69 67.33 66.93 67.31 67.30 67.01 66.26 65.52 64.84 65.07 64.77 63.39 64.72 67.22 66.84 67.45 69.23 68.66 68.68 68.21 68.53 67.92 67.07 66.40 65.57 65.61 65.81 65.90 66.09 66.50 67.08
70.32 70.62 71.38 70.64 70.97 70.89 70.46 70.25 69.54 69.82 68.62 67.35 67.13 67.17 67.27 68.08 66.34 66.18 65.70 64.77 64.18 64.10 63.19 61.14 62.54 65.64 66.52 67.11 67.42 66.95 66.60 66.45 65.80 67.31 66.01 65.79 64.97 64.33 63.71 63.95 63.77 63.04 63.27
67.13 67.17 69.00 70.04 69.68 70.35 70.28 70.45 70.06 69.16 68.37 68.05 67.74 67.33 67.58 66.61 66.00 65.38 65.41 65.33 65.31 65.11 64.00 62.74 61.82 64.31 64.66 65.11 66.02 66.74 66.38 65.47 65.39 66.55 66.11 64.85 64.25 63.87 63.29 63.04 61.80 60.73 59.28
68.01 67.80 67.60 67.96 68.89 69.79 70.21 69.63 69.79 68.89 68.46 68.46 67.85 67.43 67.31 66.44 66.57 66.18 65.84 65.86 65.68 66.36 66.04 65.31 64.89 63.58 64.02 65.77 66.02 64.41 63.73 64.79 64.43 65.62 65.82 64.69 64.58 64.98 64.64 63.42 61.75 61.67 58.74
66.98 66.64 66.87 67.00 68.28 69.52 70.43 69.47 69.78 69.23 68.30 67.58 67.20 67.49 67.40 67.62 67.26 66.91 66.93 65.61 65.43 65.13 64.91 64.46 63.94 61.89 63.55 63.73 64.21 64.02 63.68 63.52 64.00 64.52 63.86 63.74 63.71 62.29 62.36 63.66 64.13 64.06 59.78
63.76 63.67 63.82 65.73 67.16 69.76 65.37 64.05 67.87 68.77 67.96 67.45 66.78 66.91 67.58 67.60 66.93 64.83 65.66 65.84 66.26 64.69 63.83 62.62 61.97 61.77 61.50 64.62 64.19 63.13 62.79 61.55 60.45 63.28 63.39 62.64 62.76 62.05 62.08 62.46 64.26 62.60 59.60
65.26 65.12 64.25 64.51 66.78 68.28 63.22 61.63 64.04 68.14 67.85 67.58 67.07 67.04 67.35 68.77 66.51 67.00 63.90 63.80 63.89 64.21 65.24 64.97 62.59 62.58 62.09 62.94 62.81 62.08 62.61 62.07 61.36 59.75 63.18 61.45 61.96 62.42 61.25 63.46 62.40 61.17 58.31
64.39 65.24 66.73 66.04 64.97 66.37 61.27 60.55 62.24 65.48 66.58 66.84 67.34 67.38 67.11 67.25 66.75 66.87 66.15 64.96 64.55 64.61 64.59 65.22 65.22 65.11 64.60 63.85 64.21 63.30 63.17 61.93 61.23 61.98 63.35 59.56 61.35 61.75 61.29 62.62 62.22 60.40 57.95
64.62 64.83 66.53 66.77 67.04 67.52 58.37 57.83 60.71 64.61 65.25 66.05 66.77 66.95 67.02 66.68 64.00 61.05 66.06 64.89 64.24 63.52 62.25 61.09 62.02 61.51 60.76 60.58 63.43 62.53 61.03 61.31 60.65 59.32 62.67 61.59 61.33 61.69 62.48 62.90 62.98 59.86 57.25
64.98 65.87 65.23 66.07 64.24 66.93 58.37 57.29 60.83 66.25 65.25 65.20 65.18 66.59 62.14 65.71 59.64 58.35 64.74 64.38 63.96 64.03 63.20 62.90 61.05 60.14 60.04 60.86 60.88 64.94 62.79 62.22 60.04 58.91 60.88 61.66 60.29 61.18 59.94 63.32 62.94 60.72 58.77

GFSMA_sfc_wetblb_108.txt.gz
Wetbulb
72.13 72.57 72.38 73.09 73.06 72.13 73.10 73.55 73.25 73.17 72.71 72.42 72.50 72.30 71.89 71.72 71.36 71.51 71.56 74.52 76.80 76.39 77.11 77.00 76.21 75.41 75.56 74.95 74.63 74.34 74.73 74.38 73.64 73.74 75.13 74.11 73.63 74.94 74.09 74.27 74.34 74.27 74.61
71.90 72.50 71.84 72.49 72.37 71.51 71.37 72.75 72.60 72.52 72.27 72.25 71.79 71.91 71.98 71.92 71.84 72.56 71.78 73.90 76.84 76.49 77.02 77.45 76.62 75.83 76.13 75.74 75.34 75.14 75.38 75.67 75.07 74.61 74.96 74.97 74.67 74.77 74.97 74.35 74.25 74.81 74.82
71.64 72.39 72.12 72.18 72.46 71.88 70.85 71.14 71.88 71.83 71.60 71.25 71.13 71.16 71.15 71.51 71.24 72.83 72.12 74.08 76.17 76.59 75.99 76.39 77.03 77.19 76.88 76.45 76.08 75.60 75.54 75.76 75.64 75.37 75.47 75.06 74.71 74.74 75.29 75.31 75.29 75.22 75.16
71.95 71.85 71.87 72.09 72.78 72.10 70.92 69.62 70.30 70.56 70.51 70.38 70.28 70.35 70.90 70.85 71.25 71.78 72.47 72.77 73.93 73.97 75.71 76.40 76.49 76.84 76.66 77.03 76.84 76.68 76.04 75.79 75.94 75.69 75.61 75.89 75.56 75.15 75.15 75.35 75.18 75.33 75.26
72.05 71.66 71.66 71.91 72.59 72.12 71.15 69.91 69.12 69.95 69.78 70.09 70.11 70.54 70.90 70.77 70.95 70.78 71.97 72.12 72.71 73.78 73.49 74.51 76.36 76.22 76.83 76.95 76.86 76.93 76.94 76.24 75.74 75.59 75.74 75.94 75.84 75.50 75.29 75.37 75.35 75.00 74.60
72.68 71.30 71.56 71.33 72.10 71.77 71.48 71.04 70.11 70.18 70.03 69.35 69.43 70.38 70.84 70.97 70.92 70.09 70.53 70.88 72.56 73.08 73.79 74.09 74.00 74.94 75.88 76.76 76.26 76.38 76.56 75.94 75.89 75.27 75.49 75.36 75.41 75.03 74.87 75.11 74.37 74.30 74.33
72.66 71.83 71.09 70.92 71.44 70.93 71.30 71.53 71.31 70.71 70.25 70.58 69.82 69.51 70.18 71.01 70.82 71.14 71.41 70.55 70.74 71.62 72.99 73.89 73.59 73.56 73.73 75.36 75.61 75.54 76.10 75.87 75.61 75.36 75.31 74.92 74.74 74.69 74.46 74.21 73.79 73.62 73.83
72.43 72.09 71.41 70.62 70.87 70.78 70.66 70.81 70.92 69.89 69.67 69.11 67.78 67.31 66.59 68.01 68.63 69.99 70.78 71.34 71.66 72.01 71.24 72.69 73.67 73.97 73.86 73.81 74.55 75.24 75.60 75.85 76.04 75.88 75.22 74.64 74.42 74.09 74.14 73.74 73.42 73.34 73.48
72.64 72.38 71.81 71.38 70.77 71.14 70.35 70.52 70.67 70.12 69.17 68.82 69.22 67.87 63.74 64.58 65.36 68.09 69.06 69.89 71.51 71.90 72.20 72.68 72.64 73.47 73.94 73.99 74.37 74.81 75.59 75.04 75.90 76.31 75.91 75.33 74.41 73.95 73.79 73.54 73.17 73.19 73.23
72.38 72.44 71.98 71.64 71.14 71.00 70.77 70.65 71.32 70.73 69.65 67.85 69.16 69.40 68.17 67.65 65.52 64.84 68.47 69.77 71.00 71.01 71.95 72.14 73.12 73.10 73.92 73.72 74.19 74.36 74.06 73.58 74.83 76.12 76.06 75.86 74.92 74.31 74.14 73.97 73.84 73.43 73.06
72.42 72.06 72.19 71.27 71.03 71.00 71.23 70.83 70.59 70.10 70.15 69.49 68.95 68.64 69.18 68.34 67.64 66.77 65.28 68.19 69.95 70.88 71.94 71.17 72.59 73.32 73.18 74.11 74.17 74.65 74.18 74.04 73.85 74.49 75.33 75.76 75.36 74.57 74.71 74.14 73.62 73.78 73.89
71.69 72.14 72.02 71.56 71.08 71.07 70.76 70.78 70.98 70.74 70.23 70.61 69.22 68.68 69.04 67.30 67.65 66.87 65.79 66.64 66.97 69.10 70.76 71.70 72.20 72.81 72.74 72.42 72.30 72.54 73.49 73.67 72.90 72.90 73.26 73.75 74.08 74.84 74.47 73.74 73.64 73.47 73.67
70.63 71.26 72.07 71.56 71.28 71.27 71.37 71.01 70.30 70.99 70.92 70.29 69.76 69.33 69.53 69.04 69.20 68.48 67.31 66.50 65.87 67.91 68.84 70.31 71.49 72.01 72.81 73.32 73.14 72.67 73.94 73.42 72.26 70.92 70.64 71.37 72.42 72.52 72.63 72.49 72.12 72.45 72.60
70.77 71.72 71.61 72.08 71.89 71.60 71.68 71.65 71.00 70.45 70.68 70.73 70.63 69.67 69.76 69.87 69.74 69.00 68.47 66.74 64.13 66.12 67.35 68.32 69.57 69.94 72.62 72.99 72.95 72.31 74.08 71.97 70.91 69.45 69.00 69.06 69.36 69.74 69.91 70.17 70.40 70.76 70.95
71.22 71.09 71.32 71.45 71.78 71.57 71.22 71.36 71.15 70.54 70.46 70.46 70.43 69.89 69.70 70.06 70.33 70.35 69.85 69.40 68.07 64.68 64.79 66.03 66.30 69.37 71.65 71.88 72.00 72.77 73.02 71.15 70.68 69.04 67.87 67.49 67.60 67.89 67.95 68.18 68.22 68.14 68.09
70.78 71.33 71.07 71.22 71.40 71.30 71.23 71.07 70.70 70.75 70.34 70.08 69.43 69.54 69.80 70.37 69.88 69.95 70.24 69.85 69.20 67.85 64.71 67.73 67.95 68.93 70.74 71.23 71.40 71.88 72.17 69.85 69.79 68.86 67.60 66.90 66.88 66.91 66.82 67.13 67.11 67.22 67.22
70.89 71.12 71.52 71.55 71.40 71.20 71.34 70.94 70.96 70.71 69.86 70.08 69.91 69.55 69.79 69.97 70.02 70.05 69.45 69.47 67.91 67.44 65.58 67.56 67.53 69.82 69.72 69.35 70.44 72.17 71.54 71.49 72.41 68.34 67.46 66.52 65.65 65.67 65.65 65.83 65.55 65.81 66.15
70.32 71.10 71.05 71.20 71.80 71.56 71.45 70.80 70.57 70.72 69.60 69.28 69.43 69.53 69.47 69.34 69.42 69.96 69.33 67.85 68.21 68.18 66.94 65.83 66.46 68.00 68.90 67.85 69.97 69.11 69.29 69.66 68.88 68.38 66.61 65.85 64.82 64.00 63.52 63.54 61.98 61.89 61.73
68.41 70.41 71.00 71.17 71.14 71.44 70.79 70.95 71.09 70.75 70.27 70.10 69.73 69.65 69.62 69.30 69.00 69.02 68.84 68.68 68.32 68.16 67.42 65.60 65.71 67.31 67.89 68.32 67.28 67.85 67.85 67.71 67.56 67.05 66.39 65.30 64.40 64.01 63.33 62.27 60.80 59.78 58.89
67.58 67.80 69.11 70.07 70.17 69.99 70.48 70.56 70.87 70.53 70.30 70.30 70.00 69.80 69.73 69.20 69.70 69.28 68.72 68.66 68.46 67.19 66.58 66.10 65.74 65.79 66.99 68.18 67.73 66.92 66.80 67.41 67.85 67.95 67.04 65.59 65.21 65.23 64.71 63.29 61.67 61.98 59.07
67.33 68.61 68.55 68.70 69.78 70.43 70.59 70.35 70.43 70.15 69.72 70.07 69.46 69.45 69.68 69.43 67.88 68.57 68.97 69.06 68.39 66.38 65.62 66.22 65.70 65.06 65.22 65.68 65.41 66.39 66.09 66.54 67.42 67.44 67.31 66.92 66.88 66.66 66.84 64.88 64.82 63.69 60.66
66.52 65.65 66.32 67.13 67.87 68.68 64.85 63.79 67.75 69.47 69.38 69.79 68.66 69.03 70.10 68.09 67.42 64.76 65.45 65.83 68.25 67.76 65.93 65.03 64.86 64.11 65.66 66.41 67.06 66.39 66.12 63.92 62.98 68.09 66.21 66.08 67.01 67.13 66.73 65.96 64.58 62.65 60.60
65.55 64.98 64.71 64.99 66.50 67.62 61.88 62.10 63.38 68.84 68.46 68.95 68.61 68.75 68.50 69.48 67.77 69.24 64.57 64.03 64.30 64.00 66.03 68.42 67.04 66.86 67.04 66.97 67.93 65.69 64.76 64.41 64.50 64.70 65.17 63.06 65.81 64.31 67.28 65.47 62.34 61.17 59.51
65.34 65.59 66.23 65.72 65.05 66.19 61.22 59.28 61.20 66.67 67.53 68.59 68.99 68.56 68.74 69.73 69.61 68.81 69.30 67.73 67.56 67.98 67.40 67.99 68.94 69.43 69.24 69.17 68.51 68.10 66.57 66.81 65.59 64.26 65.52 62.41 64.21 62.74 66.70 66.48 62.03 60.80 58.45
64.78 65.07 66.37 66.46 66.25 66.70 58.58 57.06 61.71 65.56 66.15 65.81 67.06 67.76 68.63 68.72 64.52 60.91 68.86 68.55 68.39 68.28 63.70 61.06 62.66 62.33 61.11 60.92 65.27 66.26 64.50 63.23 62.55 63.46 64.59 64.17 64.48 64.94 64.92 65.07 65.74 60.51 57.96
65.74 66.05 65.67 67.42 64.60 67.78 55.25 54.72 62.62 66.62 65.24 65.33 65.68 66.18 61.57 65.13 60.16 57.80 66.27 68.09 67.26 67.87 67.46 67.15 65.65 62.94 61.41 63.34 60.47 67.73 66.58 63.69 63.60 62.96 64.15 63.31 62.53 64.19 62.56 64.90 65.50 64.90 63.22

GFSMA_sfc_wetblb_111.txt.gz
Wetbulb
75.49 75.92 75.57 76.07 74.06 75.55 75.73 75.96 75.76 74.87 74.29 73.78 73.93 74.26 73.59 74.26 74.64 75.17 75.34 75.59 76.48 76.82 76.62 76.21 76.78 76.06 75.60 75.83 74.76 74.04 74.74 75.18 74.33 73.97 74.51 75.32 74.40 73.48 74.97 73.91 74.92 74.38 74.21
75.61 75.68 75.45 75.09 75.49 74.37 75.09 75.96 75.37 74.54 73.99 73.74 73.59 74.27 74.47 75.05 75.21 75.39 75.99 76.02 76.01 77.12 76.96 77.36 77.61 77.00 75.87 76.14 75.86 75.25 74.66 74.99 75.52 75.33 74.52 75.84 75.41 74.94 74.57 74.70 74.23 74.54 75.21
76.20 75.92 75.06 74.23 75.36 75.62 76.37 76.09 76.05 75.39 73.71 73.62 73.35 73.70 74.31 74.67 74.77 75.21 75.98 75.95 76.53 77.02 77.12 77.24 77.69 77.46 76.97 76.70 76.92 76.43 75.93 75.78 76.01 76.04 75.56 75.06 75.06 74.78 75.06 75.14 74.81 75.44 75.51
76.40 75.74 74.35 73.94 74.94 75.78 75.24 73.69 73.66 73.30 73.18 72.72 72.65 72.94 73.48 74.19 74.77 75.13 75.42 75.96 75.97 76.06 76.78 76.78 76.86 76.69 76.95 76.76 77.09 77.08 76.43 75.76 75.49 75.71 75.51 75.73 75.58 75.20 75.00 75.21 75.41 75.38 75.11
75.86 75.22 74.59 75.11 75.75 74.98 74.35 73.96 72.84 72.42 72.59 72.84 72.40 72.84 73.36 73.76 74.69 74.22 74.89 75.65 76.06 75.44 75.39 75.78 76.15 76.26 76.76 76.96 77.21 76.95 76.69 76.34 75.86 75.88 76.01 75.96 75.91 75.60 75.29 75.06 75.25 75.30 75.10
75.67 75.20 74.90 75.49 75.89 75.21 74.68 74.30 73.32 72.69 71.07 72.05 71.55 71.35 73.15 74.05 74.86 74.86 74.95 74.79 75.23 75.88 75.76 76.52 76.51 76.22 76.52 76.53 76.68 76.84 76.41 76.27 75.85 75.64 75.43 75.31 75.26 75.18 75.12 75.21 74.89 74.73 74.73
74.96 75.03 74.27 74.95 75.05 74.50 74.80 75.05 74.27 73.56 71.08 72.64 71.65 71.53 72.78 74.36 74.31 74.44 75.05 74.64 74.50 74.85 75.50 75.93 76.05 75.88 75.63 75.70 75.58 76.01 76.58 76.44 76.14 75.73 75.47 74.86 74.71 74.56 74.24 74.23 74.05 74.00 73.73
75.27 74.85 74.64 74.42 74.76 73.94 74.66 74.87 74.65 73.08 72.89 73.78 70.54 70.87 67.84 70.30 72.79 73.83 74.42 74.48 74.73 75.15 74.86 75.27 75.87 76.23 76.45 75.97 76.53 75.82 76.09 76.32 76.18 75.77 75.57 75.03 74.59 74.24 74.24 73.91 73.78 73.75 73.63
75.38 75.73 75.67 75.18 75.06 74.67 73.41 74.31 74.45 74.07 73.39 73.66 73.46 73.19 68.97 66.01 70.02 72.27 73.62 73.82 74.35 74.36 74.83 75.42 76.09 76.48 77.00 76.70 76.26 76.04 75.41 75.06 76.01 75.99 75.86 75.50 74.64 74.08 73.93 73.93 73.83 73.38 73.37
74.86 75.38 75.93 75.52 75.30 75.04 74.82 74.20 74.30 73.72 74.71 72.09 72.86 72.30 72.82 71.45 68.82 66.63 71.57 72.96 73.97 74.02 74.87 75.07 74.96 75.84 76.73 76.64 76.81 76.04 74.84 73.84 74.95 75.96 76.16 75.86 75.49 74.70 74.43 74.38 74.38 74.04 73.73
75.00 75.18 75.48 75.48 75.11 74.91 74.77 74.67 74.39 74.06 73.46 72.22 73.74 74.35 73.60 73.35 72.89 69.87 67.08 68.99 71.96 73.31 74.33 74.99 74.86 75.12 76.08 76.36 76.19 75.76 74.41 73.84 73.86 74.43 75.05 75.71 76.09 75.51 75.61 75.54 75.01 74.69 74.11
74.26 75.38 75.50 75.64 75.69 75.42 74.82 74.90 74.83 74.91 75.03 74.22 74.28 75.07 73.28 70.47 70.58 70.72 69.03 69.26 69.05 71.18 72.67 73.26 73.30 73.90 74.82 75.37 75.74 74.42 74.16 73.49 72.84 72.77 73.12 73.90 74.99 75.54 75.80 75.97 75.08 74.11 74.18
73.28 75.09 75.53 75.31 75.13 75.38 74.34 74.44 75.88 75.10 74.47 74.95 74.74 72.53 73.69 74.72 75.45 73.66 70.94 68.94 68.69 69.93 70.18 72.53 73.34 74.01 74.39 74.99 74.99 74.19 74.60 72.67 71.58 70.70 70.74 71.73 72.60 73.59 74.54 74.53 73.81 73.17 72.92
73.75 75.82 75.44 75.34 75.47 75.57 75.18 74.64 74.36 75.50 75.63 75.88 74.64 74.72 72.69 74.26 75.03 74.34 70.50 69.17 66.90 68.08 70.32 70.65 72.47 73.01 73.87 74.35 74.45 73.33 74.73 72.29 71.71 70.49 69.74 69.66 70.61 71.17 71.35 71.53 71.20 71.04 70.90
74.34 74.84 75.05 75.19 75.42 75.49 75.35 75.79 75.35 74.03 75.56 75.50 75.36 75.31 75.56 75.01 73.49 74.67 73.83 73.42 71.22 65.83 66.09 70.28 70.02 72.47 72.69 72.15 74.07 75.07 75.82 72.34 71.24 69.57 67.97 67.97 68.17 68.77 69.16 69.49 68.96 68.52 68.52
75.15 74.95 74.62 74.72 75.15 75.24 75.15 75.54 75.69 75.71 74.44 73.76 73.74 73.43 74.74 75.51 75.01 74.31 72.95 72.48 72.19 70.37 66.60 70.02 71.10 72.45 73.30 73.04 73.85 74.21 74.70 70.80 70.39 69.50 67.90 67.27 67.47 67.81 67.69 67.80 67.94 67.63 67.59
75.00 74.40 75.30 74.68 74.50 74.66 74.98 74.53 74.66 74.61 73.36 74.21 73.76 73.13 72.84 74.08 75.05 73.31 72.82 71.86 70.75 70.94 67.83 69.66 71.48 72.11 72.97 72.95 72.99 74.31 74.37 74.74 74.24 68.98 68.06 67.54 66.82 66.74 66.78 66.67 66.53 66.21 65.53
74.84 74.08 74.35 74.72 74.67 74.58 74.99 74.13 73.34 73.40 73.28 72.99 73.37 73.02 72.82 72.93 73.44 74.44 73.22 70.61 70.63 70.50 68.50 67.34 69.89 70.31 71.47 72.88 71.70 71.29 72.86 73.24 73.34 69.09 67.54 66.58 66.02 65.14 64.67 64.78 63.53 62.61 62.22
74.01 73.69 73.86 74.16 74.45 75.00 74.57 74.61 74.22 73.85 73.88 73.71 73.97 73.36 73.31 73.47 72.60 72.50 72.90 71.63 70.37 70.69 70.19 68.93 69.32 70.07 71.05 71.58 71.38 69.23 69.29 69.43 70.00 68.37 67.00 65.95 65.44 64.77 64.09 63.74 61.56 60.22 59.53
70.71 72.15 73.84 73.59 73.87 74.54 75.08 74.84 73.88 74.26 74.15 73.99 74.08 73.51 73.61 73.22 73.11 73.04 72.54 72.57 72.15 70.14 69.32 68.79 67.87 67.10 68.79 71.11 70.66 69.22 68.21 69.87 69.46 69.56 68.88 67.28 66.83 65.69 65.06 63.73 62.54 62.00 60.08
67.99 69.84 70.31 71.58 72.45 72.52 72.08 72.85 73.39 73.09 73.02 72.71 73.11 73.66 73.57 72.48 69.63 71.21 72.12 72.61 72.25 69.52 68.52 67.90 66.51 66.94 67.38 67.44 67.34 68.60 68.07 69.08 69.25 70.50 70.31 70.62 70.29 69.97 69.58 65.20 66.70 64.57 61.79
67.50 68.52 69.02 69.76 70.10 71.10 64.79 64.34 69.94 73.37 73.39 72.91 72.45 72.44 73.21 70.15 69.46 65.69 66.49 66.94 70.94 71.44 68.59 67.85 66.97 66.42 67.46 69.15 70.31 68.29 67.55 66.40 65.82 71.22 69.86 69.17 70.61 69.94 70.52 70.67 66.20 63.69 61.49
67.61 67.34 68.11 68.26 69.14 70.35 62.59 61.71 63.46 71.46 70.56 69.50 70.10 70.16 71.94 72.03 69.84 72.50 65.66 64.27 65.28 65.24 67.36 72.10 70.34 70.23 70.40 71.81 72.10 70.32 68.78 68.59 68.17 69.63 69.37 65.94 69.68 68.78 70.45 70.24 63.00 61.53 60.27
66.09 66.04 67.00 67.00 65.73 66.71 60.50 59.53 61.82 68.24 69.56 68.57 68.98 69.22 69.97 71.59 72.28 72.26 72.90 72.19 71.75 72.27 70.90 70.84 72.21 72.93 73.15 74.28 73.51 72.80 71.48 70.35 69.56 69.01 68.68 64.92 69.17 67.60 69.94 70.26 62.59 61.02 59.39
65.48 65.28 66.22 67.72 67.31 66.94 58.79 57.17 61.12 67.89 67.13 67.25 68.35 68.69 69.36 69.80 64.34 59.88 70.73 71.29 71.95 72.48 66.14 62.77 63.50 63.16 62.98 62.53 66.91 71.89 69.52 67.14 64.97 65.82 67.86 65.54 67.95 67.35 68.47 68.81 68.94 60.54 58.42
67.33 67.71 67.82 67.99 64.89 67.52 59.51 56.43 59.05 67.69 66.43 66.88 67.09 67.92 62.05 66.03 59.85 57.72 67.68 69.80 70.61 70.74 73.20 72.91 70.78 66.85 63.81 67.34 60.92 70.77 71.56 68.03 67.26 65.48 68.44 65.83 66.80 67.28 65.53 68.60 68.82 68.06 66.26

GFSMA_sfc_wetblb_114.txt.gz
Wetbulb
76.09 75.87 76.83 75.89 73.56 76.08 76.67 76.47 74.73 75.23 74.50 74.82 74.92 75.32 75.39 74.78 75.39 76.46 76.63 76.86 76.56 76.79 76.34 76.06 76.13 76.80 76.42 75.85 75.42 74.79 74.14 75.12 75.34 74.52 74.02 74.54 75.08 74.37 73.67 75.11 74.37 74.96 74.54
76.42 75.75 76.25 75.04 74.86 74.13 75.81 76.17 75.81 75.54 74.24 73.39 73.94 74.55 75.48 75.34 75.79 76.47 76.32 77.89 77.02 77.20 76.94 76.68 77.06 77.11 76.46 75.97 76.03 75.61 74.80 74.09 75.56 75.68 75.18 75.11 75.31 75.51 74.11 74.31 75.18 74.48 75.03
77.00 76.81 75.36 74.44 75.66 74.65 75.01 76.36 76.00 74.99 73.34 73.02 73.16 73.57 75.16 75.48 75.37 76.10 76.55 77.13 76.85 76.72 77.32 77.32 77.49 77.84 77.73 77.00 76.70 77.03 76.41 76.21 76.04 76.19 76.09 75.72 74.79 75.78 75.59 75.26 74.86 75.19 75.54
77.18 76.41 75.24 74.34 74.98 76.20 73.96 74.91 74.75 73.72 72.62 72.43 72.45 73.12 74.24 74.87 75.34 76.30 76.51 76.62 76.70 76.94 77.29 77.58 76.97 77.19 77.71 77.47 77.31 77.43 77.02 76.37 75.97 75.71 75.92 76.16 75.91 75.56 75.21 75.34 75.21 75.39 75.46
76.64 76.02 74.66 74.74 75.92 74.59 74.58 73.12 73.01 73.26 71.96 72.16 72.17 73.22 73.79 73.72 74.79 74.96 75.58 76.36 77.11 76.75 76.41 77.41 76.71 76.64 76.94 76.51 77.34 77.78 77.42 76.57 76.47 75.94 75.94 76.24 76.14 75.71 75.57 75.52 75.26 75.13 75.09
76.50 75.61 75.24 75.54 75.89 73.98 73.50 73.36 73.50 73.01 72.45 72.42 72.31 72.31 73.02 73.56 74.12 74.81 75.34 75.97 76.24 76.49 76.82 76.88 77.38 77.13 76.25 76.55 76.80 77.11 77.65 77.03 76.69 76.47 76.37 75.74 75.71 75.38 75.30 75.33 75.25 74.95 75.02
76.12 76.35 74.97 77.43 77.39 75.17 74.78 75.21 74.07 73.42 71.72 72.36 71.38 71.30 72.10 73.43 73.68 74.36 75.42 75.38 75.44 75.95 76.51 76.50 76.62 76.31 76.13 76.38 76.26 76.19 76.98 77.01 76.49 76.20 75.75 75.36 75.26 74.91 74.96 74.93 74.63 74.38 74.46
76.19 75.58 75.23 75.16 76.18 75.99 76.22 75.89 75.06 72.37 71.82 71.50 69.81 69.27 66.96 69.37 71.53 72.92 73.88 73.99 74.29 74.96 75.24 75.73 76.49 77.07 77.28 76.65 77.34 76.06 76.09 76.61 76.64 76.27 75.85 75.36 74.76 74.59 74.64 74.54 74.11 73.93 73.88
76.35 76.10 75.46 75.46 76.45 76.40 76.94 76.27 76.12 74.79 71.17 72.28 73.82 68.86 66.48 65.35 68.77 72.56 73.75 74.45 74.91 74.68 75.66 76.27 76.58 77.20 77.86 77.78 77.41 77.33 76.55 75.54 76.32 76.36 76.35 75.88 74.76 74.36 74.28 74.23 74.18 73.76 73.75
75.58 76.10 76.48 76.53 78.33 77.64 77.98 76.11 75.81 76.00 76.99 74.51 76.81 74.36 73.87 72.38 67.46 66.63 72.31 73.67 75.30 75.51 76.33 75.97 75.90 76.54 77.31 77.33 77.60 77.03 75.23 74.12 75.20 76.32 76.42 76.22 75.58 75.21 74.71 74.56 74.68 74.55 74.17
75.42 75.44 76.55 76.53 76.70 77.21 77.20 77.31 77.24 76.71 76.59 75.89 74.98 76.29 74.34 72.62 75.29 70.58 67.67 70.07 73.02 73.82 74.94 75.64 76.01 75.72 76.44 77.16 76.92 76.30 75.00 74.34 74.32 74.60 75.13 75.66 76.02 75.97 75.92 75.54 75.59 75.51 75.44
74.75 76.02 75.73 76.75 77.51 77.19 77.50 77.31 77.16 76.38 75.86 75.58 77.17 75.65 71.41 72.24 72.38 70.97 71.32 70.89 70.57 72.30 73.69 74.61 74.55 74.59 74.90 75.15 75.96 74.92 74.95 74.43 73.60 73.21 73.34 74.14 74.89 75.61 76.29 76.17 76.40 76.16 75.55
74.29 76.53 77.51 77.34 76.59 77.96 77.34 77.48 77.07 77.40 75.85 74.73 75.59 73.76 73.60 75.86 75.75 75.44 71.95 70.26 69.42 71.12 72.31 73.95 73.94 74.12 75.11 75.78 75.57 75.11 75.83 73.55 72.00 70.80 70.84 71.31 72.42 73.44 74.81 75.50 76.08 75.33 74.56
75.67 78.71 77.73 76.87 77.30 77.09 77.32 77.78 76.88 75.46 76.88 75.62 75.21 76.00 74.88 74.24 76.59 73.73 72.00 70.23 68.47 69.58 70.54 72.74 74.13 74.60 74.91 74.98 75.61 73.92 75.09 72.92 71.96 70.50 69.73 69.81 70.49 71.65 72.85 73.21 73.21 72.49 71.89
76.20 77.22 77.44 76.61 77.01 77.23 77.99 78.10 76.37 75.48 76.67 75.92 75.23 76.44 76.51 75.39 76.16 75.34 76.18 76.01 70.92 67.35 66.94 71.64 71.40 76.48 74.65 75.06 75.18 75.18 75.24 73.54 72.72 70.98 69.20 68.70 69.29 70.21 70.92 70.86 70.27 69.70 69.36
77.81 77.46 76.60 76.63 77.13 77.57 77.62 78.21 77.00 76.29 76.45 75.23 74.66 75.76 75.29 73.96 74.66 77.30 74.07 76.48 74.35 72.30 67.86 71.10 71.81 74.33 74.89 73.99 75.14 75.29 75.17 72.47 71.55 70.93 69.24 68.56 68.88 69.13 69.34 69.67 69.49 69.25 68.81
74.86 75.30 77.43 76.99 76.98 76.85 77.27 77.23 76.86 76.33 75.66 75.16 75.49 75.07 74.50 75.58 73.88 75.93 76.88 74.58 74.19 74.19 70.56 71.47 72.79 74.09 74.26 73.80 74.43 75.30 75.42 75.29 76.46 69.94 69.08 68.18 67.69 67.84 68.08 68.24 68.56 68.73 67.64
74.09 75.09 75.99 75.33 77.03 76.34 77.41 76.51 75.50 75.47 74.58 74.10 74.25 74.82 74.53 74.48 75.51 76.16 75.86 75.16 74.75 74.92 71.71 70.74 72.23 72.34 73.13 74.95 74.59 74.32 74.25 74.13 74.88 70.47 68.34 67.64 66.32 65.65 65.47 66.34 67.66 65.65 63.66
75.94 75.91 76.00 75.86 75.71 75.61 76.00 76.51 76.19 75.43 75.15 74.93 74.83 74.97 75.12 74.77 74.71 75.58 74.73 74.66 73.30 73.91 72.62 70.71 70.63 72.38 72.40 73.21 73.48 73.75 72.95 72.90 70.81 69.50 67.55 66.36 65.69 65.44 65.22 65.15 64.60 61.80 60.45
73.46 74.57 75.31 74.21 75.17 75.89 75.57 75.40 75.39 75.45 75.50 75.49 75.43 75.35 74.89 74.96 74.59 75.00 74.41 74.18 74.88 72.83 72.38 71.85 70.95 70.52 70.42 73.33 72.85 71.07 70.84 71.98 71.76 70.98 70.15 68.20 68.43 66.45 65.47 64.78 63.84 62.37 60.23
70.97 71.38 71.74 72.85 74.18 74.68 74.05 75.06 75.27 75.53 75.28 75.08 74.82 74.58 75.15 74.03 70.41 72.35 73.96 73.92 75.13 72.23 70.17 69.36 70.48 69.72 68.27 69.47 70.18 71.27 70.29 74.60 71.87 72.90 71.58 71.83 71.62 71.34 69.90 65.65 67.64 65.09 62.28
70.26 70.80 70.46 70.65 71.40 71.84 66.87 65.46 70.32 75.80 74.90 74.48 74.92 74.86 75.21 71.25 69.87 66.41 66.64 66.91 72.47 74.33 71.57 70.37 70.10 69.47 70.60 71.29 71.87 70.89 70.40 68.79 66.99 72.51 70.91 70.81 72.04 71.18 70.89 71.62 68.36 67.07 61.73
69.54 70.21 70.11 70.76 70.97 72.29 62.67 61.56 64.42 74.05 74.78 74.71 74.94 74.51 74.05 73.51 70.95 73.82 65.85 64.46 65.94 65.10 67.42 73.69 71.70 71.82 71.65 72.66 73.97 73.34 72.39 70.45 69.38 72.32 71.71 69.27 71.35 69.95 71.97 70.32 64.54 62.80 60.88
69.40 68.64 68.75 70.87 70.84 71.05 61.78 59.05 61.18 69.64 73.21 73.44 73.04 74.06 73.47 72.54 72.52 70.82 70.74 70.22 71.54 72.20 72.02 72.54 73.12 73.96 74.71 75.08 74.05 73.36 73.44 73.51 72.67 71.78 72.50 67.94 70.69 70.14 71.83 72.33 63.29 61.74 60.11
68.24 66.95 67.54 68.13 68.02 70.06 59.23 58.12 60.23 66.79 69.14 70.98 71.27 71.60 70.91 68.20 63.77 59.59 67.32 67.93 68.57 72.06 67.06 62.81 64.37 63.14 61.47 61.89 67.35 73.06 70.61 70.71 68.65 69.50 70.55 69.21 69.49 69.68 70.53 70.71 71.22 61.02 59.14
69.87 69.84 69.59 68.18 65.63 69.99 58.66 55.78 58.79 67.02 68.17 69.41 70.98 68.84 63.89 66.12 59.95 58.86 66.01 67.04 66.81 68.99 73.27 73.21 73.27 69.60 66.52 69.98 61.47 71.86 72.37 70.21 69.18 69.17 71.66 67.67 68.57 69.15 67.13 70.73 70.96 69.12 67.46

GFSMA_sfc_wetblb_117.txt.gz
Wetbulb
75.79 76.03 76.51 75.69 74.62 76.34 75.72 76.22 75.48 75.15 75.39 74.00 74.75 75.18 74.03 74.19 74.94 74.29 76.54 77.89 77.09 77.15 76.51 76.35 76.14 76.07 76.25 76.10 75.44 74.90 74.57 74.25 75.87 75.14 74.09 73.90 74.54 74.73 74.40 73.88 74.86 74.55 75.00
77.80 75.55 76.63 75.38 74.44 76.94 75.00 75.98 76.33 75.25 75.83 73.11 74.20 74.35 74.94 74.74 74.60 74.94 75.76 76.40 77.44 77.12 77.01 76.91 76.75 76.81 76.86 76.47 76.23 75.99 75.55 74.78 74.85 76.00 75.38 75.33 75.19 75.09 75.36 74.20 74.55 75.35 75.00
78.15 78.44 76.03 75.65 75.25 76.06 76.69 76.10 77.32 75.86 75.27 73.48 73.77 73.44 74.51 75.17 74.77 76.38 76.71 77.31 77.23 77.43 77.48 77.35 77.54 77.54 77.78 76.99 76.58 76.78 76.87 76.45 76.09 75.84 76.12 76.07 75.62 75.05 75.97 75.57 75.32 75.19 75.50
76.86 77.60 75.54 75.36 75.79 76.26 73.69 75.15 74.98 73.77 73.93 72.22 73.13 72.36 73.89 75.04 75.52 75.71 76.12 76.28 75.15 76.21 76.70 77.76 77.43 77.45 78.03 78.05 77.96 77.61 77.33 77.06 76.63 76.40 76.25 76.22 76.50 75.76 75.34 75.67 75.65 75.35 75.25
76.44 76.70 74.78 74.20 78.21 75.07 74.04 72.78 73.36 74.03 73.12 72.25 71.78 72.23 73.91 73.69 74.34 74.30 75.22 76.46 76.84 75.86 75.42 76.97 77.23 77.30 77.33 77.03 77.86 77.75 77.65 77.33 76.80 76.60 76.34 76.07 75.97 76.12 75.83 75.80 75.68 75.44 75.06
77.04 76.48 75.02 78.35 76.11 73.22 73.56 73.00 74.56 73.66 73.29 72.26 71.42 71.99 73.44 73.38 73.37 73.37 74.13 74.72 76.26 76.58 76.81 77.16 77.08 76.96 76.88 76.76 76.91 77.26 77.79 77.55 77.16 76.73 76.60 76.27 76.22 75.81 75.34 75.33 75.47 75.40 75.28
77.66 77.57 74.33 75.97 76.04 75.10 74.57 77.22 74.51 74.50 71.67 73.18 71.40 71.13 72.54 73.15 73.08 73.13 73.51 73.84 75.63 76.34 76.98 76.39 76.85 75.71 76.09 76.39 75.98 76.25 77.05 77.55 77.32 76.69 76.35 76.00 75.85 75.59 75.24 75.17 74.88 74.63 74.60
77.94 77.49 77.08 75.89 76.76 75.33 75.85 77.25 77.04 71.57 71.63 72.51 69.40 69.36 67.13 69.27 71.42 72.59 73.02 73.38 74.23 75.06 74.91 76.68 77.87 78.98 77.65 76.18 77.66 76.35 76.85 77.07 77.28 77.01 76.44 75.77 75.35 75.20 74.99 74.79 74.66 74.33 74.33
77.84 78.29 78.20 76.92 77.71 77.57 74.07 76.65 73.80 72.14 70.95 72.78 73.21 69.12 65.60 64.58 68.84 71.69 73.78 72.73 75.75 73.45 74.95 74.50 76.73 78.64 80.10 77.46 77.64 77.74 76.69 75.90 76.97 77.41 76.99 76.32 75.20 74.66 74.54 74.54 74.49 74.27 74.02
77.95 78.29 78.22 77.68 77.86 75.74 76.55 75.57 76.31 75.02 76.15 74.27 75.72 72.11 73.71 72.93 68.63 67.37 71.75 73.00 74.13 75.61 78.18 76.14 75.80 76.98 79.50 77.44 78.80 77.64 76.04 74.92 75.90 76.93 77.22 76.90 76.30 75.37 74.87 74.74 74.97 74.74 74.38
78.07 76.65 77.93 77.92 77.70 75.96 77.55 77.87 77.00 76.57 75.19 74.47 74.32 75.36 73.86 73.64 74.01 69.28 66.28 69.93 73.08 74.21 74.80 75.89 75.57 75.85 77.10 78.12 77.05 76.78 75.61 74.62 74.80 75.47 76.10 76.40 76.20 76.22 76.07 75.85 75.97 75.77 75.69
76.62 77.47 77.17 77.80 78.09 77.41 77.95 77.08 77.97 77.55 76.34 75.74 74.73 74.35 73.20 72.30 71.30 70.69 69.71 70.91 70.34 72.61 73.51 72.73 75.37 75.32 75.90 75.63 76.86 75.44 75.45 74.94 74.19 73.82 73.72 74.36 74.99 75.71 76.42 76.65 76.78 76.65 76.60
74.16 76.26 77.20 77.42 77.47 78.76 78.62 77.91 78.08 77.19 77.20 75.40 76.00 74.31 74.98 73.80 73.03 72.19 72.59 69.97 69.67 71.51 72.12 74.22 71.90 75.38 74.62 75.07 75.66 75.47 76.85 73.95 72.56 71.69 71.43 71.73 72.47 73.24 73.90 74.76 75.57 76.40 77.06
75.89 77.51 77.40 77.04 77.88 78.37 78.43 78.38 76.30 76.44 77.39 76.32 77.12 76.36 74.00 74.53 73.85 73.52 72.01 70.53 68.36 69.28 71.07 74.02 74.32 73.58 75.29 75.17 75.61 74.82 75.21 73.60 72.51 71.02 70.20 70.05 70.48 71.03 71.96 72.99 74.21 76.15 75.50
75.18 76.36 79.03 77.85 78.21 78.08 78.37 78.62 76.10 76.62 76.87 76.70 76.71 76.82 75.24 74.10 74.68 74.67 74.03 72.89 70.79 68.73 67.82 71.36 71.10 76.00 75.44 74.92 75.61 76.05 76.09 74.58 73.90 71.51 70.26 69.73 69.76 70.07 71.16 72.89 73.71 72.80 71.54
74.72 74.57 73.99 78.39 77.95 78.00 78.12 78.12 76.92 77.14 76.86 75.60 75.20 76.35 76.53 76.24 76.35 74.90 74.49 73.91 73.40 71.29 69.09 71.52 72.21 76.01 76.49 74.59 75.58 75.63 75.53 73.98 72.58 72.04 70.74 69.39 69.35 69.80 70.20 70.19 70.46 69.95 69.72
76.12 71.66 75.34 75.28 77.42 77.76 78.03 77.35 77.18 77.18 76.62 76.25 76.19 76.04 75.70 76.62 74.50 74.69 74.19 74.09 73.30 73.47 70.48 71.40 73.32 75.40 74.20 75.35 75.10 75.76 75.75 74.78 75.19 70.94 70.13 69.44 68.69 68.64 68.53 68.48 68.54 68.81 69.41
76.82 73.21 72.26 72.26 69.68 74.74 77.51 76.81 76.21 75.89 76.00 75.52 75.70 75.55 75.64 74.75 75.76 76.26 75.91 75.45 73.73 74.60 72.15 71.15 73.20 73.22 75.16 76.80 76.03 75.50 74.89 73.78 75.05 71.28 69.59 68.45 67.41 66.76 66.45 67.10 67.79 68.42 66.47
75.23 75.00 74.08 69.35 72.53 75.02 76.61 76.76 76.34 75.88 76.13 76.12 75.27 75.19 75.69 75.64 75.32 75.75 75.90 75.17 74.15 74.23 73.25 72.14 71.10 72.65 73.12 74.13 74.92 75.27 75.14 75.26 73.92 70.55 68.38 67.12 66.56 66.20 66.12 66.03 66.16 64.59 61.65
73.45 74.57 74.69 73.58 72.40 73.42 76.18 76.28 76.15 76.18 76.07 75.94 76.65 76.22 76.63 75.99 76.16 76.00 75.60 75.85 75.80 73.64 73.59 71.77 71.10 70.11 71.53 74.44 73.78 71.64 72.47 73.72 72.08 72.76 70.80 70.00 68.90 67.01 66.27 65.40 64.59 63.41 60.54
72.91 73.01 72.84 73.36 73.82 73.34 74.85 75.25 75.56 75.24 75.88 75.64 76.35 76.55 76.77 75.24 71.82 74.17 74.75 76.22 75.38 73.18 71.86 71.52 69.87 69.99 70.57 71.19 70.36 71.49 71.43 71.19 74.55 74.04 72.94 72.53 71.37 71.18 70.75 65.87 67.99 65.40 61.91
71.42 71.77 71.66 71.62 71.67 71.91 67.44 65.76 70.96 74.79 75.14 75.53 75.52 76.44 76.27 71.88 71.09 66.97 66.96 68.13 73.00 73.35 72.16 70.55 69.86 69.45 74.12 72.33 71.57 70.70 71.00 69.92 68.22 73.11 72.07 71.04 72.82 71.49 71.30 72.30 68.53 65.34 62.05
71.33 70.78 70.95 71.18 70.58 71.70 63.69 63.13 65.51 72.93 73.78 74.83 75.27 76.02 75.24 73.84 72.05 74.57 67.36 65.92 66.30 65.52 67.67 73.85 72.34 72.36 73.00 74.50 74.49 73.50 73.40 72.64 70.20 72.34 73.88 69.87 73.10 70.82 72.53 72.29 65.00 63.46 61.47
70.74 70.93 70.67 71.43 71.14 71.40 62.04 60.79 62.72 72.81 73.63 74.17 74.57 75.31 74.75 74.54 75.17 73.10 74.41 73.33 73.02 72.71 72.47 71.79 71.77 72.59 74.44 75.40 75.49 74.99 74.92 74.47 73.60 72.47 73.79 68.23 70.55 70.02 72.60 72.95 63.68 62.58 60.90
70.99 71.00 70.85 70.48 70.84 71.28 59.32 57.69 63.77 70.77 71.16 72.01 73.38 73.12 73.57 72.13 62.74 61.15 72.94 72.45 71.34 71.12 67.57 62.31 62.26 62.75 62.48 62.15 67.32 74.74 72.06 71.92 68.66 69.68 73.34 70.22 69.99 69.55 70.74 71.63 71.10 61.57 59.80
70.77 71.02 70.12 70.11 65.49 69.99 58.85 55.71 61.78 69.14 69.34 69.58 70.73 70.24 63.14 66.56 60.06 59.34 69.81 68.51 68.54 67.61 68.05 68.38 68.58 65.23 64.31 67.75 62.17 73.34 72.67 70.56 70.62 69.73 72.20 70.30 70.02 69.67 67.38 71.22 71.95 68.10 67.32

GFSMA_sfc_wetblb_120.txt.gz
Wetbulb
76.42 74.32 76.46 76.06 75.77 75.53 74.22 74.54 74.65 73.76 73.74 74.20 74.19 74.35 74.10 74.16 73.78 74.86 75.06 77.11 76.88 76.76 77.19 76.97 76.93 75.84 76.06 76.28 75.87 75.62 75.20 74.68 75.71 75.21 74.77 74.14 74.74 75.36 75.34 75.03 75.13 75.09 75.42
77.69 75.46 75.91 75.10 73.66 74.52 74.30 75.20 75.18 74.98 74.83 74.12 72.94 73.61 73.45 74.68 74.34 74.98 75.86 76.18 76.68 77.16 77.35 77.63 77.27 76.91 76.50 77.04 76.93 76.42 75.87 75.27 75.26 76.02 76.06 75.43 75.02 75.48 75.65 75.78 74.86 75.49 75.53
74.66 75.20 74.91 74.79 74.60 75.35 74.82 76.48 75.82 75.00 74.99 75.34 72.72 72.25 74.32 75.04 74.57 75.72 74.31 74.35 75.15 77.46 77.21 77.66 77.65 77.29 77.41 77.77 77.50 77.11 76.76 76.51 75.98 75.27 75.53 75.93 75.73 75.35 75.33 75.61 75.76 75.13 75.48
76.36 75.91 75.25 74.93 75.97 75.20 74.40 75.68 74.17 74.23 74.04 73.19 72.62 72.33 72.61 73.30 75.17 74.87 75.95 75.55 76.28 75.59 76.80 77.41 77.56 77.39 77.53 78.03 77.93 77.73 77.21 76.78 76.50 76.10 75.95 76.03 76.22 75.99 75.56 75.07 75.85 75.87 75.40
76.07 75.22 74.57 74.04 76.12 75.13 74.07 73.62 72.88 73.62 72.79 72.01 71.93 72.39 72.98 73.74 73.96 73.70 74.62 75.10 76.40 74.78 74.95 76.08 77.19 76.73 77.47 78.01 78.47 78.37 77.84 77.24 77.08 76.77 76.58 76.45 76.25 75.82 75.98 75.63 75.52 75.52 75.29
75.80 75.47 75.16 74.05 75.37 74.12 73.26 72.36 73.21 73.31 72.62 71.49 70.89 70.63 71.19 72.08 73.04 73.73 74.01 74.60 74.77 75.44 75.59 75.99 75.18 75.48 77.02 77.44 77.54 77.78 78.06 77.54 77.21 77.08 76.85 76.52 76.42 75.84 75.56 75.47 75.52 75.42 75.33
76.59 76.35 74.43 76.34 75.39 73.85 73.93 72.63 73.06 73.84 72.48 73.16 71.56 70.68 72.13 72.10 72.38 72.23 72.46 72.23 73.48 75.67 75.51 75.78 75.57 75.14 75.48 76.33 76.12 76.62 77.37 77.65 77.62 77.21 76.81 76.30 75.99 75.89 75.51 75.30 74.89 74.71 74.87
76.34 76.17 74.91 74.77 75.31 74.13 76.57 75.95 74.83 71.57 71.93 72.77 69.71 70.05 67.18 69.05 71.26 71.57 71.84 72.63 72.90 75.01 74.37 75.13 75.92 76.01 75.20 75.79 75.50 76.28 76.60 77.02 77.53 77.29 76.76 75.70 75.30 75.17 74.93 74.76 74.56 74.43 74.37
76.06 75.96 75.36 74.41 76.11 75.30 74.06 74.96 75.35 74.16 70.10 71.00 72.49 69.00 65.88 64.17 67.95 70.23 71.19 71.68 72.90 71.84 72.77 74.80 75.55 76.16 77.05 75.75 76.78 77.01 76.58 75.73 76.83 77.33 77.13 76.18 75.12 74.60 74.51 74.59 74.43 74.25 74.00
76.31 76.27 76.15 74.93 75.73 75.16 74.06 73.16 73.88 72.46 71.02 70.56 71.77 70.40 69.57 71.73 67.16 66.93 70.64 73.40 72.45 69.67 67.85 73.54 75.54 76.39 76.38 76.36 77.76 77.64 77.05 75.10 76.03 76.96 77.12 76.83 76.11 75.39 74.90 74.68 74.66 74.38 74.12
75.78 76.11 75.84 76.25 74.68 75.65 74.82 74.63 73.66 73.03 71.18 71.13 71.28 72.42 70.09 71.54 72.17 69.27 66.57 69.32 71.23 69.19 68.90 73.75 75.18 69.15 70.64 76.34 74.72 76.83 75.55 75.05 75.15 75.85 76.66 77.01 76.74 76.41 76.08 75.97 75.67 75.57 75.37
74.76 75.55 75.89 75.49 75.93 74.98 74.64 75.56 75.30 74.77 73.53 73.01 72.71 72.07 70.70 70.63 70.10 69.70 68.18 68.71 69.00 71.59 73.13 74.83 73.33 72.45 73.46 73.16 74.59 75.73 76.98 75.74 74.49 74.18 74.40 75.03 75.44 75.85 76.20 76.48 76.63 76.81 76.43
74.56 74.76 75.45 75.17 75.30 75.74 75.23 75.36 75.33 74.70 74.85 73.93 73.54 73.07 72.76 72.59 73.46 71.40 70.75 69.29 68.46 69.86 70.58 72.72 72.63 72.82 72.85 70.05 71.80 75.54 76.15 74.23 72.80 72.04 72.14 72.52 72.92 73.36 74.18 74.64 75.43 76.03 76.31
74.60 75.87 75.30 74.99 75.42 75.35 75.86 76.37 75.71 75.30 75.25 74.78 73.98 74.07 73.30 73.53 73.42 72.74 70.75 69.32 67.60 68.76 70.10 70.60 74.63 72.54 72.51 72.74 75.17 74.85 73.42 73.53 72.52 71.13 70.12 70.20 70.40 70.88 71.45 72.00 72.55 73.31 74.02
75.46 75.12 76.02 74.81 75.03 75.10 75.13 75.35 75.19 74.70 75.40 74.88 74.32 74.35 73.71 73.78 73.85 73.45 72.64 71.86 69.81 66.49 66.85 69.96 72.20 74.92 74.19 74.51 75.72 74.88 75.36 74.45 73.75 71.79 70.31 69.64 69.41 69.35 69.51 70.07 70.91 71.59 73.15
75.14 75.15 75.64 75.37 74.99 75.22 75.24 74.88 74.74 75.08 74.88 75.04 74.61 74.16 73.87 73.81 73.75 73.43 73.08 73.12 72.96 69.93 66.90 71.15 71.08 74.45 75.27 74.20 75.83 74.39 74.96 74.05 72.65 71.60 70.50 69.52 68.79 69.04 69.45 69.92 70.98 71.21 70.37
75.05 73.26 73.93 74.18 74.27 72.14 73.25 73.46 74.38 74.43 73.93 74.30 74.70 74.01 73.58 74.28 73.20 72.86 73.48 72.74 71.89 71.59 69.28 70.52 72.43 73.04 74.68 73.86 73.42 74.73 74.90 74.47 74.10 70.91 70.43 69.50 68.77 68.64 68.95 68.83 68.78 68.83 69.46
74.66 74.43 72.14 69.43 69.02 67.11 69.47 70.36 72.04 73.73 73.56 73.71 74.01 73.86 73.26 74.12 73.67 73.23 73.45 72.22 72.14 73.05 71.54 69.64 71.14 71.68 72.09 73.75 74.15 73.93 73.71 73.83 73.43 71.23 69.50 68.70 67.69 66.97 66.52 66.97 67.33 67.79 68.05
73.95 73.12 71.91 69.63 68.82 67.85 67.51 66.87 68.59 72.46 73.24 73.35 73.75 73.98 73.41 73.51 73.06 72.98 72.59 71.82 72.42 72.47 72.45 70.96 69.93 72.89 71.75 72.86 73.25 73.83 73.98 73.51 73.63 70.60 68.68 67.65 66.81 66.12 65.80 65.71 65.33 64.76 63.31
73.85 72.66 71.77 69.97 68.50 68.15 67.91 66.30 67.41 69.83 71.92 73.21 73.86 73.75 73.99 73.45 73.01 73.08 72.91 73.00 73.15 72.48 72.52 71.37 70.95 70.81 71.13 72.27 72.26 71.06 71.21 72.49 71.83 72.57 71.15 69.87 68.14 67.10 66.32 65.42 64.62 64.10 61.12
72.61 73.63 73.43 71.98 70.83 68.46 66.36 66.75 68.47 68.36 67.28 72.49 73.62 74.29 74.22 73.73 71.90 72.81 73.58 73.18 73.27 72.20 71.55 70.75 69.89 70.12 69.09 69.86 68.90 69.87 69.70 70.66 71.60 72.41 71.42 71.16 69.23 69.59 68.95 66.16 67.61 65.95 62.31
71.20 72.10 72.29 71.75 70.95 69.97 66.09 64.87 66.82 69.62 67.94 63.77 71.92 73.71 74.19 71.68 70.93 68.54 69.22 70.11 73.03 72.27 71.06 70.31 69.48 68.80 69.60 69.68 70.13 69.80 69.33 68.46 66.27 72.61 70.74 69.98 70.89 69.54 70.40 70.20 67.28 65.26 61.91
72.48 71.82 72.06 72.15 71.04 71.11 65.50 65.05 65.64 67.66 66.55 70.82 72.67 73.37 73.56 73.96 70.50 72.72 66.66 66.39 66.84 67.04 68.69 71.21 69.90 70.55 69.36 70.66 70.91 68.67 68.78 68.63 68.92 70.26 70.22 68.31 70.98 69.71 71.68 70.93 66.09 63.18 61.76
70.70 70.83 71.50 71.38 70.44 70.38 61.69 60.77 63.75 70.20 71.00 71.87 72.65 73.39 73.32 73.12 72.59 71.67 71.89 70.43 70.55 70.53 69.33 69.58 72.22 72.35 71.42 71.25 70.88 69.03 68.49 69.91 71.71 71.34 71.16 67.11 69.67 68.63 71.23 71.18 64.77 62.92 61.30
70.19 69.69 70.80 70.44 70.89 69.51 57.88 58.26 63.58 71.10 70.42 71.17 72.63 73.25 72.75 72.48 65.82 62.22 71.00 70.34 70.36 69.92 66.00 63.57 64.55 64.44 63.13 63.16 64.47 68.32 67.04 67.33 66.88 68.15 70.81 68.64 68.42 68.63 69.82 70.64 70.25 62.51 60.19
68.62 69.91 69.14 69.72 63.35 68.95 56.49 55.72 61.16 69.41 69.39 69.66 71.74 70.98 63.51 67.65 59.89 58.80 69.15 68.61 66.81 67.26 67.29 67.87 69.86 65.67 62.34 64.11 61.42 67.35 68.12 66.59 67.92 66.75 69.56 67.64 67.80 67.76 66.27 69.03 69.88 63.86 62.48

GFSMA_sfc_wetblb_123.txt.gz
Wetbulb
70.09 72.47 73.17 73.78 73.94 73.56 72.16 72.08 72.70 71.84 70.89 71.17 71.20 71.05 70.92 71.46 72.35 72.83 73.46 76.88 76.85 77.49 78.08 76.62 75.90 75.29 75.00 75.22 75.53 75.40 75.67 75.08 75.44 74.96 74.85 74.44 74.64 75.80 75.37 74.61 74.81 74.66 75.48
73.27 72.60 72.95 73.21 73.97 73.75 73.21 72.77 72.56 71.56 71.52 71.40 70.92 70.75 70.46 71.36 73.83 73.19 72.96 75.20 76.99 76.93 77.25 77.53 76.63 76.02 75.96 75.85 75.84 75.71 75.37 74.97 75.39 76.33 75.88 75.63 74.83 75.11 75.61 75.43 75.12 75.28 75.81
74.94 73.15 73.22 72.53 72.65 73.01 72.53 72.61 72.86 72.42 72.04 72.73 69.31 69.54 70.00 70.96 72.74 73.28 73.61 73.24 75.01 77.38 77.46 77.71 77.45 77.28 77.04 76.62 76.60 76.89 76.61 76.28 75.95 75.30 75.91 76.05 75.22 74.88 75.25 75.65 75.88 75.88 75.03
73.45 73.85 72.96 72.51 73.31 73.03 72.62 72.67 71.81 71.25 71.18 70.58 70.03 68.44 69.31 69.60 70.17 72.86 74.42 72.81 73.97 75.42 76.98 77.33 77.39 77.42 77.54 77.63 77.98 77.64 77.09 76.68 76.38 75.88 75.48 75.48 76.05 75.54 75.44 75.45 75.10 75.98 75.75
74.03 73.50 73.19 72.84 72.57 72.57 71.81 71.55 70.87 70.61 70.26 69.98 70.13 69.47 68.78 69.32 68.95 71.38 71.82 72.36 73.84 74.19 73.73 76.78 77.14 77.06 77.82 77.89 78.11 78.14 77.54 76.96 76.53 76.48 76.23 76.00 75.93 75.74 75.78 75.66 75.41 75.22 75.59
74.48 72.64 73.14 71.89 72.49 72.06 71.04 70.69 69.20 70.80 70.47 70.17 70.52 69.30 67.72 68.40 69.31 70.08 70.38 72.93 72.81 74.26 73.70 73.80 75.30 75.55 77.29 77.57 77.31 77.86 78.09 77.09 77.08 76.83 76.70 76.55 76.30 75.81 75.58 75.42 75.29 75.30 75.13
74.10 72.79 72.84 72.32 72.58 72.25 71.64 70.85 70.83 69.50 70.18 70.10 68.59 66.02 67.90 68.14 68.26 69.03 69.51 69.53 70.87 72.56 72.87 73.48 73.65 73.29 73.93 76.63 76.46 76.73 77.42 77.54 77.21 77.09 76.73 76.44 76.19 75.78 75.68 75.28 75.04 75.06 75.06
73.93 72.93 72.46 71.62 72.54 72.09 71.28 71.08 69.98 68.80 69.52 68.84 65.42 65.44 62.74 65.19 68.43 69.32 69.65 69.40 68.70 70.68 73.14 73.84 73.90 73.24 73.02 73.25 74.55 76.26 76.94 77.21 77.42 77.18 76.36 75.75 75.41 75.40 75.28 75.10 74.77 74.51 74.58
73.77 73.10 72.92 71.04 71.93 71.02 70.84 71.25 70.53 68.94 65.74 67.07 67.34 64.06 60.69 60.56 63.18 66.24 68.60 69.08 68.33 68.94 70.29 71.35 73.85 73.74 73.51 73.26 75.03 75.78 76.43 75.58 76.71 77.13 76.87 76.13 75.19 74.69 74.63 74.65 74.44 74.18 74.01
73.88 73.88 73.11 72.00 71.27 72.42 70.71 71.42 71.16 70.36 68.64 66.78 67.40 68.42 65.92 65.76 62.45 62.43 66.51 68.22 69.45 68.70 67.35 67.25 72.00 72.76 73.80 73.98 75.21 76.14 76.11 74.65 75.47 76.69 76.88 76.61 75.93 75.19 74.91 74.70 74.77 74.49 74.00
74.17 74.01 73.51 72.48 71.05 72.21 71.77 71.40 70.08 70.37 70.25 67.95 68.67 68.43 66.21 65.38 66.15 64.58 62.30 65.21 68.38 67.96 66.72 65.64 69.84 69.99 71.62 73.55 73.66 74.19 73.64 72.71 74.44 75.31 75.93 76.63 76.20 75.58 75.60 75.74 75.74 75.58 75.40
73.55 73.79 73.84 73.60 72.20 71.96 71.75 72.00 71.40 70.66 70.27 68.74 68.56 69.14 68.41 66.22 66.31 66.22 64.63 64.96 65.56 67.91 69.60 69.52 71.26 69.49 70.77 70.99 73.49 74.70 72.77 71.49 71.42 73.97 74.14 75.00 75.50 75.42 75.35 76.06 76.33 76.45 76.47
71.96 72.41 73.21 73.16 73.39 73.13 72.50 72.94 72.87 72.27 71.56 69.96 69.74 69.42 70.25 69.42 69.25 68.18 65.95 65.44 66.47 66.99 67.69 69.24 71.30 71.20 70.46 68.11 68.65 73.67 75.20 73.92 73.10 72.45 72.29 72.62 73.25 73.57 74.19 74.62 75.13 75.79 76.12
72.19 73.43 72.59 73.33 73.53 73.19 73.48 72.77 73.11 73.17 72.91 72.55 71.38 71.84 70.98 71.16 70.49 69.66 67.64 66.31 64.29 64.94 66.27 66.46 69.60 70.81 70.24 70.13 70.54 72.34 72.56 73.37 72.14 70.63 69.86 70.13 70.38 70.82 71.12 71.71 71.94 72.38 73.05
72.69 72.42 73.68 72.95 73.09 73.01 73.23 73.26 72.12 72.26 72.78 72.69 72.76 72.63 71.84 71.74 71.67 71.17 70.40 68.96 67.21 63.36 63.57 66.26 68.35 71.46 70.74 70.15 71.26 71.84 70.37 72.66 72.00 70.68 69.38 69.00 68.81 68.71 69.01 69.19 69.52 69.55 69.99
72.29 72.61 72.56 73.14 72.98 73.15 73.21 72.85 73.02 72.79 72.36 72.92 73.14 72.66 72.18 71.87 71.87 71.69 71.15 70.23 68.96 67.79 65.47 66.99 67.88 69.55 71.82 72.20 72.29 72.22 72.37 72.13 71.55 71.05 69.62 68.55 68.15 68.33 68.04 68.61 69.12 69.62 69.71
72.62 72.03 72.31 72.61 72.35 72.45 72.89 72.19 72.41 72.16 71.34 71.74 72.81 72.18 71.92 72.25 71.75 71.31 71.01 70.46 69.63 68.45 67.11 67.42 68.64 69.95 69.98 70.47 71.01 71.48 72.10 71.25 71.36 69.95 69.46 68.95 68.11 67.66 67.75 68.11 68.54 68.69 69.11
73.01 72.37 72.30 72.04 69.46 68.43 66.37 65.35 65.03 68.24 70.94 70.65 71.30 71.78 71.87 72.50 71.62 71.54 70.33 70.05 70.00 69.97 68.88 66.89 68.09 68.87 69.30 70.60 70.33 70.51 71.06 71.82 71.25 70.98 69.08 68.45 67.19 66.67 66.29 66.33 66.27 66.23 66.32
71.86 71.98 71.46 70.87 68.31 67.66 66.50 66.52 65.88 64.63 66.50 70.25 70.73 71.66 71.59 71.41 71.31 71.43 71.16 70.19 70.00 70.00 70.21 68.90 68.54 69.39 69.98 69.54 69.48 70.11 70.42 70.90 71.14 71.38 68.29 67.44 66.67 65.95 65.27 64.76 64.32 63.90 63.39
68.89 70.72 69.71 69.78 69.08 66.98 65.76 62.85 63.09 64.26 65.21 68.38 71.56 71.35 71.90 71.56 71.35 71.36 71.29 70.68 70.08 69.64 69.39 69.01 68.33 68.74 68.99 69.54 69.43 68.00 68.36 70.16 69.95 71.14 70.01 68.94 67.10 66.46 66.06 64.98 64.30 63.88 61.40
69.06 69.68 69.79 70.00 69.01 65.80 65.36 63.29 63.73 64.10 64.98 66.49 68.19 65.89 66.69 71.34 70.70 70.66 71.68 71.12 70.69 70.45 69.88 69.46 68.72 67.93 68.63 66.89 66.81 67.30 67.23 67.32 68.74 70.17 68.70 67.41 67.05 66.66 66.55 65.76 66.72 65.77 62.69
68.48 69.04 68.95 69.24 67.25 67.08 64.85 64.50 66.20 65.80 65.75 65.41 65.11 65.47 65.04 65.09 68.12 67.19 67.76 69.31 71.19 70.88 69.86 69.27 68.80 67.79 67.79 66.22 66.88 66.47 67.34 64.97 63.82 69.38 69.15 67.05 67.88 66.60 67.74 67.79 66.47 64.68 62.21
67.75 67.68 67.92 68.36 69.66 69.57 63.22 62.51 64.27 66.36 67.30 66.62 64.66 64.49 64.76 67.35 65.45 66.30 68.23 66.74 67.66 67.81 69.77 70.60 68.87 67.95 66.70 66.29 67.03 65.94 65.74 64.56 64.81 68.31 68.69 65.39 67.84 67.09 68.52 69.14 65.18 63.09 61.85
65.26 65.85 66.45 66.67 66.94 69.12 63.70 60.99 62.80 65.89 66.11 64.82 65.87 64.26 64.17 64.48 66.03 68.03 69.58 68.65 68.45 68.06 67.75 68.72 69.63 69.00 68.56 67.84 67.50 67.23 66.03 65.60 67.17 69.71 68.96 64.28 66.02 65.96 67.33 68.72 65.29 63.51 61.51
64.85 65.39 66.29 65.50 65.33 65.58 58.34 59.39 61.85 65.99 65.91 67.19 67.72 69.49 68.91 68.12 66.63 64.42 69.02 67.46 67.34 68.00 65.87 62.71 63.58 63.78 65.25 64.16 66.83 67.35 64.57 63.17 63.52 65.46 67.84 65.79 64.62 65.46 66.16 66.70 68.06 62.46 60.98
64.94 65.71 65.98 65.48 62.79 65.26 57.25 57.64 60.54 66.30 65.60 65.87 66.71 67.23 62.33 66.53 60.72 59.09 67.07 67.73 66.85 66.83 67.47 66.95 66.84 65.17 64.24 65.18 62.13 66.90 66.14 64.24 64.66 63.92 66.96 64.78 64.67 64.79 62.64 65.38 66.58 64.44 61.55

GFSMA_sfc_wetblb_129.txt.gz
Wetbulb
71.60 71.71 71.58 72.19 72.11 71.44 71.64 72.25 72.65 72.49 72.41 71.94 71.53 70.60 70.21 69.50 70.07 69.59 71.73 76.72 76.50 76.74 76.98 76.09 75.39 74.37 74.11 74.81 75.47 75.77 75.65 75.24 74.97 74.65 74.52 74.94 74.65 74.52 74.98 75.33 74.50 74.27 74.38
71.50 71.02 70.67 71.58 72.12 71.35 71.10 71.19 71.82 71.61 71.27 70.89 70.54 70.40 69.68 69.15 70.61 69.68 70.25 73.04 77.21 77.07 77.22 77.51 76.71 75.73 74.96 74.68 74.82 75.49 76.03 75.99 75.80 75.61 75.23 74.71 74.88 75.03 74.30 75.28 74.95 74.88 75.06
70.13 69.93 71.08 71.64 72.58 72.01 71.20 70.33 70.46 70.89 70.65 70.84 70.61 70.40 69.42 68.64 69.87 71.30 70.03 70.50 74.33 77.29 76.79 77.59 77.11 77.03 76.39 74.99 75.26 75.34 76.19 76.24 75.91 75.71 75.43 75.57 75.30 75.19 75.00 74.21 75.38 75.68 75.36
71.68 70.18 69.44 71.13 72.85 72.67 72.04 71.18 70.37 70.30 70.11 69.65 69.53 69.23 67.45 67.59 68.76 71.68 70.57 71.35 72.39 73.76 75.71 77.04 77.09 76.76 77.06 76.15 75.89 76.09 75.86 75.56 75.46 75.51 75.58 75.45 75.82 75.61 75.45 74.94 74.75 75.22 75.45
73.05 72.24 70.90 71.06 71.89 71.80 71.75 70.88 70.49 69.99 69.23 68.95 69.15 68.89 68.54 67.32 67.67 70.13 71.16 71.39 71.95 72.90 72.96 74.98 76.69 76.51 77.19 76.92 76.78 77.05 76.96 76.66 76.20 75.94 75.95 75.78 75.63 75.10 75.37 75.47 75.16 74.94 74.92
72.99 72.90 72.46 71.75 71.72 71.04 70.93 70.62 69.69 70.09 69.05 68.73 69.68 69.49 68.24 67.96 67.45 67.50 68.47 71.70 71.91 71.68 72.74 73.01 73.73 75.43 76.46 77.36 77.38 77.34 77.21 76.86 76.54 76.35 76.30 75.89 75.89 75.42 74.76 74.68 74.94 74.90 74.90
72.62 72.26 72.46 71.98 70.97 70.63 70.26 70.12 69.66 69.16 69.25 67.81 66.31 65.91 65.90 66.87 66.44 66.00 67.47 68.28 69.37 71.58 72.10 72.35 72.77 74.11 74.56 76.59 76.54 76.84 77.01 77.24 76.71 76.49 76.03 75.73 75.47 75.44 75.18 75.00 74.60 74.41 74.32
72.77 72.40 71.80 71.55 71.12 70.51 70.00 69.54 68.80 67.07 66.96 67.56 65.07 63.45 62.10 63.47 64.72 66.65 66.30 66.39 66.49 68.42 70.64 72.25 72.21 72.63 73.03 72.74 74.13 76.28 76.91 76.86 76.67 76.33 76.18 75.23 75.05 74.91 74.88 74.82 74.78 74.45 74.38
72.83 72.24 71.98 71.48 71.24 70.97 70.28 70.26 69.70 68.19 67.36 66.80 66.86 64.65 59.84 59.98 60.95 64.02 65.76 66.14 66.66 66.13 66.84 68.91 71.46 72.20 72.20 72.34 73.51 74.46 76.16 75.80 76.86 76.96 76.47 75.75 74.86 74.22 74.46 74.17 74.01 74.04 74.02
73.05 72.29 72.33 71.67 71.09 71.07 70.48 70.04 70.55 69.83 67.32 66.56 65.83 67.26 63.39 62.69 61.06 59.67 63.26 65.55 66.03 66.57 66.56 67.12 68.96 70.82 71.83 71.97 73.28 74.15 73.89 74.00 75.37 76.56 76.56 76.27 75.63 74.98 74.60 74.47 74.33 74.08 73.65
73.26 72.82 72.31 71.72 71.12 70.72 70.70 70.15 69.75 69.36 69.30 68.49 65.70 64.68 65.38 63.59 63.41 61.68 59.77 61.28 65.13 67.16 67.35 67.14 67.47 68.33 71.21 72.34 72.33 72.77 73.90 73.70 73.82 74.82 75.67 76.01 75.78 75.60 75.37 74.93 75.13 74.89 74.57
71.73 72.98 72.81 71.99 71.37 70.89 70.40 70.58 70.12 70.09 69.57 69.03 68.37 65.60 65.42 63.79 64.09 62.34 61.06 61.50 61.93 64.75 67.11 67.40 66.10 66.37 67.43 68.96 72.43 74.50 74.33 73.99 73.33 73.14 73.43 74.31 75.06 75.73 75.83 75.39 75.20 75.48 75.24
69.03 71.29 71.82 72.05 71.69 71.46 70.62 70.38 69.99 69.93 69.77 68.87 68.12 67.61 67.88 66.62 65.40 64.75 63.59 63.82 62.65 63.97 65.78 67.16 67.93 68.44 69.45 69.18 69.92 73.51 74.81 73.74 72.43 70.98 70.65 70.58 71.20 71.92 73.36 74.42 74.97 75.60 75.72
70.19 70.97 71.28 71.87 72.05 71.97 71.56 70.33 70.13 70.06 70.25 69.54 69.04 68.45 68.71 68.32 67.36 66.53 65.95 64.55 62.88 62.63 64.08 65.06 66.93 67.74 68.75 69.82 70.67 72.12 71.46 71.59 71.43 69.47 68.57 69.12 69.53 70.64 71.66 72.25 72.14 72.39 72.79
70.94 70.64 70.63 71.09 71.65 71.47 71.59 70.84 69.57 69.49 69.86 70.00 69.49 69.03 68.50 68.71 68.26 67.86 68.01 66.96 65.51 62.60 62.63 64.01 65.13 68.05 68.13 68.70 69.84 69.78 69.68 69.89 70.35 68.93 67.90 67.91 67.96 67.97 68.73 68.97 69.13 68.98 68.73
70.75 70.80 70.98 70.70 70.62 71.14 71.25 71.10 70.24 69.78 69.44 69.82 69.87 69.34 68.55 69.05 68.64 68.60 68.40 68.37 67.97 66.39 63.52 64.59 65.09 66.38 68.77 70.42 70.76 70.83 70.22 69.80 69.43 68.84 68.12 66.80 66.82 67.13 67.29 67.38 67.65 67.70 67.50
70.30 70.44 70.75 70.01 70.17 70.17 70.16 70.05 70.32 70.32 69.91 70.12 70.26 69.83 68.87 69.13 69.46 69.55 69.41 68.91 68.22 67.29 65.58 67.36 66.51 67.56 67.27 68.13 69.08 69.77 70.65 70.03 69.69 68.71 67.95 67.02 66.51 66.27 66.24 66.51 66.69 66.70 67.25
66.91 69.73 70.34 70.10 70.10 68.96 66.77 67.16 68.78 63.53 62.95 63.47 63.58 66.23 68.67 70.26 69.05 69.48 69.57 68.85 68.78 68.67 67.77 66.32 67.22 66.41 67.14 68.05 68.65 68.83 69.45 70.30 69.86 69.64 67.98 67.22 66.31 65.37 64.61 64.52 64.55 64.56 64.17
65.68 67.38 69.74 68.96 67.63 66.66 65.11 66.01 65.27 62.98 63.62 63.37 64.36 64.18 65.08 67.16 68.78 68.71 69.19 68.89 69.14 69.30 68.28 67.84 67.32 66.55 67.23 67.45 67.50 67.90 68.24 68.86 69.60 70.63 68.40 66.94 66.02 65.28 64.17 63.33 62.96 61.93 60.46
64.43 66.26 67.16 68.12 67.90 66.66 66.01 65.72 65.19 62.96 64.17 65.33 65.73 65.71 65.75 65.03 67.19 69.52 69.28 69.59 70.00 68.94 67.60 67.45 67.61 67.22 66.25 66.98 67.45 67.11 66.43 67.15 67.97 69.95 70.09 68.20 67.47 66.71 65.45 64.03 63.46 62.84 60.04
63.06 64.65 65.97 67.09 67.50 66.82 66.87 64.87 64.66 63.45 62.66 63.35 64.91 65.29 66.80 66.45 66.15 68.47 69.90 69.70 69.95 68.78 68.37 67.83 67.25 66.79 65.86 64.95 66.21 66.25 66.25 66.34 66.69 68.22 67.79 68.13 67.83 67.31 67.43 65.53 66.53 65.42 62.12
61.54 62.84 63.92 65.75 66.71 67.47 64.47 62.74 65.00 64.33 63.39 62.51 62.12 63.83 64.45 65.16 64.67 65.26 66.11 67.00 69.20 68.67 68.66 68.03 67.83 66.98 67.14 66.43 66.34 65.98 65.23 64.04 63.43 66.55 66.84 66.57 68.04 67.11 68.35 67.11 66.36 64.04 61.78
61.80 61.60 63.11 66.94 66.47 67.95 62.33 61.96 63.15 64.54 63.67 62.55 61.85 62.58 63.63 64.64 66.11 67.94 65.20 64.60 64.89 65.33 66.96 69.54 67.86 67.90 67.54 67.86 67.00 64.51 64.24 63.82 64.13 65.18 66.24 64.57 67.31 66.73 68.10 67.77 63.89 62.58 61.16
61.86 62.18 64.27 66.89 67.25 68.40 61.75 59.77 62.31 65.09 63.60 62.75 62.89 63.50 64.18 65.04 65.73 65.66 64.69 64.75 66.73 68.10 67.81 68.64 69.99 69.77 69.98 69.18 68.84 67.07 65.65 65.11 64.33 65.27 66.60 63.97 65.88 65.44 66.92 67.56 64.45 62.44 60.60
60.87 63.41 63.80 64.23 65.03 66.96 60.08 58.65 59.80 64.26 64.02 63.62 64.40 64.64 64.56 64.33 62.50 60.05 64.08 62.90 62.83 64.60 64.10 62.35 64.13 64.65 62.82 62.73 66.16 66.38 64.46 63.36 62.48 63.13 66.70 65.88 65.18 65.24 65.55 65.86 66.45 62.09 59.55
61.68 62.88 63.51 63.69 61.77 63.16 55.93 55.75 58.41 64.51 63.77 64.36 65.29 64.92 61.82 63.72 58.71 57.52 62.27 62.83 62.11 63.25 64.89 66.80 66.11 62.76 62.05 64.57 62.64 69.02 66.75 63.67 62.81 62.14 65.52 65.16 64.08 64.08 61.01 63.36 64.89 64.59 63.26